<?xml version="1.0" encoding="UTF-8" standalone="no" ?>
<gpx xmlns="http://www.topografix.com/GPX/1/1" xmlns:xsi="http://www.w3.org/2001/XMLSchema-instance" xsi:schemaLocation="http://www.topografix.com/GPX/1/1 http://www.topografix.com/GPX/1/1/gpx.xsd" version="1.1" creator="VisuGPX - https://www.visugpx.com">
  <metadata>
    <name>Boucle Antony - Chatenay - Igny - Bièvres</name>
    <desc><![CDATA[Boucle 24 km effectuée avec Brigitte en Février
Très scénique]]></desc>
  </metadata>
  <trk>
    <name><![CDATA[SityTrail - Boucle Antony - Chatenay - Igny - Bièvres]]></name>
    <desc><![CDATA[Boucle 24 km effectuée avec Brigitte en Février
Très scénique]]></desc>
    <trkseg>
      <trkpt lat="48.76207" lon="2.29776">
        <ele>62</ele>
        <time>2022-02-20T08:16:38.596Z</time>
      </trkpt>
      <trkpt lat="48.76209" lon="2.29778">
        <ele>65</ele>
        <time>2022-02-20T08:22:39.232Z</time>
      </trkpt>
      <trkpt lat="48.7621" lon="2.29779">
        <ele>65</ele>
        <time>2022-02-20T08:22:44.231Z</time>
      </trkpt>
      <trkpt lat="48.76215" lon="2.29778">
        <ele>65</ele>
        <time>2022-02-20T08:22:48.235Z</time>
      </trkpt>
      <trkpt lat="48.76218" lon="2.29783">
        <ele>65</ele>
        <time>2022-02-20T08:22:53.239Z</time>
      </trkpt>
      <trkpt lat="48.76218" lon="2.29792">
        <ele>62</ele>
        <time>2022-02-20T08:22:58.224Z</time>
      </trkpt>
      <trkpt lat="48.76219" lon="2.298">
        <ele>62</ele>
        <time>2022-02-20T08:23:02.239Z</time>
      </trkpt>
      <trkpt lat="48.76221" lon="2.29811">
        <ele>62</ele>
        <time>2022-02-20T08:23:06.241Z</time>
      </trkpt>
      <trkpt lat="48.76223" lon="2.29822">
        <ele>61</ele>
        <time>2022-02-20T08:23:11.239Z</time>
      </trkpt>
      <trkpt lat="48.76223" lon="2.29831">
        <ele>61</ele>
        <time>2022-02-20T08:23:15.242Z</time>
      </trkpt>
      <trkpt lat="48.76225" lon="2.29838">
        <ele>61</ele>
        <time>2022-02-20T08:23:20.237Z</time>
      </trkpt>
      <trkpt lat="48.76226" lon="2.29842">
        <ele>61</ele>
        <time>2022-02-20T08:23:25.228Z</time>
      </trkpt>
      <trkpt lat="48.76228" lon="2.29847">
        <ele>61</ele>
        <time>2022-02-20T08:23:29.233Z</time>
      </trkpt>
      <trkpt lat="48.76229" lon="2.29855">
        <ele>61</ele>
        <time>2022-02-20T08:23:33.242Z</time>
      </trkpt>
      <trkpt lat="48.7623" lon="2.29862">
        <ele>61</ele>
        <time>2022-02-20T08:23:38.246Z</time>
      </trkpt>
      <trkpt lat="48.76231" lon="2.29874">
        <ele>61</ele>
        <time>2022-02-20T08:23:43.236Z</time>
      </trkpt>
      <trkpt lat="48.76232" lon="2.2988">
        <ele>60</ele>
        <time>2022-02-20T08:23:47.247Z</time>
      </trkpt>
      <trkpt lat="48.76233" lon="2.29891">
        <ele>60</ele>
        <time>2022-02-20T08:23:52.237Z</time>
      </trkpt>
      <trkpt lat="48.76234" lon="2.299">
        <ele>60</ele>
        <time>2022-02-20T08:23:56.251Z</time>
      </trkpt>
      <trkpt lat="48.76236" lon="2.29907">
        <ele>60</ele>
        <time>2022-02-20T08:24:01.248Z</time>
      </trkpt>
      <trkpt lat="48.76238" lon="2.29916">
        <ele>60</ele>
        <time>2022-02-20T08:24:06.248Z</time>
      </trkpt>
      <trkpt lat="48.76241" lon="2.29922">
        <ele>60</ele>
        <time>2022-02-20T08:24:10.244Z</time>
      </trkpt>
      <trkpt lat="48.76244" lon="2.29932">
        <ele>60</ele>
        <time>2022-02-20T08:24:15.246Z</time>
      </trkpt>
      <trkpt lat="48.76247" lon="2.29939">
        <ele>60</ele>
        <time>2022-02-20T08:24:19.255Z</time>
      </trkpt>
      <trkpt lat="48.76249" lon="2.2995">
        <ele>60</ele>
        <time>2022-02-20T08:24:24.243Z</time>
      </trkpt>
      <trkpt lat="48.76252" lon="2.29959">
        <ele>59</ele>
        <time>2022-02-20T08:24:29.243Z</time>
      </trkpt>
      <trkpt lat="48.76256" lon="2.29959">
        <ele>59</ele>
        <time>2022-02-20T08:24:33.244Z</time>
      </trkpt>
      <trkpt lat="48.7626" lon="2.29959">
        <ele>59</ele>
        <time>2022-02-20T08:24:38.239Z</time>
      </trkpt>
      <trkpt lat="48.76264" lon="2.29964">
        <ele>59</ele>
        <time>2022-02-20T08:24:43.229Z</time>
      </trkpt>
      <trkpt lat="48.76266" lon="2.29972">
        <ele>60</ele>
        <time>2022-02-20T08:24:47.236Z</time>
      </trkpt>
      <trkpt lat="48.76268" lon="2.29979">
        <ele>60</ele>
        <time>2022-02-20T08:24:51.242Z</time>
      </trkpt>
      <trkpt lat="48.76269" lon="2.2999">
        <ele>60</ele>
        <time>2022-02-20T08:24:56.223Z</time>
      </trkpt>
      <trkpt lat="48.76271" lon="2.3">
        <ele>60</ele>
        <time>2022-02-20T08:25:01.230Z</time>
      </trkpt>
      <trkpt lat="48.76272" lon="2.30011">
        <ele>60</ele>
        <time>2022-02-20T08:25:06.226Z</time>
      </trkpt>
      <trkpt lat="48.76273" lon="2.30019">
        <ele>59</ele>
        <time>2022-02-20T08:25:11.226Z</time>
      </trkpt>
      <trkpt lat="48.76274" lon="2.30024">
        <ele>59</ele>
        <time>2022-02-20T08:25:15.231Z</time>
      </trkpt>
      <trkpt lat="48.76275" lon="2.30032">
        <ele>59</ele>
        <time>2022-02-20T08:25:20.226Z</time>
      </trkpt>
      <trkpt lat="48.76275" lon="2.30038">
        <ele>59</ele>
        <time>2022-02-20T08:25:24.228Z</time>
      </trkpt>
      <trkpt lat="48.76277" lon="2.30051">
        <ele>59</ele>
        <time>2022-02-20T08:26:29.229Z</time>
      </trkpt>
      <trkpt lat="48.7627" lon="2.30048">
        <ele>59</ele>
        <time>2022-02-20T08:26:34.231Z</time>
      </trkpt>
      <trkpt lat="48.76266" lon="2.30045">
        <ele>59</ele>
        <time>2022-02-20T08:26:38.235Z</time>
      </trkpt>
      <trkpt lat="48.7626" lon="2.30042">
        <ele>58</ele>
        <time>2022-02-20T08:26:43.234Z</time>
      </trkpt>
      <trkpt lat="48.76256" lon="2.30035">
        <ele>58</ele>
        <time>2022-02-20T08:26:48.240Z</time>
      </trkpt>
      <trkpt lat="48.76253" lon="2.30034">
        <ele>58</ele>
        <time>2022-02-20T08:27:31.244Z</time>
      </trkpt>
      <trkpt lat="48.76253" lon="2.30034">
        <ele>58</ele>
        <time>2022-02-20T08:27:36.232Z</time>
      </trkpt>
      <trkpt lat="48.76256" lon="2.30037">
        <ele>58</ele>
        <time>2022-02-20T08:27:40.238Z</time>
      </trkpt>
      <trkpt lat="48.76253" lon="2.30039">
        <ele>58</ele>
        <time>2022-02-20T08:27:45.240Z</time>
      </trkpt>
      <trkpt lat="48.76252" lon="2.30046">
        <ele>57</ele>
        <time>2022-02-20T08:27:50.237Z</time>
      </trkpt>
      <trkpt lat="48.7625" lon="2.30041">
        <ele>58</ele>
        <time>2022-02-20T08:28:18.230Z</time>
      </trkpt>
      <trkpt lat="48.7625" lon="2.30038">
        <ele>58</ele>
        <time>2022-02-20T08:28:22.232Z</time>
      </trkpt>
      <trkpt lat="48.76251" lon="2.30037">
        <ele>58</ele>
        <time>2022-02-20T08:28:27.231Z</time>
      </trkpt>
      <trkpt lat="48.76253" lon="2.30035">
        <ele>58</ele>
        <time>2022-02-20T08:28:31.232Z</time>
      </trkpt>
      <trkpt lat="48.76257" lon="2.30041">
        <ele>58</ele>
        <time>2022-02-20T08:28:35.238Z</time>
      </trkpt>
      <trkpt lat="48.76261" lon="2.30046">
        <ele>57</ele>
        <time>2022-02-20T08:28:39.244Z</time>
      </trkpt>
      <trkpt lat="48.76268" lon="2.3005">
        <ele>59</ele>
        <time>2022-02-20T08:28:44.249Z</time>
      </trkpt>
      <trkpt lat="48.76274" lon="2.30053">
        <ele>59</ele>
        <time>2022-02-20T08:28:49.247Z</time>
      </trkpt>
      <trkpt lat="48.76276" lon="2.30058">
        <ele>59</ele>
        <time>2022-02-20T08:28:53.223Z</time>
      </trkpt>
      <trkpt lat="48.76279" lon="2.30054">
        <ele>59</ele>
        <time>2022-02-20T08:29:22.236Z</time>
      </trkpt>
      <trkpt lat="48.7628" lon="2.30057">
        <ele>59</ele>
        <time>2022-02-20T08:29:27.233Z</time>
      </trkpt>
      <trkpt lat="48.76286" lon="2.30063">
        <ele>59</ele>
        <time>2022-02-20T08:29:32.233Z</time>
      </trkpt>
      <trkpt lat="48.76289" lon="2.30066">
        <ele>59</ele>
        <time>2022-02-20T08:29:36.252Z</time>
      </trkpt>
      <trkpt lat="48.76294" lon="2.30066">
        <ele>56</ele>
        <time>2022-02-20T08:29:41.239Z</time>
      </trkpt>
      <trkpt lat="48.76298" lon="2.30063">
        <ele>56</ele>
        <time>2022-02-20T08:29:46.226Z</time>
      </trkpt>
      <trkpt lat="48.76298" lon="2.30063">
        <ele>56</ele>
        <time>2022-02-20T08:29:50.343Z</time>
      </trkpt>
      <trkpt lat="48.76293" lon="2.30062">
        <ele>56</ele>
        <time>2022-02-20T08:29:55.226Z</time>
      </trkpt>
      <trkpt lat="48.76289" lon="2.30061">
        <ele>59</ele>
        <time>2022-02-20T08:29:59.228Z</time>
      </trkpt>
      <trkpt lat="48.76283" lon="2.3006">
        <ele>59</ele>
        <time>2022-02-20T08:30:04.226Z</time>
      </trkpt>
      <trkpt lat="48.76278" lon="2.3006">
        <ele>59</ele>
        <time>2022-02-20T08:31:29.239Z</time>
      </trkpt>
      <trkpt lat="48.76284" lon="2.30062">
        <ele>59</ele>
        <time>2022-02-20T08:31:33.234Z</time>
      </trkpt>
      <trkpt lat="48.7629" lon="2.30061">
        <ele>59</ele>
        <time>2022-02-20T08:31:38.231Z</time>
      </trkpt>
      <trkpt lat="48.76293" lon="2.30056">
        <ele>56</ele>
        <time>2022-02-20T08:31:42.238Z</time>
      </trkpt>
      <trkpt lat="48.76297" lon="2.30045">
        <ele>56</ele>
        <time>2022-02-20T08:31:47.234Z</time>
      </trkpt>
      <trkpt lat="48.76299" lon="2.30035">
        <ele>57</ele>
        <time>2022-02-20T08:31:51.229Z</time>
      </trkpt>
      <trkpt lat="48.76301" lon="2.30027">
        <ele>57</ele>
        <time>2022-02-20T08:31:56.221Z</time>
      </trkpt>
      <trkpt lat="48.76303" lon="2.30023">
        <ele>57</ele>
        <time>2022-02-20T08:32:00.247Z</time>
      </trkpt>
      <trkpt lat="48.76306" lon="2.30014">
        <ele>57</ele>
        <time>2022-02-20T08:32:05.230Z</time>
      </trkpt>
      <trkpt lat="48.76309" lon="2.3001">
        <ele>59</ele>
        <time>2022-02-20T08:32:10.228Z</time>
      </trkpt>
      <trkpt lat="48.76312" lon="2.30003">
        <ele>59</ele>
        <time>2022-02-20T08:32:14.239Z</time>
      </trkpt>
      <trkpt lat="48.76315" lon="2.29992">
        <ele>59</ele>
        <time>2022-02-20T08:32:19.226Z</time>
      </trkpt>
      <trkpt lat="48.76318" lon="2.29984">
        <ele>59</ele>
        <time>2022-02-20T08:32:24.226Z</time>
      </trkpt>
      <trkpt lat="48.7632" lon="2.29978">
        <ele>58</ele>
        <time>2022-02-20T08:32:29.231Z</time>
      </trkpt>
      <trkpt lat="48.76323" lon="2.29967">
        <ele>58</ele>
        <time>2022-02-20T08:32:34.231Z</time>
      </trkpt>
      <trkpt lat="48.76328" lon="2.29964">
        <ele>58</ele>
        <time>2022-02-20T08:32:39.226Z</time>
      </trkpt>
      <trkpt lat="48.76333" lon="2.29961">
        <ele>58</ele>
        <time>2022-02-20T08:32:43.311Z</time>
      </trkpt>
      <trkpt lat="48.7634" lon="2.29958">
        <ele>60</ele>
        <time>2022-02-20T08:32:48.233Z</time>
      </trkpt>
      <trkpt lat="48.76346" lon="2.29955">
        <ele>60</ele>
        <time>2022-02-20T08:32:52.228Z</time>
      </trkpt>
      <trkpt lat="48.76353" lon="2.29948">
        <ele>60</ele>
        <time>2022-02-20T08:32:57.227Z</time>
      </trkpt>
      <trkpt lat="48.76354" lon="2.29946">
        <ele>60</ele>
        <time>2022-02-20T08:33:02.231Z</time>
      </trkpt>
      <trkpt lat="48.76358" lon="2.29948">
        <ele>60</ele>
        <time>2022-02-20T08:33:07.229Z</time>
      </trkpt>
      <trkpt lat="48.76367" lon="2.29947">
        <ele>60</ele>
        <time>2022-02-20T08:33:12.233Z</time>
      </trkpt>
      <trkpt lat="48.76374" lon="2.29944">
        <ele>60</ele>
        <time>2022-02-20T08:33:17.219Z</time>
      </trkpt>
      <trkpt lat="48.76377" lon="2.29939">
        <ele>58</ele>
        <time>2022-02-20T08:33:21.223Z</time>
      </trkpt>
      <trkpt lat="48.76381" lon="2.29936">
        <ele>58</ele>
        <time>2022-02-20T08:33:26.223Z</time>
      </trkpt>
      <trkpt lat="48.76388" lon="2.29935">
        <ele>58</ele>
        <time>2022-02-20T08:33:31.232Z</time>
      </trkpt>
      <trkpt lat="48.76394" lon="2.29935">
        <ele>58</ele>
        <time>2022-02-20T08:33:35.225Z</time>
      </trkpt>
      <trkpt lat="48.76401" lon="2.29934">
        <ele>58</ele>
        <time>2022-02-20T08:33:40.230Z</time>
      </trkpt>
      <trkpt lat="48.76406" lon="2.29932">
        <ele>58</ele>
        <time>2022-02-20T08:33:44.234Z</time>
      </trkpt>
      <trkpt lat="48.76411" lon="2.29932">
        <ele>58</ele>
        <time>2022-02-20T08:33:48.243Z</time>
      </trkpt>
      <trkpt lat="48.76417" lon="2.29931">
        <ele>58</ele>
        <time>2022-02-20T08:33:53.230Z</time>
      </trkpt>
      <trkpt lat="48.76425" lon="2.29929">
        <ele>59</ele>
        <time>2022-02-20T08:33:58.229Z</time>
      </trkpt>
      <trkpt lat="48.7643" lon="2.29928">
        <ele>59</ele>
        <time>2022-02-20T08:34:02.229Z</time>
      </trkpt>
      <trkpt lat="48.76438" lon="2.29929">
        <ele>62</ele>
        <time>2022-02-20T08:34:07.230Z</time>
      </trkpt>
      <trkpt lat="48.76443" lon="2.29934">
        <ele>60</ele>
        <time>2022-02-20T08:34:12.233Z</time>
      </trkpt>
      <trkpt lat="48.76448" lon="2.29937">
        <ele>60</ele>
        <time>2022-02-20T08:34:17.234Z</time>
      </trkpt>
      <trkpt lat="48.76455" lon="2.29937">
        <ele>60</ele>
        <time>2022-02-20T08:34:22.235Z</time>
      </trkpt>
      <trkpt lat="48.76461" lon="2.29941">
        <ele>59</ele>
        <time>2022-02-20T08:34:27.232Z</time>
      </trkpt>
      <trkpt lat="48.76465" lon="2.29947">
        <ele>59</ele>
        <time>2022-02-20T08:34:31.237Z</time>
      </trkpt>
      <trkpt lat="48.76469" lon="2.29952">
        <ele>59</ele>
        <time>2022-02-20T08:34:35.231Z</time>
      </trkpt>
      <trkpt lat="48.76475" lon="2.29956">
        <ele>59</ele>
        <time>2022-02-20T08:34:40.227Z</time>
      </trkpt>
      <trkpt lat="48.7648" lon="2.29957">
        <ele>59</ele>
        <time>2022-02-20T08:34:44.239Z</time>
      </trkpt>
      <trkpt lat="48.76486" lon="2.29957">
        <ele>59</ele>
        <time>2022-02-20T08:34:49.232Z</time>
      </trkpt>
      <trkpt lat="48.76491" lon="2.29958">
        <ele>54</ele>
        <time>2022-02-20T08:34:53.230Z</time>
      </trkpt>
      <trkpt lat="48.76495" lon="2.29956">
        <ele>54</ele>
        <time>2022-02-20T08:34:57.239Z</time>
      </trkpt>
      <trkpt lat="48.76501" lon="2.29954">
        <ele>54</ele>
        <time>2022-02-20T08:35:02.245Z</time>
      </trkpt>
      <trkpt lat="48.76508" lon="2.29952">
        <ele>54</ele>
        <time>2022-02-20T08:35:07.235Z</time>
      </trkpt>
      <trkpt lat="48.76514" lon="2.29951">
        <ele>55</ele>
        <time>2022-02-20T08:35:12.224Z</time>
      </trkpt>
      <trkpt lat="48.7652" lon="2.2995">
        <ele>55</ele>
        <time>2022-02-20T08:35:16.229Z</time>
      </trkpt>
      <trkpt lat="48.76527" lon="2.29948">
        <ele>55</ele>
        <time>2022-02-20T08:35:21.238Z</time>
      </trkpt>
      <trkpt lat="48.76534" lon="2.29946">
        <ele>55</ele>
        <time>2022-02-20T08:35:26.229Z</time>
      </trkpt>
      <trkpt lat="48.76541" lon="2.29944">
        <ele>55</ele>
        <time>2022-02-20T08:35:31.234Z</time>
      </trkpt>
      <trkpt lat="48.76548" lon="2.29941">
        <ele>57</ele>
        <time>2022-02-20T08:35:36.230Z</time>
      </trkpt>
      <trkpt lat="48.76554" lon="2.29939">
        <ele>57</ele>
        <time>2022-02-20T08:35:41.227Z</time>
      </trkpt>
      <trkpt lat="48.76559" lon="2.29937">
        <ele>57</ele>
        <time>2022-02-20T08:35:45.235Z</time>
      </trkpt>
      <trkpt lat="48.76566" lon="2.29933">
        <ele>57</ele>
        <time>2022-02-20T08:35:50.234Z</time>
      </trkpt>
      <trkpt lat="48.76571" lon="2.29931">
        <ele>56</ele>
        <time>2022-02-20T08:35:54.233Z</time>
      </trkpt>
      <trkpt lat="48.76577" lon="2.29932">
        <ele>56</ele>
        <time>2022-02-20T08:35:58.237Z</time>
      </trkpt>
      <trkpt lat="48.76585" lon="2.29929">
        <ele>56</ele>
        <time>2022-02-20T08:36:03.228Z</time>
      </trkpt>
      <trkpt lat="48.76591" lon="2.29927">
        <ele>56</ele>
        <time>2022-02-20T08:36:08.232Z</time>
      </trkpt>
      <trkpt lat="48.76596" lon="2.29925">
        <ele>56</ele>
        <time>2022-02-20T08:36:13.226Z</time>
      </trkpt>
      <trkpt lat="48.766" lon="2.29922">
        <ele>55</ele>
        <time>2022-02-20T08:36:18.218Z</time>
      </trkpt>
      <trkpt lat="48.76605" lon="2.2992">
        <ele>55</ele>
        <time>2022-02-20T08:36:23.228Z</time>
      </trkpt>
      <trkpt lat="48.76611" lon="2.29918">
        <ele>55</ele>
        <time>2022-02-20T08:36:28.216Z</time>
      </trkpt>
      <trkpt lat="48.76615" lon="2.29916">
        <ele>55</ele>
        <time>2022-02-20T08:36:32.220Z</time>
      </trkpt>
      <trkpt lat="48.7662" lon="2.29915">
        <ele>55</ele>
        <time>2022-02-20T08:36:36.224Z</time>
      </trkpt>
      <trkpt lat="48.76626" lon="2.29912">
        <ele>56</ele>
        <time>2022-02-20T08:36:41.226Z</time>
      </trkpt>
      <trkpt lat="48.76632" lon="2.29908">
        <ele>56</ele>
        <time>2022-02-20T08:36:46.239Z</time>
      </trkpt>
      <trkpt lat="48.76638" lon="2.29906">
        <ele>56</ele>
        <time>2022-02-20T08:36:51.222Z</time>
      </trkpt>
      <trkpt lat="48.76643" lon="2.29905">
        <ele>56</ele>
        <time>2022-02-20T08:36:55.216Z</time>
      </trkpt>
      <trkpt lat="48.7665" lon="2.29901">
        <ele>58</ele>
        <time>2022-02-20T08:37:00.218Z</time>
      </trkpt>
      <trkpt lat="48.76656" lon="2.29899">
        <ele>57</ele>
        <time>2022-02-20T08:37:04.229Z</time>
      </trkpt>
      <trkpt lat="48.76663" lon="2.29897">
        <ele>57</ele>
        <time>2022-02-20T08:37:09.224Z</time>
      </trkpt>
      <trkpt lat="48.76668" lon="2.29894">
        <ele>57</ele>
        <time>2022-02-20T08:37:13.232Z</time>
      </trkpt>
      <trkpt lat="48.76675" lon="2.29891">
        <ele>57</ele>
        <time>2022-02-20T08:37:18.232Z</time>
      </trkpt>
      <trkpt lat="48.76682" lon="2.29889">
        <ele>54</ele>
        <time>2022-02-20T08:37:23.223Z</time>
      </trkpt>
      <trkpt lat="48.76688" lon="2.29888">
        <ele>54</ele>
        <time>2022-02-20T08:37:28.222Z</time>
      </trkpt>
      <trkpt lat="48.76694" lon="2.29886">
        <ele>54</ele>
        <time>2022-02-20T08:37:32.225Z</time>
      </trkpt>
      <trkpt lat="48.76698" lon="2.29884">
        <ele>54</ele>
        <time>2022-02-20T08:37:36.233Z</time>
      </trkpt>
      <trkpt lat="48.76705" lon="2.2988">
        <ele>54</ele>
        <time>2022-02-20T08:37:41.226Z</time>
      </trkpt>
      <trkpt lat="48.7671" lon="2.29878">
        <ele>55</ele>
        <time>2022-02-20T08:37:45.229Z</time>
      </trkpt>
      <trkpt lat="48.76714" lon="2.29878">
        <ele>55</ele>
        <time>2022-02-20T08:37:49.233Z</time>
      </trkpt>
      <trkpt lat="48.76721" lon="2.29878">
        <ele>55</ele>
        <time>2022-02-20T08:37:54.229Z</time>
      </trkpt>
      <trkpt lat="48.76726" lon="2.29875">
        <ele>55</ele>
        <time>2022-02-20T08:37:59.235Z</time>
      </trkpt>
      <trkpt lat="48.76731" lon="2.29872">
        <ele>54</ele>
        <time>2022-02-20T08:38:03.232Z</time>
      </trkpt>
      <trkpt lat="48.76737" lon="2.29868">
        <ele>57</ele>
        <time>2022-02-20T08:38:08.233Z</time>
      </trkpt>
      <trkpt lat="48.7674" lon="2.29863">
        <ele>57</ele>
        <time>2022-02-20T08:38:12.235Z</time>
      </trkpt>
      <trkpt lat="48.76745" lon="2.29857">
        <ele>57</ele>
        <time>2022-02-20T08:38:17.232Z</time>
      </trkpt>
      <trkpt lat="48.7675" lon="2.29851">
        <ele>57</ele>
        <time>2022-02-20T08:38:22.230Z</time>
      </trkpt>
      <trkpt lat="48.76753" lon="2.29845">
        <ele>57</ele>
        <time>2022-02-20T08:38:26.234Z</time>
      </trkpt>
      <trkpt lat="48.76756" lon="2.29838">
        <ele>57</ele>
        <time>2022-02-20T08:38:30.238Z</time>
      </trkpt>
      <trkpt lat="48.76759" lon="2.2983">
        <ele>57</ele>
        <time>2022-02-20T08:38:35.227Z</time>
      </trkpt>
      <trkpt lat="48.76761" lon="2.29824">
        <ele>57</ele>
        <time>2022-02-20T08:38:39.239Z</time>
      </trkpt>
      <trkpt lat="48.76764" lon="2.29817">
        <ele>57</ele>
        <time>2022-02-20T08:38:44.234Z</time>
      </trkpt>
      <trkpt lat="48.76769" lon="2.29811">
        <ele>57</ele>
        <time>2022-02-20T08:38:49.233Z</time>
      </trkpt>
      <trkpt lat="48.76771" lon="2.29806">
        <ele>57</ele>
        <time>2022-02-20T08:38:53.234Z</time>
      </trkpt>
      <trkpt lat="48.76775" lon="2.29802">
        <ele>57</ele>
        <time>2022-02-20T08:38:57.239Z</time>
      </trkpt>
      <trkpt lat="48.7678" lon="2.29797">
        <ele>57</ele>
        <time>2022-02-20T08:39:02.235Z</time>
      </trkpt>
      <trkpt lat="48.76786" lon="2.29793">
        <ele>57</ele>
        <time>2022-02-20T08:39:07.236Z</time>
      </trkpt>
      <trkpt lat="48.76792" lon="2.2979">
        <ele>59</ele>
        <time>2022-02-20T08:39:12.251Z</time>
      </trkpt>
      <trkpt lat="48.76798" lon="2.29792">
        <ele>59</ele>
        <time>2022-02-20T08:39:17.230Z</time>
      </trkpt>
      <trkpt lat="48.76802" lon="2.29795">
        <ele>59</ele>
        <time>2022-02-20T08:39:21.238Z</time>
      </trkpt>
      <trkpt lat="48.76809" lon="2.29797">
        <ele>59</ele>
        <time>2022-02-20T08:39:26.227Z</time>
      </trkpt>
      <trkpt lat="48.76815" lon="2.29801">
        <ele>59</ele>
        <time>2022-02-20T08:39:31.242Z</time>
      </trkpt>
      <trkpt lat="48.7682" lon="2.29805">
        <ele>59</ele>
        <time>2022-02-20T08:39:36.236Z</time>
      </trkpt>
      <trkpt lat="48.76825" lon="2.29812">
        <ele>59</ele>
        <time>2022-02-20T08:39:41.230Z</time>
      </trkpt>
      <trkpt lat="48.76828" lon="2.29817">
        <ele>59</ele>
        <time>2022-02-20T08:39:45.234Z</time>
      </trkpt>
      <trkpt lat="48.76833" lon="2.29823">
        <ele>60</ele>
        <time>2022-02-20T08:39:50.234Z</time>
      </trkpt>
      <trkpt lat="48.76839" lon="2.29826">
        <ele>60</ele>
        <time>2022-02-20T08:39:55.240Z</time>
      </trkpt>
      <trkpt lat="48.76846" lon="2.29829">
        <ele>60</ele>
        <time>2022-02-20T08:40:00.240Z</time>
      </trkpt>
      <trkpt lat="48.76853" lon="2.2983">
        <ele>58</ele>
        <time>2022-02-20T08:40:05.238Z</time>
      </trkpt>
      <trkpt lat="48.7686" lon="2.29829">
        <ele>58</ele>
        <time>2022-02-20T08:40:10.233Z</time>
      </trkpt>
      <trkpt lat="48.76867" lon="2.29828">
        <ele>58</ele>
        <time>2022-02-20T08:40:15.232Z</time>
      </trkpt>
      <trkpt lat="48.76873" lon="2.29825">
        <ele>58</ele>
        <time>2022-02-20T08:40:20.230Z</time>
      </trkpt>
      <trkpt lat="48.76877" lon="2.29822">
        <ele>58</ele>
        <time>2022-02-20T08:40:24.234Z</time>
      </trkpt>
      <trkpt lat="48.76884" lon="2.29819">
        <ele>59</ele>
        <time>2022-02-20T08:40:29.235Z</time>
      </trkpt>
      <trkpt lat="48.76891" lon="2.29817">
        <ele>59</ele>
        <time>2022-02-20T08:40:34.242Z</time>
      </trkpt>
      <trkpt lat="48.76896" lon="2.29815">
        <ele>59</ele>
        <time>2022-02-20T08:40:38.241Z</time>
      </trkpt>
      <trkpt lat="48.76902" lon="2.29812">
        <ele>59</ele>
        <time>2022-02-20T08:40:43.234Z</time>
      </trkpt>
      <trkpt lat="48.76907" lon="2.29811">
        <ele>58</ele>
        <time>2022-02-20T08:40:47.234Z</time>
      </trkpt>
      <trkpt lat="48.76914" lon="2.29807">
        <ele>58</ele>
        <time>2022-02-20T08:40:52.237Z</time>
      </trkpt>
      <trkpt lat="48.76921" lon="2.29805">
        <ele>58</ele>
        <time>2022-02-20T08:40:57.223Z</time>
      </trkpt>
      <trkpt lat="48.76926" lon="2.29802">
        <ele>58</ele>
        <time>2022-02-20T08:41:01.232Z</time>
      </trkpt>
      <trkpt lat="48.76932" lon="2.298">
        <ele>58</ele>
        <time>2022-02-20T08:41:06.230Z</time>
      </trkpt>
      <trkpt lat="48.76938" lon="2.29798">
        <ele>58</ele>
        <time>2022-02-20T08:41:10.234Z</time>
      </trkpt>
      <trkpt lat="48.76944" lon="2.29796">
        <ele>58</ele>
        <time>2022-02-20T08:41:14.233Z</time>
      </trkpt>
      <trkpt lat="48.76951" lon="2.29794">
        <ele>58</ele>
        <time>2022-02-20T08:41:19.231Z</time>
      </trkpt>
      <trkpt lat="48.76956" lon="2.29792">
        <ele>58</ele>
        <time>2022-02-20T08:41:23.231Z</time>
      </trkpt>
      <trkpt lat="48.76963" lon="2.2979">
        <ele>62</ele>
        <time>2022-02-20T08:41:28.231Z</time>
      </trkpt>
      <trkpt lat="48.76969" lon="2.29788">
        <ele>62</ele>
        <time>2022-02-20T08:41:33.229Z</time>
      </trkpt>
      <trkpt lat="48.76976" lon="2.29785">
        <ele>62</ele>
        <time>2022-02-20T08:41:38.235Z</time>
      </trkpt>
      <trkpt lat="48.76983" lon="2.29782">
        <ele>62</ele>
        <time>2022-02-20T08:41:43.230Z</time>
      </trkpt>
      <trkpt lat="48.76987" lon="2.29781">
        <ele>60</ele>
        <time>2022-02-20T08:41:47.235Z</time>
      </trkpt>
      <trkpt lat="48.76993" lon="2.29778">
        <ele>60</ele>
        <time>2022-02-20T08:41:52.235Z</time>
      </trkpt>
      <trkpt lat="48.77" lon="2.29775">
        <ele>60</ele>
        <time>2022-02-20T08:41:57.229Z</time>
      </trkpt>
      <trkpt lat="48.77006" lon="2.29773">
        <ele>60</ele>
        <time>2022-02-20T08:42:02.231Z</time>
      </trkpt>
      <trkpt lat="48.77011" lon="2.29771">
        <ele>60</ele>
        <time>2022-02-20T08:42:06.226Z</time>
      </trkpt>
      <trkpt lat="48.77019" lon="2.29769">
        <ele>56</ele>
        <time>2022-02-20T08:42:11.226Z</time>
      </trkpt>
      <trkpt lat="48.77024" lon="2.29767">
        <ele>56</ele>
        <time>2022-02-20T08:42:15.231Z</time>
      </trkpt>
      <trkpt lat="48.7703" lon="2.29765">
        <ele>56</ele>
        <time>2022-02-20T08:42:20.229Z</time>
      </trkpt>
      <trkpt lat="48.77036" lon="2.29763">
        <ele>59</ele>
        <time>2022-02-20T08:42:25.242Z</time>
      </trkpt>
      <trkpt lat="48.77042" lon="2.29761">
        <ele>59</ele>
        <time>2022-02-20T08:42:30.231Z</time>
      </trkpt>
      <trkpt lat="48.77049" lon="2.29758">
        <ele>59</ele>
        <time>2022-02-20T08:42:35.235Z</time>
      </trkpt>
      <trkpt lat="48.77055" lon="2.29757">
        <ele>59</ele>
        <time>2022-02-20T08:42:40.228Z</time>
      </trkpt>
      <trkpt lat="48.7706" lon="2.29756">
        <ele>59</ele>
        <time>2022-02-20T08:42:44.231Z</time>
      </trkpt>
      <trkpt lat="48.77066" lon="2.29754">
        <ele>59</ele>
        <time>2022-02-20T08:42:49.237Z</time>
      </trkpt>
      <trkpt lat="48.77073" lon="2.29751">
        <ele>61</ele>
        <time>2022-02-20T08:42:54.230Z</time>
      </trkpt>
      <trkpt lat="48.77078" lon="2.2975">
        <ele>61</ele>
        <time>2022-02-20T08:42:59.236Z</time>
      </trkpt>
      <trkpt lat="48.77084" lon="2.29747">
        <ele>61</ele>
        <time>2022-02-20T08:43:04.238Z</time>
      </trkpt>
      <trkpt lat="48.7709" lon="2.29744">
        <ele>61</ele>
        <time>2022-02-20T08:43:09.234Z</time>
      </trkpt>
      <trkpt lat="48.77094" lon="2.29743">
        <ele>61</ele>
        <time>2022-02-20T08:43:13.233Z</time>
      </trkpt>
      <trkpt lat="48.771" lon="2.29742">
        <ele>64</ele>
        <time>2022-02-20T08:43:18.222Z</time>
      </trkpt>
      <trkpt lat="48.77106" lon="2.2974">
        <ele>64</ele>
        <time>2022-02-20T08:43:23.239Z</time>
      </trkpt>
      <trkpt lat="48.7711" lon="2.29738">
        <ele>64</ele>
        <time>2022-02-20T08:43:27.247Z</time>
      </trkpt>
      <trkpt lat="48.77117" lon="2.29736">
        <ele>65</ele>
        <time>2022-02-20T08:43:32.223Z</time>
      </trkpt>
      <trkpt lat="48.77123" lon="2.29734">
        <ele>65</ele>
        <time>2022-02-20T08:43:37.234Z</time>
      </trkpt>
      <trkpt lat="48.77127" lon="2.29732">
        <ele>67</ele>
        <time>2022-02-20T08:43:42.227Z</time>
      </trkpt>
      <trkpt lat="48.77131" lon="2.2973">
        <ele>67</ele>
        <time>2022-02-20T08:43:47.229Z</time>
      </trkpt>
      <trkpt lat="48.77136" lon="2.29727">
        <ele>67</ele>
        <time>2022-02-20T08:43:52.223Z</time>
      </trkpt>
      <trkpt lat="48.77142" lon="2.29723">
        <ele>67</ele>
        <time>2022-02-20T08:43:57.223Z</time>
      </trkpt>
      <trkpt lat="48.77147" lon="2.29718">
        <ele>67</ele>
        <time>2022-02-20T08:44:02.224Z</time>
      </trkpt>
      <trkpt lat="48.77151" lon="2.29712">
        <ele>67</ele>
        <time>2022-02-20T08:44:07.224Z</time>
      </trkpt>
      <trkpt lat="48.77156" lon="2.29708">
        <ele>67</ele>
        <time>2022-02-20T08:44:12.233Z</time>
      </trkpt>
      <trkpt lat="48.77158" lon="2.29707">
        <ele>66</ele>
        <time>2022-02-20T08:44:16.235Z</time>
      </trkpt>
      <trkpt lat="48.77163" lon="2.29703">
        <ele>66</ele>
        <time>2022-02-20T08:44:21.232Z</time>
      </trkpt>
      <trkpt lat="48.77169" lon="2.297">
        <ele>66</ele>
        <time>2022-02-20T08:44:26.232Z</time>
      </trkpt>
      <trkpt lat="48.77174" lon="2.29699">
        <ele>66</ele>
        <time>2022-02-20T08:44:31.219Z</time>
      </trkpt>
      <trkpt lat="48.77179" lon="2.29698">
        <ele>66</ele>
        <time>2022-02-20T08:44:35.229Z</time>
      </trkpt>
      <trkpt lat="48.77185" lon="2.29698">
        <ele>66</ele>
        <time>2022-02-20T08:44:40.234Z</time>
      </trkpt>
      <trkpt lat="48.7719" lon="2.29698">
        <ele>66</ele>
        <time>2022-02-20T08:44:44.235Z</time>
      </trkpt>
      <trkpt lat="48.77197" lon="2.29696">
        <ele>66</ele>
        <time>2022-02-20T08:44:49.241Z</time>
      </trkpt>
      <trkpt lat="48.77204" lon="2.29694">
        <ele>66</ele>
        <time>2022-02-20T08:44:54.239Z</time>
      </trkpt>
      <trkpt lat="48.7721" lon="2.29692">
        <ele>64</ele>
        <time>2022-02-20T08:44:59.246Z</time>
      </trkpt>
      <trkpt lat="48.77218" lon="2.29687">
        <ele>64</ele>
        <time>2022-02-20T08:45:04.234Z</time>
      </trkpt>
      <trkpt lat="48.77224" lon="2.29689">
        <ele>64</ele>
        <time>2022-02-20T08:45:09.226Z</time>
      </trkpt>
      <trkpt lat="48.77231" lon="2.2969">
        <ele>64</ele>
        <time>2022-02-20T08:45:14.235Z</time>
      </trkpt>
      <trkpt lat="48.77252" lon="2.29691">
        <ele>65</ele>
        <time>2022-02-20T08:45:34.241Z</time>
      </trkpt>
      <trkpt lat="48.77253" lon="2.29694">
        <ele>65</ele>
        <time>2022-02-20T08:45:39.227Z</time>
      </trkpt>
      <trkpt lat="48.77253" lon="2.29696">
        <ele>65</ele>
        <time>2022-02-20T08:45:44.239Z</time>
      </trkpt>
      <trkpt lat="48.77254" lon="2.29696">
        <ele>65</ele>
        <time>2022-02-20T08:45:49.238Z</time>
      </trkpt>
      <trkpt lat="48.77254" lon="2.29702">
        <ele>65</ele>
        <time>2022-02-20T08:45:54.229Z</time>
      </trkpt>
      <trkpt lat="48.77251" lon="2.29706">
        <ele>65</ele>
        <time>2022-02-20T08:46:13.222Z</time>
      </trkpt>
      <trkpt lat="48.77248" lon="2.297">
        <ele>65</ele>
        <time>2022-02-20T08:46:17.227Z</time>
      </trkpt>
      <trkpt lat="48.77245" lon="2.29696">
        <ele>65</ele>
        <time>2022-02-20T08:46:21.240Z</time>
      </trkpt>
      <trkpt lat="48.77242" lon="2.2969">
        <ele>65</ele>
        <time>2022-02-20T08:46:26.232Z</time>
      </trkpt>
      <trkpt lat="48.77239" lon="2.29684">
        <ele>65</ele>
        <time>2022-02-20T08:46:30.231Z</time>
      </trkpt>
      <trkpt lat="48.77237" lon="2.29678">
        <ele>65</ele>
        <time>2022-02-20T08:46:34.242Z</time>
      </trkpt>
      <trkpt lat="48.77234" lon="2.29671">
        <ele>65</ele>
        <time>2022-02-20T08:46:39.232Z</time>
      </trkpt>
      <trkpt lat="48.77234" lon="2.29665">
        <ele>65</ele>
        <time>2022-02-20T08:46:44.232Z</time>
      </trkpt>
      <trkpt lat="48.77231" lon="2.29664">
        <ele>65</ele>
        <time>2022-02-20T08:46:49.242Z</time>
      </trkpt>
      <trkpt lat="48.7723" lon="2.29664">
        <ele>65</ele>
        <time>2022-02-20T08:46:54.242Z</time>
      </trkpt>
      <trkpt lat="48.7723" lon="2.29663">
        <ele>65</ele>
        <time>2022-02-20T08:46:59.237Z</time>
      </trkpt>
      <trkpt lat="48.77229" lon="2.29656">
        <ele>65</ele>
        <time>2022-02-20T08:47:04.225Z</time>
      </trkpt>
      <trkpt lat="48.77227" lon="2.29648">
        <ele>65</ele>
        <time>2022-02-20T08:47:09.223Z</time>
      </trkpt>
      <trkpt lat="48.7723" lon="2.29641">
        <ele>65</ele>
        <time>2022-02-20T08:47:14.311Z</time>
      </trkpt>
      <trkpt lat="48.77232" lon="2.29633">
        <ele>65</ele>
        <time>2022-02-20T08:47:19.231Z</time>
      </trkpt>
      <trkpt lat="48.77232" lon="2.29625">
        <ele>65</ele>
        <time>2022-02-20T08:47:23.236Z</time>
      </trkpt>
      <trkpt lat="48.77232" lon="2.29617">
        <ele>65</ele>
        <time>2022-02-20T08:47:28.229Z</time>
      </trkpt>
      <trkpt lat="48.77231" lon="2.2961">
        <ele>65</ele>
        <time>2022-02-20T08:47:33.228Z</time>
      </trkpt>
      <trkpt lat="48.77231" lon="2.29603">
        <ele>65</ele>
        <time>2022-02-20T08:47:38.229Z</time>
      </trkpt>
      <trkpt lat="48.77229" lon="2.29592">
        <ele>65</ele>
        <time>2022-02-20T08:47:43.226Z</time>
      </trkpt>
      <trkpt lat="48.7723" lon="2.29584">
        <ele>65</ele>
        <time>2022-02-20T08:47:47.233Z</time>
      </trkpt>
      <trkpt lat="48.77232" lon="2.29579">
        <ele>65</ele>
        <time>2022-02-20T08:47:51.388Z</time>
      </trkpt>
      <trkpt lat="48.77237" lon="2.29575">
        <ele>66</ele>
        <time>2022-02-20T08:47:56.236Z</time>
      </trkpt>
      <trkpt lat="48.77242" lon="2.29569">
        <ele>66</ele>
        <time>2022-02-20T08:48:01.238Z</time>
      </trkpt>
      <trkpt lat="48.77247" lon="2.29568">
        <ele>66</ele>
        <time>2022-02-20T08:48:06.234Z</time>
      </trkpt>
      <trkpt lat="48.77252" lon="2.29565">
        <ele>66</ele>
        <time>2022-02-20T08:48:11.228Z</time>
      </trkpt>
      <trkpt lat="48.77258" lon="2.29565">
        <ele>66</ele>
        <time>2022-02-20T08:48:16.228Z</time>
      </trkpt>
      <trkpt lat="48.77264" lon="2.29563">
        <ele>68</ele>
        <time>2022-02-20T08:48:21.233Z</time>
      </trkpt>
      <trkpt lat="48.77269" lon="2.29561">
        <ele>68</ele>
        <time>2022-02-20T08:48:26.231Z</time>
      </trkpt>
      <trkpt lat="48.77274" lon="2.2956">
        <ele>68</ele>
        <time>2022-02-20T08:48:31.240Z</time>
      </trkpt>
      <trkpt lat="48.7728" lon="2.2956">
        <ele>68</ele>
        <time>2022-02-20T08:48:36.224Z</time>
      </trkpt>
      <trkpt lat="48.77285" lon="2.2956">
        <ele>68</ele>
        <time>2022-02-20T08:48:41.225Z</time>
      </trkpt>
      <trkpt lat="48.77289" lon="2.2956">
        <ele>68</ele>
        <time>2022-02-20T08:48:46.233Z</time>
      </trkpt>
      <trkpt lat="48.77302" lon="2.2956">
        <ele>70</ele>
        <time>2022-02-20T08:49:05.230Z</time>
      </trkpt>
      <trkpt lat="48.77308" lon="2.29554">
        <ele>70</ele>
        <time>2022-02-20T08:49:10.228Z</time>
      </trkpt>
      <trkpt lat="48.77313" lon="2.2955">
        <ele>70</ele>
        <time>2022-02-20T08:49:14.228Z</time>
      </trkpt>
      <trkpt lat="48.77317" lon="2.29545">
        <ele>70</ele>
        <time>2022-02-20T08:49:19.224Z</time>
      </trkpt>
      <trkpt lat="48.77319" lon="2.29543">
        <ele>70</ele>
        <time>2022-02-20T08:49:24.237Z</time>
      </trkpt>
      <trkpt lat="48.77323" lon="2.29536">
        <ele>72</ele>
        <time>2022-02-20T08:49:28.232Z</time>
      </trkpt>
      <trkpt lat="48.77325" lon="2.29526">
        <ele>72</ele>
        <time>2022-02-20T08:49:33.224Z</time>
      </trkpt>
      <trkpt lat="48.77324" lon="2.29517">
        <ele>72</ele>
        <time>2022-02-20T08:49:38.228Z</time>
      </trkpt>
      <trkpt lat="48.77325" lon="2.29517">
        <ele>72</ele>
        <time>2022-02-20T08:49:42.237Z</time>
      </trkpt>
      <trkpt lat="48.77322" lon="2.29514">
        <ele>72</ele>
        <time>2022-02-20T08:49:47.231Z</time>
      </trkpt>
      <trkpt lat="48.7732" lon="2.29509">
        <ele>72</ele>
        <time>2022-02-20T08:49:51.229Z</time>
      </trkpt>
      <trkpt lat="48.77319" lon="2.29503">
        <ele>70</ele>
        <time>2022-02-20T08:49:56.232Z</time>
      </trkpt>
      <trkpt lat="48.77317" lon="2.29496">
        <ele>70</ele>
        <time>2022-02-20T08:50:00.233Z</time>
      </trkpt>
      <trkpt lat="48.77315" lon="2.29487">
        <ele>70</ele>
        <time>2022-02-20T08:50:05.229Z</time>
      </trkpt>
      <trkpt lat="48.77314" lon="2.29478">
        <ele>69</ele>
        <time>2022-02-20T08:50:10.237Z</time>
      </trkpt>
      <trkpt lat="48.77313" lon="2.29469">
        <ele>69</ele>
        <time>2022-02-20T08:50:15.227Z</time>
      </trkpt>
      <trkpt lat="48.77311" lon="2.29462">
        <ele>69</ele>
        <time>2022-02-20T08:50:19.234Z</time>
      </trkpt>
      <trkpt lat="48.7731" lon="2.29453">
        <ele>68</ele>
        <time>2022-02-20T08:50:24.222Z</time>
      </trkpt>
      <trkpt lat="48.77308" lon="2.29445">
        <ele>68</ele>
        <time>2022-02-20T08:50:28.227Z</time>
      </trkpt>
      <trkpt lat="48.77307" lon="2.29436">
        <ele>68</ele>
        <time>2022-02-20T08:50:33.231Z</time>
      </trkpt>
      <trkpt lat="48.77306" lon="2.29427">
        <ele>68</ele>
        <time>2022-02-20T08:50:38.218Z</time>
      </trkpt>
      <trkpt lat="48.77304" lon="2.2942">
        <ele>68</ele>
        <time>2022-02-20T08:50:42.225Z</time>
      </trkpt>
      <trkpt lat="48.77303" lon="2.2941">
        <ele>68</ele>
        <time>2022-02-20T08:50:47.230Z</time>
      </trkpt>
      <trkpt lat="48.77301" lon="2.29401">
        <ele>67</ele>
        <time>2022-02-20T08:50:52.237Z</time>
      </trkpt>
      <trkpt lat="48.773" lon="2.29392">
        <ele>67</ele>
        <time>2022-02-20T08:50:57.233Z</time>
      </trkpt>
      <trkpt lat="48.77299" lon="2.29384">
        <ele>67</ele>
        <time>2022-02-20T08:51:01.234Z</time>
      </trkpt>
      <trkpt lat="48.77297" lon="2.29374">
        <ele>66</ele>
        <time>2022-02-20T08:51:06.227Z</time>
      </trkpt>
      <trkpt lat="48.77295" lon="2.29366">
        <ele>66</ele>
        <time>2022-02-20T08:51:11.222Z</time>
      </trkpt>
      <trkpt lat="48.77293" lon="2.29357">
        <ele>66</ele>
        <time>2022-02-20T08:51:16.227Z</time>
      </trkpt>
      <trkpt lat="48.77292" lon="2.29349">
        <ele>66</ele>
        <time>2022-02-20T08:51:20.227Z</time>
      </trkpt>
      <trkpt lat="48.77291" lon="2.2934">
        <ele>65</ele>
        <time>2022-02-20T08:51:25.228Z</time>
      </trkpt>
      <trkpt lat="48.77289" lon="2.2933">
        <ele>65</ele>
        <time>2022-02-20T08:51:30.233Z</time>
      </trkpt>
      <trkpt lat="48.77287" lon="2.29321">
        <ele>65</ele>
        <time>2022-02-20T08:51:35.233Z</time>
      </trkpt>
      <trkpt lat="48.77285" lon="2.29312">
        <ele>64</ele>
        <time>2022-02-20T08:51:39.237Z</time>
      </trkpt>
      <trkpt lat="48.77284" lon="2.29302">
        <ele>64</ele>
        <time>2022-02-20T08:51:44.231Z</time>
      </trkpt>
      <trkpt lat="48.77282" lon="2.29292">
        <ele>64</ele>
        <time>2022-02-20T08:51:49.233Z</time>
      </trkpt>
      <trkpt lat="48.77281" lon="2.29283">
        <ele>63</ele>
        <time>2022-02-20T08:51:54.233Z</time>
      </trkpt>
      <trkpt lat="48.7728" lon="2.29276">
        <ele>63</ele>
        <time>2022-02-20T08:51:58.240Z</time>
      </trkpt>
      <trkpt lat="48.77276" lon="2.29268">
        <ele>63</ele>
        <time>2022-02-20T08:52:03.234Z</time>
      </trkpt>
      <trkpt lat="48.77276" lon="2.29259">
        <ele>63</ele>
        <time>2022-02-20T08:52:08.241Z</time>
      </trkpt>
      <trkpt lat="48.77274" lon="2.2925">
        <ele>63</ele>
        <time>2022-02-20T08:52:13.388Z</time>
      </trkpt>
      <trkpt lat="48.77273" lon="2.2924">
        <ele>63</ele>
        <time>2022-02-20T08:52:18.226Z</time>
      </trkpt>
      <trkpt lat="48.77271" lon="2.29231">
        <ele>63</ele>
        <time>2022-02-20T08:52:23.225Z</time>
      </trkpt>
      <trkpt lat="48.7727" lon="2.29221">
        <ele>63</ele>
        <time>2022-02-20T08:52:28.224Z</time>
      </trkpt>
      <trkpt lat="48.77269" lon="2.29214">
        <ele>63</ele>
        <time>2022-02-20T08:52:32.231Z</time>
      </trkpt>
      <trkpt lat="48.77268" lon="2.29204">
        <ele>63</ele>
        <time>2022-02-20T08:52:37.236Z</time>
      </trkpt>
      <trkpt lat="48.77266" lon="2.29195">
        <ele>63</ele>
        <time>2022-02-20T08:52:42.228Z</time>
      </trkpt>
      <trkpt lat="48.77266" lon="2.29187">
        <ele>63</ele>
        <time>2022-02-20T08:52:46.230Z</time>
      </trkpt>
      <trkpt lat="48.77265" lon="2.29179">
        <ele>64</ele>
        <time>2022-02-20T08:52:50.231Z</time>
      </trkpt>
      <trkpt lat="48.77263" lon="2.2917">
        <ele>68</ele>
        <time>2022-02-20T08:52:55.237Z</time>
      </trkpt>
      <trkpt lat="48.77262" lon="2.29161">
        <ele>68</ele>
        <time>2022-02-20T08:53:00.237Z</time>
      </trkpt>
      <trkpt lat="48.77261" lon="2.29151">
        <ele>68</ele>
        <time>2022-02-20T08:53:05.232Z</time>
      </trkpt>
      <trkpt lat="48.77259" lon="2.29142">
        <ele>68</ele>
        <time>2022-02-20T08:53:10.231Z</time>
      </trkpt>
      <trkpt lat="48.77258" lon="2.29135">
        <ele>68</ele>
        <time>2022-02-20T08:53:14.236Z</time>
      </trkpt>
      <trkpt lat="48.77257" lon="2.29125">
        <ele>68</ele>
        <time>2022-02-20T08:53:19.236Z</time>
      </trkpt>
      <trkpt lat="48.77255" lon="2.29117">
        <ele>67</ele>
        <time>2022-02-20T08:53:24.221Z</time>
      </trkpt>
      <trkpt lat="48.77254" lon="2.29107">
        <ele>67</ele>
        <time>2022-02-20T08:53:29.232Z</time>
      </trkpt>
      <trkpt lat="48.77253" lon="2.291">
        <ele>67</ele>
        <time>2022-02-20T08:53:33.230Z</time>
      </trkpt>
      <trkpt lat="48.77252" lon="2.29092">
        <ele>65</ele>
        <time>2022-02-20T08:53:37.235Z</time>
      </trkpt>
      <trkpt lat="48.7725" lon="2.29083">
        <ele>65</ele>
        <time>2022-02-20T08:53:42.245Z</time>
      </trkpt>
      <trkpt lat="48.77249" lon="2.29074">
        <ele>65</ele>
        <time>2022-02-20T08:53:47.234Z</time>
      </trkpt>
      <trkpt lat="48.77248" lon="2.29066">
        <ele>63</ele>
        <time>2022-02-20T08:53:51.351Z</time>
      </trkpt>
      <trkpt lat="48.77248" lon="2.29057">
        <ele>63</ele>
        <time>2022-02-20T08:53:56.230Z</time>
      </trkpt>
      <trkpt lat="48.77247" lon="2.29049">
        <ele>63</ele>
        <time>2022-02-20T08:54:00.233Z</time>
      </trkpt>
      <trkpt lat="48.77247" lon="2.29042">
        <ele>63</ele>
        <time>2022-02-20T08:54:04.230Z</time>
      </trkpt>
      <trkpt lat="48.77245" lon="2.29033">
        <ele>63</ele>
        <time>2022-02-20T08:54:09.232Z</time>
      </trkpt>
      <trkpt lat="48.77244" lon="2.29024">
        <ele>63</ele>
        <time>2022-02-20T08:54:14.224Z</time>
      </trkpt>
      <trkpt lat="48.77243" lon="2.29014">
        <ele>63</ele>
        <time>2022-02-20T08:54:19.232Z</time>
      </trkpt>
      <trkpt lat="48.77242" lon="2.29007">
        <ele>63</ele>
        <time>2022-02-20T08:54:23.230Z</time>
      </trkpt>
      <trkpt lat="48.77241" lon="2.28999">
        <ele>63</ele>
        <time>2022-02-20T08:54:28.242Z</time>
      </trkpt>
      <trkpt lat="48.7724" lon="2.28992">
        <ele>63</ele>
        <time>2022-02-20T08:54:33.245Z</time>
      </trkpt>
      <trkpt lat="48.7724" lon="2.28983">
        <ele>65</ele>
        <time>2022-02-20T08:54:38.224Z</time>
      </trkpt>
      <trkpt lat="48.77238" lon="2.28976">
        <ele>65</ele>
        <time>2022-02-20T08:54:42.232Z</time>
      </trkpt>
      <trkpt lat="48.77238" lon="2.28967">
        <ele>65</ele>
        <time>2022-02-20T08:54:47.228Z</time>
      </trkpt>
      <trkpt lat="48.77236" lon="2.28959">
        <ele>65</ele>
        <time>2022-02-20T08:54:51.233Z</time>
      </trkpt>
      <trkpt lat="48.77235" lon="2.2895">
        <ele>72</ele>
        <time>2022-02-20T08:54:56.233Z</time>
      </trkpt>
      <trkpt lat="48.77234" lon="2.28941">
        <ele>72</ele>
        <time>2022-02-20T08:55:01.225Z</time>
      </trkpt>
      <trkpt lat="48.77233" lon="2.28932">
        <ele>72</ele>
        <time>2022-02-20T08:55:06.230Z</time>
      </trkpt>
      <trkpt lat="48.77233" lon="2.28924">
        <ele>74</ele>
        <time>2022-02-20T08:55:10.231Z</time>
      </trkpt>
      <trkpt lat="48.77232" lon="2.28914">
        <ele>74</ele>
        <time>2022-02-20T08:55:15.238Z</time>
      </trkpt>
      <trkpt lat="48.77232" lon="2.28905">
        <ele>74</ele>
        <time>2022-02-20T08:55:20.232Z</time>
      </trkpt>
      <trkpt lat="48.77231" lon="2.28895">
        <ele>73</ele>
        <time>2022-02-20T08:55:25.236Z</time>
      </trkpt>
      <trkpt lat="48.77232" lon="2.28885">
        <ele>73</ele>
        <time>2022-02-20T08:55:30.235Z</time>
      </trkpt>
      <trkpt lat="48.77233" lon="2.28876">
        <ele>73</ele>
        <time>2022-02-20T08:55:35.229Z</time>
      </trkpt>
      <trkpt lat="48.77235" lon="2.28867">
        <ele>74</ele>
        <time>2022-02-20T08:55:40.229Z</time>
      </trkpt>
      <trkpt lat="48.77236" lon="2.28859">
        <ele>74</ele>
        <time>2022-02-20T08:55:44.235Z</time>
      </trkpt>
      <trkpt lat="48.77237" lon="2.28849">
        <ele>72</ele>
        <time>2022-02-20T08:55:49.228Z</time>
      </trkpt>
      <trkpt lat="48.77237" lon="2.28842">
        <ele>73</ele>
        <time>2022-02-20T08:55:53.229Z</time>
      </trkpt>
      <trkpt lat="48.77237" lon="2.28832">
        <ele>73</ele>
        <time>2022-02-20T08:55:58.235Z</time>
      </trkpt>
      <trkpt lat="48.77236" lon="2.28826">
        <ele>75</ele>
        <time>2022-02-20T08:56:02.236Z</time>
      </trkpt>
      <trkpt lat="48.77234" lon="2.28817">
        <ele>76</ele>
        <time>2022-02-20T08:56:07.244Z</time>
      </trkpt>
      <trkpt lat="48.77231" lon="2.28811">
        <ele>76</ele>
        <time>2022-02-20T08:56:12.241Z</time>
      </trkpt>
      <trkpt lat="48.7723" lon="2.28802">
        <ele>76</ele>
        <time>2022-02-20T08:56:17.234Z</time>
      </trkpt>
      <trkpt lat="48.77229" lon="2.28795">
        <ele>76</ele>
        <time>2022-02-20T08:56:21.234Z</time>
      </trkpt>
      <trkpt lat="48.77228" lon="2.28787">
        <ele>77</ele>
        <time>2022-02-20T08:56:25.242Z</time>
      </trkpt>
      <trkpt lat="48.77227" lon="2.28779">
        <ele>77</ele>
        <time>2022-02-20T08:56:30.236Z</time>
      </trkpt>
      <trkpt lat="48.77227" lon="2.28769">
        <ele>77</ele>
        <time>2022-02-20T08:56:35.234Z</time>
      </trkpt>
      <trkpt lat="48.77225" lon="2.28759">
        <ele>77</ele>
        <time>2022-02-20T08:56:40.233Z</time>
      </trkpt>
      <trkpt lat="48.77224" lon="2.28751">
        <ele>77</ele>
        <time>2022-02-20T08:56:45.231Z</time>
      </trkpt>
      <trkpt lat="48.77223" lon="2.28744">
        <ele>77</ele>
        <time>2022-02-20T08:56:49.235Z</time>
      </trkpt>
      <trkpt lat="48.77222" lon="2.28734">
        <ele>76</ele>
        <time>2022-02-20T08:56:54.231Z</time>
      </trkpt>
      <trkpt lat="48.7722" lon="2.28726">
        <ele>76</ele>
        <time>2022-02-20T08:56:59.229Z</time>
      </trkpt>
      <trkpt lat="48.7722" lon="2.28719">
        <ele>76</ele>
        <time>2022-02-20T08:57:03.244Z</time>
      </trkpt>
      <trkpt lat="48.77219" lon="2.28711">
        <ele>76</ele>
        <time>2022-02-20T08:57:08.231Z</time>
      </trkpt>
      <trkpt lat="48.77218" lon="2.28704">
        <ele>76</ele>
        <time>2022-02-20T08:57:12.236Z</time>
      </trkpt>
      <trkpt lat="48.77217" lon="2.28696">
        <ele>76</ele>
        <time>2022-02-20T08:57:17.238Z</time>
      </trkpt>
      <trkpt lat="48.77215" lon="2.28688">
        <ele>76</ele>
        <time>2022-02-20T08:57:22.226Z</time>
      </trkpt>
      <trkpt lat="48.77215" lon="2.2868">
        <ele>76</ele>
        <time>2022-02-20T08:57:26.229Z</time>
      </trkpt>
      <trkpt lat="48.77216" lon="2.28673">
        <ele>76</ele>
        <time>2022-02-20T08:57:31.236Z</time>
      </trkpt>
      <trkpt lat="48.77219" lon="2.28669">
        <ele>76</ele>
        <time>2022-02-20T08:57:35.234Z</time>
      </trkpt>
      <trkpt lat="48.77224" lon="2.28667">
        <ele>76</ele>
        <time>2022-02-20T08:57:40.227Z</time>
      </trkpt>
      <trkpt lat="48.77227" lon="2.28669">
        <ele>76</ele>
        <time>2022-02-20T08:57:44.241Z</time>
      </trkpt>
      <trkpt lat="48.77228" lon="2.2867">
        <ele>76</ele>
        <time>2022-02-20T08:57:49.224Z</time>
      </trkpt>
      <trkpt lat="48.77228" lon="2.2867">
        <ele>76</ele>
        <time>2022-02-20T08:57:54.220Z</time>
      </trkpt>
      <trkpt lat="48.77231" lon="2.2867">
        <ele>76</ele>
        <time>2022-02-20T08:57:58.231Z</time>
      </trkpt>
      <trkpt lat="48.77235" lon="2.28669">
        <ele>76</ele>
        <time>2022-02-20T08:58:02.234Z</time>
      </trkpt>
      <trkpt lat="48.77239" lon="2.28666">
        <ele>77</ele>
        <time>2022-02-20T08:58:07.224Z</time>
      </trkpt>
      <trkpt lat="48.77244" lon="2.28663">
        <ele>77</ele>
        <time>2022-02-20T08:58:12.225Z</time>
      </trkpt>
      <trkpt lat="48.77249" lon="2.28659">
        <ele>77</ele>
        <time>2022-02-20T08:58:17.224Z</time>
      </trkpt>
      <trkpt lat="48.77253" lon="2.28657">
        <ele>77</ele>
        <time>2022-02-20T08:58:21.227Z</time>
      </trkpt>
      <trkpt lat="48.77258" lon="2.28655">
        <ele>77</ele>
        <time>2022-02-20T08:58:26.233Z</time>
      </trkpt>
      <trkpt lat="48.77262" lon="2.28653">
        <ele>76</ele>
        <time>2022-02-20T08:58:30.226Z</time>
      </trkpt>
      <trkpt lat="48.77268" lon="2.28652">
        <ele>76</ele>
        <time>2022-02-20T08:58:35.231Z</time>
      </trkpt>
      <trkpt lat="48.7727" lon="2.28646">
        <ele>76</ele>
        <time>2022-02-20T08:58:39.228Z</time>
      </trkpt>
      <trkpt lat="48.77272" lon="2.28639">
        <ele>76</ele>
        <time>2022-02-20T08:58:43.234Z</time>
      </trkpt>
      <trkpt lat="48.77273" lon="2.28634">
        <ele>76</ele>
        <time>2022-02-20T08:58:48.227Z</time>
      </trkpt>
      <trkpt lat="48.77274" lon="2.28632">
        <ele>76</ele>
        <time>2022-02-20T08:58:52.238Z</time>
      </trkpt>
      <trkpt lat="48.77274" lon="2.28632">
        <ele>76</ele>
        <time>2022-02-20T08:58:57.227Z</time>
      </trkpt>
      <trkpt lat="48.77274" lon="2.28626">
        <ele>76</ele>
        <time>2022-02-20T08:59:01.235Z</time>
      </trkpt>
      <trkpt lat="48.77274" lon="2.28619">
        <ele>76</ele>
        <time>2022-02-20T08:59:06.229Z</time>
      </trkpt>
      <trkpt lat="48.77275" lon="2.28613">
        <ele>76</ele>
        <time>2022-02-20T08:59:10.227Z</time>
      </trkpt>
      <trkpt lat="48.77276" lon="2.28606">
        <ele>76</ele>
        <time>2022-02-20T08:59:15.232Z</time>
      </trkpt>
      <trkpt lat="48.77278" lon="2.28601">
        <ele>76</ele>
        <time>2022-02-20T08:59:19.235Z</time>
      </trkpt>
      <trkpt lat="48.7728" lon="2.28595">
        <ele>78</ele>
        <time>2022-02-20T08:59:24.255Z</time>
      </trkpt>
      <trkpt lat="48.77281" lon="2.28588">
        <ele>78</ele>
        <time>2022-02-20T08:59:29.236Z</time>
      </trkpt>
      <trkpt lat="48.77281" lon="2.28584">
        <ele>78</ele>
        <time>2022-02-20T08:59:33.232Z</time>
      </trkpt>
      <trkpt lat="48.77282" lon="2.28579">
        <ele>78</ele>
        <time>2022-02-20T08:59:38.228Z</time>
      </trkpt>
      <trkpt lat="48.77282" lon="2.28573">
        <ele>78</ele>
        <time>2022-02-20T08:59:43.226Z</time>
      </trkpt>
      <trkpt lat="48.77283" lon="2.28567">
        <ele>79</ele>
        <time>2022-02-20T08:59:48.238Z</time>
      </trkpt>
      <trkpt lat="48.77282" lon="2.2856">
        <ele>79</ele>
        <time>2022-02-20T08:59:53.231Z</time>
      </trkpt>
      <trkpt lat="48.77283" lon="2.28555">
        <ele>79</ele>
        <time>2022-02-20T08:59:57.233Z</time>
      </trkpt>
      <trkpt lat="48.77283" lon="2.2855">
        <ele>79</ele>
        <time>2022-02-20T09:00:01.234Z</time>
      </trkpt>
      <trkpt lat="48.77284" lon="2.28542">
        <ele>79</ele>
        <time>2022-02-20T09:00:06.234Z</time>
      </trkpt>
      <trkpt lat="48.77282" lon="2.28535">
        <ele>80</ele>
        <time>2022-02-20T09:00:10.233Z</time>
      </trkpt>
      <trkpt lat="48.77277" lon="2.28531">
        <ele>80</ele>
        <time>2022-02-20T09:00:15.241Z</time>
      </trkpt>
      <trkpt lat="48.77272" lon="2.28529">
        <ele>80</ele>
        <time>2022-02-20T09:00:20.234Z</time>
      </trkpt>
      <trkpt lat="48.77267" lon="2.28525">
        <ele>80</ele>
        <time>2022-02-20T09:00:25.231Z</time>
      </trkpt>
      <trkpt lat="48.77261" lon="2.28522">
        <ele>81</ele>
        <time>2022-02-20T09:00:30.231Z</time>
      </trkpt>
      <trkpt lat="48.77256" lon="2.28519">
        <ele>81</ele>
        <time>2022-02-20T09:00:35.229Z</time>
      </trkpt>
      <trkpt lat="48.77252" lon="2.28515">
        <ele>81</ele>
        <time>2022-02-20T09:00:39.233Z</time>
      </trkpt>
      <trkpt lat="48.77246" lon="2.28512">
        <ele>82</ele>
        <time>2022-02-20T09:00:44.232Z</time>
      </trkpt>
      <trkpt lat="48.77242" lon="2.28509">
        <ele>82</ele>
        <time>2022-02-20T09:00:48.233Z</time>
      </trkpt>
      <trkpt lat="48.77237" lon="2.28505">
        <ele>82</ele>
        <time>2022-02-20T09:00:53.227Z</time>
      </trkpt>
      <trkpt lat="48.77232" lon="2.28502">
        <ele>82</ele>
        <time>2022-02-20T09:00:58.229Z</time>
      </trkpt>
      <trkpt lat="48.77226" lon="2.28497">
        <ele>82</ele>
        <time>2022-02-20T09:01:03.233Z</time>
      </trkpt>
      <trkpt lat="48.7722" lon="2.28493">
        <ele>82</ele>
        <time>2022-02-20T09:01:08.236Z</time>
      </trkpt>
      <trkpt lat="48.77214" lon="2.2849">
        <ele>82</ele>
        <time>2022-02-20T09:01:13.243Z</time>
      </trkpt>
      <trkpt lat="48.77208" lon="2.28486">
        <ele>82</ele>
        <time>2022-02-20T09:01:18.230Z</time>
      </trkpt>
      <trkpt lat="48.77205" lon="2.28479">
        <ele>82</ele>
        <time>2022-02-20T09:01:23.225Z</time>
      </trkpt>
      <trkpt lat="48.77203" lon="2.28473">
        <ele>82</ele>
        <time>2022-02-20T09:01:27.234Z</time>
      </trkpt>
      <trkpt lat="48.77202" lon="2.28468">
        <ele>82</ele>
        <time>2022-02-20T09:01:31.236Z</time>
      </trkpt>
      <trkpt lat="48.77199" lon="2.28462">
        <ele>82</ele>
        <time>2022-02-20T09:01:36.232Z</time>
      </trkpt>
      <trkpt lat="48.77196" lon="2.28456">
        <ele>81</ele>
        <time>2022-02-20T09:01:41.230Z</time>
      </trkpt>
      <trkpt lat="48.77195" lon="2.28448">
        <ele>81</ele>
        <time>2022-02-20T09:01:46.224Z</time>
      </trkpt>
      <trkpt lat="48.77194" lon="2.28442">
        <ele>81</ele>
        <time>2022-02-20T09:01:50.230Z</time>
      </trkpt>
      <trkpt lat="48.77192" lon="2.28437">
        <ele>81</ele>
        <time>2022-02-20T09:01:54.233Z</time>
      </trkpt>
      <trkpt lat="48.77191" lon="2.28428">
        <ele>81</ele>
        <time>2022-02-20T09:01:59.226Z</time>
      </trkpt>
      <trkpt lat="48.77189" lon="2.2842">
        <ele>81</ele>
        <time>2022-02-20T09:02:04.235Z</time>
      </trkpt>
      <trkpt lat="48.77189" lon="2.28412">
        <ele>81</ele>
        <time>2022-02-20T09:02:09.242Z</time>
      </trkpt>
      <trkpt lat="48.77187" lon="2.28404">
        <ele>81</ele>
        <time>2022-02-20T09:02:14.242Z</time>
      </trkpt>
      <trkpt lat="48.77186" lon="2.28397">
        <ele>82</ele>
        <time>2022-02-20T09:02:18.243Z</time>
      </trkpt>
      <trkpt lat="48.77185" lon="2.28389">
        <ele>82</ele>
        <time>2022-02-20T09:02:23.232Z</time>
      </trkpt>
      <trkpt lat="48.77184" lon="2.28382">
        <ele>82</ele>
        <time>2022-02-20T09:02:27.236Z</time>
      </trkpt>
      <trkpt lat="48.77182" lon="2.28376">
        <ele>82</ele>
        <time>2022-02-20T09:02:31.233Z</time>
      </trkpt>
      <trkpt lat="48.7718" lon="2.28367">
        <ele>84</ele>
        <time>2022-02-20T09:02:36.230Z</time>
      </trkpt>
      <trkpt lat="48.77179" lon="2.28359">
        <ele>84</ele>
        <time>2022-02-20T09:02:40.240Z</time>
      </trkpt>
      <trkpt lat="48.77178" lon="2.28352">
        <ele>84</ele>
        <time>2022-02-20T09:02:44.234Z</time>
      </trkpt>
      <trkpt lat="48.77177" lon="2.28344">
        <ele>85</ele>
        <time>2022-02-20T09:02:49.244Z</time>
      </trkpt>
      <trkpt lat="48.77175" lon="2.28335">
        <ele>85</ele>
        <time>2022-02-20T09:02:54.236Z</time>
      </trkpt>
      <trkpt lat="48.77173" lon="2.28326">
        <ele>85</ele>
        <time>2022-02-20T09:02:59.239Z</time>
      </trkpt>
      <trkpt lat="48.77171" lon="2.28317">
        <ele>86</ele>
        <time>2022-02-20T09:03:04.235Z</time>
      </trkpt>
      <trkpt lat="48.7717" lon="2.28308">
        <ele>86</ele>
        <time>2022-02-20T09:03:09.253Z</time>
      </trkpt>
      <trkpt lat="48.77169" lon="2.28299">
        <ele>86</ele>
        <time>2022-02-20T09:03:14.244Z</time>
      </trkpt>
      <trkpt lat="48.77168" lon="2.28289">
        <ele>87</ele>
        <time>2022-02-20T09:03:19.234Z</time>
      </trkpt>
      <trkpt lat="48.77167" lon="2.2828">
        <ele>87</ele>
        <time>2022-02-20T09:03:24.218Z</time>
      </trkpt>
      <trkpt lat="48.77166" lon="2.28272">
        <ele>87</ele>
        <time>2022-02-20T09:03:29.219Z</time>
      </trkpt>
      <trkpt lat="48.77165" lon="2.28264">
        <ele>87</ele>
        <time>2022-02-20T09:03:33.231Z</time>
      </trkpt>
      <trkpt lat="48.77166" lon="2.28254">
        <ele>88</ele>
        <time>2022-02-20T09:03:38.223Z</time>
      </trkpt>
      <trkpt lat="48.77164" lon="2.28248">
        <ele>88</ele>
        <time>2022-02-20T09:03:42.229Z</time>
      </trkpt>
      <trkpt lat="48.77162" lon="2.2824">
        <ele>88</ele>
        <time>2022-02-20T09:03:47.231Z</time>
      </trkpt>
      <trkpt lat="48.7716" lon="2.28234">
        <ele>89</ele>
        <time>2022-02-20T09:03:51.230Z</time>
      </trkpt>
      <trkpt lat="48.77159" lon="2.28226">
        <ele>89</ele>
        <time>2022-02-20T09:03:56.230Z</time>
      </trkpt>
      <trkpt lat="48.77156" lon="2.2822">
        <ele>89</ele>
        <time>2022-02-20T09:04:00.234Z</time>
      </trkpt>
      <trkpt lat="48.77155" lon="2.28212">
        <ele>89</ele>
        <time>2022-02-20T09:04:05.250Z</time>
      </trkpt>
      <trkpt lat="48.77153" lon="2.28203">
        <ele>91</ele>
        <time>2022-02-20T09:04:10.234Z</time>
      </trkpt>
      <trkpt lat="48.77152" lon="2.28193">
        <ele>91</ele>
        <time>2022-02-20T09:04:15.224Z</time>
      </trkpt>
      <trkpt lat="48.77151" lon="2.28184">
        <ele>91</ele>
        <time>2022-02-20T09:04:20.233Z</time>
      </trkpt>
      <trkpt lat="48.77148" lon="2.28175">
        <ele>90</ele>
        <time>2022-02-20T09:04:25.233Z</time>
      </trkpt>
      <trkpt lat="48.77146" lon="2.28167">
        <ele>90</ele>
        <time>2022-02-20T09:04:29.234Z</time>
      </trkpt>
      <trkpt lat="48.77145" lon="2.28157">
        <ele>90</ele>
        <time>2022-02-20T09:04:34.226Z</time>
      </trkpt>
      <trkpt lat="48.77143" lon="2.2815">
        <ele>89</ele>
        <time>2022-02-20T09:04:38.233Z</time>
      </trkpt>
      <trkpt lat="48.77141" lon="2.28141">
        <ele>89</ele>
        <time>2022-02-20T09:04:43.256Z</time>
      </trkpt>
      <trkpt lat="48.7714" lon="2.28133">
        <ele>89</ele>
        <time>2022-02-20T09:04:48.235Z</time>
      </trkpt>
      <trkpt lat="48.77139" lon="2.28124">
        <ele>89</ele>
        <time>2022-02-20T09:04:53.235Z</time>
      </trkpt>
      <trkpt lat="48.7714" lon="2.28117">
        <ele>89</ele>
        <time>2022-02-20T09:04:57.230Z</time>
      </trkpt>
      <trkpt lat="48.77142" lon="2.28111">
        <ele>89</ele>
        <time>2022-02-20T09:05:01.233Z</time>
      </trkpt>
      <trkpt lat="48.77146" lon="2.28103">
        <ele>89</ele>
        <time>2022-02-20T09:05:06.229Z</time>
      </trkpt>
      <trkpt lat="48.7715" lon="2.28101">
        <ele>89</ele>
        <time>2022-02-20T09:05:10.235Z</time>
      </trkpt>
      <trkpt lat="48.77156" lon="2.281">
        <ele>88</ele>
        <time>2022-02-20T09:05:15.229Z</time>
      </trkpt>
      <trkpt lat="48.77163" lon="2.28101">
        <ele>88</ele>
        <time>2022-02-20T09:05:20.224Z</time>
      </trkpt>
      <trkpt lat="48.77168" lon="2.28101">
        <ele>88</ele>
        <time>2022-02-20T09:05:24.237Z</time>
      </trkpt>
      <trkpt lat="48.77175" lon="2.28101">
        <ele>88</ele>
        <time>2022-02-20T09:05:29.232Z</time>
      </trkpt>
      <trkpt lat="48.7718" lon="2.28101">
        <ele>88</ele>
        <time>2022-02-20T09:05:33.234Z</time>
      </trkpt>
      <trkpt lat="48.77185" lon="2.28102">
        <ele>87</ele>
        <time>2022-02-20T09:05:37.231Z</time>
      </trkpt>
      <trkpt lat="48.77192" lon="2.28104">
        <ele>87</ele>
        <time>2022-02-20T09:05:42.230Z</time>
      </trkpt>
      <trkpt lat="48.77199" lon="2.28105">
        <ele>87</ele>
        <time>2022-02-20T09:05:47.232Z</time>
      </trkpt>
      <trkpt lat="48.77204" lon="2.28106">
        <ele>87</ele>
        <time>2022-02-20T09:05:51.231Z</time>
      </trkpt>
      <trkpt lat="48.77211" lon="2.28108">
        <ele>86</ele>
        <time>2022-02-20T09:05:56.233Z</time>
      </trkpt>
      <trkpt lat="48.77216" lon="2.28109">
        <ele>86</ele>
        <time>2022-02-20T09:06:00.236Z</time>
      </trkpt>
      <trkpt lat="48.77221" lon="2.2811">
        <ele>86</ele>
        <time>2022-02-20T09:06:04.235Z</time>
      </trkpt>
      <trkpt lat="48.77228" lon="2.28109">
        <ele>86</ele>
        <time>2022-02-20T09:06:09.229Z</time>
      </trkpt>
      <trkpt lat="48.77235" lon="2.28111">
        <ele>86</ele>
        <time>2022-02-20T09:06:14.233Z</time>
      </trkpt>
      <trkpt lat="48.77242" lon="2.28112">
        <ele>86</ele>
        <time>2022-02-20T09:06:19.231Z</time>
      </trkpt>
      <trkpt lat="48.77249" lon="2.28113">
        <ele>86</ele>
        <time>2022-02-20T09:06:23.234Z</time>
      </trkpt>
      <trkpt lat="48.77255" lon="2.28113">
        <ele>86</ele>
        <time>2022-02-20T09:06:27.246Z</time>
      </trkpt>
      <trkpt lat="48.77262" lon="2.28113">
        <ele>86</ele>
        <time>2022-02-20T09:06:32.232Z</time>
      </trkpt>
      <trkpt lat="48.77269" lon="2.28114">
        <ele>85</ele>
        <time>2022-02-20T09:06:37.230Z</time>
      </trkpt>
      <trkpt lat="48.77274" lon="2.28115">
        <ele>85</ele>
        <time>2022-02-20T09:06:41.238Z</time>
      </trkpt>
      <trkpt lat="48.77279" lon="2.28112">
        <ele>85</ele>
        <time>2022-02-20T09:06:46.233Z</time>
      </trkpt>
      <trkpt lat="48.77286" lon="2.28108">
        <ele>85</ele>
        <time>2022-02-20T09:06:51.233Z</time>
      </trkpt>
      <trkpt lat="48.77294" lon="2.28105">
        <ele>81</ele>
        <time>2022-02-20T09:06:56.234Z</time>
      </trkpt>
      <trkpt lat="48.77301" lon="2.281">
        <ele>81</ele>
        <time>2022-02-20T09:07:01.233Z</time>
      </trkpt>
      <trkpt lat="48.77306" lon="2.28098">
        <ele>81</ele>
        <time>2022-02-20T09:07:05.236Z</time>
      </trkpt>
      <trkpt lat="48.77312" lon="2.28094">
        <ele>82</ele>
        <time>2022-02-20T09:07:10.230Z</time>
      </trkpt>
      <trkpt lat="48.77317" lon="2.28091">
        <ele>82</ele>
        <time>2022-02-20T09:07:15.249Z</time>
      </trkpt>
      <trkpt lat="48.77317" lon="2.28091">
        <ele>82</ele>
        <time>2022-02-20T09:07:20.226Z</time>
      </trkpt>
      <trkpt lat="48.77315" lon="2.28085">
        <ele>82</ele>
        <time>2022-02-20T09:07:24.232Z</time>
      </trkpt>
      <trkpt lat="48.77315" lon="2.28077">
        <ele>82</ele>
        <time>2022-02-20T09:07:29.229Z</time>
      </trkpt>
      <trkpt lat="48.77316" lon="2.28071">
        <ele>82</ele>
        <time>2022-02-20T09:07:33.230Z</time>
      </trkpt>
      <trkpt lat="48.77316" lon="2.28062">
        <ele>83</ele>
        <time>2022-02-20T09:07:38.232Z</time>
      </trkpt>
      <trkpt lat="48.77314" lon="2.28056">
        <ele>83</ele>
        <time>2022-02-20T09:07:42.236Z</time>
      </trkpt>
      <trkpt lat="48.77312" lon="2.28048">
        <ele>83</ele>
        <time>2022-02-20T09:07:47.227Z</time>
      </trkpt>
      <trkpt lat="48.77311" lon="2.28041">
        <ele>84</ele>
        <time>2022-02-20T09:07:51.234Z</time>
      </trkpt>
      <trkpt lat="48.77311" lon="2.28033">
        <ele>84</ele>
        <time>2022-02-20T09:07:56.233Z</time>
      </trkpt>
      <trkpt lat="48.7731" lon="2.28026">
        <ele>84</ele>
        <time>2022-02-20T09:08:00.235Z</time>
      </trkpt>
      <trkpt lat="48.77308" lon="2.2802">
        <ele>84</ele>
        <time>2022-02-20T09:08:04.306Z</time>
      </trkpt>
      <trkpt lat="48.77307" lon="2.2801">
        <ele>83</ele>
        <time>2022-02-20T09:08:09.228Z</time>
      </trkpt>
      <trkpt lat="48.77305" lon="2.28">
        <ele>83</ele>
        <time>2022-02-20T09:08:14.232Z</time>
      </trkpt>
      <trkpt lat="48.77304" lon="2.27992">
        <ele>83</ele>
        <time>2022-02-20T09:08:19.243Z</time>
      </trkpt>
      <trkpt lat="48.77303" lon="2.27982">
        <ele>84</ele>
        <time>2022-02-20T09:08:24.234Z</time>
      </trkpt>
      <trkpt lat="48.77301" lon="2.27973">
        <ele>84</ele>
        <time>2022-02-20T09:08:29.233Z</time>
      </trkpt>
      <trkpt lat="48.773" lon="2.27964">
        <ele>84</ele>
        <time>2022-02-20T09:08:34.244Z</time>
      </trkpt>
      <trkpt lat="48.77299" lon="2.27955">
        <ele>84</ele>
        <time>2022-02-20T09:08:39.221Z</time>
      </trkpt>
      <trkpt lat="48.77299" lon="2.27947">
        <ele>84</ele>
        <time>2022-02-20T09:08:43.229Z</time>
      </trkpt>
      <trkpt lat="48.77297" lon="2.27938">
        <ele>84</ele>
        <time>2022-02-20T09:08:48.237Z</time>
      </trkpt>
      <trkpt lat="48.77295" lon="2.2793">
        <ele>85</ele>
        <time>2022-02-20T09:08:52.241Z</time>
      </trkpt>
      <trkpt lat="48.77293" lon="2.2792">
        <ele>85</ele>
        <time>2022-02-20T09:08:57.231Z</time>
      </trkpt>
      <trkpt lat="48.77292" lon="2.27913">
        <ele>85</ele>
        <time>2022-02-20T09:09:01.230Z</time>
      </trkpt>
      <trkpt lat="48.77291" lon="2.27904">
        <ele>89</ele>
        <time>2022-02-20T09:09:06.231Z</time>
      </trkpt>
      <trkpt lat="48.77291" lon="2.27897">
        <ele>90</ele>
        <time>2022-02-20T09:09:10.242Z</time>
      </trkpt>
      <trkpt lat="48.77291" lon="2.27887">
        <ele>90</ele>
        <time>2022-02-20T09:09:15.231Z</time>
      </trkpt>
      <trkpt lat="48.7729" lon="2.27877">
        <ele>90</ele>
        <time>2022-02-20T09:09:20.234Z</time>
      </trkpt>
      <trkpt lat="48.77288" lon="2.27868">
        <ele>89</ele>
        <time>2022-02-20T09:09:25.233Z</time>
      </trkpt>
      <trkpt lat="48.77286" lon="2.2786">
        <ele>89</ele>
        <time>2022-02-20T09:09:30.230Z</time>
      </trkpt>
      <trkpt lat="48.77285" lon="2.27851">
        <ele>89</ele>
        <time>2022-02-20T09:09:35.245Z</time>
      </trkpt>
      <trkpt lat="48.77284" lon="2.27841">
        <ele>88</ele>
        <time>2022-02-20T09:09:40.231Z</time>
      </trkpt>
      <trkpt lat="48.77283" lon="2.27832">
        <ele>88</ele>
        <time>2022-02-20T09:09:45.229Z</time>
      </trkpt>
      <trkpt lat="48.77281" lon="2.27825">
        <ele>88</ele>
        <time>2022-02-20T09:09:49.235Z</time>
      </trkpt>
      <trkpt lat="48.7728" lon="2.27815">
        <ele>88</ele>
        <time>2022-02-20T09:09:54.225Z</time>
      </trkpt>
      <trkpt lat="48.77278" lon="2.27808">
        <ele>88</ele>
        <time>2022-02-20T09:09:58.232Z</time>
      </trkpt>
      <trkpt lat="48.77278" lon="2.27801">
        <ele>88</ele>
        <time>2022-02-20T09:10:02.227Z</time>
      </trkpt>
      <trkpt lat="48.77277" lon="2.27794">
        <ele>88</ele>
        <time>2022-02-20T09:10:06.246Z</time>
      </trkpt>
      <trkpt lat="48.77277" lon="2.27782">
        <ele>87</ele>
        <time>2022-02-20T09:10:11.259Z</time>
      </trkpt>
      <trkpt lat="48.77275" lon="2.27771">
        <ele>87</ele>
        <time>2022-02-20T09:10:16.254Z</time>
      </trkpt>
      <trkpt lat="48.77274" lon="2.27761">
        <ele>87</ele>
        <time>2022-02-20T09:10:21.266Z</time>
      </trkpt>
      <trkpt lat="48.77274" lon="2.27752">
        <ele>87</ele>
        <time>2022-02-20T09:10:26.250Z</time>
      </trkpt>
      <trkpt lat="48.77276" lon="2.27742">
        <ele>87</ele>
        <time>2022-02-20T09:10:31.245Z</time>
      </trkpt>
      <trkpt lat="48.77275" lon="2.27732">
        <ele>87</ele>
        <time>2022-02-20T09:10:36.243Z</time>
      </trkpt>
      <trkpt lat="48.77275" lon="2.27724">
        <ele>87</ele>
        <time>2022-02-20T09:10:40.252Z</time>
      </trkpt>
      <trkpt lat="48.77275" lon="2.27716">
        <ele>87</ele>
        <time>2022-02-20T09:10:44.257Z</time>
      </trkpt>
      <trkpt lat="48.77276" lon="2.27706">
        <ele>88</ele>
        <time>2022-02-20T09:10:49.244Z</time>
      </trkpt>
      <trkpt lat="48.77275" lon="2.27698">
        <ele>88</ele>
        <time>2022-02-20T09:10:53.246Z</time>
      </trkpt>
      <trkpt lat="48.77274" lon="2.27689">
        <ele>88</ele>
        <time>2022-02-20T09:10:58.245Z</time>
      </trkpt>
      <trkpt lat="48.77273" lon="2.27681">
        <ele>88</ele>
        <time>2022-02-20T09:11:02.254Z</time>
      </trkpt>
      <trkpt lat="48.77274" lon="2.27672">
        <ele>88</ele>
        <time>2022-02-20T09:11:07.267Z</time>
      </trkpt>
      <trkpt lat="48.77274" lon="2.27662">
        <ele>88</ele>
        <time>2022-02-20T09:11:12.244Z</time>
      </trkpt>
      <trkpt lat="48.77273" lon="2.27655">
        <ele>88</ele>
        <time>2022-02-20T09:11:16.252Z</time>
      </trkpt>
      <trkpt lat="48.77275" lon="2.27646">
        <ele>87</ele>
        <time>2022-02-20T09:11:21.270Z</time>
      </trkpt>
      <trkpt lat="48.77276" lon="2.27636">
        <ele>87</ele>
        <time>2022-02-20T09:11:26.247Z</time>
      </trkpt>
      <trkpt lat="48.77277" lon="2.27627">
        <ele>87</ele>
        <time>2022-02-20T09:11:31.239Z</time>
      </trkpt>
      <trkpt lat="48.77278" lon="2.2762">
        <ele>87</ele>
        <time>2022-02-20T09:11:35.251Z</time>
      </trkpt>
      <trkpt lat="48.77278" lon="2.2761">
        <ele>87</ele>
        <time>2022-02-20T09:11:40.249Z</time>
      </trkpt>
      <trkpt lat="48.77278" lon="2.27603">
        <ele>87</ele>
        <time>2022-02-20T09:11:44.263Z</time>
      </trkpt>
      <trkpt lat="48.77276" lon="2.27594">
        <ele>89</ele>
        <time>2022-02-20T09:11:49.249Z</time>
      </trkpt>
      <trkpt lat="48.77273" lon="2.27589">
        <ele>89</ele>
        <time>2022-02-20T09:11:53.262Z</time>
      </trkpt>
      <trkpt lat="48.77269" lon="2.27582">
        <ele>89</ele>
        <time>2022-02-20T09:11:58.246Z</time>
      </trkpt>
      <trkpt lat="48.77267" lon="2.27576">
        <ele>89</ele>
        <time>2022-02-20T09:12:02.253Z</time>
      </trkpt>
      <trkpt lat="48.77268" lon="2.27571">
        <ele>89</ele>
        <time>2022-02-20T09:12:06.254Z</time>
      </trkpt>
      <trkpt lat="48.77267" lon="2.27569">
        <ele>91</ele>
        <time>2022-02-20T09:12:25.256Z</time>
      </trkpt>
      <trkpt lat="48.77267" lon="2.27569">
        <ele>91</ele>
        <time>2022-02-20T09:12:29.247Z</time>
      </trkpt>
      <trkpt lat="48.77267" lon="2.27569">
        <ele>91</ele>
        <time>2022-02-20T09:12:34.255Z</time>
      </trkpt>
      <trkpt lat="48.77271" lon="2.27562">
        <ele>91</ele>
        <time>2022-02-20T09:12:39.255Z</time>
      </trkpt>
      <trkpt lat="48.77275" lon="2.27554">
        <ele>91</ele>
        <time>2022-02-20T09:12:44.246Z</time>
      </trkpt>
      <trkpt lat="48.7728" lon="2.27553">
        <ele>91</ele>
        <time>2022-02-20T09:12:48.254Z</time>
      </trkpt>
      <trkpt lat="48.77283" lon="2.27548">
        <ele>91</ele>
        <time>2022-02-20T09:12:53.245Z</time>
      </trkpt>
      <trkpt lat="48.77284" lon="2.27542">
        <ele>91</ele>
        <time>2022-02-20T09:12:57.243Z</time>
      </trkpt>
      <trkpt lat="48.77285" lon="2.27534">
        <ele>91</ele>
        <time>2022-02-20T09:13:02.247Z</time>
      </trkpt>
      <trkpt lat="48.77285" lon="2.27528">
        <ele>91</ele>
        <time>2022-02-20T09:13:06.254Z</time>
      </trkpt>
      <trkpt lat="48.77285" lon="2.27521">
        <ele>91</ele>
        <time>2022-02-20T09:13:10.264Z</time>
      </trkpt>
      <trkpt lat="48.77286" lon="2.27511">
        <ele>91</ele>
        <time>2022-02-20T09:13:15.236Z</time>
      </trkpt>
      <trkpt lat="48.77287" lon="2.27504">
        <ele>91</ele>
        <time>2022-02-20T09:13:19.252Z</time>
      </trkpt>
      <trkpt lat="48.77287" lon="2.27495">
        <ele>91</ele>
        <time>2022-02-20T09:13:24.246Z</time>
      </trkpt>
      <trkpt lat="48.77288" lon="2.27487">
        <ele>91</ele>
        <time>2022-02-20T09:13:28.254Z</time>
      </trkpt>
      <trkpt lat="48.77289" lon="2.27478">
        <ele>91</ele>
        <time>2022-02-20T09:13:33.252Z</time>
      </trkpt>
      <trkpt lat="48.77289" lon="2.27467">
        <ele>91</ele>
        <time>2022-02-20T09:13:38.253Z</time>
      </trkpt>
      <trkpt lat="48.7729" lon="2.27459">
        <ele>91</ele>
        <time>2022-02-20T09:13:43.257Z</time>
      </trkpt>
      <trkpt lat="48.77292" lon="2.2745">
        <ele>91</ele>
        <time>2022-02-20T09:13:48.257Z</time>
      </trkpt>
      <trkpt lat="48.77292" lon="2.27441">
        <ele>93</ele>
        <time>2022-02-20T09:13:53.259Z</time>
      </trkpt>
      <trkpt lat="48.77292" lon="2.27431">
        <ele>93</ele>
        <time>2022-02-20T09:13:58.258Z</time>
      </trkpt>
      <trkpt lat="48.77292" lon="2.27422">
        <ele>93</ele>
        <time>2022-02-20T09:14:03.251Z</time>
      </trkpt>
      <trkpt lat="48.77292" lon="2.27413">
        <ele>91</ele>
        <time>2022-02-20T09:14:08.255Z</time>
      </trkpt>
      <trkpt lat="48.77289" lon="2.27404">
        <ele>91</ele>
        <time>2022-02-20T09:14:13.255Z</time>
      </trkpt>
      <trkpt lat="48.77288" lon="2.27393">
        <ele>92</ele>
        <time>2022-02-20T09:14:18.245Z</time>
      </trkpt>
      <trkpt lat="48.77288" lon="2.27386">
        <ele>92</ele>
        <time>2022-02-20T09:14:22.253Z</time>
      </trkpt>
      <trkpt lat="48.7729" lon="2.27378">
        <ele>92</ele>
        <time>2022-02-20T09:14:27.270Z</time>
      </trkpt>
      <trkpt lat="48.7729" lon="2.27369">
        <ele>93</ele>
        <time>2022-02-20T09:14:32.253Z</time>
      </trkpt>
      <trkpt lat="48.7729" lon="2.2736">
        <ele>93</ele>
        <time>2022-02-20T09:14:37.250Z</time>
      </trkpt>
      <trkpt lat="48.77289" lon="2.27351">
        <ele>93</ele>
        <time>2022-02-20T09:14:41.257Z</time>
      </trkpt>
      <trkpt lat="48.77288" lon="2.27341">
        <ele>94</ele>
        <time>2022-02-20T09:14:46.251Z</time>
      </trkpt>
      <trkpt lat="48.77287" lon="2.27331">
        <ele>94</ele>
        <time>2022-02-20T09:14:51.256Z</time>
      </trkpt>
      <trkpt lat="48.77285" lon="2.27323">
        <ele>94</ele>
        <time>2022-02-20T09:14:56.250Z</time>
      </trkpt>
      <trkpt lat="48.77283" lon="2.27313">
        <ele>96</ele>
        <time>2022-02-20T09:15:01.264Z</time>
      </trkpt>
      <trkpt lat="48.77282" lon="2.27303">
        <ele>96</ele>
        <time>2022-02-20T09:15:06.251Z</time>
      </trkpt>
      <trkpt lat="48.77281" lon="2.27293">
        <ele>96</ele>
        <time>2022-02-20T09:15:11.246Z</time>
      </trkpt>
      <trkpt lat="48.77282" lon="2.27286">
        <ele>97</ele>
        <time>2022-02-20T09:15:15.260Z</time>
      </trkpt>
      <trkpt lat="48.77283" lon="2.27278">
        <ele>97</ele>
        <time>2022-02-20T09:15:20.243Z</time>
      </trkpt>
      <trkpt lat="48.77286" lon="2.27269">
        <ele>97</ele>
        <time>2022-02-20T09:15:25.235Z</time>
      </trkpt>
      <trkpt lat="48.77288" lon="2.27261">
        <ele>97</ele>
        <time>2022-02-20T09:15:30.244Z</time>
      </trkpt>
      <trkpt lat="48.7729" lon="2.27253">
        <ele>97</ele>
        <time>2022-02-20T09:15:35.242Z</time>
      </trkpt>
      <trkpt lat="48.77293" lon="2.27245">
        <ele>100</ele>
        <time>2022-02-20T09:15:40.237Z</time>
      </trkpt>
      <trkpt lat="48.77296" lon="2.27239">
        <ele>100</ele>
        <time>2022-02-20T09:15:45.239Z</time>
      </trkpt>
      <trkpt lat="48.77296" lon="2.2723">
        <ele>100</ele>
        <time>2022-02-20T09:15:49.243Z</time>
      </trkpt>
      <trkpt lat="48.77297" lon="2.2722">
        <ele>100</ele>
        <time>2022-02-20T09:15:54.242Z</time>
      </trkpt>
      <trkpt lat="48.77297" lon="2.27213">
        <ele>100</ele>
        <time>2022-02-20T09:15:58.248Z</time>
      </trkpt>
      <trkpt lat="48.77296" lon="2.27201">
        <ele>99</ele>
        <time>2022-02-20T09:16:03.260Z</time>
      </trkpt>
      <trkpt lat="48.77297" lon="2.2719">
        <ele>99</ele>
        <time>2022-02-20T09:16:08.243Z</time>
      </trkpt>
      <trkpt lat="48.77299" lon="2.27179">
        <ele>98</ele>
        <time>2022-02-20T09:16:13.239Z</time>
      </trkpt>
      <trkpt lat="48.77299" lon="2.27168">
        <ele>98</ele>
        <time>2022-02-20T09:16:18.242Z</time>
      </trkpt>
      <trkpt lat="48.773" lon="2.2716">
        <ele>98</ele>
        <time>2022-02-20T09:16:22.259Z</time>
      </trkpt>
      <trkpt lat="48.77304" lon="2.27153">
        <ele>98</ele>
        <time>2022-02-20T09:16:27.240Z</time>
      </trkpt>
      <trkpt lat="48.77306" lon="2.27147">
        <ele>97</ele>
        <time>2022-02-20T09:16:31.244Z</time>
      </trkpt>
      <trkpt lat="48.7731" lon="2.27137">
        <ele>97</ele>
        <time>2022-02-20T09:16:36.264Z</time>
      </trkpt>
      <trkpt lat="48.77313" lon="2.27128">
        <ele>97</ele>
        <time>2022-02-20T09:16:41.241Z</time>
      </trkpt>
      <trkpt lat="48.77316" lon="2.27118">
        <ele>96</ele>
        <time>2022-02-20T09:16:46.245Z</time>
      </trkpt>
      <trkpt lat="48.7732" lon="2.27107">
        <ele>100</ele>
        <time>2022-02-20T09:16:51.247Z</time>
      </trkpt>
      <trkpt lat="48.77324" lon="2.27099">
        <ele>100</ele>
        <time>2022-02-20T09:16:56.252Z</time>
      </trkpt>
      <trkpt lat="48.77327" lon="2.2709">
        <ele>101</ele>
        <time>2022-02-20T09:17:01.241Z</time>
      </trkpt>
      <trkpt lat="48.77331" lon="2.27085">
        <ele>101</ele>
        <time>2022-02-20T09:17:05.247Z</time>
      </trkpt>
      <trkpt lat="48.77334" lon="2.27077">
        <ele>101</ele>
        <time>2022-02-20T09:17:10.242Z</time>
      </trkpt>
      <trkpt lat="48.77336" lon="2.27065">
        <ele>101</ele>
        <time>2022-02-20T09:17:15.238Z</time>
      </trkpt>
      <trkpt lat="48.77339" lon="2.27056">
        <ele>101</ele>
        <time>2022-02-20T09:17:19.247Z</time>
      </trkpt>
      <trkpt lat="48.77342" lon="2.27047">
        <ele>101</ele>
        <time>2022-02-20T09:17:24.246Z</time>
      </trkpt>
      <trkpt lat="48.77346" lon="2.27041">
        <ele>100</ele>
        <time>2022-02-20T09:17:29.243Z</time>
      </trkpt>
      <trkpt lat="48.77351" lon="2.27034">
        <ele>103</ele>
        <time>2022-02-20T09:17:34.256Z</time>
      </trkpt>
      <trkpt lat="48.77354" lon="2.27025">
        <ele>103</ele>
        <time>2022-02-20T09:17:39.246Z</time>
      </trkpt>
      <trkpt lat="48.77359" lon="2.27018">
        <ele>103</ele>
        <time>2022-02-20T09:17:44.242Z</time>
      </trkpt>
      <trkpt lat="48.77364" lon="2.27011">
        <ele>103</ele>
        <time>2022-02-20T09:17:49.236Z</time>
      </trkpt>
      <trkpt lat="48.77368" lon="2.27006">
        <ele>103</ele>
        <time>2022-02-20T09:17:53.246Z</time>
      </trkpt>
      <trkpt lat="48.77372" lon="2.27001">
        <ele>103</ele>
        <time>2022-02-20T09:17:58.241Z</time>
      </trkpt>
      <trkpt lat="48.77377" lon="2.26997">
        <ele>105</ele>
        <time>2022-02-20T09:18:03.234Z</time>
      </trkpt>
      <trkpt lat="48.77382" lon="2.26997">
        <ele>105</ele>
        <time>2022-02-20T09:18:08.234Z</time>
      </trkpt>
      <trkpt lat="48.77384" lon="2.27005">
        <ele>105</ele>
        <time>2022-02-20T09:18:12.236Z</time>
      </trkpt>
      <trkpt lat="48.77386" lon="2.27011">
        <ele>105</ele>
        <time>2022-02-20T09:18:17.251Z</time>
      </trkpt>
      <trkpt lat="48.77389" lon="2.27019">
        <ele>104</ele>
        <time>2022-02-20T09:18:22.233Z</time>
      </trkpt>
      <trkpt lat="48.7739" lon="2.27023">
        <ele>104</ele>
        <time>2022-02-20T09:18:27.229Z</time>
      </trkpt>
      <trkpt lat="48.77392" lon="2.27029">
        <ele>104</ele>
        <time>2022-02-20T09:21:22.239Z</time>
      </trkpt>
      <trkpt lat="48.77394" lon="2.27026">
        <ele>104</ele>
        <time>2022-02-20T09:21:26.237Z</time>
      </trkpt>
      <trkpt lat="48.77393" lon="2.2702">
        <ele>104</ele>
        <time>2022-02-20T09:21:30.246Z</time>
      </trkpt>
      <trkpt lat="48.7739" lon="2.27012">
        <ele>105</ele>
        <time>2022-02-20T09:21:35.249Z</time>
      </trkpt>
      <trkpt lat="48.77388" lon="2.27006">
        <ele>105</ele>
        <time>2022-02-20T09:21:40.235Z</time>
      </trkpt>
      <trkpt lat="48.77389" lon="2.27003">
        <ele>105</ele>
        <time>2022-02-20T09:21:44.245Z</time>
      </trkpt>
      <trkpt lat="48.77392" lon="2.26998">
        <ele>105</ele>
        <time>2022-02-20T09:21:49.234Z</time>
      </trkpt>
      <trkpt lat="48.77395" lon="2.26994">
        <ele>105</ele>
        <time>2022-02-20T09:21:53.247Z</time>
      </trkpt>
      <trkpt lat="48.77399" lon="2.2699">
        <ele>105</ele>
        <time>2022-02-20T09:21:58.242Z</time>
      </trkpt>
      <trkpt lat="48.77402" lon="2.26988">
        <ele>105</ele>
        <time>2022-02-20T09:22:02.241Z</time>
      </trkpt>
      <trkpt lat="48.77407" lon="2.26986">
        <ele>107</ele>
        <time>2022-02-20T09:22:07.237Z</time>
      </trkpt>
      <trkpt lat="48.7741" lon="2.26984">
        <ele>107</ele>
        <time>2022-02-20T09:22:11.239Z</time>
      </trkpt>
      <trkpt lat="48.77414" lon="2.26982">
        <ele>107</ele>
        <time>2022-02-20T09:22:15.245Z</time>
      </trkpt>
      <trkpt lat="48.77417" lon="2.2698">
        <ele>107</ele>
        <time>2022-02-20T09:22:19.351Z</time>
      </trkpt>
      <trkpt lat="48.77422" lon="2.26976">
        <ele>107</ele>
        <time>2022-02-20T09:22:24.245Z</time>
      </trkpt>
      <trkpt lat="48.77426" lon="2.26973">
        <ele>107</ele>
        <time>2022-02-20T09:22:29.252Z</time>
      </trkpt>
      <trkpt lat="48.77431" lon="2.26969">
        <ele>106</ele>
        <time>2022-02-20T09:22:34.234Z</time>
      </trkpt>
      <trkpt lat="48.77435" lon="2.26966">
        <ele>106</ele>
        <time>2022-02-20T09:22:38.252Z</time>
      </trkpt>
      <trkpt lat="48.77439" lon="2.26962">
        <ele>106</ele>
        <time>2022-02-20T09:22:42.246Z</time>
      </trkpt>
      <trkpt lat="48.77444" lon="2.26958">
        <ele>108</ele>
        <time>2022-02-20T09:22:47.236Z</time>
      </trkpt>
      <trkpt lat="48.77447" lon="2.26956">
        <ele>108</ele>
        <time>2022-02-20T09:22:51.239Z</time>
      </trkpt>
      <trkpt lat="48.7745" lon="2.26953">
        <ele>108</ele>
        <time>2022-02-20T09:22:56.258Z</time>
      </trkpt>
      <trkpt lat="48.77455" lon="2.2695">
        <ele>108</ele>
        <time>2022-02-20T09:23:01.253Z</time>
      </trkpt>
      <trkpt lat="48.77459" lon="2.26946">
        <ele>106</ele>
        <time>2022-02-20T09:23:06.228Z</time>
      </trkpt>
      <trkpt lat="48.77463" lon="2.26942">
        <ele>106</ele>
        <time>2022-02-20T09:23:10.234Z</time>
      </trkpt>
      <trkpt lat="48.77467" lon="2.26939">
        <ele>106</ele>
        <time>2022-02-20T09:23:14.240Z</time>
      </trkpt>
      <trkpt lat="48.77472" lon="2.26935">
        <ele>106</ele>
        <time>2022-02-20T09:23:19.243Z</time>
      </trkpt>
      <trkpt lat="48.77475" lon="2.26932">
        <ele>106</ele>
        <time>2022-02-20T09:23:23.243Z</time>
      </trkpt>
      <trkpt lat="48.7748" lon="2.26928">
        <ele>108</ele>
        <time>2022-02-20T09:23:28.231Z</time>
      </trkpt>
      <trkpt lat="48.77484" lon="2.26925">
        <ele>108</ele>
        <time>2022-02-20T09:23:32.241Z</time>
      </trkpt>
      <trkpt lat="48.77488" lon="2.26919">
        <ele>107</ele>
        <time>2022-02-20T09:23:37.248Z</time>
      </trkpt>
      <trkpt lat="48.77489" lon="2.26912">
        <ele>107</ele>
        <time>2022-02-20T09:23:42.240Z</time>
      </trkpt>
      <trkpt lat="48.77489" lon="2.26906">
        <ele>107</ele>
        <time>2022-02-20T09:23:47.249Z</time>
      </trkpt>
      <trkpt lat="48.77489" lon="2.26904">
        <ele>107</ele>
        <time>2022-02-20T09:23:57.261Z</time>
      </trkpt>
      <trkpt lat="48.77487" lon="2.26899">
        <ele>110</ele>
        <time>2022-02-20T09:24:02.256Z</time>
      </trkpt>
      <trkpt lat="48.77487" lon="2.26898">
        <ele>110</ele>
        <time>2022-02-20T09:24:06.241Z</time>
      </trkpt>
      <trkpt lat="48.77487" lon="2.26897">
        <ele>110</ele>
        <time>2022-02-20T09:24:11.251Z</time>
      </trkpt>
      <trkpt lat="48.77483" lon="2.2689">
        <ele>110</ele>
        <time>2022-02-20T09:24:16.234Z</time>
      </trkpt>
      <trkpt lat="48.77479" lon="2.26886">
        <ele>110</ele>
        <time>2022-02-20T09:24:21.233Z</time>
      </trkpt>
      <trkpt lat="48.77476" lon="2.26882">
        <ele>110</ele>
        <time>2022-02-20T09:24:25.240Z</time>
      </trkpt>
      <trkpt lat="48.77472" lon="2.26878">
        <ele>110</ele>
        <time>2022-02-20T09:24:29.246Z</time>
      </trkpt>
      <trkpt lat="48.77469" lon="2.26873">
        <ele>112</ele>
        <time>2022-02-20T09:24:33.249Z</time>
      </trkpt>
      <trkpt lat="48.77464" lon="2.26867">
        <ele>112</ele>
        <time>2022-02-20T09:24:38.227Z</time>
      </trkpt>
      <trkpt lat="48.77461" lon="2.26863">
        <ele>112</ele>
        <time>2022-02-20T09:24:42.235Z</time>
      </trkpt>
      <trkpt lat="48.77458" lon="2.26857">
        <ele>113</ele>
        <time>2022-02-20T09:24:46.236Z</time>
      </trkpt>
      <trkpt lat="48.77454" lon="2.26853">
        <ele>113</ele>
        <time>2022-02-20T09:24:51.248Z</time>
      </trkpt>
      <trkpt lat="48.7745" lon="2.26847">
        <ele>115</ele>
        <time>2022-02-20T09:24:56.246Z</time>
      </trkpt>
      <trkpt lat="48.77445" lon="2.26842">
        <ele>115</ele>
        <time>2022-02-20T09:25:01.234Z</time>
      </trkpt>
      <trkpt lat="48.77439" lon="2.26837">
        <ele>115</ele>
        <time>2022-02-20T09:25:05.250Z</time>
      </trkpt>
      <trkpt lat="48.77432" lon="2.26832">
        <ele>115</ele>
        <time>2022-02-20T09:25:10.234Z</time>
      </trkpt>
      <trkpt lat="48.77425" lon="2.26829">
        <ele>116</ele>
        <time>2022-02-20T09:25:15.235Z</time>
      </trkpt>
      <trkpt lat="48.7742" lon="2.26824">
        <ele>116</ele>
        <time>2022-02-20T09:25:20.236Z</time>
      </trkpt>
      <trkpt lat="48.77415" lon="2.26821">
        <ele>116</ele>
        <time>2022-02-20T09:25:25.235Z</time>
      </trkpt>
      <trkpt lat="48.77409" lon="2.26818">
        <ele>118</ele>
        <time>2022-02-20T09:25:30.241Z</time>
      </trkpt>
      <trkpt lat="48.77405" lon="2.26814">
        <ele>118</ele>
        <time>2022-02-20T09:25:35.237Z</time>
      </trkpt>
      <trkpt lat="48.77402" lon="2.2681">
        <ele>114</ele>
        <time>2022-02-20T09:25:39.242Z</time>
      </trkpt>
      <trkpt lat="48.77397" lon="2.26806">
        <ele>114</ele>
        <time>2022-02-20T09:25:44.249Z</time>
      </trkpt>
      <trkpt lat="48.77391" lon="2.26803">
        <ele>114</ele>
        <time>2022-02-20T09:25:49.232Z</time>
      </trkpt>
      <trkpt lat="48.77388" lon="2.26798">
        <ele>114</ele>
        <time>2022-02-20T09:25:53.242Z</time>
      </trkpt>
      <trkpt lat="48.77383" lon="2.26793">
        <ele>114</ele>
        <time>2022-02-20T09:25:58.235Z</time>
      </trkpt>
      <trkpt lat="48.77378" lon="2.26788">
        <ele>117</ele>
        <time>2022-02-20T09:26:02.241Z</time>
      </trkpt>
      <trkpt lat="48.77373" lon="2.26782">
        <ele>112</ele>
        <time>2022-02-20T09:26:07.244Z</time>
      </trkpt>
      <trkpt lat="48.77368" lon="2.26777">
        <ele>112</ele>
        <time>2022-02-20T09:26:11.241Z</time>
      </trkpt>
      <trkpt lat="48.77363" lon="2.2677">
        <ele>112</ele>
        <time>2022-02-20T09:26:16.240Z</time>
      </trkpt>
      <trkpt lat="48.77358" lon="2.26765">
        <ele>112</ele>
        <time>2022-02-20T09:26:20.248Z</time>
      </trkpt>
      <trkpt lat="48.77353" lon="2.26758">
        <ele>117</ele>
        <time>2022-02-20T09:26:25.250Z</time>
      </trkpt>
      <trkpt lat="48.77348" lon="2.26751">
        <ele>117</ele>
        <time>2022-02-20T09:26:30.233Z</time>
      </trkpt>
      <trkpt lat="48.77344" lon="2.26745">
        <ele>115</ele>
        <time>2022-02-20T09:26:34.233Z</time>
      </trkpt>
      <trkpt lat="48.77342" lon="2.26744">
        <ele>115</ele>
        <time>2022-02-20T09:26:39.235Z</time>
      </trkpt>
      <trkpt lat="48.77339" lon="2.2674">
        <ele>115</ele>
        <time>2022-02-20T09:26:43.232Z</time>
      </trkpt>
      <trkpt lat="48.7734" lon="2.26737">
        <ele>115</ele>
        <time>2022-02-20T09:26:47.243Z</time>
      </trkpt>
      <trkpt lat="48.77342" lon="2.26732">
        <ele>119</ele>
        <time>2022-02-20T09:26:52.234Z</time>
      </trkpt>
      <trkpt lat="48.7734" lon="2.26726">
        <ele>119</ele>
        <time>2022-02-20T09:26:56.237Z</time>
      </trkpt>
      <trkpt lat="48.77338" lon="2.26718">
        <ele>119</ele>
        <time>2022-02-20T09:27:01.244Z</time>
      </trkpt>
      <trkpt lat="48.77335" lon="2.26711">
        <ele>119</ele>
        <time>2022-02-20T09:27:06.235Z</time>
      </trkpt>
      <trkpt lat="48.77331" lon="2.26704">
        <ele>123</ele>
        <time>2022-02-20T09:27:11.230Z</time>
      </trkpt>
      <trkpt lat="48.77328" lon="2.26698">
        <ele>123</ele>
        <time>2022-02-20T09:27:15.244Z</time>
      </trkpt>
      <trkpt lat="48.77323" lon="2.26692">
        <ele>123</ele>
        <time>2022-02-20T09:27:20.229Z</time>
      </trkpt>
      <trkpt lat="48.77317" lon="2.26689">
        <ele>118</ele>
        <time>2022-02-20T09:27:24.238Z</time>
      </trkpt>
      <trkpt lat="48.7731" lon="2.26686">
        <ele>118</ele>
        <time>2022-02-20T09:27:29.230Z</time>
      </trkpt>
      <trkpt lat="48.77304" lon="2.26687">
        <ele>118</ele>
        <time>2022-02-20T09:27:34.242Z</time>
      </trkpt>
      <trkpt lat="48.77298" lon="2.26688">
        <ele>118</ele>
        <time>2022-02-20T09:27:39.243Z</time>
      </trkpt>
      <trkpt lat="48.77292" lon="2.26685">
        <ele>118</ele>
        <time>2022-02-20T09:27:44.237Z</time>
      </trkpt>
      <trkpt lat="48.77287" lon="2.26684">
        <ele>116</ele>
        <time>2022-02-20T09:27:49.243Z</time>
      </trkpt>
      <trkpt lat="48.77281" lon="2.26682">
        <ele>116</ele>
        <time>2022-02-20T09:27:54.258Z</time>
      </trkpt>
      <trkpt lat="48.77275" lon="2.26681">
        <ele>116</ele>
        <time>2022-02-20T09:27:59.256Z</time>
      </trkpt>
      <trkpt lat="48.77269" lon="2.26676">
        <ele>118</ele>
        <time>2022-02-20T09:28:04.258Z</time>
      </trkpt>
      <trkpt lat="48.77265" lon="2.2667">
        <ele>118</ele>
        <time>2022-02-20T09:28:09.248Z</time>
      </trkpt>
      <trkpt lat="48.77263" lon="2.26662">
        <ele>118</ele>
        <time>2022-02-20T09:28:14.242Z</time>
      </trkpt>
      <trkpt lat="48.77262" lon="2.26656">
        <ele>118</ele>
        <time>2022-02-20T09:28:18.243Z</time>
      </trkpt>
      <trkpt lat="48.77262" lon="2.26648">
        <ele>119</ele>
        <time>2022-02-20T09:28:23.251Z</time>
      </trkpt>
      <trkpt lat="48.77263" lon="2.26642">
        <ele>119</ele>
        <time>2022-02-20T09:28:27.248Z</time>
      </trkpt>
      <trkpt lat="48.77265" lon="2.26633">
        <ele>120</ele>
        <time>2022-02-20T09:28:32.247Z</time>
      </trkpt>
      <trkpt lat="48.77268" lon="2.26627">
        <ele>120</ele>
        <time>2022-02-20T09:28:37.240Z</time>
      </trkpt>
      <trkpt lat="48.7727" lon="2.26619">
        <ele>122</ele>
        <time>2022-02-20T09:28:42.249Z</time>
      </trkpt>
      <trkpt lat="48.77272" lon="2.26613">
        <ele>122</ele>
        <time>2022-02-20T09:28:47.236Z</time>
      </trkpt>
      <trkpt lat="48.77273" lon="2.26605">
        <ele>122</ele>
        <time>2022-02-20T09:28:51.238Z</time>
      </trkpt>
      <trkpt lat="48.77274" lon="2.26597">
        <ele>122</ele>
        <time>2022-02-20T09:28:56.240Z</time>
      </trkpt>
      <trkpt lat="48.77275" lon="2.26592">
        <ele>126</ele>
        <time>2022-02-20T09:29:00.241Z</time>
      </trkpt>
      <trkpt lat="48.77277" lon="2.26585">
        <ele>126</ele>
        <time>2022-02-20T09:29:05.237Z</time>
      </trkpt>
      <trkpt lat="48.77278" lon="2.26578">
        <ele>126</ele>
        <time>2022-02-20T09:29:09.244Z</time>
      </trkpt>
      <trkpt lat="48.77278" lon="2.26571">
        <ele>126</ele>
        <time>2022-02-20T09:29:13.248Z</time>
      </trkpt>
      <trkpt lat="48.7728" lon="2.26563">
        <ele>130</ele>
        <time>2022-02-20T09:29:18.248Z</time>
      </trkpt>
      <trkpt lat="48.77281" lon="2.26554">
        <ele>130</ele>
        <time>2022-02-20T09:29:23.240Z</time>
      </trkpt>
      <trkpt lat="48.77282" lon="2.26543">
        <ele>130</ele>
        <time>2022-02-20T09:29:28.243Z</time>
      </trkpt>
      <trkpt lat="48.77283" lon="2.26535">
        <ele>132</ele>
        <time>2022-02-20T09:29:33.249Z</time>
      </trkpt>
      <trkpt lat="48.77282" lon="2.26525">
        <ele>132</ele>
        <time>2022-02-20T09:29:38.247Z</time>
      </trkpt>
      <trkpt lat="48.77282" lon="2.26516">
        <ele>132</ele>
        <time>2022-02-20T09:29:43.249Z</time>
      </trkpt>
      <trkpt lat="48.77281" lon="2.26507">
        <ele>131</ele>
        <time>2022-02-20T09:29:48.231Z</time>
      </trkpt>
      <trkpt lat="48.77281" lon="2.26497">
        <ele>131</ele>
        <time>2022-02-20T09:29:52.230Z</time>
      </trkpt>
      <trkpt lat="48.77279" lon="2.26492">
        <ele>131</ele>
        <time>2022-02-20T09:29:57.230Z</time>
      </trkpt>
      <trkpt lat="48.77279" lon="2.26491">
        <ele>131</ele>
        <time>2022-02-20T09:30:01.238Z</time>
      </trkpt>
      <trkpt lat="48.77277" lon="2.26487">
        <ele>131</ele>
        <time>2022-02-20T09:30:06.236Z</time>
      </trkpt>
      <trkpt lat="48.77276" lon="2.26481">
        <ele>131</ele>
        <time>2022-02-20T09:30:10.246Z</time>
      </trkpt>
      <trkpt lat="48.77275" lon="2.26472">
        <ele>131</ele>
        <time>2022-02-20T09:30:15.231Z</time>
      </trkpt>
      <trkpt lat="48.77274" lon="2.26467">
        <ele>131</ele>
        <time>2022-02-20T09:30:19.227Z</time>
      </trkpt>
      <trkpt lat="48.77275" lon="2.26461">
        <ele>131</ele>
        <time>2022-02-20T09:30:24.232Z</time>
      </trkpt>
      <trkpt lat="48.77274" lon="2.26452">
        <ele>129</ele>
        <time>2022-02-20T09:30:29.238Z</time>
      </trkpt>
      <trkpt lat="48.77274" lon="2.26449">
        <ele>129</ele>
        <time>2022-02-20T09:30:33.235Z</time>
      </trkpt>
      <trkpt lat="48.7728" lon="2.26437">
        <ele>129</ele>
        <time>2022-02-20T09:31:07.236Z</time>
      </trkpt>
      <trkpt lat="48.77284" lon="2.26438">
        <ele>129</ele>
        <time>2022-02-20T09:31:12.236Z</time>
      </trkpt>
      <trkpt lat="48.77287" lon="2.26434">
        <ele>129</ele>
        <time>2022-02-20T09:31:17.236Z</time>
      </trkpt>
      <trkpt lat="48.77287" lon="2.26423">
        <ele>128</ele>
        <time>2022-02-20T09:31:22.236Z</time>
      </trkpt>
      <trkpt lat="48.77288" lon="2.26417">
        <ele>128</ele>
        <time>2022-02-20T09:31:27.242Z</time>
      </trkpt>
      <trkpt lat="48.77289" lon="2.26408">
        <ele>128</ele>
        <time>2022-02-20T09:31:32.235Z</time>
      </trkpt>
      <trkpt lat="48.77287" lon="2.26403">
        <ele>128</ele>
        <time>2022-02-20T09:31:37.223Z</time>
      </trkpt>
      <trkpt lat="48.7729" lon="2.26401">
        <ele>129</ele>
        <time>2022-02-20T09:31:42.234Z</time>
      </trkpt>
      <trkpt lat="48.77292" lon="2.26395">
        <ele>129</ele>
        <time>2022-02-20T09:31:46.236Z</time>
      </trkpt>
      <trkpt lat="48.77295" lon="2.26388">
        <ele>129</ele>
        <time>2022-02-20T09:31:51.235Z</time>
      </trkpt>
      <trkpt lat="48.77298" lon="2.26377">
        <ele>129</ele>
        <time>2022-02-20T09:31:56.232Z</time>
      </trkpt>
      <trkpt lat="48.77296" lon="2.26371">
        <ele>129</ele>
        <time>2022-02-20T09:32:00.235Z</time>
      </trkpt>
      <trkpt lat="48.77296" lon="2.26368">
        <ele>129</ele>
        <time>2022-02-20T09:32:04.227Z</time>
      </trkpt>
      <trkpt lat="48.77292" lon="2.26369">
        <ele>129</ele>
        <time>2022-02-20T09:32:09.230Z</time>
      </trkpt>
      <trkpt lat="48.77287" lon="2.26369">
        <ele>130</ele>
        <time>2022-02-20T09:32:13.233Z</time>
      </trkpt>
      <trkpt lat="48.7728" lon="2.26368">
        <ele>130</ele>
        <time>2022-02-20T09:32:18.232Z</time>
      </trkpt>
      <trkpt lat="48.77274" lon="2.26369">
        <ele>130</ele>
        <time>2022-02-20T09:32:22.250Z</time>
      </trkpt>
      <trkpt lat="48.77269" lon="2.26368">
        <ele>130</ele>
        <time>2022-02-20T09:32:27.230Z</time>
      </trkpt>
      <trkpt lat="48.77268" lon="2.26366">
        <ele>130</ele>
        <time>2022-02-20T09:32:31.236Z</time>
      </trkpt>
      <trkpt lat="48.77264" lon="2.2637">
        <ele>130</ele>
        <time>2022-02-20T09:32:35.241Z</time>
      </trkpt>
      <trkpt lat="48.7726" lon="2.26378">
        <ele>130</ele>
        <time>2022-02-20T09:32:40.242Z</time>
      </trkpt>
      <trkpt lat="48.77258" lon="2.26388">
        <ele>130</ele>
        <time>2022-02-20T09:32:45.239Z</time>
      </trkpt>
      <trkpt lat="48.77257" lon="2.26399">
        <ele>130</ele>
        <time>2022-02-20T09:32:50.230Z</time>
      </trkpt>
      <trkpt lat="48.77256" lon="2.2641">
        <ele>129</ele>
        <time>2022-02-20T09:32:55.240Z</time>
      </trkpt>
      <trkpt lat="48.77256" lon="2.26417">
        <ele>129</ele>
        <time>2022-02-20T09:32:59.242Z</time>
      </trkpt>
      <trkpt lat="48.77257" lon="2.26424">
        <ele>129</ele>
        <time>2022-02-20T09:33:04.235Z</time>
      </trkpt>
      <trkpt lat="48.77256" lon="2.2643">
        <ele>129</ele>
        <time>2022-02-20T09:33:09.243Z</time>
      </trkpt>
      <trkpt lat="48.77259" lon="2.26426">
        <ele>129</ele>
        <time>2022-02-20T09:34:38.236Z</time>
      </trkpt>
      <trkpt lat="48.77258" lon="2.26416">
        <ele>129</ele>
        <time>2022-02-20T09:34:43.241Z</time>
      </trkpt>
      <trkpt lat="48.77257" lon="2.26408">
        <ele>129</ele>
        <time>2022-02-20T09:34:47.241Z</time>
      </trkpt>
      <trkpt lat="48.77256" lon="2.264">
        <ele>130</ele>
        <time>2022-02-20T09:34:52.244Z</time>
      </trkpt>
      <trkpt lat="48.77256" lon="2.26391">
        <ele>130</ele>
        <time>2022-02-20T09:34:57.232Z</time>
      </trkpt>
      <trkpt lat="48.77257" lon="2.26384">
        <ele>130</ele>
        <time>2022-02-20T09:35:01.243Z</time>
      </trkpt>
      <trkpt lat="48.77261" lon="2.26377">
        <ele>130</ele>
        <time>2022-02-20T09:35:06.249Z</time>
      </trkpt>
      <trkpt lat="48.77265" lon="2.26372">
        <ele>130</ele>
        <time>2022-02-20T09:35:11.238Z</time>
      </trkpt>
      <trkpt lat="48.77271" lon="2.26366">
        <ele>130</ele>
        <time>2022-02-20T09:35:16.248Z</time>
      </trkpt>
      <trkpt lat="48.77276" lon="2.26365">
        <ele>130</ele>
        <time>2022-02-20T09:35:21.243Z</time>
      </trkpt>
      <trkpt lat="48.77281" lon="2.26366">
        <ele>130</ele>
        <time>2022-02-20T09:35:26.246Z</time>
      </trkpt>
      <trkpt lat="48.77287" lon="2.26364">
        <ele>130</ele>
        <time>2022-02-20T09:35:31.244Z</time>
      </trkpt>
      <trkpt lat="48.77291" lon="2.26368">
        <ele>130</ele>
        <time>2022-02-20T09:35:35.253Z</time>
      </trkpt>
      <trkpt lat="48.77293" lon="2.26377">
        <ele>129</ele>
        <time>2022-02-20T09:35:40.239Z</time>
      </trkpt>
      <trkpt lat="48.77291" lon="2.26383">
        <ele>129</ele>
        <time>2022-02-20T09:35:44.235Z</time>
      </trkpt>
      <trkpt lat="48.7729" lon="2.2639">
        <ele>129</ele>
        <time>2022-02-20T09:35:48.243Z</time>
      </trkpt>
      <trkpt lat="48.77289" lon="2.26397">
        <ele>129</ele>
        <time>2022-02-20T09:35:52.231Z</time>
      </trkpt>
      <trkpt lat="48.77287" lon="2.26405">
        <ele>128</ele>
        <time>2022-02-20T09:35:57.232Z</time>
      </trkpt>
      <trkpt lat="48.77284" lon="2.26411">
        <ele>128</ele>
        <time>2022-02-20T09:36:02.232Z</time>
      </trkpt>
      <trkpt lat="48.77282" lon="2.26416">
        <ele>128</ele>
        <time>2022-02-20T09:36:07.233Z</time>
      </trkpt>
      <trkpt lat="48.77281" lon="2.26421">
        <ele>128</ele>
        <time>2022-02-20T09:36:11.238Z</time>
      </trkpt>
      <trkpt lat="48.77278" lon="2.26428">
        <ele>128</ele>
        <time>2022-02-20T09:36:16.236Z</time>
      </trkpt>
      <trkpt lat="48.77277" lon="2.26434">
        <ele>129</ele>
        <time>2022-02-20T09:36:20.232Z</time>
      </trkpt>
      <trkpt lat="48.77276" lon="2.26442">
        <ele>129</ele>
        <time>2022-02-20T09:36:25.229Z</time>
      </trkpt>
      <trkpt lat="48.77276" lon="2.26449">
        <ele>129</ele>
        <time>2022-02-20T09:36:30.240Z</time>
      </trkpt>
      <trkpt lat="48.77277" lon="2.26455">
        <ele>129</ele>
        <time>2022-02-20T09:36:34.247Z</time>
      </trkpt>
      <trkpt lat="48.77278" lon="2.26462">
        <ele>131</ele>
        <time>2022-02-20T09:36:38.253Z</time>
      </trkpt>
      <trkpt lat="48.77279" lon="2.26475">
        <ele>131</ele>
        <time>2022-02-20T09:36:43.236Z</time>
      </trkpt>
      <trkpt lat="48.7728" lon="2.26483">
        <ele>131</ele>
        <time>2022-02-20T09:36:47.244Z</time>
      </trkpt>
      <trkpt lat="48.77282" lon="2.26492">
        <ele>131</ele>
        <time>2022-02-20T09:36:52.244Z</time>
      </trkpt>
      <trkpt lat="48.77283" lon="2.26501">
        <ele>131</ele>
        <time>2022-02-20T09:36:56.250Z</time>
      </trkpt>
      <trkpt lat="48.77286" lon="2.26511">
        <ele>131</ele>
        <time>2022-02-20T09:37:01.229Z</time>
      </trkpt>
      <trkpt lat="48.77287" lon="2.26516">
        <ele>132</ele>
        <time>2022-02-20T09:37:05.233Z</time>
      </trkpt>
      <trkpt lat="48.77289" lon="2.26522">
        <ele>132</ele>
        <time>2022-02-20T09:37:09.247Z</time>
      </trkpt>
      <trkpt lat="48.7729" lon="2.2653">
        <ele>132</ele>
        <time>2022-02-20T09:37:14.232Z</time>
      </trkpt>
      <trkpt lat="48.77292" lon="2.26538">
        <ele>134</ele>
        <time>2022-02-20T09:37:18.238Z</time>
      </trkpt>
      <trkpt lat="48.77295" lon="2.26548">
        <ele>131</ele>
        <time>2022-02-20T09:37:23.252Z</time>
      </trkpt>
      <trkpt lat="48.77299" lon="2.26557">
        <ele>131</ele>
        <time>2022-02-20T09:37:28.234Z</time>
      </trkpt>
      <trkpt lat="48.773" lon="2.26564">
        <ele>131</ele>
        <time>2022-02-20T09:37:32.248Z</time>
      </trkpt>
      <trkpt lat="48.77304" lon="2.2657">
        <ele>128</ele>
        <time>2022-02-20T09:37:37.229Z</time>
      </trkpt>
      <trkpt lat="48.77307" lon="2.26576">
        <ele>128</ele>
        <time>2022-02-20T09:37:42.223Z</time>
      </trkpt>
      <trkpt lat="48.77312" lon="2.26583">
        <ele>128</ele>
        <time>2022-02-20T09:37:47.233Z</time>
      </trkpt>
      <trkpt lat="48.77316" lon="2.26588">
        <ele>128</ele>
        <time>2022-02-20T09:37:51.239Z</time>
      </trkpt>
      <trkpt lat="48.7732" lon="2.26593">
        <ele>131</ele>
        <time>2022-02-20T09:37:56.233Z</time>
      </trkpt>
      <trkpt lat="48.77322" lon="2.26599">
        <ele>129</ele>
        <time>2022-02-20T09:38:00.243Z</time>
      </trkpt>
      <trkpt lat="48.77327" lon="2.26605">
        <ele>129</ele>
        <time>2022-02-20T09:38:05.236Z</time>
      </trkpt>
      <trkpt lat="48.77331" lon="2.26612">
        <ele>129</ele>
        <time>2022-02-20T09:38:10.236Z</time>
      </trkpt>
      <trkpt lat="48.77334" lon="2.26618">
        <ele>129</ele>
        <time>2022-02-20T09:38:14.236Z</time>
      </trkpt>
      <trkpt lat="48.77338" lon="2.26623">
        <ele>129</ele>
        <time>2022-02-20T09:38:19.233Z</time>
      </trkpt>
      <trkpt lat="48.77341" lon="2.26631">
        <ele>127</ele>
        <time>2022-02-20T09:38:24.250Z</time>
      </trkpt>
      <trkpt lat="48.77343" lon="2.26638">
        <ele>127</ele>
        <time>2022-02-20T09:38:29.247Z</time>
      </trkpt>
      <trkpt lat="48.77344" lon="2.26646">
        <ele>127</ele>
        <time>2022-02-20T09:38:34.239Z</time>
      </trkpt>
      <trkpt lat="48.77345" lon="2.26654">
        <ele>125</ele>
        <time>2022-02-20T09:38:39.232Z</time>
      </trkpt>
      <trkpt lat="48.77346" lon="2.26661">
        <ele>125</ele>
        <time>2022-02-20T09:38:43.233Z</time>
      </trkpt>
      <trkpt lat="48.77346" lon="2.26667">
        <ele>125</ele>
        <time>2022-02-20T09:38:47.243Z</time>
      </trkpt>
      <trkpt lat="48.77347" lon="2.26677">
        <ele>125</ele>
        <time>2022-02-20T09:38:52.243Z</time>
      </trkpt>
      <trkpt lat="48.77347" lon="2.26683">
        <ele>123</ele>
        <time>2022-02-20T09:38:56.254Z</time>
      </trkpt>
      <trkpt lat="48.77342" lon="2.26687">
        <ele>123</ele>
        <time>2022-02-20T09:39:01.245Z</time>
      </trkpt>
      <trkpt lat="48.7734" lon="2.26692">
        <ele>123</ele>
        <time>2022-02-20T09:39:05.236Z</time>
      </trkpt>
      <trkpt lat="48.77341" lon="2.26701">
        <ele>123</ele>
        <time>2022-02-20T09:39:10.241Z</time>
      </trkpt>
      <trkpt lat="48.77342" lon="2.2671">
        <ele>119</ele>
        <time>2022-02-20T09:39:15.232Z</time>
      </trkpt>
      <trkpt lat="48.77342" lon="2.26716">
        <ele>119</ele>
        <time>2022-02-20T09:39:19.246Z</time>
      </trkpt>
      <trkpt lat="48.77342" lon="2.26725">
        <ele>119</ele>
        <time>2022-02-20T09:39:24.249Z</time>
      </trkpt>
      <trkpt lat="48.77341" lon="2.26733">
        <ele>119</ele>
        <time>2022-02-20T09:39:29.253Z</time>
      </trkpt>
      <trkpt lat="48.77346" lon="2.26735">
        <ele>119</ele>
        <time>2022-02-20T09:39:34.250Z</time>
      </trkpt>
      <trkpt lat="48.77351" lon="2.26734">
        <ele>122</ele>
        <time>2022-02-20T09:39:39.244Z</time>
      </trkpt>
      <trkpt lat="48.77354" lon="2.26729">
        <ele>122</ele>
        <time>2022-02-20T09:39:44.243Z</time>
      </trkpt>
      <trkpt lat="48.77356" lon="2.26723">
        <ele>122</ele>
        <time>2022-02-20T09:39:49.241Z</time>
      </trkpt>
      <trkpt lat="48.77359" lon="2.26716">
        <ele>122</ele>
        <time>2022-02-20T09:39:54.241Z</time>
      </trkpt>
      <trkpt lat="48.77363" lon="2.26711">
        <ele>122</ele>
        <time>2022-02-20T09:39:59.237Z</time>
      </trkpt>
      <trkpt lat="48.77365" lon="2.26705">
        <ele>127</ele>
        <time>2022-02-20T09:40:03.248Z</time>
      </trkpt>
      <trkpt lat="48.77368" lon="2.26698">
        <ele>127</ele>
        <time>2022-02-20T09:40:08.234Z</time>
      </trkpt>
      <trkpt lat="48.77371" lon="2.26691">
        <ele>127</ele>
        <time>2022-02-20T09:40:13.250Z</time>
      </trkpt>
      <trkpt lat="48.77374" lon="2.26684">
        <ele>127</ele>
        <time>2022-02-20T09:40:18.239Z</time>
      </trkpt>
      <trkpt lat="48.77377" lon="2.26679">
        <ele>130</ele>
        <time>2022-02-20T09:40:22.245Z</time>
      </trkpt>
      <trkpt lat="48.7738" lon="2.26672">
        <ele>130</ele>
        <time>2022-02-20T09:40:27.242Z</time>
      </trkpt>
      <trkpt lat="48.77383" lon="2.26665">
        <ele>130</ele>
        <time>2022-02-20T09:40:32.244Z</time>
      </trkpt>
      <trkpt lat="48.77387" lon="2.26658">
        <ele>130</ele>
        <time>2022-02-20T09:40:37.237Z</time>
      </trkpt>
      <trkpt lat="48.7739" lon="2.26651">
        <ele>131</ele>
        <time>2022-02-20T09:40:42.241Z</time>
      </trkpt>
      <trkpt lat="48.77394" lon="2.26646">
        <ele>131</ele>
        <time>2022-02-20T09:40:46.249Z</time>
      </trkpt>
      <trkpt lat="48.77397" lon="2.26639">
        <ele>131</ele>
        <time>2022-02-20T09:40:51.244Z</time>
      </trkpt>
      <trkpt lat="48.77402" lon="2.26633">
        <ele>131</ele>
        <time>2022-02-20T09:40:56.248Z</time>
      </trkpt>
      <trkpt lat="48.77407" lon="2.26627">
        <ele>133</ele>
        <time>2022-02-20T09:41:01.245Z</time>
      </trkpt>
      <trkpt lat="48.7741" lon="2.26618">
        <ele>133</ele>
        <time>2022-02-20T09:41:06.252Z</time>
      </trkpt>
      <trkpt lat="48.77414" lon="2.26613">
        <ele>133</ele>
        <time>2022-02-20T09:41:10.256Z</time>
      </trkpt>
      <trkpt lat="48.77418" lon="2.26605">
        <ele>133</ele>
        <time>2022-02-20T09:41:15.241Z</time>
      </trkpt>
      <trkpt lat="48.77423" lon="2.26601">
        <ele>133</ele>
        <time>2022-02-20T09:41:20.243Z</time>
      </trkpt>
      <trkpt lat="48.77427" lon="2.26598">
        <ele>133</ele>
        <time>2022-02-20T09:41:24.245Z</time>
      </trkpt>
      <trkpt lat="48.77431" lon="2.26593">
        <ele>132</ele>
        <time>2022-02-20T09:41:29.251Z</time>
      </trkpt>
      <trkpt lat="48.77435" lon="2.26589">
        <ele>132</ele>
        <time>2022-02-20T09:41:34.241Z</time>
      </trkpt>
      <trkpt lat="48.77441" lon="2.26585">
        <ele>132</ele>
        <time>2022-02-20T09:41:39.247Z</time>
      </trkpt>
      <trkpt lat="48.77445" lon="2.26578">
        <ele>132</ele>
        <time>2022-02-20T09:41:44.247Z</time>
      </trkpt>
      <trkpt lat="48.7745" lon="2.26573">
        <ele>132</ele>
        <time>2022-02-20T09:41:49.235Z</time>
      </trkpt>
      <trkpt lat="48.77453" lon="2.26567">
        <ele>131</ele>
        <time>2022-02-20T09:41:53.255Z</time>
      </trkpt>
      <trkpt lat="48.77457" lon="2.26561">
        <ele>131</ele>
        <time>2022-02-20T09:41:58.243Z</time>
      </trkpt>
      <trkpt lat="48.7746" lon="2.26555">
        <ele>133</ele>
        <time>2022-02-20T09:42:02.250Z</time>
      </trkpt>
      <trkpt lat="48.77463" lon="2.26547">
        <ele>133</ele>
        <time>2022-02-20T09:42:07.243Z</time>
      </trkpt>
      <trkpt lat="48.77463" lon="2.26537">
        <ele>134</ele>
        <time>2022-02-20T09:42:12.227Z</time>
      </trkpt>
      <trkpt lat="48.77461" lon="2.26528">
        <ele>134</ele>
        <time>2022-02-20T09:42:16.247Z</time>
      </trkpt>
      <trkpt lat="48.7746" lon="2.26521">
        <ele>134</ele>
        <time>2022-02-20T09:42:20.239Z</time>
      </trkpt>
      <trkpt lat="48.77459" lon="2.26514">
        <ele>137</ele>
        <time>2022-02-20T09:42:25.235Z</time>
      </trkpt>
      <trkpt lat="48.77459" lon="2.26506">
        <ele>137</ele>
        <time>2022-02-20T09:42:29.240Z</time>
      </trkpt>
      <trkpt lat="48.77459" lon="2.26498">
        <ele>137</ele>
        <time>2022-02-20T09:42:34.247Z</time>
      </trkpt>
      <trkpt lat="48.7746" lon="2.2649">
        <ele>137</ele>
        <time>2022-02-20T09:42:39.240Z</time>
      </trkpt>
      <trkpt lat="48.77461" lon="2.26482">
        <ele>141</ele>
        <time>2022-02-20T09:42:44.237Z</time>
      </trkpt>
      <trkpt lat="48.77462" lon="2.26474">
        <ele>141</ele>
        <time>2022-02-20T09:42:49.246Z</time>
      </trkpt>
      <trkpt lat="48.77463" lon="2.26465">
        <ele>141</ele>
        <time>2022-02-20T09:42:54.243Z</time>
      </trkpt>
      <trkpt lat="48.77462" lon="2.26459">
        <ele>141</ele>
        <time>2022-02-20T09:42:58.249Z</time>
      </trkpt>
      <trkpt lat="48.7746" lon="2.26449">
        <ele>143</ele>
        <time>2022-02-20T09:43:03.247Z</time>
      </trkpt>
      <trkpt lat="48.77459" lon="2.26441">
        <ele>143</ele>
        <time>2022-02-20T09:43:07.254Z</time>
      </trkpt>
      <trkpt lat="48.77457" lon="2.26433">
        <ele>141</ele>
        <time>2022-02-20T09:43:12.242Z</time>
      </trkpt>
      <trkpt lat="48.77455" lon="2.26423">
        <ele>141</ele>
        <time>2022-02-20T09:43:17.243Z</time>
      </trkpt>
      <trkpt lat="48.77453" lon="2.26415">
        <ele>141</ele>
        <time>2022-02-20T09:43:22.239Z</time>
      </trkpt>
      <trkpt lat="48.77451" lon="2.26409">
        <ele>141</ele>
        <time>2022-02-20T09:43:26.240Z</time>
      </trkpt>
      <trkpt lat="48.77448" lon="2.26403">
        <ele>141</ele>
        <time>2022-02-20T09:43:30.243Z</time>
      </trkpt>
      <trkpt lat="48.77445" lon="2.26397">
        <ele>143</ele>
        <time>2022-02-20T09:43:34.249Z</time>
      </trkpt>
      <trkpt lat="48.7744" lon="2.26392">
        <ele>143</ele>
        <time>2022-02-20T09:43:39.240Z</time>
      </trkpt>
      <trkpt lat="48.77435" lon="2.26388">
        <ele>143</ele>
        <time>2022-02-20T09:43:44.241Z</time>
      </trkpt>
      <trkpt lat="48.77431" lon="2.26384">
        <ele>143</ele>
        <time>2022-02-20T09:43:48.252Z</time>
      </trkpt>
      <trkpt lat="48.77427" lon="2.26382">
        <ele>142</ele>
        <time>2022-02-20T09:43:52.261Z</time>
      </trkpt>
      <trkpt lat="48.77421" lon="2.26381">
        <ele>142</ele>
        <time>2022-02-20T09:43:57.248Z</time>
      </trkpt>
      <trkpt lat="48.77415" lon="2.26379">
        <ele>142</ele>
        <time>2022-02-20T09:44:02.241Z</time>
      </trkpt>
      <trkpt lat="48.7741" lon="2.26378">
        <ele>142</ele>
        <time>2022-02-20T09:44:06.252Z</time>
      </trkpt>
      <trkpt lat="48.77405" lon="2.26377">
        <ele>142</ele>
        <time>2022-02-20T09:44:11.239Z</time>
      </trkpt>
      <trkpt lat="48.77398" lon="2.26377">
        <ele>141</ele>
        <time>2022-02-20T09:44:16.241Z</time>
      </trkpt>
      <trkpt lat="48.77392" lon="2.26378">
        <ele>141</ele>
        <time>2022-02-20T09:44:20.247Z</time>
      </trkpt>
      <trkpt lat="48.77385" lon="2.26377">
        <ele>141</ele>
        <time>2022-02-20T09:44:25.243Z</time>
      </trkpt>
      <trkpt lat="48.77379" lon="2.26375">
        <ele>140</ele>
        <time>2022-02-20T09:44:30.249Z</time>
      </trkpt>
      <trkpt lat="48.77372" lon="2.26372">
        <ele>136</ele>
        <time>2022-02-20T09:44:35.235Z</time>
      </trkpt>
      <trkpt lat="48.77368" lon="2.26368">
        <ele>136</ele>
        <time>2022-02-20T09:44:39.239Z</time>
      </trkpt>
      <trkpt lat="48.77363" lon="2.26362">
        <ele>136</ele>
        <time>2022-02-20T09:44:44.239Z</time>
      </trkpt>
      <trkpt lat="48.77359" lon="2.26356">
        <ele>136</ele>
        <time>2022-02-20T09:44:48.246Z</time>
      </trkpt>
      <trkpt lat="48.77354" lon="2.26349">
        <ele>136</ele>
        <time>2022-02-20T09:44:53.244Z</time>
      </trkpt>
      <trkpt lat="48.7735" lon="2.26343">
        <ele>136</ele>
        <time>2022-02-20T09:44:57.244Z</time>
      </trkpt>
      <trkpt lat="48.77346" lon="2.26337">
        <ele>134</ele>
        <time>2022-02-20T09:45:02.242Z</time>
      </trkpt>
      <trkpt lat="48.77341" lon="2.2633">
        <ele>134</ele>
        <time>2022-02-20T09:45:07.238Z</time>
      </trkpt>
      <trkpt lat="48.77337" lon="2.26322">
        <ele>134</ele>
        <time>2022-02-20T09:45:12.242Z</time>
      </trkpt>
      <trkpt lat="48.77333" lon="2.26316">
        <ele>137</ele>
        <time>2022-02-20T09:45:16.242Z</time>
      </trkpt>
      <trkpt lat="48.77328" lon="2.26308">
        <ele>137</ele>
        <time>2022-02-20T09:45:21.242Z</time>
      </trkpt>
      <trkpt lat="48.77322" lon="2.263">
        <ele>137</ele>
        <time>2022-02-20T09:45:26.243Z</time>
      </trkpt>
      <trkpt lat="48.77317" lon="2.2629">
        <ele>137</ele>
        <time>2022-02-20T09:45:31.245Z</time>
      </trkpt>
      <trkpt lat="48.77313" lon="2.26284">
        <ele>137</ele>
        <time>2022-02-20T09:45:35.243Z</time>
      </trkpt>
      <trkpt lat="48.7731" lon="2.26278">
        <ele>137</ele>
        <time>2022-02-20T09:45:39.243Z</time>
      </trkpt>
      <trkpt lat="48.77306" lon="2.26271">
        <ele>137</ele>
        <time>2022-02-20T09:45:44.242Z</time>
      </trkpt>
      <trkpt lat="48.77304" lon="2.26263">
        <ele>139</ele>
        <time>2022-02-20T09:45:49.247Z</time>
      </trkpt>
      <trkpt lat="48.77301" lon="2.26254">
        <ele>139</ele>
        <time>2022-02-20T09:45:54.246Z</time>
      </trkpt>
      <trkpt lat="48.773" lon="2.26246">
        <ele>139</ele>
        <time>2022-02-20T09:45:59.236Z</time>
      </trkpt>
      <trkpt lat="48.773" lon="2.26237">
        <ele>139</ele>
        <time>2022-02-20T09:46:04.244Z</time>
      </trkpt>
      <trkpt lat="48.77299" lon="2.26229">
        <ele>140</ele>
        <time>2022-02-20T09:46:08.247Z</time>
      </trkpt>
      <trkpt lat="48.773" lon="2.26219">
        <ele>140</ele>
        <time>2022-02-20T09:46:13.263Z</time>
      </trkpt>
      <trkpt lat="48.77302" lon="2.26211">
        <ele>140</ele>
        <time>2022-02-20T09:46:18.237Z</time>
      </trkpt>
      <trkpt lat="48.77304" lon="2.26205">
        <ele>138</ele>
        <time>2022-02-20T09:46:22.246Z</time>
      </trkpt>
      <trkpt lat="48.77306" lon="2.26197">
        <ele>138</ele>
        <time>2022-02-20T09:46:27.242Z</time>
      </trkpt>
      <trkpt lat="48.77308" lon="2.26189">
        <ele>138</ele>
        <time>2022-02-20T09:46:32.238Z</time>
      </trkpt>
      <trkpt lat="48.77307" lon="2.26181">
        <ele>138</ele>
        <time>2022-02-20T09:46:36.238Z</time>
      </trkpt>
      <trkpt lat="48.77308" lon="2.26174">
        <ele>136</ele>
        <time>2022-02-20T09:46:40.242Z</time>
      </trkpt>
      <trkpt lat="48.7731" lon="2.26165">
        <ele>136</ele>
        <time>2022-02-20T09:46:45.241Z</time>
      </trkpt>
      <trkpt lat="48.77311" lon="2.26157">
        <ele>136</ele>
        <time>2022-02-20T09:46:50.239Z</time>
      </trkpt>
      <trkpt lat="48.77312" lon="2.2615">
        <ele>136</ele>
        <time>2022-02-20T09:46:54.241Z</time>
      </trkpt>
      <trkpt lat="48.77312" lon="2.2614">
        <ele>136</ele>
        <time>2022-02-20T09:46:59.244Z</time>
      </trkpt>
      <trkpt lat="48.77313" lon="2.26131">
        <ele>136</ele>
        <time>2022-02-20T09:47:04.238Z</time>
      </trkpt>
      <trkpt lat="48.77315" lon="2.26124">
        <ele>137</ele>
        <time>2022-02-20T09:47:08.242Z</time>
      </trkpt>
      <trkpt lat="48.77317" lon="2.26115">
        <ele>137</ele>
        <time>2022-02-20T09:47:13.240Z</time>
      </trkpt>
      <trkpt lat="48.77319" lon="2.26108">
        <ele>137</ele>
        <time>2022-02-20T09:47:18.233Z</time>
      </trkpt>
      <trkpt lat="48.77321" lon="2.26101">
        <ele>141</ele>
        <time>2022-02-20T09:47:22.238Z</time>
      </trkpt>
      <trkpt lat="48.77324" lon="2.26094">
        <ele>144</ele>
        <time>2022-02-20T09:47:27.240Z</time>
      </trkpt>
      <trkpt lat="48.77325" lon="2.26086">
        <ele>144</ele>
        <time>2022-02-20T09:47:32.238Z</time>
      </trkpt>
      <trkpt lat="48.77326" lon="2.26077">
        <ele>144</ele>
        <time>2022-02-20T09:47:37.233Z</time>
      </trkpt>
      <trkpt lat="48.77327" lon="2.2607">
        <ele>144</ele>
        <time>2022-02-20T09:47:41.233Z</time>
      </trkpt>
      <trkpt lat="48.77327" lon="2.26063">
        <ele>144</ele>
        <time>2022-02-20T09:47:45.244Z</time>
      </trkpt>
      <trkpt lat="48.77327" lon="2.26054">
        <ele>144</ele>
        <time>2022-02-20T09:47:50.237Z</time>
      </trkpt>
      <trkpt lat="48.77325" lon="2.26047">
        <ele>144</ele>
        <time>2022-02-20T09:47:54.251Z</time>
      </trkpt>
      <trkpt lat="48.77321" lon="2.26042">
        <ele>144</ele>
        <time>2022-02-20T09:47:58.250Z</time>
      </trkpt>
      <trkpt lat="48.77317" lon="2.2604">
        <ele>141</ele>
        <time>2022-02-20T09:48:53.243Z</time>
      </trkpt>
      <trkpt lat="48.77315" lon="2.26038">
        <ele>141</ele>
        <time>2022-02-20T09:48:58.252Z</time>
      </trkpt>
      <trkpt lat="48.7731" lon="2.26034">
        <ele>141</ele>
        <time>2022-02-20T09:49:02.243Z</time>
      </trkpt>
      <trkpt lat="48.77305" lon="2.26029">
        <ele>141</ele>
        <time>2022-02-20T09:49:07.240Z</time>
      </trkpt>
      <trkpt lat="48.77302" lon="2.26025">
        <ele>141</ele>
        <time>2022-02-20T09:49:11.244Z</time>
      </trkpt>
      <trkpt lat="48.77299" lon="2.26021">
        <ele>141</ele>
        <time>2022-02-20T09:49:15.238Z</time>
      </trkpt>
      <trkpt lat="48.77293" lon="2.26019">
        <ele>141</ele>
        <time>2022-02-20T09:49:19.255Z</time>
      </trkpt>
      <trkpt lat="48.77287" lon="2.26021">
        <ele>146</ele>
        <time>2022-02-20T09:49:24.241Z</time>
      </trkpt>
      <trkpt lat="48.77282" lon="2.26026">
        <ele>146</ele>
        <time>2022-02-20T09:49:29.227Z</time>
      </trkpt>
      <trkpt lat="48.7728" lon="2.26033">
        <ele>146</ele>
        <time>2022-02-20T09:49:34.230Z</time>
      </trkpt>
      <trkpt lat="48.7728" lon="2.2604">
        <ele>146</ele>
        <time>2022-02-20T09:49:39.226Z</time>
      </trkpt>
      <trkpt lat="48.7728" lon="2.26045">
        <ele>146</ele>
        <time>2022-02-20T09:49:43.233Z</time>
      </trkpt>
      <trkpt lat="48.7728" lon="2.26052">
        <ele>146</ele>
        <time>2022-02-20T09:49:47.240Z</time>
      </trkpt>
      <trkpt lat="48.77278" lon="2.26057">
        <ele>146</ele>
        <time>2022-02-20T09:49:51.236Z</time>
      </trkpt>
      <trkpt lat="48.77276" lon="2.26065">
        <ele>146</ele>
        <time>2022-02-20T09:49:56.239Z</time>
      </trkpt>
      <trkpt lat="48.77274" lon="2.26072">
        <ele>147</ele>
        <time>2022-02-20T09:50:00.244Z</time>
      </trkpt>
      <trkpt lat="48.77272" lon="2.26079">
        <ele>147</ele>
        <time>2022-02-20T09:50:04.248Z</time>
      </trkpt>
      <trkpt lat="48.7727" lon="2.26087">
        <ele>147</ele>
        <time>2022-02-20T09:50:09.239Z</time>
      </trkpt>
      <trkpt lat="48.77267" lon="2.26095">
        <ele>147</ele>
        <time>2022-02-20T09:50:14.246Z</time>
      </trkpt>
      <trkpt lat="48.77265" lon="2.261">
        <ele>145</ele>
        <time>2022-02-20T09:50:18.251Z</time>
      </trkpt>
      <trkpt lat="48.7726" lon="2.2611">
        <ele>154</ele>
        <time>2022-02-20T09:50:23.236Z</time>
      </trkpt>
      <trkpt lat="48.77258" lon="2.26117">
        <ele>154</ele>
        <time>2022-02-20T09:50:28.241Z</time>
      </trkpt>
      <trkpt lat="48.77257" lon="2.26124">
        <ele>154</ele>
        <time>2022-02-20T09:50:32.247Z</time>
      </trkpt>
      <trkpt lat="48.77253" lon="2.26132">
        <ele>149</ele>
        <time>2022-02-20T09:50:37.244Z</time>
      </trkpt>
      <trkpt lat="48.77249" lon="2.26135">
        <ele>149</ele>
        <time>2022-02-20T09:50:41.243Z</time>
      </trkpt>
      <trkpt lat="48.77245" lon="2.2614">
        <ele>149</ele>
        <time>2022-02-20T09:50:45.251Z</time>
      </trkpt>
      <trkpt lat="48.7724" lon="2.26144">
        <ele>149</ele>
        <time>2022-02-20T09:50:50.248Z</time>
      </trkpt>
      <trkpt lat="48.77236" lon="2.26143">
        <ele>149</ele>
        <time>2022-02-20T09:50:54.250Z</time>
      </trkpt>
      <trkpt lat="48.77231" lon="2.26139">
        <ele>149</ele>
        <time>2022-02-20T09:50:59.244Z</time>
      </trkpt>
      <trkpt lat="48.77227" lon="2.26133">
        <ele>149</ele>
        <time>2022-02-20T09:51:04.244Z</time>
      </trkpt>
      <trkpt lat="48.77225" lon="2.26127">
        <ele>149</ele>
        <time>2022-02-20T09:51:08.239Z</time>
      </trkpt>
      <trkpt lat="48.77221" lon="2.26119">
        <ele>153</ele>
        <time>2022-02-20T09:51:13.235Z</time>
      </trkpt>
      <trkpt lat="48.77218" lon="2.26113">
        <ele>153</ele>
        <time>2022-02-20T09:51:17.252Z</time>
      </trkpt>
      <trkpt lat="48.77214" lon="2.26107">
        <ele>153</ele>
        <time>2022-02-20T09:51:22.254Z</time>
      </trkpt>
      <trkpt lat="48.7721" lon="2.26102">
        <ele>153</ele>
        <time>2022-02-20T09:51:26.259Z</time>
      </trkpt>
      <trkpt lat="48.77206" lon="2.26096">
        <ele>153</ele>
        <time>2022-02-20T09:51:31.249Z</time>
      </trkpt>
      <trkpt lat="48.77202" lon="2.26091">
        <ele>153</ele>
        <time>2022-02-20T09:51:36.238Z</time>
      </trkpt>
      <trkpt lat="48.77198" lon="2.26089">
        <ele>153</ele>
        <time>2022-02-20T09:51:40.245Z</time>
      </trkpt>
      <trkpt lat="48.77193" lon="2.26086">
        <ele>153</ele>
        <time>2022-02-20T09:51:44.242Z</time>
      </trkpt>
      <trkpt lat="48.77187" lon="2.26082">
        <ele>153</ele>
        <time>2022-02-20T09:51:49.238Z</time>
      </trkpt>
      <trkpt lat="48.77181" lon="2.26079">
        <ele>148</ele>
        <time>2022-02-20T09:51:54.233Z</time>
      </trkpt>
      <trkpt lat="48.77176" lon="2.26077">
        <ele>148</ele>
        <time>2022-02-20T09:51:58.246Z</time>
      </trkpt>
      <trkpt lat="48.77175" lon="2.26075">
        <ele>148</ele>
        <time>2022-02-20T09:52:03.234Z</time>
      </trkpt>
      <trkpt lat="48.77171" lon="2.26073">
        <ele>148</ele>
        <time>2022-02-20T09:52:07.237Z</time>
      </trkpt>
      <trkpt lat="48.77166" lon="2.2607">
        <ele>148</ele>
        <time>2022-02-20T09:52:12.238Z</time>
      </trkpt>
      <trkpt lat="48.77161" lon="2.26067">
        <ele>149</ele>
        <time>2022-02-20T09:52:16.243Z</time>
      </trkpt>
      <trkpt lat="48.77155" lon="2.26065">
        <ele>149</ele>
        <time>2022-02-20T09:52:21.241Z</time>
      </trkpt>
      <trkpt lat="48.77149" lon="2.26064">
        <ele>144</ele>
        <time>2022-02-20T09:52:26.243Z</time>
      </trkpt>
      <trkpt lat="48.77143" lon="2.26063">
        <ele>144</ele>
        <time>2022-02-20T09:52:31.235Z</time>
      </trkpt>
      <trkpt lat="48.77138" lon="2.26063">
        <ele>144</ele>
        <time>2022-02-20T09:52:36.241Z</time>
      </trkpt>
      <trkpt lat="48.77133" lon="2.26063">
        <ele>144</ele>
        <time>2022-02-20T09:52:40.231Z</time>
      </trkpt>
      <trkpt lat="48.77127" lon="2.26064">
        <ele>144</ele>
        <time>2022-02-20T09:52:45.242Z</time>
      </trkpt>
      <trkpt lat="48.77121" lon="2.26062">
        <ele>142</ele>
        <time>2022-02-20T09:52:50.234Z</time>
      </trkpt>
      <trkpt lat="48.77116" lon="2.26062">
        <ele>142</ele>
        <time>2022-02-20T09:52:54.251Z</time>
      </trkpt>
      <trkpt lat="48.7711" lon="2.26061">
        <ele>142</ele>
        <time>2022-02-20T09:52:59.249Z</time>
      </trkpt>
      <trkpt lat="48.77105" lon="2.26061">
        <ele>142</ele>
        <time>2022-02-20T09:53:04.236Z</time>
      </trkpt>
      <trkpt lat="48.77099" lon="2.26057">
        <ele>142</ele>
        <time>2022-02-20T09:53:09.247Z</time>
      </trkpt>
      <trkpt lat="48.77093" lon="2.26053">
        <ele>140</ele>
        <time>2022-02-20T09:53:14.254Z</time>
      </trkpt>
      <trkpt lat="48.77089" lon="2.2605">
        <ele>140</ele>
        <time>2022-02-20T09:53:18.236Z</time>
      </trkpt>
      <trkpt lat="48.77083" lon="2.26047">
        <ele>140</ele>
        <time>2022-02-20T09:53:23.238Z</time>
      </trkpt>
      <trkpt lat="48.77077" lon="2.26045">
        <ele>140</ele>
        <time>2022-02-20T09:53:28.238Z</time>
      </trkpt>
      <trkpt lat="48.77071" lon="2.26041">
        <ele>139</ele>
        <time>2022-02-20T09:53:33.249Z</time>
      </trkpt>
      <trkpt lat="48.77066" lon="2.26037">
        <ele>137</ele>
        <time>2022-02-20T09:53:38.232Z</time>
      </trkpt>
      <trkpt lat="48.77062" lon="2.26034">
        <ele>137</ele>
        <time>2022-02-20T09:53:42.236Z</time>
      </trkpt>
      <trkpt lat="48.77056" lon="2.26033">
        <ele>137</ele>
        <time>2022-02-20T09:53:47.246Z</time>
      </trkpt>
      <trkpt lat="48.77051" lon="2.26034">
        <ele>137</ele>
        <time>2022-02-20T09:53:51.251Z</time>
      </trkpt>
      <trkpt lat="48.77045" lon="2.26039">
        <ele>137</ele>
        <time>2022-02-20T09:53:56.243Z</time>
      </trkpt>
      <trkpt lat="48.77041" lon="2.26041">
        <ele>135</ele>
        <time>2022-02-20T09:54:00.246Z</time>
      </trkpt>
      <trkpt lat="48.77036" lon="2.26045">
        <ele>134</ele>
        <time>2022-02-20T09:54:05.244Z</time>
      </trkpt>
      <trkpt lat="48.77032" lon="2.26049">
        <ele>134</ele>
        <time>2022-02-20T09:54:09.239Z</time>
      </trkpt>
      <trkpt lat="48.77027" lon="2.26054">
        <ele>134</ele>
        <time>2022-02-20T09:54:13.252Z</time>
      </trkpt>
      <trkpt lat="48.77022" lon="2.26057">
        <ele>134</ele>
        <time>2022-02-20T09:54:18.246Z</time>
      </trkpt>
      <trkpt lat="48.77018" lon="2.2606">
        <ele>134</ele>
        <time>2022-02-20T09:54:22.257Z</time>
      </trkpt>
      <trkpt lat="48.77012" lon="2.26058">
        <ele>135</ele>
        <time>2022-02-20T09:54:27.257Z</time>
      </trkpt>
      <trkpt lat="48.77007" lon="2.26057">
        <ele>135</ele>
        <time>2022-02-20T09:54:32.238Z</time>
      </trkpt>
      <trkpt lat="48.77002" lon="2.26055">
        <ele>135</ele>
        <time>2022-02-20T09:54:37.245Z</time>
      </trkpt>
      <trkpt lat="48.76997" lon="2.26053">
        <ele>135</ele>
        <time>2022-02-20T09:54:42.249Z</time>
      </trkpt>
      <trkpt lat="48.7699" lon="2.26048">
        <ele>135</ele>
        <time>2022-02-20T09:54:47.250Z</time>
      </trkpt>
      <trkpt lat="48.76975" lon="2.26048">
        <ele>138</ele>
        <time>2022-02-20T09:54:52.248Z</time>
      </trkpt>
      <trkpt lat="48.76969" lon="2.26047">
        <ele>138</ele>
        <time>2022-02-20T09:54:57.248Z</time>
      </trkpt>
      <trkpt lat="48.76963" lon="2.26045">
        <ele>138</ele>
        <time>2022-02-20T09:55:02.240Z</time>
      </trkpt>
      <trkpt lat="48.76959" lon="2.26044">
        <ele>138</ele>
        <time>2022-02-20T09:55:06.241Z</time>
      </trkpt>
      <trkpt lat="48.76954" lon="2.26041">
        <ele>135</ele>
        <time>2022-02-20T09:55:11.249Z</time>
      </trkpt>
      <trkpt lat="48.7695" lon="2.2604">
        <ele>135</ele>
        <time>2022-02-20T09:55:16.243Z</time>
      </trkpt>
      <trkpt lat="48.76944" lon="2.26039">
        <ele>135</ele>
        <time>2022-02-20T09:55:21.244Z</time>
      </trkpt>
      <trkpt lat="48.76939" lon="2.26039">
        <ele>135</ele>
        <time>2022-02-20T09:55:26.248Z</time>
      </trkpt>
      <trkpt lat="48.76934" lon="2.2604">
        <ele>135</ele>
        <time>2022-02-20T09:55:31.242Z</time>
      </trkpt>
      <trkpt lat="48.76931" lon="2.26043">
        <ele>138</ele>
        <time>2022-02-20T09:55:35.254Z</time>
      </trkpt>
      <trkpt lat="48.76927" lon="2.26049">
        <ele>139</ele>
        <time>2022-02-20T09:55:40.252Z</time>
      </trkpt>
      <trkpt lat="48.76924" lon="2.26058">
        <ele>139</ele>
        <time>2022-02-20T09:55:45.232Z</time>
      </trkpt>
      <trkpt lat="48.76924" lon="2.26065">
        <ele>139</ele>
        <time>2022-02-20T09:55:49.244Z</time>
      </trkpt>
      <trkpt lat="48.76923" lon="2.26074">
        <ele>142</ele>
        <time>2022-02-20T09:55:54.232Z</time>
      </trkpt>
      <trkpt lat="48.76923" lon="2.26081">
        <ele>142</ele>
        <time>2022-02-20T09:55:58.243Z</time>
      </trkpt>
      <trkpt lat="48.76924" lon="2.2609">
        <ele>142</ele>
        <time>2022-02-20T09:56:03.240Z</time>
      </trkpt>
      <trkpt lat="48.76925" lon="2.26096">
        <ele>142</ele>
        <time>2022-02-20T09:56:07.239Z</time>
      </trkpt>
      <trkpt lat="48.76926" lon="2.26105">
        <ele>144</ele>
        <time>2022-02-20T09:56:12.229Z</time>
      </trkpt>
      <trkpt lat="48.76927" lon="2.26112">
        <ele>144</ele>
        <time>2022-02-20T09:56:16.239Z</time>
      </trkpt>
      <trkpt lat="48.76929" lon="2.26121">
        <ele>144</ele>
        <time>2022-02-20T09:56:21.249Z</time>
      </trkpt>
      <trkpt lat="48.76929" lon="2.2613">
        <ele>146</ele>
        <time>2022-02-20T09:56:26.241Z</time>
      </trkpt>
      <trkpt lat="48.76927" lon="2.26137">
        <ele>146</ele>
        <time>2022-02-20T09:56:30.241Z</time>
      </trkpt>
      <trkpt lat="48.76925" lon="2.26144">
        <ele>146</ele>
        <time>2022-02-20T09:56:34.253Z</time>
      </trkpt>
      <trkpt lat="48.76923" lon="2.26152">
        <ele>146</ele>
        <time>2022-02-20T09:56:39.261Z</time>
      </trkpt>
      <trkpt lat="48.7692" lon="2.26159">
        <ele>145</ele>
        <time>2022-02-20T09:56:44.252Z</time>
      </trkpt>
      <trkpt lat="48.76918" lon="2.26169">
        <ele>145</ele>
        <time>2022-02-20T09:56:49.235Z</time>
      </trkpt>
      <trkpt lat="48.76917" lon="2.26178">
        <ele>145</ele>
        <time>2022-02-20T09:56:54.242Z</time>
      </trkpt>
      <trkpt lat="48.76915" lon="2.26186">
        <ele>143</ele>
        <time>2022-02-20T09:56:58.250Z</time>
      </trkpt>
      <trkpt lat="48.76912" lon="2.26191">
        <ele>143</ele>
        <time>2022-02-20T09:57:02.260Z</time>
      </trkpt>
      <trkpt lat="48.76907" lon="2.26196">
        <ele>143</ele>
        <time>2022-02-20T09:57:07.247Z</time>
      </trkpt>
      <trkpt lat="48.76902" lon="2.26198">
        <ele>145</ele>
        <time>2022-02-20T09:57:12.249Z</time>
      </trkpt>
      <trkpt lat="48.76896" lon="2.262">
        <ele>145</ele>
        <time>2022-02-20T09:57:17.254Z</time>
      </trkpt>
      <trkpt lat="48.7689" lon="2.26203">
        <ele>145</ele>
        <time>2022-02-20T09:57:22.233Z</time>
      </trkpt>
      <trkpt lat="48.76885" lon="2.26207">
        <ele>145</ele>
        <time>2022-02-20T09:57:27.249Z</time>
      </trkpt>
      <trkpt lat="48.7688" lon="2.26212">
        <ele>144</ele>
        <time>2022-02-20T09:57:32.239Z</time>
      </trkpt>
      <trkpt lat="48.76876" lon="2.26216">
        <ele>144</ele>
        <time>2022-02-20T09:57:36.254Z</time>
      </trkpt>
      <trkpt lat="48.76872" lon="2.26222">
        <ele>145</ele>
        <time>2022-02-20T09:57:41.233Z</time>
      </trkpt>
      <trkpt lat="48.76866" lon="2.26228">
        <ele>145</ele>
        <time>2022-02-20T09:57:46.255Z</time>
      </trkpt>
      <trkpt lat="48.76861" lon="2.26234">
        <ele>145</ele>
        <time>2022-02-20T09:57:51.248Z</time>
      </trkpt>
      <trkpt lat="48.76857" lon="2.26239">
        <ele>144</ele>
        <time>2022-02-20T09:57:55.256Z</time>
      </trkpt>
      <trkpt lat="48.76852" lon="2.26235">
        <ele>145</ele>
        <time>2022-02-20T09:58:00.246Z</time>
      </trkpt>
      <trkpt lat="48.76851" lon="2.26228">
        <ele>145</ele>
        <time>2022-02-20T09:58:05.240Z</time>
      </trkpt>
      <trkpt lat="48.76851" lon="2.26221">
        <ele>145</ele>
        <time>2022-02-20T09:58:09.243Z</time>
      </trkpt>
      <trkpt lat="48.76852" lon="2.26214">
        <ele>145</ele>
        <time>2022-02-20T09:58:13.259Z</time>
      </trkpt>
      <trkpt lat="48.76854" lon="2.26206">
        <ele>145</ele>
        <time>2022-02-20T09:58:18.237Z</time>
      </trkpt>
      <trkpt lat="48.76855" lon="2.26199">
        <ele>145</ele>
        <time>2022-02-20T09:58:22.255Z</time>
      </trkpt>
      <trkpt lat="48.76852" lon="2.26191">
        <ele>145</ele>
        <time>2022-02-20T09:58:27.238Z</time>
      </trkpt>
      <trkpt lat="48.76847" lon="2.26185">
        <ele>145</ele>
        <time>2022-02-20T09:58:32.240Z</time>
      </trkpt>
      <trkpt lat="48.76843" lon="2.2618">
        <ele>145</ele>
        <time>2022-02-20T09:58:36.241Z</time>
      </trkpt>
      <trkpt lat="48.76839" lon="2.26172">
        <ele>145</ele>
        <time>2022-02-20T09:58:41.245Z</time>
      </trkpt>
      <trkpt lat="48.76835" lon="2.26166">
        <ele>145</ele>
        <time>2022-02-20T09:58:46.262Z</time>
      </trkpt>
      <trkpt lat="48.7683" lon="2.26153">
        <ele>146</ele>
        <time>2022-02-20T09:59:01.239Z</time>
      </trkpt>
      <trkpt lat="48.76829" lon="2.26153">
        <ele>145</ele>
        <time>2022-02-20T09:59:06.228Z</time>
      </trkpt>
      <trkpt lat="48.76829" lon="2.26153">
        <ele>145</ele>
        <time>2022-02-20T09:59:10.239Z</time>
      </trkpt>
      <trkpt lat="48.76827" lon="2.26148">
        <ele>146</ele>
        <time>2022-02-20T09:59:15.239Z</time>
      </trkpt>
      <trkpt lat="48.76822" lon="2.26145">
        <ele>146</ele>
        <time>2022-02-20T09:59:20.232Z</time>
      </trkpt>
      <trkpt lat="48.76818" lon="2.26145">
        <ele>149</ele>
        <time>2022-02-20T09:59:25.236Z</time>
      </trkpt>
      <trkpt lat="48.76815" lon="2.26146">
        <ele>149</ele>
        <time>2022-02-20T09:59:30.230Z</time>
      </trkpt>
      <trkpt lat="48.76811" lon="2.26148">
        <ele>149</ele>
        <time>2022-02-20T09:59:35.237Z</time>
      </trkpt>
      <trkpt lat="48.76807" lon="2.26149">
        <ele>149</ele>
        <time>2022-02-20T09:59:40.232Z</time>
      </trkpt>
      <trkpt lat="48.76804" lon="2.26151">
        <ele>149</ele>
        <time>2022-02-20T09:59:44.250Z</time>
      </trkpt>
      <trkpt lat="48.76801" lon="2.26154">
        <ele>148</ele>
        <time>2022-02-20T09:59:49.259Z</time>
      </trkpt>
      <trkpt lat="48.76798" lon="2.26157">
        <ele>148</ele>
        <time>2022-02-20T09:59:54.230Z</time>
      </trkpt>
      <trkpt lat="48.76796" lon="2.26161">
        <ele>148</ele>
        <time>2022-02-20T09:59:58.262Z</time>
      </trkpt>
      <trkpt lat="48.76797" lon="2.26166">
        <ele>148</ele>
        <time>2022-02-20T10:00:03.247Z</time>
      </trkpt>
      <trkpt lat="48.76795" lon="2.26169">
        <ele>148</ele>
        <time>2022-02-20T10:00:07.248Z</time>
      </trkpt>
      <trkpt lat="48.76798" lon="2.26175">
        <ele>148</ele>
        <time>2022-02-20T10:00:11.260Z</time>
      </trkpt>
      <trkpt lat="48.76803" lon="2.26181">
        <ele>145</ele>
        <time>2022-02-20T10:00:16.246Z</time>
      </trkpt>
      <trkpt lat="48.76803" lon="2.26189">
        <ele>145</ele>
        <time>2022-02-20T10:00:21.249Z</time>
      </trkpt>
      <trkpt lat="48.76801" lon="2.26196">
        <ele>145</ele>
        <time>2022-02-20T10:00:25.254Z</time>
      </trkpt>
      <trkpt lat="48.76797" lon="2.262">
        <ele>145</ele>
        <time>2022-02-20T10:00:30.243Z</time>
      </trkpt>
      <trkpt lat="48.76793" lon="2.26205">
        <ele>145</ele>
        <time>2022-02-20T10:00:34.252Z</time>
      </trkpt>
      <trkpt lat="48.76788" lon="2.26209">
        <ele>152</ele>
        <time>2022-02-20T10:00:39.247Z</time>
      </trkpt>
      <trkpt lat="48.76783" lon="2.2621">
        <ele>152</ele>
        <time>2022-02-20T10:00:44.238Z</time>
      </trkpt>
      <trkpt lat="48.76779" lon="2.2621">
        <ele>152</ele>
        <time>2022-02-20T10:00:48.259Z</time>
      </trkpt>
      <trkpt lat="48.76774" lon="2.26207">
        <ele>154</ele>
        <time>2022-02-20T10:00:53.238Z</time>
      </trkpt>
      <trkpt lat="48.76771" lon="2.26203">
        <ele>154</ele>
        <time>2022-02-20T10:00:57.237Z</time>
      </trkpt>
      <trkpt lat="48.76766" lon="2.262">
        <ele>154</ele>
        <time>2022-02-20T10:01:02.236Z</time>
      </trkpt>
      <trkpt lat="48.76762" lon="2.26194">
        <ele>159</ele>
        <time>2022-02-20T10:01:07.234Z</time>
      </trkpt>
      <trkpt lat="48.76758" lon="2.2619">
        <ele>159</ele>
        <time>2022-02-20T10:01:11.244Z</time>
      </trkpt>
      <trkpt lat="48.76752" lon="2.26191">
        <ele>159</ele>
        <time>2022-02-20T10:01:35.250Z</time>
      </trkpt>
      <trkpt lat="48.76752" lon="2.2619">
        <ele>159</ele>
        <time>2022-02-20T10:01:39.260Z</time>
      </trkpt>
      <trkpt lat="48.76752" lon="2.2619">
        <ele>159</ele>
        <time>2022-02-20T10:01:44.237Z</time>
      </trkpt>
      <trkpt lat="48.7675" lon="2.26192">
        <ele>159</ele>
        <time>2022-02-20T10:01:48.243Z</time>
      </trkpt>
      <trkpt lat="48.76747" lon="2.26195">
        <ele>159</ele>
        <time>2022-02-20T10:01:52.258Z</time>
      </trkpt>
      <trkpt lat="48.76744" lon="2.26199">
        <ele>159</ele>
        <time>2022-02-20T10:01:56.249Z</time>
      </trkpt>
      <trkpt lat="48.7674" lon="2.26205">
        <ele>159</ele>
        <time>2022-02-20T10:02:01.246Z</time>
      </trkpt>
      <trkpt lat="48.76736" lon="2.26207">
        <ele>159</ele>
        <time>2022-02-20T10:02:05.250Z</time>
      </trkpt>
      <trkpt lat="48.7673" lon="2.26208">
        <ele>157</ele>
        <time>2022-02-20T10:02:10.249Z</time>
      </trkpt>
      <trkpt lat="48.76725" lon="2.26208">
        <ele>159</ele>
        <time>2022-02-20T10:02:14.251Z</time>
      </trkpt>
      <trkpt lat="48.76722" lon="2.26205">
        <ele>159</ele>
        <time>2022-02-20T10:02:19.249Z</time>
      </trkpt>
      <trkpt lat="48.76719" lon="2.26204">
        <ele>159</ele>
        <time>2022-02-20T10:02:24.251Z</time>
      </trkpt>
      <trkpt lat="48.76716" lon="2.26201">
        <ele>159</ele>
        <time>2022-02-20T10:02:29.246Z</time>
      </trkpt>
      <trkpt lat="48.76714" lon="2.26199">
        <ele>159</ele>
        <time>2022-02-20T10:02:34.251Z</time>
      </trkpt>
      <trkpt lat="48.76712" lon="2.26195">
        <ele>159</ele>
        <time>2022-02-20T10:02:38.258Z</time>
      </trkpt>
      <trkpt lat="48.76711" lon="2.26188">
        <ele>159</ele>
        <time>2022-02-20T10:02:43.248Z</time>
      </trkpt>
      <trkpt lat="48.76709" lon="2.26182">
        <ele>159</ele>
        <time>2022-02-20T10:02:47.241Z</time>
      </trkpt>
      <trkpt lat="48.76709" lon="2.26175">
        <ele>160</ele>
        <time>2022-02-20T10:02:52.243Z</time>
      </trkpt>
      <trkpt lat="48.76708" lon="2.26166">
        <ele>159</ele>
        <time>2022-02-20T10:02:57.234Z</time>
      </trkpt>
      <trkpt lat="48.76709" lon="2.26159">
        <ele>160</ele>
        <time>2022-02-20T10:03:01.370Z</time>
      </trkpt>
      <trkpt lat="48.7671" lon="2.2615">
        <ele>161</ele>
        <time>2022-02-20T10:03:06.253Z</time>
      </trkpt>
      <trkpt lat="48.7671" lon="2.26142">
        <ele>161</ele>
        <time>2022-02-20T10:03:11.238Z</time>
      </trkpt>
      <trkpt lat="48.76712" lon="2.26134">
        <ele>161</ele>
        <time>2022-02-20T10:03:15.245Z</time>
      </trkpt>
      <trkpt lat="48.76715" lon="2.2613">
        <ele>161</ele>
        <time>2022-02-20T10:03:20.248Z</time>
      </trkpt>
      <trkpt lat="48.76717" lon="2.26123">
        <ele>162</ele>
        <time>2022-02-20T10:03:25.248Z</time>
      </trkpt>
      <trkpt lat="48.76719" lon="2.26115">
        <ele>162</ele>
        <time>2022-02-20T10:03:30.254Z</time>
      </trkpt>
      <trkpt lat="48.76719" lon="2.26105">
        <ele>162</ele>
        <time>2022-02-20T10:03:35.260Z</time>
      </trkpt>
      <trkpt lat="48.76718" lon="2.26096">
        <ele>163</ele>
        <time>2022-02-20T10:03:40.245Z</time>
      </trkpt>
      <trkpt lat="48.76719" lon="2.26088">
        <ele>163</ele>
        <time>2022-02-20T10:03:45.241Z</time>
      </trkpt>
      <trkpt lat="48.76716" lon="2.26076">
        <ele>163</ele>
        <time>2022-02-20T10:04:00.240Z</time>
      </trkpt>
      <trkpt lat="48.76711" lon="2.26072">
        <ele>163</ele>
        <time>2022-02-20T10:04:04.245Z</time>
      </trkpt>
      <trkpt lat="48.76704" lon="2.26067">
        <ele>161</ele>
        <time>2022-02-20T10:04:09.231Z</time>
      </trkpt>
      <trkpt lat="48.76699" lon="2.26064">
        <ele>161</ele>
        <time>2022-02-20T10:04:13.243Z</time>
      </trkpt>
      <trkpt lat="48.76695" lon="2.26062">
        <ele>161</ele>
        <time>2022-02-20T10:04:18.243Z</time>
      </trkpt>
      <trkpt lat="48.76693" lon="2.26061">
        <ele>161</ele>
        <time>2022-02-20T10:04:26.247Z</time>
      </trkpt>
      <trkpt lat="48.76691" lon="2.2606">
        <ele>161</ele>
        <time>2022-02-20T10:04:31.232Z</time>
      </trkpt>
      <trkpt lat="48.7669" lon="2.2606">
        <ele>161</ele>
        <time>2022-02-20T10:04:35.233Z</time>
      </trkpt>
      <trkpt lat="48.76687" lon="2.26063">
        <ele>161</ele>
        <time>2022-02-20T10:04:40.237Z</time>
      </trkpt>
      <trkpt lat="48.76684" lon="2.26065">
        <ele>161</ele>
        <time>2022-02-20T10:04:44.227Z</time>
      </trkpt>
      <trkpt lat="48.76681" lon="2.26065">
        <ele>161</ele>
        <time>2022-02-20T10:08:01.242Z</time>
      </trkpt>
      <trkpt lat="48.76681" lon="2.26066">
        <ele>161</ele>
        <time>2022-02-20T10:08:06.244Z</time>
      </trkpt>
      <trkpt lat="48.76678" lon="2.26067">
        <ele>159</ele>
        <time>2022-02-20T10:08:11.243Z</time>
      </trkpt>
      <trkpt lat="48.76672" lon="2.2607">
        <ele>160</ele>
        <time>2022-02-20T10:08:16.263Z</time>
      </trkpt>
      <trkpt lat="48.76666" lon="2.26072">
        <ele>160</ele>
        <time>2022-02-20T10:08:21.247Z</time>
      </trkpt>
      <trkpt lat="48.7666" lon="2.26071">
        <ele>160</ele>
        <time>2022-02-20T10:08:26.237Z</time>
      </trkpt>
      <trkpt lat="48.76655" lon="2.26069">
        <ele>159</ele>
        <time>2022-02-20T10:08:30.238Z</time>
      </trkpt>
      <trkpt lat="48.7665" lon="2.26067">
        <ele>158</ele>
        <time>2022-02-20T10:08:35.244Z</time>
      </trkpt>
      <trkpt lat="48.76644" lon="2.26065">
        <ele>158</ele>
        <time>2022-02-20T10:08:40.249Z</time>
      </trkpt>
      <trkpt lat="48.76637" lon="2.26063">
        <ele>158</ele>
        <time>2022-02-20T10:08:45.259Z</time>
      </trkpt>
      <trkpt lat="48.7663" lon="2.2606">
        <ele>158</ele>
        <time>2022-02-20T10:08:50.236Z</time>
      </trkpt>
      <trkpt lat="48.76624" lon="2.26058">
        <ele>156</ele>
        <time>2022-02-20T10:08:55.241Z</time>
      </trkpt>
      <trkpt lat="48.7662" lon="2.26054">
        <ele>156</ele>
        <time>2022-02-20T10:09:00.236Z</time>
      </trkpt>
      <trkpt lat="48.76607" lon="2.26043">
        <ele>156</ele>
        <time>2022-02-20T10:10:08.252Z</time>
      </trkpt>
      <trkpt lat="48.76603" lon="2.26041">
        <ele>154</ele>
        <time>2022-02-20T10:10:13.248Z</time>
      </trkpt>
      <trkpt lat="48.76601" lon="2.2604">
        <ele>154</ele>
        <time>2022-02-20T10:10:17.245Z</time>
      </trkpt>
      <trkpt lat="48.76595" lon="2.26041">
        <ele>151</ele>
        <time>2022-02-20T10:10:22.237Z</time>
      </trkpt>
      <trkpt lat="48.76591" lon="2.26041">
        <ele>151</ele>
        <time>2022-02-20T10:10:26.244Z</time>
      </trkpt>
      <trkpt lat="48.76587" lon="2.26039">
        <ele>151</ele>
        <time>2022-02-20T10:10:30.237Z</time>
      </trkpt>
      <trkpt lat="48.76583" lon="2.26039">
        <ele>151</ele>
        <time>2022-02-20T10:10:35.249Z</time>
      </trkpt>
      <trkpt lat="48.76578" lon="2.26038">
        <ele>151</ele>
        <time>2022-02-20T10:10:40.245Z</time>
      </trkpt>
      <trkpt lat="48.76576" lon="2.26039">
        <ele>151</ele>
        <time>2022-02-20T10:10:44.244Z</time>
      </trkpt>
      <trkpt lat="48.76573" lon="2.26042">
        <ele>150</ele>
        <time>2022-02-20T10:10:49.247Z</time>
      </trkpt>
      <trkpt lat="48.7657" lon="2.26046">
        <ele>150</ele>
        <time>2022-02-20T10:10:54.245Z</time>
      </trkpt>
      <trkpt lat="48.76564" lon="2.26049">
        <ele>147</ele>
        <time>2022-02-20T10:10:59.247Z</time>
      </trkpt>
      <trkpt lat="48.76559" lon="2.26052">
        <ele>147</ele>
        <time>2022-02-20T10:11:03.251Z</time>
      </trkpt>
      <trkpt lat="48.76553" lon="2.26053">
        <ele>147</ele>
        <time>2022-02-20T10:11:08.247Z</time>
      </trkpt>
      <trkpt lat="48.76549" lon="2.26051">
        <ele>147</ele>
        <time>2022-02-20T10:11:13.245Z</time>
      </trkpt>
      <trkpt lat="48.76546" lon="2.26051">
        <ele>147</ele>
        <time>2022-02-20T10:11:17.251Z</time>
      </trkpt>
      <trkpt lat="48.76542" lon="2.2605">
        <ele>147</ele>
        <time>2022-02-20T10:11:21.248Z</time>
      </trkpt>
      <trkpt lat="48.7654" lon="2.26044">
        <ele>143</ele>
        <time>2022-02-20T10:11:36.250Z</time>
      </trkpt>
      <trkpt lat="48.7654" lon="2.26044">
        <ele>143</ele>
        <time>2022-02-20T10:11:41.261Z</time>
      </trkpt>
      <trkpt lat="48.76541" lon="2.26042">
        <ele>144</ele>
        <time>2022-02-20T10:11:46.242Z</time>
      </trkpt>
      <trkpt lat="48.76536" lon="2.26036">
        <ele>144</ele>
        <time>2022-02-20T10:11:51.240Z</time>
      </trkpt>
      <trkpt lat="48.76537" lon="2.2603">
        <ele>144</ele>
        <time>2022-02-20T10:11:55.243Z</time>
      </trkpt>
      <trkpt lat="48.76537" lon="2.26022">
        <ele>144</ele>
        <time>2022-02-20T10:12:00.246Z</time>
      </trkpt>
      <trkpt lat="48.76539" lon="2.26016">
        <ele>144</ele>
        <time>2022-02-20T10:12:05.245Z</time>
      </trkpt>
      <trkpt lat="48.76538" lon="2.26011">
        <ele>145</ele>
        <time>2022-02-20T10:12:09.248Z</time>
      </trkpt>
      <trkpt lat="48.76537" lon="2.26007">
        <ele>145</ele>
        <time>2022-02-20T10:12:13.250Z</time>
      </trkpt>
      <trkpt lat="48.76539" lon="2.26001">
        <ele>145</ele>
        <time>2022-02-20T10:12:18.259Z</time>
      </trkpt>
      <trkpt lat="48.7654" lon="2.25996">
        <ele>145</ele>
        <time>2022-02-20T10:12:23.238Z</time>
      </trkpt>
      <trkpt lat="48.76541" lon="2.25991">
        <ele>145</ele>
        <time>2022-02-20T10:12:27.246Z</time>
      </trkpt>
      <trkpt lat="48.76542" lon="2.25987">
        <ele>148</ele>
        <time>2022-02-20T10:12:31.235Z</time>
      </trkpt>
      <trkpt lat="48.76543" lon="2.2598">
        <ele>149</ele>
        <time>2022-02-20T10:12:36.239Z</time>
      </trkpt>
      <trkpt lat="48.76545" lon="2.25976">
        <ele>149</ele>
        <time>2022-02-20T10:12:40.257Z</time>
      </trkpt>
      <trkpt lat="48.76544" lon="2.25971">
        <ele>149</ele>
        <time>2022-02-20T10:12:45.241Z</time>
      </trkpt>
      <trkpt lat="48.76544" lon="2.25966">
        <ele>149</ele>
        <time>2022-02-20T10:12:49.248Z</time>
      </trkpt>
      <trkpt lat="48.76544" lon="2.25958">
        <ele>149</ele>
        <time>2022-02-20T10:12:54.244Z</time>
      </trkpt>
      <trkpt lat="48.76547" lon="2.25951">
        <ele>149</ele>
        <time>2022-02-20T10:12:59.244Z</time>
      </trkpt>
      <trkpt lat="48.76549" lon="2.25947">
        <ele>149</ele>
        <time>2022-02-20T10:13:03.248Z</time>
      </trkpt>
      <trkpt lat="48.76551" lon="2.25939">
        <ele>149</ele>
        <time>2022-02-20T10:13:08.243Z</time>
      </trkpt>
      <trkpt lat="48.76553" lon="2.25925">
        <ele>151</ele>
        <time>2022-02-20T10:13:17.255Z</time>
      </trkpt>
      <trkpt lat="48.76553" lon="2.25924">
        <ele>151</ele>
        <time>2022-02-20T10:13:21.253Z</time>
      </trkpt>
      <trkpt lat="48.76553" lon="2.25922">
        <ele>151</ele>
        <time>2022-02-20T10:13:26.238Z</time>
      </trkpt>
      <trkpt lat="48.76553" lon="2.25921">
        <ele>151</ele>
        <time>2022-02-20T10:13:31.247Z</time>
      </trkpt>
      <trkpt lat="48.76553" lon="2.25915">
        <ele>151</ele>
        <time>2022-02-20T10:13:36.239Z</time>
      </trkpt>
      <trkpt lat="48.76552" lon="2.25908">
        <ele>151</ele>
        <time>2022-02-20T10:13:41.240Z</time>
      </trkpt>
      <trkpt lat="48.76552" lon="2.25904">
        <ele>151</ele>
        <time>2022-02-20T10:13:46.240Z</time>
      </trkpt>
      <trkpt lat="48.76552" lon="2.259">
        <ele>152</ele>
        <time>2022-02-20T10:13:50.247Z</time>
      </trkpt>
      <trkpt lat="48.76553" lon="2.25893">
        <ele>152</ele>
        <time>2022-02-20T10:13:55.255Z</time>
      </trkpt>
      <trkpt lat="48.76555" lon="2.25886">
        <ele>152</ele>
        <time>2022-02-20T10:13:59.258Z</time>
      </trkpt>
      <trkpt lat="48.76555" lon="2.25878">
        <ele>152</ele>
        <time>2022-02-20T10:14:04.247Z</time>
      </trkpt>
      <trkpt lat="48.76557" lon="2.25873">
        <ele>152</ele>
        <time>2022-02-20T10:14:08.261Z</time>
      </trkpt>
      <trkpt lat="48.76557" lon="2.25867">
        <ele>152</ele>
        <time>2022-02-20T10:14:13.246Z</time>
      </trkpt>
      <trkpt lat="48.76557" lon="2.25861">
        <ele>152</ele>
        <time>2022-02-20T10:14:18.244Z</time>
      </trkpt>
      <trkpt lat="48.76555" lon="2.2586">
        <ele>152</ele>
        <time>2022-02-20T10:14:23.244Z</time>
      </trkpt>
      <trkpt lat="48.76553" lon="2.25856">
        <ele>152</ele>
        <time>2022-02-20T10:14:27.251Z</time>
      </trkpt>
      <trkpt lat="48.76552" lon="2.2585">
        <ele>152</ele>
        <time>2022-02-20T10:14:32.246Z</time>
      </trkpt>
      <trkpt lat="48.7655" lon="2.25846">
        <ele>150</ele>
        <time>2022-02-20T10:14:37.246Z</time>
      </trkpt>
      <trkpt lat="48.76546" lon="2.25844">
        <ele>150</ele>
        <time>2022-02-20T10:14:42.245Z</time>
      </trkpt>
      <trkpt lat="48.76542" lon="2.25842">
        <ele>150</ele>
        <time>2022-02-20T10:14:46.246Z</time>
      </trkpt>
      <trkpt lat="48.76538" lon="2.2584">
        <ele>145</ele>
        <time>2022-02-20T10:14:51.253Z</time>
      </trkpt>
      <trkpt lat="48.76535" lon="2.25838">
        <ele>145</ele>
        <time>2022-02-20T10:14:56.243Z</time>
      </trkpt>
      <trkpt lat="48.76533" lon="2.25839">
        <ele>145</ele>
        <time>2022-02-20T10:15:00.262Z</time>
      </trkpt>
      <trkpt lat="48.76529" lon="2.25838">
        <ele>145</ele>
        <time>2022-02-20T10:15:05.263Z</time>
      </trkpt>
      <trkpt lat="48.76526" lon="2.25839">
        <ele>145</ele>
        <time>2022-02-20T10:15:10.266Z</time>
      </trkpt>
      <trkpt lat="48.76522" lon="2.25838">
        <ele>145</ele>
        <time>2022-02-20T10:15:15.245Z</time>
      </trkpt>
      <trkpt lat="48.76518" lon="2.2584">
        <ele>145</ele>
        <time>2022-02-20T10:15:20.259Z</time>
      </trkpt>
      <trkpt lat="48.76515" lon="2.25838">
        <ele>145</ele>
        <time>2022-02-20T10:15:25.244Z</time>
      </trkpt>
      <trkpt lat="48.7651" lon="2.25837">
        <ele>140</ele>
        <time>2022-02-20T10:15:30.242Z</time>
      </trkpt>
      <trkpt lat="48.76506" lon="2.25836">
        <ele>140</ele>
        <time>2022-02-20T10:15:34.251Z</time>
      </trkpt>
      <trkpt lat="48.76504" lon="2.25836">
        <ele>140</ele>
        <time>2022-02-20T10:15:39.245Z</time>
      </trkpt>
      <trkpt lat="48.765" lon="2.25835">
        <ele>140</ele>
        <time>2022-02-20T10:15:43.239Z</time>
      </trkpt>
      <trkpt lat="48.76496" lon="2.25835">
        <ele>140</ele>
        <time>2022-02-20T10:15:48.246Z</time>
      </trkpt>
      <trkpt lat="48.76494" lon="2.2583">
        <ele>140</ele>
        <time>2022-02-20T10:15:53.239Z</time>
      </trkpt>
      <trkpt lat="48.76494" lon="2.25826">
        <ele>140</ele>
        <time>2022-02-20T10:15:57.242Z</time>
      </trkpt>
      <trkpt lat="48.76493" lon="2.25822">
        <ele>140</ele>
        <time>2022-02-20T10:16:01.259Z</time>
      </trkpt>
      <trkpt lat="48.76492" lon="2.25816">
        <ele>140</ele>
        <time>2022-02-20T10:16:06.245Z</time>
      </trkpt>
      <trkpt lat="48.76491" lon="2.25811">
        <ele>140</ele>
        <time>2022-02-20T10:16:10.249Z</time>
      </trkpt>
      <trkpt lat="48.76491" lon="2.25805">
        <ele>140</ele>
        <time>2022-02-20T10:16:15.263Z</time>
      </trkpt>
      <trkpt lat="48.76492" lon="2.25799">
        <ele>140</ele>
        <time>2022-02-20T10:16:20.242Z</time>
      </trkpt>
      <trkpt lat="48.76493" lon="2.25793">
        <ele>140</ele>
        <time>2022-02-20T10:16:24.251Z</time>
      </trkpt>
      <trkpt lat="48.76491" lon="2.25786">
        <ele>143</ele>
        <time>2022-02-20T10:16:28.265Z</time>
      </trkpt>
      <trkpt lat="48.76489" lon="2.25778">
        <ele>143</ele>
        <time>2022-02-20T10:16:33.246Z</time>
      </trkpt>
      <trkpt lat="48.76485" lon="2.2577">
        <ele>140</ele>
        <time>2022-02-20T10:16:38.242Z</time>
      </trkpt>
      <trkpt lat="48.76482" lon="2.25763">
        <ele>143</ele>
        <time>2022-02-20T10:16:43.228Z</time>
      </trkpt>
      <trkpt lat="48.7648" lon="2.25758">
        <ele>143</ele>
        <time>2022-02-20T10:16:47.237Z</time>
      </trkpt>
      <trkpt lat="48.76477" lon="2.25751">
        <ele>143</ele>
        <time>2022-02-20T10:16:52.246Z</time>
      </trkpt>
      <trkpt lat="48.76474" lon="2.25746">
        <ele>143</ele>
        <time>2022-02-20T10:16:57.235Z</time>
      </trkpt>
      <trkpt lat="48.76472" lon="2.2574">
        <ele>143</ele>
        <time>2022-02-20T10:17:01.245Z</time>
      </trkpt>
      <trkpt lat="48.7647" lon="2.25736">
        <ele>144</ele>
        <time>2022-02-20T10:17:06.252Z</time>
      </trkpt>
      <trkpt lat="48.76468" lon="2.25731">
        <ele>144</ele>
        <time>2022-02-20T10:17:10.258Z</time>
      </trkpt>
      <trkpt lat="48.76469" lon="2.25725">
        <ele>144</ele>
        <time>2022-02-20T10:17:15.254Z</time>
      </trkpt>
      <trkpt lat="48.76469" lon="2.25718">
        <ele>144</ele>
        <time>2022-02-20T10:17:20.243Z</time>
      </trkpt>
      <trkpt lat="48.76467" lon="2.25713">
        <ele>144</ele>
        <time>2022-02-20T10:17:24.254Z</time>
      </trkpt>
      <trkpt lat="48.76464" lon="2.25708">
        <ele>147</ele>
        <time>2022-02-20T10:17:28.252Z</time>
      </trkpt>
      <trkpt lat="48.76461" lon="2.25703">
        <ele>147</ele>
        <time>2022-02-20T10:17:33.253Z</time>
      </trkpt>
      <trkpt lat="48.76458" lon="2.25697">
        <ele>147</ele>
        <time>2022-02-20T10:17:38.255Z</time>
      </trkpt>
      <trkpt lat="48.76456" lon="2.25691">
        <ele>149</ele>
        <time>2022-02-20T10:17:43.258Z</time>
      </trkpt>
      <trkpt lat="48.76454" lon="2.25685">
        <ele>149</ele>
        <time>2022-02-20T10:17:48.245Z</time>
      </trkpt>
      <trkpt lat="48.76451" lon="2.25679">
        <ele>153</ele>
        <time>2022-02-20T10:17:53.266Z</time>
      </trkpt>
      <trkpt lat="48.76449" lon="2.25673">
        <ele>153</ele>
        <time>2022-02-20T10:17:58.239Z</time>
      </trkpt>
      <trkpt lat="48.76448" lon="2.25666">
        <ele>153</ele>
        <time>2022-02-20T10:18:03.239Z</time>
      </trkpt>
      <trkpt lat="48.76447" lon="2.25662">
        <ele>153</ele>
        <time>2022-02-20T10:18:07.249Z</time>
      </trkpt>
      <trkpt lat="48.76444" lon="2.25657">
        <ele>153</ele>
        <time>2022-02-20T10:18:12.267Z</time>
      </trkpt>
      <trkpt lat="48.76443" lon="2.25654">
        <ele>153</ele>
        <time>2022-02-20T10:18:17.246Z</time>
      </trkpt>
      <trkpt lat="48.76442" lon="2.25652">
        <ele>158</ele>
        <time>2022-02-20T10:18:22.231Z</time>
      </trkpt>
      <trkpt lat="48.76441" lon="2.25646">
        <ele>158</ele>
        <time>2022-02-20T10:18:26.244Z</time>
      </trkpt>
      <trkpt lat="48.76441" lon="2.25641">
        <ele>158</ele>
        <time>2022-02-20T10:18:30.249Z</time>
      </trkpt>
      <trkpt lat="48.76441" lon="2.25635">
        <ele>158</ele>
        <time>2022-02-20T10:18:34.250Z</time>
      </trkpt>
      <trkpt lat="48.76439" lon="2.2563">
        <ele>158</ele>
        <time>2022-02-20T10:18:39.250Z</time>
      </trkpt>
      <trkpt lat="48.76436" lon="2.25625">
        <ele>158</ele>
        <time>2022-02-20T10:18:44.251Z</time>
      </trkpt>
      <trkpt lat="48.76431" lon="2.25622">
        <ele>162</ele>
        <time>2022-02-20T10:18:49.248Z</time>
      </trkpt>
      <trkpt lat="48.76429" lon="2.25619">
        <ele>162</ele>
        <time>2022-02-20T10:18:53.259Z</time>
      </trkpt>
      <trkpt lat="48.76426" lon="2.25615">
        <ele>162</ele>
        <time>2022-02-20T10:18:58.263Z</time>
      </trkpt>
      <trkpt lat="48.76424" lon="2.25611">
        <ele>162</ele>
        <time>2022-02-20T10:19:03.252Z</time>
      </trkpt>
      <trkpt lat="48.76422" lon="2.25609">
        <ele>162</ele>
        <time>2022-02-20T10:19:07.264Z</time>
      </trkpt>
      <trkpt lat="48.7642" lon="2.25605">
        <ele>162</ele>
        <time>2022-02-20T10:19:12.259Z</time>
      </trkpt>
      <trkpt lat="48.76418" lon="2.25601">
        <ele>162</ele>
        <time>2022-02-20T10:19:17.242Z</time>
      </trkpt>
      <trkpt lat="48.76414" lon="2.256">
        <ele>162</ele>
        <time>2022-02-20T10:19:22.257Z</time>
      </trkpt>
      <trkpt lat="48.76411" lon="2.25603">
        <ele>162</ele>
        <time>2022-02-20T10:19:27.246Z</time>
      </trkpt>
      <trkpt lat="48.76411" lon="2.25607">
        <ele>162</ele>
        <time>2022-02-20T10:19:32.256Z</time>
      </trkpt>
      <trkpt lat="48.7641" lon="2.25609">
        <ele>162</ele>
        <time>2022-02-20T10:19:37.247Z</time>
      </trkpt>
      <trkpt lat="48.76406" lon="2.25615">
        <ele>162</ele>
        <time>2022-02-20T10:19:42.268Z</time>
      </trkpt>
      <trkpt lat="48.76403" lon="2.25623">
        <ele>162</ele>
        <time>2022-02-20T10:19:47.238Z</time>
      </trkpt>
      <trkpt lat="48.76397" lon="2.25629">
        <ele>159</ele>
        <time>2022-02-20T10:19:52.249Z</time>
      </trkpt>
      <trkpt lat="48.76393" lon="2.25625">
        <ele>159</ele>
        <time>2022-02-20T10:19:57.244Z</time>
      </trkpt>
      <trkpt lat="48.76393" lon="2.25624">
        <ele>160</ele>
        <time>2022-02-20T10:20:02.262Z</time>
      </trkpt>
      <trkpt lat="48.76388" lon="2.25624">
        <ele>160</ele>
        <time>2022-02-20T10:20:07.244Z</time>
      </trkpt>
      <trkpt lat="48.76385" lon="2.2562">
        <ele>160</ele>
        <time>2022-02-20T10:20:11.242Z</time>
      </trkpt>
      <trkpt lat="48.76381" lon="2.25616">
        <ele>160</ele>
        <time>2022-02-20T10:20:15.243Z</time>
      </trkpt>
      <trkpt lat="48.76375" lon="2.2561">
        <ele>160</ele>
        <time>2022-02-20T10:20:20.249Z</time>
      </trkpt>
      <trkpt lat="48.76373" lon="2.25604">
        <ele>156</ele>
        <time>2022-02-20T10:20:25.244Z</time>
      </trkpt>
      <trkpt lat="48.76372" lon="2.25598">
        <ele>156</ele>
        <time>2022-02-20T10:20:29.249Z</time>
      </trkpt>
      <trkpt lat="48.76371" lon="2.2559">
        <ele>158</ele>
        <time>2022-02-20T10:20:34.244Z</time>
      </trkpt>
      <trkpt lat="48.76368" lon="2.25582">
        <ele>158</ele>
        <time>2022-02-20T10:20:39.253Z</time>
      </trkpt>
      <trkpt lat="48.76366" lon="2.25574">
        <ele>158</ele>
        <time>2022-02-20T10:20:44.238Z</time>
      </trkpt>
      <trkpt lat="48.76365" lon="2.25567">
        <ele>159</ele>
        <time>2022-02-20T10:20:49.247Z</time>
      </trkpt>
      <trkpt lat="48.76363" lon="2.2556">
        <ele>159</ele>
        <time>2022-02-20T10:20:53.245Z</time>
      </trkpt>
      <trkpt lat="48.7636" lon="2.25552">
        <ele>159</ele>
        <time>2022-02-20T10:20:58.245Z</time>
      </trkpt>
      <trkpt lat="48.76357" lon="2.25545">
        <ele>159</ele>
        <time>2022-02-20T10:21:03.242Z</time>
      </trkpt>
      <trkpt lat="48.76355" lon="2.25537">
        <ele>161</ele>
        <time>2022-02-20T10:21:08.253Z</time>
      </trkpt>
      <trkpt lat="48.76353" lon="2.25528">
        <ele>161</ele>
        <time>2022-02-20T10:21:13.247Z</time>
      </trkpt>
      <trkpt lat="48.7635" lon="2.25521">
        <ele>161</ele>
        <time>2022-02-20T10:21:17.264Z</time>
      </trkpt>
      <trkpt lat="48.7635" lon="2.25512">
        <ele>163</ele>
        <time>2022-02-20T10:21:22.250Z</time>
      </trkpt>
      <trkpt lat="48.76351" lon="2.25503">
        <ele>163</ele>
        <time>2022-02-20T10:21:27.257Z</time>
      </trkpt>
      <trkpt lat="48.76352" lon="2.25494">
        <ele>163</ele>
        <time>2022-02-20T10:21:32.253Z</time>
      </trkpt>
      <trkpt lat="48.76352" lon="2.25484">
        <ele>164</ele>
        <time>2022-02-20T10:21:37.240Z</time>
      </trkpt>
      <trkpt lat="48.76351" lon="2.25476">
        <ele>164</ele>
        <time>2022-02-20T10:21:41.249Z</time>
      </trkpt>
      <trkpt lat="48.76348" lon="2.25468">
        <ele>164</ele>
        <time>2022-02-20T10:21:46.249Z</time>
      </trkpt>
      <trkpt lat="48.7635" lon="2.2546">
        <ele>164</ele>
        <time>2022-02-20T10:21:51.254Z</time>
      </trkpt>
      <trkpt lat="48.76351" lon="2.25454">
        <ele>164</ele>
        <time>2022-02-20T10:21:55.243Z</time>
      </trkpt>
      <trkpt lat="48.76353" lon="2.25448">
        <ele>164</ele>
        <time>2022-02-20T10:21:59.248Z</time>
      </trkpt>
      <trkpt lat="48.76355" lon="2.25442">
        <ele>164</ele>
        <time>2022-02-20T10:22:04.252Z</time>
      </trkpt>
      <trkpt lat="48.76358" lon="2.25442">
        <ele>164</ele>
        <time>2022-02-20T10:22:08.253Z</time>
      </trkpt>
      <trkpt lat="48.76361" lon="2.25445">
        <ele>164</ele>
        <time>2022-02-20T10:22:12.246Z</time>
      </trkpt>
      <trkpt lat="48.76364" lon="2.25446">
        <ele>164</ele>
        <time>2022-02-20T10:22:16.255Z</time>
      </trkpt>
      <trkpt lat="48.76366" lon="2.25439">
        <ele>164</ele>
        <time>2022-02-20T10:22:21.246Z</time>
      </trkpt>
      <trkpt lat="48.76368" lon="2.25433">
        <ele>164</ele>
        <time>2022-02-20T10:22:25.253Z</time>
      </trkpt>
      <trkpt lat="48.76368" lon="2.25427">
        <ele>164</ele>
        <time>2022-02-20T10:22:29.269Z</time>
      </trkpt>
      <trkpt lat="48.76366" lon="2.25421">
        <ele>164</ele>
        <time>2022-02-20T10:22:34.239Z</time>
      </trkpt>
      <trkpt lat="48.76366" lon="2.25415">
        <ele>164</ele>
        <time>2022-02-20T10:22:38.243Z</time>
      </trkpt>
      <trkpt lat="48.76372" lon="2.25415">
        <ele>164</ele>
        <time>2022-02-20T10:22:43.241Z</time>
      </trkpt>
      <trkpt lat="48.76377" lon="2.2542">
        <ele>167</ele>
        <time>2022-02-20T10:22:48.247Z</time>
      </trkpt>
      <trkpt lat="48.7638" lon="2.25423">
        <ele>167</ele>
        <time>2022-02-20T10:22:53.254Z</time>
      </trkpt>
      <trkpt lat="48.76385" lon="2.25422">
        <ele>167</ele>
        <time>2022-02-20T10:22:58.251Z</time>
      </trkpt>
      <trkpt lat="48.76389" lon="2.2542">
        <ele>167</ele>
        <time>2022-02-20T10:23:02.251Z</time>
      </trkpt>
      <trkpt lat="48.76393" lon="2.25419">
        <ele>167</ele>
        <time>2022-02-20T10:23:07.241Z</time>
      </trkpt>
      <trkpt lat="48.76398" lon="2.25418">
        <ele>167</ele>
        <time>2022-02-20T10:23:11.255Z</time>
      </trkpt>
      <trkpt lat="48.76401" lon="2.25415">
        <ele>167</ele>
        <time>2022-02-20T10:23:15.257Z</time>
      </trkpt>
      <trkpt lat="48.76405" lon="2.25411">
        <ele>168</ele>
        <time>2022-02-20T10:23:20.244Z</time>
      </trkpt>
      <trkpt lat="48.76409" lon="2.25408">
        <ele>168</ele>
        <time>2022-02-20T10:23:24.247Z</time>
      </trkpt>
      <trkpt lat="48.76415" lon="2.25405">
        <ele>168</ele>
        <time>2022-02-20T10:23:29.258Z</time>
      </trkpt>
      <trkpt lat="48.76418" lon="2.25403">
        <ele>171</ele>
        <time>2022-02-20T10:23:33.252Z</time>
      </trkpt>
      <trkpt lat="48.76422" lon="2.25399">
        <ele>171</ele>
        <time>2022-02-20T10:23:38.263Z</time>
      </trkpt>
      <trkpt lat="48.76427" lon="2.254">
        <ele>171</ele>
        <time>2022-02-20T10:23:43.250Z</time>
      </trkpt>
      <trkpt lat="48.76432" lon="2.25402">
        <ele>173</ele>
        <time>2022-02-20T10:23:47.261Z</time>
      </trkpt>
      <trkpt lat="48.76436" lon="2.25407">
        <ele>172</ele>
        <time>2022-02-20T10:23:52.242Z</time>
      </trkpt>
      <trkpt lat="48.7644" lon="2.25411">
        <ele>172</ele>
        <time>2022-02-20T10:23:56.256Z</time>
      </trkpt>
      <trkpt lat="48.76445" lon="2.25416">
        <ele>172</ele>
        <time>2022-02-20T10:24:01.262Z</time>
      </trkpt>
      <trkpt lat="48.7645" lon="2.25418">
        <ele>172</ele>
        <time>2022-02-20T10:24:06.254Z</time>
      </trkpt>
      <trkpt lat="48.76453" lon="2.25424">
        <ele>172</ele>
        <time>2022-02-20T10:35:16.251Z</time>
      </trkpt>
      <trkpt lat="48.76453" lon="2.25424">
        <ele>172</ele>
        <time>2022-02-20T10:35:21.249Z</time>
      </trkpt>
      <trkpt lat="48.76451" lon="2.25426">
        <ele>172</ele>
        <time>2022-02-20T10:35:25.253Z</time>
      </trkpt>
      <trkpt lat="48.76446" lon="2.25427">
        <ele>172</ele>
        <time>2022-02-20T10:35:29.253Z</time>
      </trkpt>
      <trkpt lat="48.76442" lon="2.25427">
        <ele>172</ele>
        <time>2022-02-20T10:35:34.263Z</time>
      </trkpt>
      <trkpt lat="48.7644" lon="2.25431">
        <ele>171</ele>
        <time>2022-02-20T10:35:39.251Z</time>
      </trkpt>
      <trkpt lat="48.76437" lon="2.25437">
        <ele>171</ele>
        <time>2022-02-20T10:35:43.265Z</time>
      </trkpt>
      <trkpt lat="48.76433" lon="2.25436">
        <ele>171</ele>
        <time>2022-02-20T10:35:48.247Z</time>
      </trkpt>
      <trkpt lat="48.76429" lon="2.25433">
        <ele>167</ele>
        <time>2022-02-20T10:35:52.261Z</time>
      </trkpt>
      <trkpt lat="48.76423" lon="2.2543">
        <ele>168</ele>
        <time>2022-02-20T10:35:57.249Z</time>
      </trkpt>
      <trkpt lat="48.76419" lon="2.25427">
        <ele>168</ele>
        <time>2022-02-20T10:36:01.255Z</time>
      </trkpt>
      <trkpt lat="48.76413" lon="2.25425">
        <ele>168</ele>
        <time>2022-02-20T10:36:06.250Z</time>
      </trkpt>
      <trkpt lat="48.76407" lon="2.25422">
        <ele>168</ele>
        <time>2022-02-20T10:36:11.247Z</time>
      </trkpt>
      <trkpt lat="48.76401" lon="2.25422">
        <ele>167</ele>
        <time>2022-02-20T10:36:16.251Z</time>
      </trkpt>
      <trkpt lat="48.76395" lon="2.25422">
        <ele>167</ele>
        <time>2022-02-20T10:36:21.247Z</time>
      </trkpt>
      <trkpt lat="48.76389" lon="2.25422">
        <ele>167</ele>
        <time>2022-02-20T10:36:25.250Z</time>
      </trkpt>
      <trkpt lat="48.76383" lon="2.25421">
        <ele>167</ele>
        <time>2022-02-20T10:36:30.253Z</time>
      </trkpt>
      <trkpt lat="48.76378" lon="2.2542">
        <ele>167</ele>
        <time>2022-02-20T10:36:35.243Z</time>
      </trkpt>
      <trkpt lat="48.76374" lon="2.25416">
        <ele>164</ele>
        <time>2022-02-20T10:36:39.249Z</time>
      </trkpt>
      <trkpt lat="48.76369" lon="2.25411">
        <ele>164</ele>
        <time>2022-02-20T10:36:44.257Z</time>
      </trkpt>
      <trkpt lat="48.76362" lon="2.25408">
        <ele>164</ele>
        <time>2022-02-20T10:36:49.246Z</time>
      </trkpt>
      <trkpt lat="48.76356" lon="2.25404">
        <ele>164</ele>
        <time>2022-02-20T10:36:54.246Z</time>
      </trkpt>
      <trkpt lat="48.76352" lon="2.25395">
        <ele>165</ele>
        <time>2022-02-20T10:36:59.256Z</time>
      </trkpt>
      <trkpt lat="48.76349" lon="2.25389">
        <ele>165</ele>
        <time>2022-02-20T10:37:03.260Z</time>
      </trkpt>
      <trkpt lat="48.76344" lon="2.25392">
        <ele>161</ele>
        <time>2022-02-20T10:37:08.248Z</time>
      </trkpt>
      <trkpt lat="48.7634" lon="2.25392">
        <ele>161</ele>
        <time>2022-02-20T10:37:12.261Z</time>
      </trkpt>
      <trkpt lat="48.76334" lon="2.2539">
        <ele>161</ele>
        <time>2022-02-20T10:37:17.244Z</time>
      </trkpt>
      <trkpt lat="48.7633" lon="2.25387">
        <ele>161</ele>
        <time>2022-02-20T10:37:21.245Z</time>
      </trkpt>
      <trkpt lat="48.76325" lon="2.25385">
        <ele>161</ele>
        <time>2022-02-20T10:37:25.262Z</time>
      </trkpt>
      <trkpt lat="48.76319" lon="2.25383">
        <ele>160</ele>
        <time>2022-02-20T10:37:30.265Z</time>
      </trkpt>
      <trkpt lat="48.76312" lon="2.2538">
        <ele>160</ele>
        <time>2022-02-20T10:37:35.259Z</time>
      </trkpt>
      <trkpt lat="48.76306" lon="2.25375">
        <ele>160</ele>
        <time>2022-02-20T10:37:40.246Z</time>
      </trkpt>
      <trkpt lat="48.76301" lon="2.25372">
        <ele>161</ele>
        <time>2022-02-20T10:37:44.256Z</time>
      </trkpt>
      <trkpt lat="48.76294" lon="2.25369">
        <ele>161</ele>
        <time>2022-02-20T10:37:49.257Z</time>
      </trkpt>
      <trkpt lat="48.76288" lon="2.25368">
        <ele>155</ele>
        <time>2022-02-20T10:37:54.256Z</time>
      </trkpt>
      <trkpt lat="48.76282" lon="2.25367">
        <ele>155</ele>
        <time>2022-02-20T10:37:59.254Z</time>
      </trkpt>
      <trkpt lat="48.76277" lon="2.25366">
        <ele>155</ele>
        <time>2022-02-20T10:38:03.254Z</time>
      </trkpt>
      <trkpt lat="48.76271" lon="2.25366">
        <ele>155</ele>
        <time>2022-02-20T10:38:08.259Z</time>
      </trkpt>
      <trkpt lat="48.76265" lon="2.25366">
        <ele>155</ele>
        <time>2022-02-20T10:38:13.269Z</time>
      </trkpt>
      <trkpt lat="48.76259" lon="2.25364">
        <ele>153</ele>
        <time>2022-02-20T10:38:18.243Z</time>
      </trkpt>
      <trkpt lat="48.76254" lon="2.25358">
        <ele>153</ele>
        <time>2022-02-20T10:38:23.253Z</time>
      </trkpt>
      <trkpt lat="48.76251" lon="2.2535">
        <ele>153</ele>
        <time>2022-02-20T10:38:28.251Z</time>
      </trkpt>
      <trkpt lat="48.76249" lon="2.25345">
        <ele>154</ele>
        <time>2022-02-20T10:38:32.248Z</time>
      </trkpt>
      <trkpt lat="48.76244" lon="2.25338">
        <ele>154</ele>
        <time>2022-02-20T10:38:37.254Z</time>
      </trkpt>
      <trkpt lat="48.76241" lon="2.25333">
        <ele>154</ele>
        <time>2022-02-20T10:38:41.255Z</time>
      </trkpt>
      <trkpt lat="48.76236" lon="2.25328">
        <ele>154</ele>
        <time>2022-02-20T10:38:46.260Z</time>
      </trkpt>
      <trkpt lat="48.76232" lon="2.25322">
        <ele>154</ele>
        <time>2022-02-20T10:38:51.257Z</time>
      </trkpt>
      <trkpt lat="48.76227" lon="2.25318">
        <ele>155</ele>
        <time>2022-02-20T10:38:56.254Z</time>
      </trkpt>
      <trkpt lat="48.76223" lon="2.25314">
        <ele>155</ele>
        <time>2022-02-20T10:39:01.259Z</time>
      </trkpt>
      <trkpt lat="48.7622" lon="2.25306">
        <ele>155</ele>
        <time>2022-02-20T10:39:06.246Z</time>
      </trkpt>
      <trkpt lat="48.76221" lon="2.25299">
        <ele>155</ele>
        <time>2022-02-20T10:39:10.249Z</time>
      </trkpt>
      <trkpt lat="48.76222" lon="2.25292">
        <ele>155</ele>
        <time>2022-02-20T10:39:14.257Z</time>
      </trkpt>
      <trkpt lat="48.76223" lon="2.25289">
        <ele>156</ele>
        <time>2022-02-20T10:39:19.264Z</time>
      </trkpt>
      <trkpt lat="48.76224" lon="2.25281">
        <ele>156</ele>
        <time>2022-02-20T10:39:24.247Z</time>
      </trkpt>
      <trkpt lat="48.76224" lon="2.25274">
        <ele>156</ele>
        <time>2022-02-20T10:39:29.254Z</time>
      </trkpt>
      <trkpt lat="48.76223" lon="2.25267">
        <ele>156</ele>
        <time>2022-02-20T10:39:34.241Z</time>
      </trkpt>
      <trkpt lat="48.76223" lon="2.2526">
        <ele>158</ele>
        <time>2022-02-20T10:39:39.253Z</time>
      </trkpt>
      <trkpt lat="48.76221" lon="2.25254">
        <ele>158</ele>
        <time>2022-02-20T10:39:43.263Z</time>
      </trkpt>
      <trkpt lat="48.76218" lon="2.25247">
        <ele>158</ele>
        <time>2022-02-20T10:39:48.260Z</time>
      </trkpt>
      <trkpt lat="48.76218" lon="2.2524">
        <ele>158</ele>
        <time>2022-02-20T10:39:53.253Z</time>
      </trkpt>
      <trkpt lat="48.76218" lon="2.25233">
        <ele>158</ele>
        <time>2022-02-20T10:39:57.251Z</time>
      </trkpt>
      <trkpt lat="48.7622" lon="2.25226">
        <ele>158</ele>
        <time>2022-02-20T10:40:02.241Z</time>
      </trkpt>
      <trkpt lat="48.76222" lon="2.25219">
        <ele>158</ele>
        <time>2022-02-20T10:40:07.245Z</time>
      </trkpt>
      <trkpt lat="48.76225" lon="2.25213">
        <ele>158</ele>
        <time>2022-02-20T10:40:12.243Z</time>
      </trkpt>
      <trkpt lat="48.76228" lon="2.25209">
        <ele>158</ele>
        <time>2022-02-20T10:40:16.246Z</time>
      </trkpt>
      <trkpt lat="48.76232" lon="2.25205">
        <ele>159</ele>
        <time>2022-02-20T10:40:21.265Z</time>
      </trkpt>
      <trkpt lat="48.76236" lon="2.252">
        <ele>159</ele>
        <time>2022-02-20T10:40:26.249Z</time>
      </trkpt>
      <trkpt lat="48.76239" lon="2.25195">
        <ele>162</ele>
        <time>2022-02-20T10:40:30.258Z</time>
      </trkpt>
      <trkpt lat="48.7624" lon="2.25189">
        <ele>162</ele>
        <time>2022-02-20T10:40:34.261Z</time>
      </trkpt>
      <trkpt lat="48.76244" lon="2.25183">
        <ele>162</ele>
        <time>2022-02-20T10:40:39.262Z</time>
      </trkpt>
      <trkpt lat="48.76247" lon="2.25177">
        <ele>163</ele>
        <time>2022-02-20T10:40:44.254Z</time>
      </trkpt>
      <trkpt lat="48.7625" lon="2.25172">
        <ele>163</ele>
        <time>2022-02-20T10:40:49.259Z</time>
      </trkpt>
      <trkpt lat="48.76255" lon="2.25164">
        <ele>163</ele>
        <time>2022-02-20T10:40:54.264Z</time>
      </trkpt>
      <trkpt lat="48.76259" lon="2.25158">
        <ele>163</ele>
        <time>2022-02-20T10:40:59.253Z</time>
      </trkpt>
      <trkpt lat="48.76263" lon="2.25153">
        <ele>164</ele>
        <time>2022-02-20T10:41:04.254Z</time>
      </trkpt>
      <trkpt lat="48.76267" lon="2.25148">
        <ele>167</ele>
        <time>2022-02-20T10:41:09.255Z</time>
      </trkpt>
      <trkpt lat="48.76271" lon="2.25143">
        <ele>167</ele>
        <time>2022-02-20T10:41:14.255Z</time>
      </trkpt>
      <trkpt lat="48.76275" lon="2.25138">
        <ele>167</ele>
        <time>2022-02-20T10:41:19.264Z</time>
      </trkpt>
      <trkpt lat="48.76278" lon="2.25132">
        <ele>167</ele>
        <time>2022-02-20T10:41:24.246Z</time>
      </trkpt>
      <trkpt lat="48.76281" lon="2.25127">
        <ele>167</ele>
        <time>2022-02-20T10:41:29.251Z</time>
      </trkpt>
      <trkpt lat="48.76282" lon="2.25123">
        <ele>167</ele>
        <time>2022-02-20T10:41:34.255Z</time>
      </trkpt>
      <trkpt lat="48.76282" lon="2.25122">
        <ele>167</ele>
        <time>2022-02-20T10:41:48.251Z</time>
      </trkpt>
      <trkpt lat="48.76284" lon="2.2512">
        <ele>167</ele>
        <time>2022-02-20T10:41:53.266Z</time>
      </trkpt>
      <trkpt lat="48.76285" lon="2.25118">
        <ele>167</ele>
        <time>2022-02-20T10:41:58.251Z</time>
      </trkpt>
      <trkpt lat="48.7629" lon="2.25121">
        <ele>167</ele>
        <time>2022-02-20T10:42:03.254Z</time>
      </trkpt>
      <trkpt lat="48.76294" lon="2.25119">
        <ele>168</ele>
        <time>2022-02-20T10:42:07.267Z</time>
      </trkpt>
      <trkpt lat="48.76298" lon="2.25118">
        <ele>168</ele>
        <time>2022-02-20T10:42:12.253Z</time>
      </trkpt>
      <trkpt lat="48.76305" lon="2.25117">
        <ele>168</ele>
        <time>2022-02-20T10:42:17.255Z</time>
      </trkpt>
      <trkpt lat="48.76311" lon="2.25117">
        <ele>168</ele>
        <time>2022-02-20T10:42:22.263Z</time>
      </trkpt>
      <trkpt lat="48.76317" lon="2.25119">
        <ele>168</ele>
        <time>2022-02-20T10:42:27.257Z</time>
      </trkpt>
      <trkpt lat="48.76314" lon="2.25127">
        <ele>168</ele>
        <time>2022-02-20T10:42:49.250Z</time>
      </trkpt>
      <trkpt lat="48.76314" lon="2.25127">
        <ele>168</ele>
        <time>2022-02-20T10:42:53.254Z</time>
      </trkpt>
      <trkpt lat="48.76314" lon="2.25127">
        <ele>168</ele>
        <time>2022-02-20T10:42:57.253Z</time>
      </trkpt>
      <trkpt lat="48.76311" lon="2.25127">
        <ele>168</ele>
        <time>2022-02-20T10:43:02.261Z</time>
      </trkpt>
      <trkpt lat="48.7631" lon="2.25125">
        <ele>168</ele>
        <time>2022-02-20T10:43:07.249Z</time>
      </trkpt>
      <trkpt lat="48.76307" lon="2.25119">
        <ele>168</ele>
        <time>2022-02-20T10:43:35.262Z</time>
      </trkpt>
      <trkpt lat="48.76303" lon="2.25121">
        <ele>168</ele>
        <time>2022-02-20T10:43:40.246Z</time>
      </trkpt>
      <trkpt lat="48.76298" lon="2.25124">
        <ele>168</ele>
        <time>2022-02-20T10:43:45.258Z</time>
      </trkpt>
      <trkpt lat="48.76294" lon="2.25125">
        <ele>168</ele>
        <time>2022-02-20T10:43:49.254Z</time>
      </trkpt>
      <trkpt lat="48.76289" lon="2.25127">
        <ele>167</ele>
        <time>2022-02-20T10:43:53.261Z</time>
      </trkpt>
      <trkpt lat="48.76286" lon="2.25116">
        <ele>167</ele>
        <time>2022-02-20T10:45:16.252Z</time>
      </trkpt>
      <trkpt lat="48.76286" lon="2.25116">
        <ele>167</ele>
        <time>2022-02-20T10:45:20.254Z</time>
      </trkpt>
      <trkpt lat="48.76286" lon="2.25116">
        <ele>167</ele>
        <time>2022-02-20T10:45:25.252Z</time>
      </trkpt>
      <trkpt lat="48.76286" lon="2.25115">
        <ele>167</ele>
        <time>2022-02-20T10:45:29.260Z</time>
      </trkpt>
      <trkpt lat="48.76289" lon="2.2511">
        <ele>167</ele>
        <time>2022-02-20T10:45:33.260Z</time>
      </trkpt>
      <trkpt lat="48.76288" lon="2.25105">
        <ele>167</ele>
        <time>2022-02-20T10:45:38.248Z</time>
      </trkpt>
      <trkpt lat="48.76287" lon="2.25102">
        <ele>167</ele>
        <time>2022-02-20T10:45:43.244Z</time>
      </trkpt>
      <trkpt lat="48.76287" lon="2.25098">
        <ele>167</ele>
        <time>2022-02-20T10:45:47.249Z</time>
      </trkpt>
      <trkpt lat="48.76287" lon="2.25092">
        <ele>165</ele>
        <time>2022-02-20T10:45:51.246Z</time>
      </trkpt>
      <trkpt lat="48.76287" lon="2.25086">
        <ele>165</ele>
        <time>2022-02-20T10:45:55.257Z</time>
      </trkpt>
      <trkpt lat="48.76287" lon="2.25079">
        <ele>165</ele>
        <time>2022-02-20T10:46:00.248Z</time>
      </trkpt>
      <trkpt lat="48.76289" lon="2.25072">
        <ele>165</ele>
        <time>2022-02-20T10:46:05.255Z</time>
      </trkpt>
      <trkpt lat="48.76288" lon="2.25063">
        <ele>164</ele>
        <time>2022-02-20T10:46:10.254Z</time>
      </trkpt>
      <trkpt lat="48.7629" lon="2.25055">
        <ele>164</ele>
        <time>2022-02-20T10:46:15.250Z</time>
      </trkpt>
      <trkpt lat="48.76291" lon="2.25049">
        <ele>164</ele>
        <time>2022-02-20T10:46:19.250Z</time>
      </trkpt>
      <trkpt lat="48.76291" lon="2.25039">
        <ele>163</ele>
        <time>2022-02-20T10:46:24.253Z</time>
      </trkpt>
      <trkpt lat="48.76291" lon="2.25033">
        <ele>163</ele>
        <time>2022-02-20T10:46:28.259Z</time>
      </trkpt>
      <trkpt lat="48.76291" lon="2.25026">
        <ele>163</ele>
        <time>2022-02-20T10:46:33.247Z</time>
      </trkpt>
      <trkpt lat="48.7629" lon="2.2502">
        <ele>163</ele>
        <time>2022-02-20T10:46:37.254Z</time>
      </trkpt>
      <trkpt lat="48.7629" lon="2.25012">
        <ele>163</ele>
        <time>2022-02-20T10:46:42.241Z</time>
      </trkpt>
      <trkpt lat="48.7629" lon="2.25004">
        <ele>163</ele>
        <time>2022-02-20T10:46:47.260Z</time>
      </trkpt>
      <trkpt lat="48.76289" lon="2.24994">
        <ele>163</ele>
        <time>2022-02-20T10:46:52.264Z</time>
      </trkpt>
      <trkpt lat="48.76285" lon="2.24986">
        <ele>163</ele>
        <time>2022-02-20T10:46:57.249Z</time>
      </trkpt>
      <trkpt lat="48.76282" lon="2.2498">
        <ele>163</ele>
        <time>2022-02-20T10:47:01.260Z</time>
      </trkpt>
      <trkpt lat="48.76278" lon="2.24974">
        <ele>163</ele>
        <time>2022-02-20T10:47:05.255Z</time>
      </trkpt>
      <trkpt lat="48.76274" lon="2.24968">
        <ele>163</ele>
        <time>2022-02-20T10:47:10.254Z</time>
      </trkpt>
      <trkpt lat="48.76269" lon="2.24962">
        <ele>163</ele>
        <time>2022-02-20T10:47:15.247Z</time>
      </trkpt>
      <trkpt lat="48.76265" lon="2.24956">
        <ele>163</ele>
        <time>2022-02-20T10:47:19.249Z</time>
      </trkpt>
      <trkpt lat="48.76261" lon="2.24949">
        <ele>163</ele>
        <time>2022-02-20T10:47:24.255Z</time>
      </trkpt>
      <trkpt lat="48.76258" lon="2.24942">
        <ele>163</ele>
        <time>2022-02-20T10:47:29.260Z</time>
      </trkpt>
      <trkpt lat="48.76261" lon="2.24935">
        <ele>163</ele>
        <time>2022-02-20T10:47:34.252Z</time>
      </trkpt>
      <trkpt lat="48.76265" lon="2.24931">
        <ele>163</ele>
        <time>2022-02-20T10:47:39.258Z</time>
      </trkpt>
      <trkpt lat="48.7627" lon="2.24928">
        <ele>163</ele>
        <time>2022-02-20T10:47:44.252Z</time>
      </trkpt>
      <trkpt lat="48.76275" lon="2.24923">
        <ele>163</ele>
        <time>2022-02-20T10:47:49.252Z</time>
      </trkpt>
      <trkpt lat="48.76281" lon="2.24918">
        <ele>163</ele>
        <time>2022-02-20T10:47:54.245Z</time>
      </trkpt>
      <trkpt lat="48.76285" lon="2.24917">
        <ele>163</ele>
        <time>2022-02-20T10:47:58.258Z</time>
      </trkpt>
      <trkpt lat="48.76291" lon="2.24913">
        <ele>163</ele>
        <time>2022-02-20T10:48:03.250Z</time>
      </trkpt>
      <trkpt lat="48.76296" lon="2.24908">
        <ele>165</ele>
        <time>2022-02-20T10:48:08.247Z</time>
      </trkpt>
      <trkpt lat="48.76301" lon="2.24905">
        <ele>165</ele>
        <time>2022-02-20T10:48:13.254Z</time>
      </trkpt>
      <trkpt lat="48.76305" lon="2.24901">
        <ele>166</ele>
        <time>2022-02-20T10:48:18.258Z</time>
      </trkpt>
      <trkpt lat="48.76309" lon="2.24896">
        <ele>166</ele>
        <time>2022-02-20T10:48:23.267Z</time>
      </trkpt>
      <trkpt lat="48.76314" lon="2.24892">
        <ele>166</ele>
        <time>2022-02-20T10:48:28.247Z</time>
      </trkpt>
      <trkpt lat="48.76318" lon="2.24888">
        <ele>166</ele>
        <time>2022-02-20T10:48:32.267Z</time>
      </trkpt>
      <trkpt lat="48.76323" lon="2.24883">
        <ele>168</ele>
        <time>2022-02-20T10:48:37.249Z</time>
      </trkpt>
      <trkpt lat="48.76327" lon="2.2488">
        <ele>168</ele>
        <time>2022-02-20T10:48:41.248Z</time>
      </trkpt>
      <trkpt lat="48.76333" lon="2.24875">
        <ele>168</ele>
        <time>2022-02-20T10:48:46.252Z</time>
      </trkpt>
      <trkpt lat="48.76339" lon="2.2487">
        <ele>168</ele>
        <time>2022-02-20T10:48:51.253Z</time>
      </trkpt>
      <trkpt lat="48.76344" lon="2.24867">
        <ele>168</ele>
        <time>2022-02-20T10:48:56.246Z</time>
      </trkpt>
      <trkpt lat="48.76348" lon="2.24866">
        <ele>170</ele>
        <time>2022-02-20T10:49:00.247Z</time>
      </trkpt>
      <trkpt lat="48.76353" lon="2.24863">
        <ele>170</ele>
        <time>2022-02-20T10:49:05.246Z</time>
      </trkpt>
      <trkpt lat="48.76355" lon="2.24859">
        <ele>170</ele>
        <time>2022-02-20T10:49:09.248Z</time>
      </trkpt>
      <trkpt lat="48.76355" lon="2.24855">
        <ele>170</ele>
        <time>2022-02-20T10:49:13.257Z</time>
      </trkpt>
      <trkpt lat="48.76356" lon="2.24849">
        <ele>170</ele>
        <time>2022-02-20T10:49:18.251Z</time>
      </trkpt>
      <trkpt lat="48.76358" lon="2.24844">
        <ele>168</ele>
        <time>2022-02-20T10:49:22.254Z</time>
      </trkpt>
      <trkpt lat="48.76355" lon="2.24839">
        <ele>168</ele>
        <time>2022-02-20T10:49:27.249Z</time>
      </trkpt>
      <trkpt lat="48.76351" lon="2.24835">
        <ele>168</ele>
        <time>2022-02-20T10:49:32.256Z</time>
      </trkpt>
      <trkpt lat="48.76348" lon="2.24829">
        <ele>168</ele>
        <time>2022-02-20T10:49:36.277Z</time>
      </trkpt>
      <trkpt lat="48.76345" lon="2.2482">
        <ele>167</ele>
        <time>2022-02-20T10:49:41.259Z</time>
      </trkpt>
      <trkpt lat="48.76343" lon="2.24812">
        <ele>166</ele>
        <time>2022-02-20T10:49:46.255Z</time>
      </trkpt>
      <trkpt lat="48.7634" lon="2.24804">
        <ele>166</ele>
        <time>2022-02-20T10:49:51.252Z</time>
      </trkpt>
      <trkpt lat="48.76339" lon="2.24797">
        <ele>166</ele>
        <time>2022-02-20T10:49:55.256Z</time>
      </trkpt>
      <trkpt lat="48.76337" lon="2.24788">
        <ele>166</ele>
        <time>2022-02-20T10:50:00.266Z</time>
      </trkpt>
      <trkpt lat="48.76334" lon="2.24778">
        <ele>166</ele>
        <time>2022-02-20T10:50:05.262Z</time>
      </trkpt>
      <trkpt lat="48.76332" lon="2.24769">
        <ele>166</ele>
        <time>2022-02-20T10:50:10.243Z</time>
      </trkpt>
      <trkpt lat="48.7633" lon="2.24762">
        <ele>165</ele>
        <time>2022-02-20T10:50:14.258Z</time>
      </trkpt>
      <trkpt lat="48.76327" lon="2.24752">
        <ele>165</ele>
        <time>2022-02-20T10:50:19.246Z</time>
      </trkpt>
      <trkpt lat="48.76324" lon="2.24742">
        <ele>165</ele>
        <time>2022-02-20T10:50:24.264Z</time>
      </trkpt>
      <trkpt lat="48.76322" lon="2.24735">
        <ele>166</ele>
        <time>2022-02-20T10:50:28.263Z</time>
      </trkpt>
      <trkpt lat="48.76319" lon="2.24726">
        <ele>166</ele>
        <time>2022-02-20T10:50:33.245Z</time>
      </trkpt>
      <trkpt lat="48.76317" lon="2.24719">
        <ele>166</ele>
        <time>2022-02-20T10:50:37.248Z</time>
      </trkpt>
      <trkpt lat="48.76315" lon="2.24711">
        <ele>166</ele>
        <time>2022-02-20T10:50:41.255Z</time>
      </trkpt>
      <trkpt lat="48.76312" lon="2.24703">
        <ele>168</ele>
        <time>2022-02-20T10:50:46.240Z</time>
      </trkpt>
      <trkpt lat="48.76309" lon="2.24694">
        <ele>168</ele>
        <time>2022-02-20T10:50:51.241Z</time>
      </trkpt>
      <trkpt lat="48.76305" lon="2.24687">
        <ele>168</ele>
        <time>2022-02-20T10:50:56.241Z</time>
      </trkpt>
      <trkpt lat="48.76302" lon="2.2468">
        <ele>170</ele>
        <time>2022-02-20T10:51:00.247Z</time>
      </trkpt>
      <trkpt lat="48.763" lon="2.24671">
        <ele>170</ele>
        <time>2022-02-20T10:51:05.248Z</time>
      </trkpt>
      <trkpt lat="48.76297" lon="2.24662">
        <ele>170</ele>
        <time>2022-02-20T10:51:10.243Z</time>
      </trkpt>
      <trkpt lat="48.76295" lon="2.24653">
        <ele>170</ele>
        <time>2022-02-20T10:51:15.244Z</time>
      </trkpt>
      <trkpt lat="48.76293" lon="2.24646">
        <ele>171</ele>
        <time>2022-02-20T10:51:19.267Z</time>
      </trkpt>
      <trkpt lat="48.76289" lon="2.24638">
        <ele>171</ele>
        <time>2022-02-20T10:51:24.238Z</time>
      </trkpt>
      <trkpt lat="48.76286" lon="2.24632">
        <ele>171</ele>
        <time>2022-02-20T10:51:28.250Z</time>
      </trkpt>
      <trkpt lat="48.76283" lon="2.24623">
        <ele>170</ele>
        <time>2022-02-20T10:51:33.257Z</time>
      </trkpt>
      <trkpt lat="48.7628" lon="2.24615">
        <ele>170</ele>
        <time>2022-02-20T10:51:38.240Z</time>
      </trkpt>
      <trkpt lat="48.76278" lon="2.24609">
        <ele>170</ele>
        <time>2022-02-20T10:51:42.256Z</time>
      </trkpt>
      <trkpt lat="48.76275" lon="2.246">
        <ele>170</ele>
        <time>2022-02-20T10:51:47.246Z</time>
      </trkpt>
      <trkpt lat="48.76273" lon="2.24593">
        <ele>169</ele>
        <time>2022-02-20T10:51:51.254Z</time>
      </trkpt>
      <trkpt lat="48.76271" lon="2.24584">
        <ele>169</ele>
        <time>2022-02-20T10:51:56.259Z</time>
      </trkpt>
      <trkpt lat="48.76268" lon="2.24575">
        <ele>169</ele>
        <time>2022-02-20T10:52:01.259Z</time>
      </trkpt>
      <trkpt lat="48.76266" lon="2.24566">
        <ele>169</ele>
        <time>2022-02-20T10:52:06.261Z</time>
      </trkpt>
      <trkpt lat="48.76263" lon="2.24558">
        <ele>173</ele>
        <time>2022-02-20T10:52:11.255Z</time>
      </trkpt>
      <trkpt lat="48.7626" lon="2.24549">
        <ele>173</ele>
        <time>2022-02-20T10:52:16.272Z</time>
      </trkpt>
      <trkpt lat="48.76262" lon="2.2454">
        <ele>175</ele>
        <time>2022-02-20T10:52:21.252Z</time>
      </trkpt>
      <trkpt lat="48.76262" lon="2.24532">
        <ele>175</ele>
        <time>2022-02-20T10:52:26.248Z</time>
      </trkpt>
      <trkpt lat="48.76263" lon="2.24524">
        <ele>175</ele>
        <time>2022-02-20T10:52:30.256Z</time>
      </trkpt>
      <trkpt lat="48.76265" lon="2.24516">
        <ele>171</ele>
        <time>2022-02-20T10:52:34.253Z</time>
      </trkpt>
      <trkpt lat="48.76267" lon="2.24507">
        <ele>172</ele>
        <time>2022-02-20T10:52:39.248Z</time>
      </trkpt>
      <trkpt lat="48.76268" lon="2.245">
        <ele>172</ele>
        <time>2022-02-20T10:52:43.246Z</time>
      </trkpt>
      <trkpt lat="48.7627" lon="2.24493">
        <ele>172</ele>
        <time>2022-02-20T10:52:47.252Z</time>
      </trkpt>
      <trkpt lat="48.76274" lon="2.24485">
        <ele>173</ele>
        <time>2022-02-20T10:52:52.245Z</time>
      </trkpt>
      <trkpt lat="48.76275" lon="2.24476">
        <ele>173</ele>
        <time>2022-02-20T10:52:57.259Z</time>
      </trkpt>
      <trkpt lat="48.76278" lon="2.24468">
        <ele>173</ele>
        <time>2022-02-20T10:53:02.260Z</time>
      </trkpt>
      <trkpt lat="48.7628" lon="2.2446">
        <ele>173</ele>
        <time>2022-02-20T10:53:07.268Z</time>
      </trkpt>
      <trkpt lat="48.76283" lon="2.24452">
        <ele>173</ele>
        <time>2022-02-20T10:53:12.253Z</time>
      </trkpt>
      <trkpt lat="48.76286" lon="2.24444">
        <ele>173</ele>
        <time>2022-02-20T10:53:17.253Z</time>
      </trkpt>
      <trkpt lat="48.76288" lon="2.24435">
        <ele>173</ele>
        <time>2022-02-20T10:53:22.247Z</time>
      </trkpt>
      <trkpt lat="48.7629" lon="2.24428">
        <ele>173</ele>
        <time>2022-02-20T10:53:26.251Z</time>
      </trkpt>
      <trkpt lat="48.76292" lon="2.24421">
        <ele>174</ele>
        <time>2022-02-20T10:53:30.252Z</time>
      </trkpt>
      <trkpt lat="48.76294" lon="2.24411">
        <ele>174</ele>
        <time>2022-02-20T10:53:35.248Z</time>
      </trkpt>
      <trkpt lat="48.76296" lon="2.24404">
        <ele>174</ele>
        <time>2022-02-20T10:53:39.261Z</time>
      </trkpt>
      <trkpt lat="48.76298" lon="2.24394">
        <ele>174</ele>
        <time>2022-02-20T10:53:44.248Z</time>
      </trkpt>
      <trkpt lat="48.763" lon="2.24383">
        <ele>174</ele>
        <time>2022-02-20T10:53:49.254Z</time>
      </trkpt>
      <trkpt lat="48.76301" lon="2.24372">
        <ele>174</ele>
        <time>2022-02-20T10:53:54.246Z</time>
      </trkpt>
      <trkpt lat="48.76304" lon="2.24365">
        <ele>174</ele>
        <time>2022-02-20T10:53:58.255Z</time>
      </trkpt>
      <trkpt lat="48.76306" lon="2.24355">
        <ele>174</ele>
        <time>2022-02-20T10:54:03.252Z</time>
      </trkpt>
      <trkpt lat="48.76308" lon="2.24346">
        <ele>175</ele>
        <time>2022-02-20T10:54:08.253Z</time>
      </trkpt>
      <trkpt lat="48.76311" lon="2.24338">
        <ele>175</ele>
        <time>2022-02-20T10:54:13.246Z</time>
      </trkpt>
      <trkpt lat="48.76314" lon="2.24329">
        <ele>175</ele>
        <time>2022-02-20T10:54:18.245Z</time>
      </trkpt>
      <trkpt lat="48.76315" lon="2.24322">
        <ele>175</ele>
        <time>2022-02-20T10:54:22.241Z</time>
      </trkpt>
      <trkpt lat="48.76317" lon="2.24313">
        <ele>176</ele>
        <time>2022-02-20T10:54:27.243Z</time>
      </trkpt>
      <trkpt lat="48.76319" lon="2.24306">
        <ele>176</ele>
        <time>2022-02-20T10:54:31.242Z</time>
      </trkpt>
      <trkpt lat="48.76322" lon="2.24298">
        <ele>175</ele>
        <time>2022-02-20T10:54:36.249Z</time>
      </trkpt>
      <trkpt lat="48.76325" lon="2.24289">
        <ele>177</ele>
        <time>2022-02-20T10:54:41.240Z</time>
      </trkpt>
      <trkpt lat="48.76327" lon="2.24281">
        <ele>177</ele>
        <time>2022-02-20T10:54:46.246Z</time>
      </trkpt>
      <trkpt lat="48.7633" lon="2.24273">
        <ele>177</ele>
        <time>2022-02-20T10:54:51.243Z</time>
      </trkpt>
      <trkpt lat="48.76332" lon="2.24265">
        <ele>177</ele>
        <time>2022-02-20T10:54:56.246Z</time>
      </trkpt>
      <trkpt lat="48.76334" lon="2.24256">
        <ele>178</ele>
        <time>2022-02-20T10:55:01.251Z</time>
      </trkpt>
      <trkpt lat="48.76335" lon="2.24246">
        <ele>178</ele>
        <time>2022-02-20T10:55:06.249Z</time>
      </trkpt>
      <trkpt lat="48.76337" lon="2.24239">
        <ele>178</ele>
        <time>2022-02-20T10:55:10.249Z</time>
      </trkpt>
      <trkpt lat="48.7634" lon="2.24229">
        <ele>179</ele>
        <time>2022-02-20T10:55:15.249Z</time>
      </trkpt>
      <trkpt lat="48.76342" lon="2.24222">
        <ele>179</ele>
        <time>2022-02-20T10:55:19.256Z</time>
      </trkpt>
      <trkpt lat="48.76344" lon="2.24212">
        <ele>179</ele>
        <time>2022-02-20T10:55:24.253Z</time>
      </trkpt>
      <trkpt lat="48.76346" lon="2.24201">
        <ele>180</ele>
        <time>2022-02-20T10:55:29.244Z</time>
      </trkpt>
      <trkpt lat="48.76348" lon="2.24193">
        <ele>179</ele>
        <time>2022-02-20T10:55:33.244Z</time>
      </trkpt>
      <trkpt lat="48.7635" lon="2.24182">
        <ele>179</ele>
        <time>2022-02-20T10:55:38.249Z</time>
      </trkpt>
      <trkpt lat="48.76351" lon="2.24175">
        <ele>179</ele>
        <time>2022-02-20T10:55:42.254Z</time>
      </trkpt>
      <trkpt lat="48.76353" lon="2.24165">
        <ele>179</ele>
        <time>2022-02-20T10:55:47.251Z</time>
      </trkpt>
      <trkpt lat="48.76355" lon="2.24158">
        <ele>179</ele>
        <time>2022-02-20T10:55:51.254Z</time>
      </trkpt>
      <trkpt lat="48.76357" lon="2.24148">
        <ele>179</ele>
        <time>2022-02-20T10:55:56.250Z</time>
      </trkpt>
      <trkpt lat="48.76359" lon="2.24141">
        <ele>179</ele>
        <time>2022-02-20T10:56:00.250Z</time>
      </trkpt>
      <trkpt lat="48.76361" lon="2.24132">
        <ele>179</ele>
        <time>2022-02-20T10:56:05.254Z</time>
      </trkpt>
      <trkpt lat="48.76362" lon="2.24124">
        <ele>179</ele>
        <time>2022-02-20T10:56:09.260Z</time>
      </trkpt>
      <trkpt lat="48.76364" lon="2.24113">
        <ele>179</ele>
        <time>2022-02-20T10:56:14.257Z</time>
      </trkpt>
      <trkpt lat="48.76366" lon="2.24102">
        <ele>179</ele>
        <time>2022-02-20T10:56:19.246Z</time>
      </trkpt>
      <trkpt lat="48.76366" lon="2.24096">
        <ele>180</ele>
        <time>2022-02-20T10:56:23.260Z</time>
      </trkpt>
      <trkpt lat="48.76369" lon="2.24088">
        <ele>180</ele>
        <time>2022-02-20T10:56:28.256Z</time>
      </trkpt>
      <trkpt lat="48.76372" lon="2.24082">
        <ele>180</ele>
        <time>2022-02-20T10:56:33.256Z</time>
      </trkpt>
      <trkpt lat="48.76377" lon="2.24082">
        <ele>178</ele>
        <time>2022-02-20T10:56:37.249Z</time>
      </trkpt>
      <trkpt lat="48.7638" lon="2.24081">
        <ele>178</ele>
        <time>2022-02-20T10:56:42.244Z</time>
      </trkpt>
      <trkpt lat="48.76381" lon="2.24074">
        <ele>178</ele>
        <time>2022-02-20T10:56:46.243Z</time>
      </trkpt>
      <trkpt lat="48.76386" lon="2.24067">
        <ele>179</ele>
        <time>2022-02-20T10:56:51.250Z</time>
      </trkpt>
      <trkpt lat="48.76393" lon="2.24057">
        <ele>179</ele>
        <time>2022-02-20T10:56:56.255Z</time>
      </trkpt>
      <trkpt lat="48.76398" lon="2.2405">
        <ele>179</ele>
        <time>2022-02-20T10:57:00.260Z</time>
      </trkpt>
      <trkpt lat="48.76404" lon="2.24046">
        <ele>179</ele>
        <time>2022-02-20T10:57:05.249Z</time>
      </trkpt>
      <trkpt lat="48.76408" lon="2.24041">
        <ele>179</ele>
        <time>2022-02-20T10:57:09.255Z</time>
      </trkpt>
      <trkpt lat="48.76412" lon="2.24038">
        <ele>179</ele>
        <time>2022-02-20T10:57:14.253Z</time>
      </trkpt>
      <trkpt lat="48.76417" lon="2.24034">
        <ele>179</ele>
        <time>2022-02-20T10:57:19.257Z</time>
      </trkpt>
      <trkpt lat="48.76421" lon="2.24031">
        <ele>179</ele>
        <time>2022-02-20T10:57:23.262Z</time>
      </trkpt>
      <trkpt lat="48.76427" lon="2.24028">
        <ele>179</ele>
        <time>2022-02-20T10:57:28.252Z</time>
      </trkpt>
      <trkpt lat="48.76433" lon="2.24024">
        <ele>180</ele>
        <time>2022-02-20T10:57:32.254Z</time>
      </trkpt>
      <trkpt lat="48.76438" lon="2.24019">
        <ele>180</ele>
        <time>2022-02-20T10:57:37.252Z</time>
      </trkpt>
      <trkpt lat="48.76442" lon="2.24016">
        <ele>180</ele>
        <time>2022-02-20T10:57:41.246Z</time>
      </trkpt>
      <trkpt lat="48.76448" lon="2.2401">
        <ele>179</ele>
        <time>2022-02-20T10:57:46.239Z</time>
      </trkpt>
      <trkpt lat="48.76453" lon="2.24005">
        <ele>179</ele>
        <time>2022-02-20T10:57:50.245Z</time>
      </trkpt>
      <trkpt lat="48.76457" lon="2.24003">
        <ele>179</ele>
        <time>2022-02-20T10:57:54.254Z</time>
      </trkpt>
      <trkpt lat="48.76462" lon="2.24">
        <ele>178</ele>
        <time>2022-02-20T10:57:59.241Z</time>
      </trkpt>
      <trkpt lat="48.76462" lon="2.24">
        <ele>178</ele>
        <time>2022-02-20T10:58:04.241Z</time>
      </trkpt>
      <trkpt lat="48.76461" lon="2.23996">
        <ele>178</ele>
        <time>2022-02-20T10:58:08.264Z</time>
      </trkpt>
      <trkpt lat="48.76464" lon="2.23996">
        <ele>178</ele>
        <time>2022-02-20T10:58:13.251Z</time>
      </trkpt>
      <trkpt lat="48.76464" lon="2.23995">
        <ele>178</ele>
        <time>2022-02-20T10:58:18.245Z</time>
      </trkpt>
      <trkpt lat="48.76463" lon="2.23987">
        <ele>178</ele>
        <time>2022-02-20T10:58:23.244Z</time>
      </trkpt>
      <trkpt lat="48.7646" lon="2.23981">
        <ele>178</ele>
        <time>2022-02-20T10:58:28.248Z</time>
      </trkpt>
      <trkpt lat="48.76458" lon="2.23978">
        <ele>178</ele>
        <time>2022-02-20T10:58:33.241Z</time>
      </trkpt>
      <trkpt lat="48.76453" lon="2.23973">
        <ele>178</ele>
        <time>2022-02-20T10:58:38.246Z</time>
      </trkpt>
      <trkpt lat="48.7645" lon="2.23968">
        <ele>178</ele>
        <time>2022-02-20T10:58:43.245Z</time>
      </trkpt>
      <trkpt lat="48.76446" lon="2.23964">
        <ele>178</ele>
        <time>2022-02-20T10:58:47.246Z</time>
      </trkpt>
      <trkpt lat="48.76443" lon="2.2396">
        <ele>178</ele>
        <time>2022-02-20T10:58:51.253Z</time>
      </trkpt>
      <trkpt lat="48.76438" lon="2.23955">
        <ele>178</ele>
        <time>2022-02-20T10:58:56.251Z</time>
      </trkpt>
      <trkpt lat="48.76435" lon="2.23949">
        <ele>178</ele>
        <time>2022-02-20T10:59:00.260Z</time>
      </trkpt>
      <trkpt lat="48.7643" lon="2.23942">
        <ele>179</ele>
        <time>2022-02-20T10:59:05.241Z</time>
      </trkpt>
      <trkpt lat="48.76427" lon="2.23937">
        <ele>179</ele>
        <time>2022-02-20T10:59:09.240Z</time>
      </trkpt>
      <trkpt lat="48.76423" lon="2.23929">
        <ele>179</ele>
        <time>2022-02-20T10:59:14.253Z</time>
      </trkpt>
      <trkpt lat="48.76419" lon="2.23924">
        <ele>179</ele>
        <time>2022-02-20T10:59:18.256Z</time>
      </trkpt>
      <trkpt lat="48.76416" lon="2.23918">
        <ele>179</ele>
        <time>2022-02-20T10:59:23.248Z</time>
      </trkpt>
      <trkpt lat="48.76414" lon="2.23914">
        <ele>179</ele>
        <time>2022-02-20T10:59:27.258Z</time>
      </trkpt>
      <trkpt lat="48.7641" lon="2.23907">
        <ele>179</ele>
        <time>2022-02-20T10:59:32.253Z</time>
      </trkpt>
      <trkpt lat="48.76406" lon="2.239">
        <ele>178</ele>
        <time>2022-02-20T10:59:37.244Z</time>
      </trkpt>
      <trkpt lat="48.76403" lon="2.23892">
        <ele>178</ele>
        <time>2022-02-20T10:59:42.257Z</time>
      </trkpt>
      <trkpt lat="48.76399" lon="2.23884">
        <ele>179</ele>
        <time>2022-02-20T10:59:47.250Z</time>
      </trkpt>
      <trkpt lat="48.76395" lon="2.23875">
        <ele>179</ele>
        <time>2022-02-20T10:59:52.260Z</time>
      </trkpt>
      <trkpt lat="48.76391" lon="2.23868">
        <ele>178</ele>
        <time>2022-02-20T10:59:57.247Z</time>
      </trkpt>
      <trkpt lat="48.76388" lon="2.23861">
        <ele>178</ele>
        <time>2022-02-20T11:00:01.244Z</time>
      </trkpt>
      <trkpt lat="48.76386" lon="2.23855">
        <ele>178</ele>
        <time>2022-02-20T11:00:05.248Z</time>
      </trkpt>
      <trkpt lat="48.76385" lon="2.23847">
        <ele>178</ele>
        <time>2022-02-20T11:00:10.244Z</time>
      </trkpt>
      <trkpt lat="48.76382" lon="2.23842">
        <ele>178</ele>
        <time>2022-02-20T11:00:14.250Z</time>
      </trkpt>
      <trkpt lat="48.7638" lon="2.23837">
        <ele>178</ele>
        <time>2022-02-20T11:00:18.255Z</time>
      </trkpt>
      <trkpt lat="48.76378" lon="2.23837">
        <ele>178</ele>
        <time>2022-02-20T11:00:23.247Z</time>
      </trkpt>
      <trkpt lat="48.76375" lon="2.23833">
        <ele>178</ele>
        <time>2022-02-20T11:00:28.247Z</time>
      </trkpt>
      <trkpt lat="48.76372" lon="2.23827">
        <ele>177</ele>
        <time>2022-02-20T11:00:32.247Z</time>
      </trkpt>
      <trkpt lat="48.76369" lon="2.23821">
        <ele>177</ele>
        <time>2022-02-20T11:00:37.239Z</time>
      </trkpt>
      <trkpt lat="48.76366" lon="2.23815">
        <ele>176</ele>
        <time>2022-02-20T11:00:42.258Z</time>
      </trkpt>
      <trkpt lat="48.76362" lon="2.23807">
        <ele>176</ele>
        <time>2022-02-20T11:00:47.244Z</time>
      </trkpt>
      <trkpt lat="48.7636" lon="2.23802">
        <ele>176</ele>
        <time>2022-02-20T11:00:51.248Z</time>
      </trkpt>
      <trkpt lat="48.76357" lon="2.23797">
        <ele>176</ele>
        <time>2022-02-20T11:00:56.251Z</time>
      </trkpt>
      <trkpt lat="48.76353" lon="2.2379">
        <ele>175</ele>
        <time>2022-02-20T11:01:01.245Z</time>
      </trkpt>
      <trkpt lat="48.7635" lon="2.23782">
        <ele>175</ele>
        <time>2022-02-20T11:01:06.246Z</time>
      </trkpt>
      <trkpt lat="48.76345" lon="2.23773">
        <ele>174</ele>
        <time>2022-02-20T11:01:11.250Z</time>
      </trkpt>
      <trkpt lat="48.76342" lon="2.23765">
        <ele>174</ele>
        <time>2022-02-20T11:01:16.246Z</time>
      </trkpt>
      <trkpt lat="48.76339" lon="2.23759">
        <ele>174</ele>
        <time>2022-02-20T11:01:20.249Z</time>
      </trkpt>
      <trkpt lat="48.76335" lon="2.2375">
        <ele>174</ele>
        <time>2022-02-20T11:01:25.246Z</time>
      </trkpt>
      <trkpt lat="48.76331" lon="2.23743">
        <ele>174</ele>
        <time>2022-02-20T11:01:29.249Z</time>
      </trkpt>
      <trkpt lat="48.76326" lon="2.23734">
        <ele>174</ele>
        <time>2022-02-20T11:01:34.256Z</time>
      </trkpt>
      <trkpt lat="48.76322" lon="2.23726">
        <ele>174</ele>
        <time>2022-02-20T11:01:39.249Z</time>
      </trkpt>
      <trkpt lat="48.76318" lon="2.23719">
        <ele>175</ele>
        <time>2022-02-20T11:01:43.257Z</time>
      </trkpt>
      <trkpt lat="48.76313" lon="2.2371">
        <ele>175</ele>
        <time>2022-02-20T11:01:48.259Z</time>
      </trkpt>
      <trkpt lat="48.76309" lon="2.23701">
        <ele>176</ele>
        <time>2022-02-20T11:01:53.254Z</time>
      </trkpt>
      <trkpt lat="48.76305" lon="2.23693">
        <ele>176</ele>
        <time>2022-02-20T11:01:58.250Z</time>
      </trkpt>
      <trkpt lat="48.76302" lon="2.23687">
        <ele>176</ele>
        <time>2022-02-20T11:02:02.253Z</time>
      </trkpt>
      <trkpt lat="48.76299" lon="2.2368">
        <ele>176</ele>
        <time>2022-02-20T11:02:07.251Z</time>
      </trkpt>
      <trkpt lat="48.76297" lon="2.23673">
        <ele>176</ele>
        <time>2022-02-20T11:02:11.263Z</time>
      </trkpt>
      <trkpt lat="48.76296" lon="2.23669">
        <ele>176</ele>
        <time>2022-02-20T11:02:24.272Z</time>
      </trkpt>
      <trkpt lat="48.76296" lon="2.23669">
        <ele>176</ele>
        <time>2022-02-20T11:02:29.264Z</time>
      </trkpt>
      <trkpt lat="48.76293" lon="2.23668">
        <ele>176</ele>
        <time>2022-02-20T11:02:34.254Z</time>
      </trkpt>
      <trkpt lat="48.76289" lon="2.23671">
        <ele>179</ele>
        <time>2022-02-20T11:02:39.253Z</time>
      </trkpt>
      <trkpt lat="48.76284" lon="2.23671">
        <ele>179</ele>
        <time>2022-02-20T11:02:44.244Z</time>
      </trkpt>
      <trkpt lat="48.76272" lon="2.23668">
        <ele>179</ele>
        <time>2022-02-20T11:03:10.271Z</time>
      </trkpt>
      <trkpt lat="48.76272" lon="2.23668">
        <ele>179</ele>
        <time>2022-02-20T11:03:15.252Z</time>
      </trkpt>
      <trkpt lat="48.76272" lon="2.23668">
        <ele>179</ele>
        <time>2022-02-20T11:03:20.254Z</time>
      </trkpt>
      <trkpt lat="48.76272" lon="2.23668">
        <ele>179</ele>
        <time>2022-02-20T11:03:25.256Z</time>
      </trkpt>
      <trkpt lat="48.76271" lon="2.23667">
        <ele>179</ele>
        <time>2022-02-20T11:03:30.247Z</time>
      </trkpt>
      <trkpt lat="48.76271" lon="2.23661">
        <ele>179</ele>
        <time>2022-02-20T11:03:35.259Z</time>
      </trkpt>
      <trkpt lat="48.76275" lon="2.2366">
        <ele>179</ele>
        <time>2022-02-20T11:03:40.252Z</time>
      </trkpt>
      <trkpt lat="48.76279" lon="2.23658">
        <ele>179</ele>
        <time>2022-02-20T11:03:44.253Z</time>
      </trkpt>
      <trkpt lat="48.76283" lon="2.23657">
        <ele>179</ele>
        <time>2022-02-20T11:03:49.249Z</time>
      </trkpt>
      <trkpt lat="48.76286" lon="2.23656">
        <ele>179</ele>
        <time>2022-02-20T11:03:53.250Z</time>
      </trkpt>
      <trkpt lat="48.7629" lon="2.23653">
        <ele>179</ele>
        <time>2022-02-20T11:03:57.263Z</time>
      </trkpt>
      <trkpt lat="48.76294" lon="2.23649">
        <ele>176</ele>
        <time>2022-02-20T11:04:02.251Z</time>
      </trkpt>
      <trkpt lat="48.76296" lon="2.23646">
        <ele>176</ele>
        <time>2022-02-20T11:04:06.252Z</time>
      </trkpt>
      <trkpt lat="48.76299" lon="2.23643">
        <ele>176</ele>
        <time>2022-02-20T11:04:10.263Z</time>
      </trkpt>
      <trkpt lat="48.76301" lon="2.23638">
        <ele>176</ele>
        <time>2022-02-20T11:04:15.260Z</time>
      </trkpt>
      <trkpt lat="48.76304" lon="2.23634">
        <ele>176</ele>
        <time>2022-02-20T11:04:20.255Z</time>
      </trkpt>
      <trkpt lat="48.76307" lon="2.23631">
        <ele>176</ele>
        <time>2022-02-20T11:04:25.254Z</time>
      </trkpt>
      <trkpt lat="48.76309" lon="2.23629">
        <ele>176</ele>
        <time>2022-02-20T11:04:29.253Z</time>
      </trkpt>
      <trkpt lat="48.76312" lon="2.23625">
        <ele>176</ele>
        <time>2022-02-20T11:04:33.259Z</time>
      </trkpt>
      <trkpt lat="48.76315" lon="2.23621">
        <ele>175</ele>
        <time>2022-02-20T11:04:37.266Z</time>
      </trkpt>
      <trkpt lat="48.76319" lon="2.23615">
        <ele>175</ele>
        <time>2022-02-20T11:04:42.239Z</time>
      </trkpt>
      <trkpt lat="48.76322" lon="2.23611">
        <ele>168</ele>
        <time>2022-02-20T11:04:46.251Z</time>
      </trkpt>
      <trkpt lat="48.76325" lon="2.23606">
        <ele>168</ele>
        <time>2022-02-20T11:04:51.256Z</time>
      </trkpt>
      <trkpt lat="48.76328" lon="2.23601">
        <ele>168</ele>
        <time>2022-02-20T11:04:56.263Z</time>
      </trkpt>
      <trkpt lat="48.76332" lon="2.23594">
        <ele>164</ele>
        <time>2022-02-20T11:05:01.253Z</time>
      </trkpt>
      <trkpt lat="48.76335" lon="2.2359">
        <ele>164</ele>
        <time>2022-02-20T11:05:05.261Z</time>
      </trkpt>
      <trkpt lat="48.76339" lon="2.23586">
        <ele>164</ele>
        <time>2022-02-20T11:05:10.241Z</time>
      </trkpt>
      <trkpt lat="48.76342" lon="2.23581">
        <ele>164</ele>
        <time>2022-02-20T11:05:15.254Z</time>
      </trkpt>
      <trkpt lat="48.76344" lon="2.23576">
        <ele>164</ele>
        <time>2022-02-20T11:05:20.248Z</time>
      </trkpt>
      <trkpt lat="48.76348" lon="2.23573">
        <ele>161</ele>
        <time>2022-02-20T11:05:24.250Z</time>
      </trkpt>
      <trkpt lat="48.76351" lon="2.23568">
        <ele>157</ele>
        <time>2022-02-20T11:05:29.252Z</time>
      </trkpt>
      <trkpt lat="48.76354" lon="2.23564">
        <ele>157</ele>
        <time>2022-02-20T11:05:33.265Z</time>
      </trkpt>
      <trkpt lat="48.76357" lon="2.23559">
        <ele>157</ele>
        <time>2022-02-20T11:05:38.265Z</time>
      </trkpt>
      <trkpt lat="48.76361" lon="2.23554">
        <ele>157</ele>
        <time>2022-02-20T11:05:43.256Z</time>
      </trkpt>
      <trkpt lat="48.76363" lon="2.23549">
        <ele>157</ele>
        <time>2022-02-20T11:05:47.263Z</time>
      </trkpt>
      <trkpt lat="48.76364" lon="2.23541">
        <ele>153</ele>
        <time>2022-02-20T11:05:52.258Z</time>
      </trkpt>
      <trkpt lat="48.76367" lon="2.23534">
        <ele>153</ele>
        <time>2022-02-20T11:05:57.249Z</time>
      </trkpt>
      <trkpt lat="48.76367" lon="2.23527">
        <ele>153</ele>
        <time>2022-02-20T11:06:02.239Z</time>
      </trkpt>
      <trkpt lat="48.76368" lon="2.23521">
        <ele>153</ele>
        <time>2022-02-20T11:06:06.244Z</time>
      </trkpt>
      <trkpt lat="48.7637" lon="2.23517">
        <ele>153</ele>
        <time>2022-02-20T11:06:10.258Z</time>
      </trkpt>
      <trkpt lat="48.76369" lon="2.2351">
        <ele>151</ele>
        <time>2022-02-20T11:06:15.244Z</time>
      </trkpt>
      <trkpt lat="48.76369" lon="2.23502">
        <ele>151</ele>
        <time>2022-02-20T11:06:20.241Z</time>
      </trkpt>
      <trkpt lat="48.7637" lon="2.23494">
        <ele>151</ele>
        <time>2022-02-20T11:06:25.241Z</time>
      </trkpt>
      <trkpt lat="48.76371" lon="2.23486">
        <ele>149</ele>
        <time>2022-02-20T11:06:30.244Z</time>
      </trkpt>
      <trkpt lat="48.76371" lon="2.23479">
        <ele>149</ele>
        <time>2022-02-20T11:06:35.250Z</time>
      </trkpt>
      <trkpt lat="48.76372" lon="2.23473">
        <ele>149</ele>
        <time>2022-02-20T11:06:39.251Z</time>
      </trkpt>
      <trkpt lat="48.76373" lon="2.23467">
        <ele>149</ele>
        <time>2022-02-20T11:06:44.243Z</time>
      </trkpt>
      <trkpt lat="48.76373" lon="2.23461">
        <ele>149</ele>
        <time>2022-02-20T11:06:48.255Z</time>
      </trkpt>
      <trkpt lat="48.7637" lon="2.23454">
        <ele>147</ele>
        <time>2022-02-20T11:06:53.261Z</time>
      </trkpt>
      <trkpt lat="48.76369" lon="2.23446">
        <ele>147</ele>
        <time>2022-02-20T11:06:58.260Z</time>
      </trkpt>
      <trkpt lat="48.7637" lon="2.23438">
        <ele>147</ele>
        <time>2022-02-20T11:07:03.242Z</time>
      </trkpt>
      <trkpt lat="48.76371" lon="2.23431">
        <ele>147</ele>
        <time>2022-02-20T11:07:07.257Z</time>
      </trkpt>
      <trkpt lat="48.76372" lon="2.23424">
        <ele>146</ele>
        <time>2022-02-20T11:07:12.260Z</time>
      </trkpt>
      <trkpt lat="48.76372" lon="2.23417">
        <ele>146</ele>
        <time>2022-02-20T11:07:17.259Z</time>
      </trkpt>
      <trkpt lat="48.7637" lon="2.2341">
        <ele>146</ele>
        <time>2022-02-20T11:07:22.243Z</time>
      </trkpt>
      <trkpt lat="48.76368" lon="2.23403">
        <ele>146</ele>
        <time>2022-02-20T11:07:26.259Z</time>
      </trkpt>
      <trkpt lat="48.76366" lon="2.23396">
        <ele>146</ele>
        <time>2022-02-20T11:07:30.257Z</time>
      </trkpt>
      <trkpt lat="48.76365" lon="2.23393">
        <ele>146</ele>
        <time>2022-02-20T11:07:54.243Z</time>
      </trkpt>
      <trkpt lat="48.76365" lon="2.23393">
        <ele>146</ele>
        <time>2022-02-20T11:07:58.246Z</time>
      </trkpt>
      <trkpt lat="48.76365" lon="2.23392">
        <ele>146</ele>
        <time>2022-02-20T11:08:02.261Z</time>
      </trkpt>
      <trkpt lat="48.76362" lon="2.23388">
        <ele>146</ele>
        <time>2022-02-20T11:08:07.252Z</time>
      </trkpt>
      <trkpt lat="48.76358" lon="2.23378">
        <ele>146</ele>
        <time>2022-02-20T11:08:12.261Z</time>
      </trkpt>
      <trkpt lat="48.76357" lon="2.23373">
        <ele>146</ele>
        <time>2022-02-20T11:08:16.258Z</time>
      </trkpt>
      <trkpt lat="48.76357" lon="2.23366">
        <ele>146</ele>
        <time>2022-02-20T11:08:21.249Z</time>
      </trkpt>
      <trkpt lat="48.76358" lon="2.2336">
        <ele>146</ele>
        <time>2022-02-20T11:08:25.251Z</time>
      </trkpt>
      <trkpt lat="48.76359" lon="2.23351">
        <ele>146</ele>
        <time>2022-02-20T11:08:30.241Z</time>
      </trkpt>
      <trkpt lat="48.76361" lon="2.23344">
        <ele>145</ele>
        <time>2022-02-20T11:08:35.254Z</time>
      </trkpt>
      <trkpt lat="48.76361" lon="2.23339">
        <ele>145</ele>
        <time>2022-02-20T11:08:40.247Z</time>
      </trkpt>
      <trkpt lat="48.76362" lon="2.23333">
        <ele>145</ele>
        <time>2022-02-20T11:08:45.242Z</time>
      </trkpt>
      <trkpt lat="48.76362" lon="2.23328">
        <ele>145</ele>
        <time>2022-02-20T11:08:49.253Z</time>
      </trkpt>
      <trkpt lat="48.76361" lon="2.23321">
        <ele>145</ele>
        <time>2022-02-20T11:08:54.260Z</time>
      </trkpt>
      <trkpt lat="48.76359" lon="2.23311">
        <ele>143</ele>
        <time>2022-02-20T11:08:59.250Z</time>
      </trkpt>
      <trkpt lat="48.76356" lon="2.23304">
        <ele>143</ele>
        <time>2022-02-20T11:09:03.257Z</time>
      </trkpt>
      <trkpt lat="48.76352" lon="2.233">
        <ele>143</ele>
        <time>2022-02-20T11:09:07.259Z</time>
      </trkpt>
      <trkpt lat="48.76348" lon="2.23296">
        <ele>143</ele>
        <time>2022-02-20T11:09:12.258Z</time>
      </trkpt>
      <trkpt lat="48.76345" lon="2.23291">
        <ele>141</ele>
        <time>2022-02-20T11:09:16.260Z</time>
      </trkpt>
      <trkpt lat="48.76342" lon="2.23285">
        <ele>141</ele>
        <time>2022-02-20T11:09:21.246Z</time>
      </trkpt>
      <trkpt lat="48.76339" lon="2.23277">
        <ele>141</ele>
        <time>2022-02-20T11:09:26.267Z</time>
      </trkpt>
      <trkpt lat="48.7634" lon="2.23269">
        <ele>141</ele>
        <time>2022-02-20T11:09:31.253Z</time>
      </trkpt>
      <trkpt lat="48.76343" lon="2.23262">
        <ele>137</ele>
        <time>2022-02-20T11:09:35.255Z</time>
      </trkpt>
      <trkpt lat="48.76346" lon="2.23256">
        <ele>137</ele>
        <time>2022-02-20T11:09:40.260Z</time>
      </trkpt>
      <trkpt lat="48.76348" lon="2.23246">
        <ele>136</ele>
        <time>2022-02-20T11:09:45.252Z</time>
      </trkpt>
      <trkpt lat="48.7635" lon="2.2324">
        <ele>136</ele>
        <time>2022-02-20T11:09:49.257Z</time>
      </trkpt>
      <trkpt lat="48.76353" lon="2.23232">
        <ele>135</ele>
        <time>2022-02-20T11:09:54.244Z</time>
      </trkpt>
      <trkpt lat="48.76353" lon="2.23225">
        <ele>135</ele>
        <time>2022-02-20T11:09:58.244Z</time>
      </trkpt>
      <trkpt lat="48.76354" lon="2.23221">
        <ele>135</ele>
        <time>2022-02-20T11:10:02.253Z</time>
      </trkpt>
      <trkpt lat="48.76357" lon="2.23212">
        <ele>135</ele>
        <time>2022-02-20T11:10:07.240Z</time>
      </trkpt>
      <trkpt lat="48.76361" lon="2.23205">
        <ele>136</ele>
        <time>2022-02-20T11:10:12.253Z</time>
      </trkpt>
      <trkpt lat="48.76364" lon="2.232">
        <ele>136</ele>
        <time>2022-02-20T11:10:17.242Z</time>
      </trkpt>
      <trkpt lat="48.76368" lon="2.23194">
        <ele>136</ele>
        <time>2022-02-20T11:10:21.245Z</time>
      </trkpt>
      <trkpt lat="48.76371" lon="2.23189">
        <ele>136</ele>
        <time>2022-02-20T11:10:25.247Z</time>
      </trkpt>
      <trkpt lat="48.76376" lon="2.23182">
        <ele>134</ele>
        <time>2022-02-20T11:10:30.250Z</time>
      </trkpt>
      <trkpt lat="48.76381" lon="2.23176">
        <ele>134</ele>
        <time>2022-02-20T11:10:34.251Z</time>
      </trkpt>
      <trkpt lat="48.76386" lon="2.2317">
        <ele>134</ele>
        <time>2022-02-20T11:10:39.248Z</time>
      </trkpt>
      <trkpt lat="48.7639" lon="2.23165">
        <ele>134</ele>
        <time>2022-02-20T11:10:43.243Z</time>
      </trkpt>
      <trkpt lat="48.76396" lon="2.23161">
        <ele>134</ele>
        <time>2022-02-20T11:10:48.247Z</time>
      </trkpt>
      <trkpt lat="48.76401" lon="2.2316">
        <ele>134</ele>
        <time>2022-02-20T11:10:52.242Z</time>
      </trkpt>
      <trkpt lat="48.76407" lon="2.2316">
        <ele>132</ele>
        <time>2022-02-20T11:10:57.243Z</time>
      </trkpt>
      <trkpt lat="48.76411" lon="2.23161">
        <ele>132</ele>
        <time>2022-02-20T11:11:01.250Z</time>
      </trkpt>
      <trkpt lat="48.76416" lon="2.23165">
        <ele>132</ele>
        <time>2022-02-20T11:11:06.247Z</time>
      </trkpt>
      <trkpt lat="48.76421" lon="2.2317">
        <ele>132</ele>
        <time>2022-02-20T11:11:11.243Z</time>
      </trkpt>
      <trkpt lat="48.76425" lon="2.23174">
        <ele>132</ele>
        <time>2022-02-20T11:11:15.250Z</time>
      </trkpt>
      <trkpt lat="48.76429" lon="2.23179">
        <ele>132</ele>
        <time>2022-02-20T11:11:20.251Z</time>
      </trkpt>
      <trkpt lat="48.76434" lon="2.23184">
        <ele>131</ele>
        <time>2022-02-20T11:11:25.245Z</time>
      </trkpt>
      <trkpt lat="48.76439" lon="2.23188">
        <ele>131</ele>
        <time>2022-02-20T11:11:30.251Z</time>
      </trkpt>
      <trkpt lat="48.76444" lon="2.23191">
        <ele>131</ele>
        <time>2022-02-20T11:11:34.255Z</time>
      </trkpt>
      <trkpt lat="48.76448" lon="2.23196">
        <ele>131</ele>
        <time>2022-02-20T11:11:39.248Z</time>
      </trkpt>
      <trkpt lat="48.76454" lon="2.23199">
        <ele>131</ele>
        <time>2022-02-20T11:11:44.244Z</time>
      </trkpt>
      <trkpt lat="48.76459" lon="2.23203">
        <ele>126</ele>
        <time>2022-02-20T11:11:48.250Z</time>
      </trkpt>
      <trkpt lat="48.76465" lon="2.23207">
        <ele>126</ele>
        <time>2022-02-20T11:11:53.255Z</time>
      </trkpt>
      <trkpt lat="48.76471" lon="2.23211">
        <ele>128</ele>
        <time>2022-02-20T11:11:58.233Z</time>
      </trkpt>
      <trkpt lat="48.76475" lon="2.23215">
        <ele>128</ele>
        <time>2022-02-20T11:12:03.248Z</time>
      </trkpt>
      <trkpt lat="48.76479" lon="2.23218">
        <ele>128</ele>
        <time>2022-02-20T11:12:07.255Z</time>
      </trkpt>
      <trkpt lat="48.76481" lon="2.23221">
        <ele>128</ele>
        <time>2022-02-20T11:12:12.258Z</time>
      </trkpt>
      <trkpt lat="48.76486" lon="2.23226">
        <ele>128</ele>
        <time>2022-02-20T11:12:17.259Z</time>
      </trkpt>
      <trkpt lat="48.7649" lon="2.2323">
        <ele>123</ele>
        <time>2022-02-20T11:12:22.251Z</time>
      </trkpt>
      <trkpt lat="48.76496" lon="2.23235">
        <ele>123</ele>
        <time>2022-02-20T11:12:27.251Z</time>
      </trkpt>
      <trkpt lat="48.76499" lon="2.23239">
        <ele>123</ele>
        <time>2022-02-20T11:12:31.250Z</time>
      </trkpt>
      <trkpt lat="48.76503" lon="2.23245">
        <ele>123</ele>
        <time>2022-02-20T11:12:36.254Z</time>
      </trkpt>
      <trkpt lat="48.7651" lon="2.2325">
        <ele>123</ele>
        <time>2022-02-20T11:12:41.249Z</time>
      </trkpt>
      <trkpt lat="48.76514" lon="2.23254">
        <ele>123</ele>
        <time>2022-02-20T11:12:45.249Z</time>
      </trkpt>
      <trkpt lat="48.76517" lon="2.23257">
        <ele>117</ele>
        <time>2022-02-20T11:12:49.254Z</time>
      </trkpt>
      <trkpt lat="48.76522" lon="2.23259">
        <ele>117</ele>
        <time>2022-02-20T11:12:54.250Z</time>
      </trkpt>
      <trkpt lat="48.76526" lon="2.23257">
        <ele>117</ele>
        <time>2022-02-20T11:12:59.251Z</time>
      </trkpt>
      <trkpt lat="48.7653" lon="2.23254">
        <ele>117</ele>
        <time>2022-02-20T11:13:04.254Z</time>
      </trkpt>
      <trkpt lat="48.76534" lon="2.23255">
        <ele>117</ele>
        <time>2022-02-20T11:13:08.252Z</time>
      </trkpt>
      <trkpt lat="48.76534" lon="2.23253">
        <ele>117</ele>
        <time>2022-02-20T11:13:12.251Z</time>
      </trkpt>
      <trkpt lat="48.76537" lon="2.23249">
        <ele>117</ele>
        <time>2022-02-20T11:13:16.258Z</time>
      </trkpt>
      <trkpt lat="48.76541" lon="2.23252">
        <ele>117</ele>
        <time>2022-02-20T11:13:21.246Z</time>
      </trkpt>
      <trkpt lat="48.76544" lon="2.23255">
        <ele>113</ele>
        <time>2022-02-20T11:13:25.246Z</time>
      </trkpt>
      <trkpt lat="48.76548" lon="2.23257">
        <ele>113</ele>
        <time>2022-02-20T11:13:29.256Z</time>
      </trkpt>
      <trkpt lat="48.76552" lon="2.2326">
        <ele>113</ele>
        <time>2022-02-20T11:13:34.256Z</time>
      </trkpt>
      <trkpt lat="48.76553" lon="2.23262">
        <ele>113</ele>
        <time>2022-02-20T11:13:39.247Z</time>
      </trkpt>
      <trkpt lat="48.76555" lon="2.23264">
        <ele>115</ele>
        <time>2022-02-20T11:13:43.258Z</time>
      </trkpt>
      <trkpt lat="48.76559" lon="2.23267">
        <ele>115</ele>
        <time>2022-02-20T11:13:48.244Z</time>
      </trkpt>
      <trkpt lat="48.76563" lon="2.23269">
        <ele>115</ele>
        <time>2022-02-20T11:13:52.252Z</time>
      </trkpt>
      <trkpt lat="48.76568" lon="2.23271">
        <ele>115</ele>
        <time>2022-02-20T11:13:56.248Z</time>
      </trkpt>
      <trkpt lat="48.76575" lon="2.23273">
        <ele>115</ele>
        <time>2022-02-20T11:14:01.254Z</time>
      </trkpt>
      <trkpt lat="48.76579" lon="2.23275">
        <ele>115</ele>
        <time>2022-02-20T11:14:06.256Z</time>
      </trkpt>
      <trkpt lat="48.76583" lon="2.23278">
        <ele>115</ele>
        <time>2022-02-20T11:14:11.266Z</time>
      </trkpt>
      <trkpt lat="48.76588" lon="2.23279">
        <ele>115</ele>
        <time>2022-02-20T11:14:15.262Z</time>
      </trkpt>
      <trkpt lat="48.76593" lon="2.23279">
        <ele>115</ele>
        <time>2022-02-20T11:14:20.251Z</time>
      </trkpt>
      <trkpt lat="48.76595" lon="2.23273">
        <ele>115</ele>
        <time>2022-02-20T11:14:25.252Z</time>
      </trkpt>
      <trkpt lat="48.76596" lon="2.23267">
        <ele>115</ele>
        <time>2022-02-20T11:14:29.266Z</time>
      </trkpt>
      <trkpt lat="48.76599" lon="2.2326">
        <ele>110</ele>
        <time>2022-02-20T11:14:34.256Z</time>
      </trkpt>
      <trkpt lat="48.76601" lon="2.23253">
        <ele>110</ele>
        <time>2022-02-20T11:14:39.253Z</time>
      </trkpt>
      <trkpt lat="48.76603" lon="2.23244">
        <ele>110</ele>
        <time>2022-02-20T11:14:44.261Z</time>
      </trkpt>
      <trkpt lat="48.76605" lon="2.23236">
        <ele>110</ele>
        <time>2022-02-20T11:14:49.240Z</time>
      </trkpt>
      <trkpt lat="48.76606" lon="2.23226">
        <ele>109</ele>
        <time>2022-02-20T11:14:53.251Z</time>
      </trkpt>
      <trkpt lat="48.76608" lon="2.23216">
        <ele>109</ele>
        <time>2022-02-20T11:14:58.244Z</time>
      </trkpt>
      <trkpt lat="48.76611" lon="2.23208">
        <ele>109</ele>
        <time>2022-02-20T11:15:03.258Z</time>
      </trkpt>
      <trkpt lat="48.76613" lon="2.23201">
        <ele>109</ele>
        <time>2022-02-20T11:15:08.243Z</time>
      </trkpt>
      <trkpt lat="48.76615" lon="2.23195">
        <ele>109</ele>
        <time>2022-02-20T11:15:12.249Z</time>
      </trkpt>
      <trkpt lat="48.76617" lon="2.23186">
        <ele>109</ele>
        <time>2022-02-20T11:15:17.241Z</time>
      </trkpt>
      <trkpt lat="48.76618" lon="2.23178">
        <ele>111</ele>
        <time>2022-02-20T11:15:21.242Z</time>
      </trkpt>
      <trkpt lat="48.7662" lon="2.23173">
        <ele>111</ele>
        <time>2022-02-20T11:15:25.251Z</time>
      </trkpt>
      <trkpt lat="48.76623" lon="2.23166">
        <ele>111</ele>
        <time>2022-02-20T11:15:30.246Z</time>
      </trkpt>
      <trkpt lat="48.76625" lon="2.23159">
        <ele>111</ele>
        <time>2022-02-20T11:15:35.262Z</time>
      </trkpt>
      <trkpt lat="48.76628" lon="2.2315">
        <ele>115</ele>
        <time>2022-02-20T11:15:40.249Z</time>
      </trkpt>
      <trkpt lat="48.76629" lon="2.2314">
        <ele>115</ele>
        <time>2022-02-20T11:15:45.245Z</time>
      </trkpt>
      <trkpt lat="48.76631" lon="2.23134">
        <ele>115</ele>
        <time>2022-02-20T11:15:49.267Z</time>
      </trkpt>
      <trkpt lat="48.76633" lon="2.23125">
        <ele>115</ele>
        <time>2022-02-20T11:15:54.251Z</time>
      </trkpt>
      <trkpt lat="48.76635" lon="2.23118">
        <ele>116</ele>
        <time>2022-02-20T11:15:58.265Z</time>
      </trkpt>
      <trkpt lat="48.76636" lon="2.23107">
        <ele>116</ele>
        <time>2022-02-20T11:16:03.260Z</time>
      </trkpt>
      <trkpt lat="48.76638" lon="2.23099">
        <ele>116</ele>
        <time>2022-02-20T11:16:08.258Z</time>
      </trkpt>
      <trkpt lat="48.7664" lon="2.23093">
        <ele>116</ele>
        <time>2022-02-20T11:16:12.252Z</time>
      </trkpt>
      <trkpt lat="48.76642" lon="2.23083">
        <ele>116</ele>
        <time>2022-02-20T11:16:17.245Z</time>
      </trkpt>
      <trkpt lat="48.76643" lon="2.23075">
        <ele>116</ele>
        <time>2022-02-20T11:16:22.256Z</time>
      </trkpt>
      <trkpt lat="48.76648" lon="2.23067">
        <ele>117</ele>
        <time>2022-02-20T11:16:27.250Z</time>
      </trkpt>
      <trkpt lat="48.76649" lon="2.23057">
        <ele>117</ele>
        <time>2022-02-20T11:16:32.253Z</time>
      </trkpt>
      <trkpt lat="48.76651" lon="2.23049">
        <ele>117</ele>
        <time>2022-02-20T11:16:37.242Z</time>
      </trkpt>
      <trkpt lat="48.76652" lon="2.23042">
        <ele>117</ele>
        <time>2022-02-20T11:16:41.241Z</time>
      </trkpt>
      <trkpt lat="48.76652" lon="2.23035">
        <ele>120</ele>
        <time>2022-02-20T11:16:45.249Z</time>
      </trkpt>
      <trkpt lat="48.76652" lon="2.23025">
        <ele>120</ele>
        <time>2022-02-20T11:16:50.255Z</time>
      </trkpt>
      <trkpt lat="48.76652" lon="2.23017">
        <ele>120</ele>
        <time>2022-02-20T11:16:55.254Z</time>
      </trkpt>
      <trkpt lat="48.76652" lon="2.23016">
        <ele>120</ele>
        <time>2022-02-20T11:17:00.242Z</time>
      </trkpt>
      <trkpt lat="48.76653" lon="2.23009">
        <ele>124</ele>
        <time>2022-02-20T11:17:04.253Z</time>
      </trkpt>
      <trkpt lat="48.76653" lon="2.22998">
        <ele>124</ele>
        <time>2022-02-20T11:17:09.365Z</time>
      </trkpt>
      <trkpt lat="48.76656" lon="2.2299">
        <ele>124</ele>
        <time>2022-02-20T11:17:14.244Z</time>
      </trkpt>
      <trkpt lat="48.76657" lon="2.22981">
        <ele>124</ele>
        <time>2022-02-20T11:17:19.251Z</time>
      </trkpt>
      <trkpt lat="48.76655" lon="2.22971">
        <ele>124</ele>
        <time>2022-02-20T11:17:24.254Z</time>
      </trkpt>
      <trkpt lat="48.76652" lon="2.22962">
        <ele>122</ele>
        <time>2022-02-20T11:17:29.252Z</time>
      </trkpt>
      <trkpt lat="48.76645" lon="2.22954">
        <ele>122</ele>
        <time>2022-02-20T11:17:34.256Z</time>
      </trkpt>
      <trkpt lat="48.76641" lon="2.22949">
        <ele>122</ele>
        <time>2022-02-20T11:17:38.259Z</time>
      </trkpt>
      <trkpt lat="48.76637" lon="2.22943">
        <ele>122</ele>
        <time>2022-02-20T11:17:43.250Z</time>
      </trkpt>
      <trkpt lat="48.76632" lon="2.22938">
        <ele>122</ele>
        <time>2022-02-20T11:17:48.254Z</time>
      </trkpt>
      <trkpt lat="48.76628" lon="2.22933">
        <ele>122</ele>
        <time>2022-02-20T11:17:53.257Z</time>
      </trkpt>
      <trkpt lat="48.76624" lon="2.22927">
        <ele>119</ele>
        <time>2022-02-20T11:17:58.254Z</time>
      </trkpt>
      <trkpt lat="48.76618" lon="2.22921">
        <ele>119</ele>
        <time>2022-02-20T11:18:03.255Z</time>
      </trkpt>
      <trkpt lat="48.76612" lon="2.22914">
        <ele>119</ele>
        <time>2022-02-20T11:18:08.252Z</time>
      </trkpt>
      <trkpt lat="48.76607" lon="2.22909">
        <ele>119</ele>
        <time>2022-02-20T11:18:13.250Z</time>
      </trkpt>
      <trkpt lat="48.76601" lon="2.22903">
        <ele>119</ele>
        <time>2022-02-20T11:18:18.248Z</time>
      </trkpt>
      <trkpt lat="48.76597" lon="2.22899">
        <ele>119</ele>
        <time>2022-02-20T11:18:22.275Z</time>
      </trkpt>
      <trkpt lat="48.76592" lon="2.22894">
        <ele>119</ele>
        <time>2022-02-20T11:18:27.248Z</time>
      </trkpt>
      <trkpt lat="48.76587" lon="2.22888">
        <ele>119</ele>
        <time>2022-02-20T11:18:32.249Z</time>
      </trkpt>
      <trkpt lat="48.76582" lon="2.22884">
        <ele>119</ele>
        <time>2022-02-20T11:18:36.261Z</time>
      </trkpt>
      <trkpt lat="48.76578" lon="2.22878">
        <ele>119</ele>
        <time>2022-02-20T11:18:40.255Z</time>
      </trkpt>
      <trkpt lat="48.76573" lon="2.22872">
        <ele>119</ele>
        <time>2022-02-20T11:18:45.249Z</time>
      </trkpt>
      <trkpt lat="48.76569" lon="2.22868">
        <ele>120</ele>
        <time>2022-02-20T11:18:49.247Z</time>
      </trkpt>
      <trkpt lat="48.76564" lon="2.22862">
        <ele>120</ele>
        <time>2022-02-20T11:18:54.256Z</time>
      </trkpt>
      <trkpt lat="48.76559" lon="2.22856">
        <ele>120</ele>
        <time>2022-02-20T11:18:59.267Z</time>
      </trkpt>
      <trkpt lat="48.76554" lon="2.22851">
        <ele>120</ele>
        <time>2022-02-20T11:19:04.253Z</time>
      </trkpt>
      <trkpt lat="48.76549" lon="2.22846">
        <ele>120</ele>
        <time>2022-02-20T11:19:09.257Z</time>
      </trkpt>
      <trkpt lat="48.76545" lon="2.22842">
        <ele>120</ele>
        <time>2022-02-20T11:19:13.266Z</time>
      </trkpt>
      <trkpt lat="48.7654" lon="2.22836">
        <ele>119</ele>
        <time>2022-02-20T11:19:18.264Z</time>
      </trkpt>
      <trkpt lat="48.76534" lon="2.2283">
        <ele>119</ele>
        <time>2022-02-20T11:19:23.253Z</time>
      </trkpt>
      <trkpt lat="48.76531" lon="2.22825">
        <ele>119</ele>
        <time>2022-02-20T11:19:27.249Z</time>
      </trkpt>
      <trkpt lat="48.76527" lon="2.22821">
        <ele>119</ele>
        <time>2022-02-20T11:19:31.270Z</time>
      </trkpt>
      <trkpt lat="48.76521" lon="2.22815">
        <ele>119</ele>
        <time>2022-02-20T11:19:36.268Z</time>
      </trkpt>
      <trkpt lat="48.76516" lon="2.2281">
        <ele>119</ele>
        <time>2022-02-20T11:19:41.253Z</time>
      </trkpt>
      <trkpt lat="48.76511" lon="2.22805">
        <ele>116</ele>
        <time>2022-02-20T11:19:45.254Z</time>
      </trkpt>
      <trkpt lat="48.76507" lon="2.22801">
        <ele>116</ele>
        <time>2022-02-20T11:19:49.262Z</time>
      </trkpt>
      <trkpt lat="48.76502" lon="2.22796">
        <ele>116</ele>
        <time>2022-02-20T11:19:54.246Z</time>
      </trkpt>
      <trkpt lat="48.76498" lon="2.22792">
        <ele>116</ele>
        <time>2022-02-20T11:19:58.256Z</time>
      </trkpt>
      <trkpt lat="48.76492" lon="2.22787">
        <ele>116</ele>
        <time>2022-02-20T11:20:03.255Z</time>
      </trkpt>
      <trkpt lat="48.76487" lon="2.22781">
        <ele>116</ele>
        <time>2022-02-20T11:20:08.255Z</time>
      </trkpt>
      <trkpt lat="48.76483" lon="2.22776">
        <ele>113</ele>
        <time>2022-02-20T11:20:12.255Z</time>
      </trkpt>
      <trkpt lat="48.76478" lon="2.2277">
        <ele>113</ele>
        <time>2022-02-20T11:20:17.244Z</time>
      </trkpt>
      <trkpt lat="48.76474" lon="2.22765">
        <ele>113</ele>
        <time>2022-02-20T11:20:21.261Z</time>
      </trkpt>
      <trkpt lat="48.76469" lon="2.22758">
        <ele>114</ele>
        <time>2022-02-20T11:20:26.260Z</time>
      </trkpt>
      <trkpt lat="48.76464" lon="2.22753">
        <ele>114</ele>
        <time>2022-02-20T11:20:31.257Z</time>
      </trkpt>
      <trkpt lat="48.76459" lon="2.22748">
        <ele>114</ele>
        <time>2022-02-20T11:20:35.249Z</time>
      </trkpt>
      <trkpt lat="48.76455" lon="2.22743">
        <ele>111</ele>
        <time>2022-02-20T11:20:40.250Z</time>
      </trkpt>
      <trkpt lat="48.76451" lon="2.2274">
        <ele>111</ele>
        <time>2022-02-20T11:20:44.259Z</time>
      </trkpt>
      <trkpt lat="48.76446" lon="2.22735">
        <ele>111</ele>
        <time>2022-02-20T11:20:49.248Z</time>
      </trkpt>
      <trkpt lat="48.7644" lon="2.22729">
        <ele>111</ele>
        <time>2022-02-20T11:20:54.264Z</time>
      </trkpt>
      <trkpt lat="48.76435" lon="2.22724">
        <ele>111</ele>
        <time>2022-02-20T11:20:59.246Z</time>
      </trkpt>
      <trkpt lat="48.76429" lon="2.22719">
        <ele>110</ele>
        <time>2022-02-20T11:21:04.262Z</time>
      </trkpt>
      <trkpt lat="48.76424" lon="2.22713">
        <ele>110</ele>
        <time>2022-02-20T11:21:09.255Z</time>
      </trkpt>
      <trkpt lat="48.7642" lon="2.22707">
        <ele>110</ele>
        <time>2022-02-20T11:21:13.261Z</time>
      </trkpt>
      <trkpt lat="48.76414" lon="2.227">
        <ele>110</ele>
        <time>2022-02-20T11:21:18.257Z</time>
      </trkpt>
      <trkpt lat="48.76409" lon="2.22695">
        <ele>110</ele>
        <time>2022-02-20T11:21:23.255Z</time>
      </trkpt>
      <trkpt lat="48.76404" lon="2.22689">
        <ele>110</ele>
        <time>2022-02-20T11:21:28.253Z</time>
      </trkpt>
      <trkpt lat="48.76399" lon="2.22684">
        <ele>109</ele>
        <time>2022-02-20T11:21:32.252Z</time>
      </trkpt>
      <trkpt lat="48.76395" lon="2.22679">
        <ele>109</ele>
        <time>2022-02-20T11:21:37.250Z</time>
      </trkpt>
      <trkpt lat="48.7639" lon="2.22673">
        <ele>109</ele>
        <time>2022-02-20T11:21:42.263Z</time>
      </trkpt>
      <trkpt lat="48.76385" lon="2.22667">
        <ele>109</ele>
        <time>2022-02-20T11:21:47.256Z</time>
      </trkpt>
      <trkpt lat="48.7638" lon="2.22662">
        <ele>109</ele>
        <time>2022-02-20T11:21:52.247Z</time>
      </trkpt>
      <trkpt lat="48.76376" lon="2.22657">
        <ele>109</ele>
        <time>2022-02-20T11:21:56.249Z</time>
      </trkpt>
      <trkpt lat="48.7637" lon="2.22651">
        <ele>109</ele>
        <time>2022-02-20T11:22:01.250Z</time>
      </trkpt>
      <trkpt lat="48.76365" lon="2.22645">
        <ele>109</ele>
        <time>2022-02-20T11:22:06.252Z</time>
      </trkpt>
      <trkpt lat="48.7636" lon="2.22639">
        <ele>109</ele>
        <time>2022-02-20T11:22:11.254Z</time>
      </trkpt>
      <trkpt lat="48.76355" lon="2.22633">
        <ele>109</ele>
        <time>2022-02-20T11:22:16.256Z</time>
      </trkpt>
      <trkpt lat="48.7635" lon="2.22626">
        <ele>109</ele>
        <time>2022-02-20T11:22:21.253Z</time>
      </trkpt>
      <trkpt lat="48.76346" lon="2.22621">
        <ele>106</ele>
        <time>2022-02-20T11:22:26.255Z</time>
      </trkpt>
      <trkpt lat="48.76342" lon="2.22615">
        <ele>106</ele>
        <time>2022-02-20T11:22:31.254Z</time>
      </trkpt>
      <trkpt lat="48.76338" lon="2.22609">
        <ele>106</ele>
        <time>2022-02-20T11:22:35.260Z</time>
      </trkpt>
      <trkpt lat="48.76333" lon="2.22603">
        <ele>106</ele>
        <time>2022-02-20T11:22:40.247Z</time>
      </trkpt>
      <trkpt lat="48.76329" lon="2.22596">
        <ele>107</ele>
        <time>2022-02-20T11:22:44.250Z</time>
      </trkpt>
      <trkpt lat="48.76325" lon="2.22589">
        <ele>107</ele>
        <time>2022-02-20T11:22:49.268Z</time>
      </trkpt>
      <trkpt lat="48.76322" lon="2.22582">
        <ele>107</ele>
        <time>2022-02-20T11:22:54.253Z</time>
      </trkpt>
      <trkpt lat="48.7632" lon="2.2258">
        <ele>107</ele>
        <time>2022-02-20T11:23:13.263Z</time>
      </trkpt>
      <trkpt lat="48.76317" lon="2.22575">
        <ele>104</ele>
        <time>2022-02-20T11:23:18.256Z</time>
      </trkpt>
      <trkpt lat="48.76315" lon="2.2257">
        <ele>104</ele>
        <time>2022-02-20T11:23:23.259Z</time>
      </trkpt>
      <trkpt lat="48.76313" lon="2.22564">
        <ele>104</ele>
        <time>2022-02-20T11:23:28.258Z</time>
      </trkpt>
      <trkpt lat="48.76309" lon="2.22557">
        <ele>104</ele>
        <time>2022-02-20T11:23:33.259Z</time>
      </trkpt>
      <trkpt lat="48.76307" lon="2.22551">
        <ele>104</ele>
        <time>2022-02-20T11:23:38.245Z</time>
      </trkpt>
      <trkpt lat="48.76304" lon="2.22546">
        <ele>104</ele>
        <time>2022-02-20T11:23:42.256Z</time>
      </trkpt>
      <trkpt lat="48.76301" lon="2.22539">
        <ele>105</ele>
        <time>2022-02-20T11:23:47.260Z</time>
      </trkpt>
      <trkpt lat="48.76298" lon="2.22535">
        <ele>105</ele>
        <time>2022-02-20T11:23:51.265Z</time>
      </trkpt>
      <trkpt lat="48.76294" lon="2.22529">
        <ele>105</ele>
        <time>2022-02-20T11:23:56.255Z</time>
      </trkpt>
      <trkpt lat="48.76291" lon="2.22522">
        <ele>105</ele>
        <time>2022-02-20T11:24:01.262Z</time>
      </trkpt>
      <trkpt lat="48.76287" lon="2.22515">
        <ele>105</ele>
        <time>2022-02-20T11:24:06.256Z</time>
      </trkpt>
      <trkpt lat="48.76283" lon="2.22509">
        <ele>106</ele>
        <time>2022-02-20T11:24:10.257Z</time>
      </trkpt>
      <trkpt lat="48.76278" lon="2.22504">
        <ele>106</ele>
        <time>2022-02-20T11:24:44.262Z</time>
      </trkpt>
      <trkpt lat="48.76277" lon="2.22503">
        <ele>106</ele>
        <time>2022-02-20T11:24:49.252Z</time>
      </trkpt>
      <trkpt lat="48.76273" lon="2.22502">
        <ele>106</ele>
        <time>2022-02-20T11:24:53.257Z</time>
      </trkpt>
      <trkpt lat="48.7627" lon="2.22497">
        <ele>106</ele>
        <time>2022-02-20T11:24:58.251Z</time>
      </trkpt>
      <trkpt lat="48.76266" lon="2.22494">
        <ele>106</ele>
        <time>2022-02-20T11:25:03.259Z</time>
      </trkpt>
      <trkpt lat="48.76262" lon="2.2249">
        <ele>104</ele>
        <time>2022-02-20T11:25:07.261Z</time>
      </trkpt>
      <trkpt lat="48.7626" lon="2.22487">
        <ele>104</ele>
        <time>2022-02-20T11:25:11.254Z</time>
      </trkpt>
      <trkpt lat="48.76256" lon="2.22483">
        <ele>107</ele>
        <time>2022-02-20T11:25:16.246Z</time>
      </trkpt>
      <trkpt lat="48.76253" lon="2.2248">
        <ele>107</ele>
        <time>2022-02-20T11:25:20.257Z</time>
      </trkpt>
      <trkpt lat="48.76248" lon="2.22475">
        <ele>107</ele>
        <time>2022-02-20T11:25:25.253Z</time>
      </trkpt>
      <trkpt lat="48.76244" lon="2.22469">
        <ele>107</ele>
        <time>2022-02-20T11:25:30.248Z</time>
      </trkpt>
      <trkpt lat="48.7624" lon="2.22466">
        <ele>107</ele>
        <time>2022-02-20T11:25:34.262Z</time>
      </trkpt>
      <trkpt lat="48.76235" lon="2.22461">
        <ele>101</ele>
        <time>2022-02-20T11:25:39.258Z</time>
      </trkpt>
      <trkpt lat="48.7623" lon="2.22457">
        <ele>104</ele>
        <time>2022-02-20T11:25:44.249Z</time>
      </trkpt>
      <trkpt lat="48.76227" lon="2.22453">
        <ele>104</ele>
        <time>2022-02-20T11:25:48.257Z</time>
      </trkpt>
      <trkpt lat="48.76222" lon="2.22449">
        <ele>104</ele>
        <time>2022-02-20T11:25:53.256Z</time>
      </trkpt>
      <trkpt lat="48.76218" lon="2.22445">
        <ele>104</ele>
        <time>2022-02-20T11:25:58.256Z</time>
      </trkpt>
      <trkpt lat="48.76214" lon="2.22441">
        <ele>104</ele>
        <time>2022-02-20T11:26:03.254Z</time>
      </trkpt>
      <trkpt lat="48.76209" lon="2.22436">
        <ele>104</ele>
        <time>2022-02-20T11:26:08.253Z</time>
      </trkpt>
      <trkpt lat="48.76205" lon="2.22432">
        <ele>99</ele>
        <time>2022-02-20T11:26:12.260Z</time>
      </trkpt>
      <trkpt lat="48.76202" lon="2.22427">
        <ele>100</ele>
        <time>2022-02-20T11:26:17.258Z</time>
      </trkpt>
      <trkpt lat="48.76197" lon="2.2242">
        <ele>100</ele>
        <time>2022-02-20T11:26:22.255Z</time>
      </trkpt>
      <trkpt lat="48.76194" lon="2.22414">
        <ele>100</ele>
        <time>2022-02-20T11:26:27.245Z</time>
      </trkpt>
      <trkpt lat="48.76191" lon="2.22409">
        <ele>100</ele>
        <time>2022-02-20T11:26:31.245Z</time>
      </trkpt>
      <trkpt lat="48.76187" lon="2.22404">
        <ele>100</ele>
        <time>2022-02-20T11:26:35.254Z</time>
      </trkpt>
      <trkpt lat="48.76183" lon="2.22398">
        <ele>103</ele>
        <time>2022-02-20T11:26:40.256Z</time>
      </trkpt>
      <trkpt lat="48.7618" lon="2.22391">
        <ele>100</ele>
        <time>2022-02-20T11:26:44.259Z</time>
      </trkpt>
      <trkpt lat="48.7618" lon="2.22384">
        <ele>100</ele>
        <time>2022-02-20T11:26:49.243Z</time>
      </trkpt>
      <trkpt lat="48.7618" lon="2.22383">
        <ele>100</ele>
        <time>2022-02-20T11:26:53.259Z</time>
      </trkpt>
      <trkpt lat="48.7618" lon="2.22381">
        <ele>100</ele>
        <time>2022-02-20T11:27:17.267Z</time>
      </trkpt>
      <trkpt lat="48.76182" lon="2.22378">
        <ele>103</ele>
        <time>2022-02-20T11:27:22.253Z</time>
      </trkpt>
      <trkpt lat="48.76186" lon="2.22371">
        <ele>104</ele>
        <time>2022-02-20T11:27:27.257Z</time>
      </trkpt>
      <trkpt lat="48.76188" lon="2.22365">
        <ele>104</ele>
        <time>2022-02-20T11:27:31.261Z</time>
      </trkpt>
      <trkpt lat="48.76186" lon="2.2236">
        <ele>104</ele>
        <time>2022-02-20T11:27:35.262Z</time>
      </trkpt>
      <trkpt lat="48.76184" lon="2.22354">
        <ele>104</ele>
        <time>2022-02-20T11:27:40.257Z</time>
      </trkpt>
      <trkpt lat="48.76179" lon="2.22347">
        <ele>102</ele>
        <time>2022-02-20T11:27:45.259Z</time>
      </trkpt>
      <trkpt lat="48.76176" lon="2.22343">
        <ele>103</ele>
        <time>2022-02-20T11:27:49.258Z</time>
      </trkpt>
      <trkpt lat="48.76175" lon="2.22336">
        <ele>103</ele>
        <time>2022-02-20T11:27:54.259Z</time>
      </trkpt>
      <trkpt lat="48.76177" lon="2.2233">
        <ele>103</ele>
        <time>2022-02-20T11:27:59.255Z</time>
      </trkpt>
      <trkpt lat="48.76178" lon="2.22322">
        <ele>103</ele>
        <time>2022-02-20T11:28:04.256Z</time>
      </trkpt>
      <trkpt lat="48.7618" lon="2.22316">
        <ele>103</ele>
        <time>2022-02-20T11:28:09.258Z</time>
      </trkpt>
      <trkpt lat="48.76183" lon="2.2231">
        <ele>109</ele>
        <time>2022-02-20T11:28:14.261Z</time>
      </trkpt>
      <trkpt lat="48.76185" lon="2.22303">
        <ele>109</ele>
        <time>2022-02-20T11:28:19.257Z</time>
      </trkpt>
      <trkpt lat="48.76186" lon="2.22295">
        <ele>109</ele>
        <time>2022-02-20T11:28:24.256Z</time>
      </trkpt>
      <trkpt lat="48.76188" lon="2.22288">
        <ele>108</ele>
        <time>2022-02-20T11:28:29.249Z</time>
      </trkpt>
      <trkpt lat="48.76191" lon="2.22284">
        <ele>108</ele>
        <time>2022-02-20T11:28:33.260Z</time>
      </trkpt>
      <trkpt lat="48.76196" lon="2.22279">
        <ele>108</ele>
        <time>2022-02-20T11:28:38.248Z</time>
      </trkpt>
      <trkpt lat="48.76196" lon="2.22271">
        <ele>108</ele>
        <time>2022-02-20T11:28:42.248Z</time>
      </trkpt>
      <trkpt lat="48.76198" lon="2.22264">
        <ele>108</ele>
        <time>2022-02-20T11:28:47.250Z</time>
      </trkpt>
      <trkpt lat="48.762" lon="2.22259">
        <ele>109</ele>
        <time>2022-02-20T11:28:51.257Z</time>
      </trkpt>
      <trkpt lat="48.76203" lon="2.22254">
        <ele>109</ele>
        <time>2022-02-20T11:28:55.261Z</time>
      </trkpt>
      <trkpt lat="48.76206" lon="2.22248">
        <ele>109</ele>
        <time>2022-02-20T11:29:00.254Z</time>
      </trkpt>
      <trkpt lat="48.76209" lon="2.22242">
        <ele>114</ele>
        <time>2022-02-20T11:29:05.253Z</time>
      </trkpt>
      <trkpt lat="48.76211" lon="2.22236">
        <ele>114</ele>
        <time>2022-02-20T11:29:10.252Z</time>
      </trkpt>
      <trkpt lat="48.76214" lon="2.22232">
        <ele>115</ele>
        <time>2022-02-20T11:29:14.255Z</time>
      </trkpt>
      <trkpt lat="48.76215" lon="2.22224">
        <ele>115</ele>
        <time>2022-02-20T11:29:18.261Z</time>
      </trkpt>
      <trkpt lat="48.76218" lon="2.22216">
        <ele>115</ele>
        <time>2022-02-20T11:29:23.258Z</time>
      </trkpt>
      <trkpt lat="48.7622" lon="2.22209">
        <ele>115</ele>
        <time>2022-02-20T11:29:28.256Z</time>
      </trkpt>
      <trkpt lat="48.76222" lon="2.22204">
        <ele>117</ele>
        <time>2022-02-20T11:29:32.262Z</time>
      </trkpt>
      <trkpt lat="48.76223" lon="2.22199">
        <ele>117</ele>
        <time>2022-02-20T11:29:37.257Z</time>
      </trkpt>
      <trkpt lat="48.76225" lon="2.22195">
        <ele>117</ele>
        <time>2022-02-20T11:29:41.251Z</time>
      </trkpt>
      <trkpt lat="48.76227" lon="2.22188">
        <ele>117</ele>
        <time>2022-02-20T11:29:46.250Z</time>
      </trkpt>
      <trkpt lat="48.76229" lon="2.22183">
        <ele>117</ele>
        <time>2022-02-20T11:29:50.263Z</time>
      </trkpt>
      <trkpt lat="48.76232" lon="2.22179">
        <ele>121</ele>
        <time>2022-02-20T11:29:55.262Z</time>
      </trkpt>
      <trkpt lat="48.76235" lon="2.22174">
        <ele>121</ele>
        <time>2022-02-20T11:30:00.258Z</time>
      </trkpt>
      <trkpt lat="48.76237" lon="2.22167">
        <ele>125</ele>
        <time>2022-02-20T11:30:05.255Z</time>
      </trkpt>
      <trkpt lat="48.7624" lon="2.22162">
        <ele>125</ele>
        <time>2022-02-20T11:30:09.265Z</time>
      </trkpt>
      <trkpt lat="48.76243" lon="2.22155">
        <ele>125</ele>
        <time>2022-02-20T11:30:14.257Z</time>
      </trkpt>
      <trkpt lat="48.76245" lon="2.22149">
        <ele>128</ele>
        <time>2022-02-20T11:30:19.265Z</time>
      </trkpt>
      <trkpt lat="48.76247" lon="2.22145">
        <ele>128</ele>
        <time>2022-02-20T11:30:23.262Z</time>
      </trkpt>
      <trkpt lat="48.76249" lon="2.22141">
        <ele>128</ele>
        <time>2022-02-20T11:30:28.261Z</time>
      </trkpt>
      <trkpt lat="48.76251" lon="2.22134">
        <ele>128</ele>
        <time>2022-02-20T11:30:33.268Z</time>
      </trkpt>
      <trkpt lat="48.76253" lon="2.22127">
        <ele>128</ele>
        <time>2022-02-20T11:30:38.241Z</time>
      </trkpt>
      <trkpt lat="48.76254" lon="2.22122">
        <ele>132</ele>
        <time>2022-02-20T11:30:42.250Z</time>
      </trkpt>
      <trkpt lat="48.76256" lon="2.22118">
        <ele>132</ele>
        <time>2022-02-20T11:30:46.267Z</time>
      </trkpt>
      <trkpt lat="48.76258" lon="2.22115">
        <ele>132</ele>
        <time>2022-02-20T11:30:51.258Z</time>
      </trkpt>
      <trkpt lat="48.7626" lon="2.22109">
        <ele>132</ele>
        <time>2022-02-20T11:30:56.254Z</time>
      </trkpt>
      <trkpt lat="48.76261" lon="2.22104">
        <ele>132</ele>
        <time>2022-02-20T11:31:01.263Z</time>
      </trkpt>
      <trkpt lat="48.76263" lon="2.22098">
        <ele>132</ele>
        <time>2022-02-20T11:31:06.252Z</time>
      </trkpt>
      <trkpt lat="48.76264" lon="2.22092">
        <ele>138</ele>
        <time>2022-02-20T11:31:10.265Z</time>
      </trkpt>
      <trkpt lat="48.76267" lon="2.22086">
        <ele>138</ele>
        <time>2022-02-20T11:31:15.260Z</time>
      </trkpt>
      <trkpt lat="48.76268" lon="2.22081">
        <ele>138</ele>
        <time>2022-02-20T11:31:20.261Z</time>
      </trkpt>
      <trkpt lat="48.7627" lon="2.22077">
        <ele>138</ele>
        <time>2022-02-20T11:31:25.254Z</time>
      </trkpt>
      <trkpt lat="48.76271" lon="2.22073">
        <ele>138</ele>
        <time>2022-02-20T11:31:29.254Z</time>
      </trkpt>
      <trkpt lat="48.76271" lon="2.22067">
        <ele>141</ele>
        <time>2022-02-20T11:31:33.264Z</time>
      </trkpt>
      <trkpt lat="48.76272" lon="2.22059">
        <ele>141</ele>
        <time>2022-02-20T11:31:38.258Z</time>
      </trkpt>
      <trkpt lat="48.76275" lon="2.22055">
        <ele>141</ele>
        <time>2022-02-20T11:31:43.250Z</time>
      </trkpt>
      <trkpt lat="48.76277" lon="2.22048">
        <ele>141</ele>
        <time>2022-02-20T11:31:48.245Z</time>
      </trkpt>
      <trkpt lat="48.76278" lon="2.22044">
        <ele>141</ele>
        <time>2022-02-20T11:31:52.260Z</time>
      </trkpt>
      <trkpt lat="48.76281" lon="2.22038">
        <ele>143</ele>
        <time>2022-02-20T11:31:57.251Z</time>
      </trkpt>
      <trkpt lat="48.76282" lon="2.22033">
        <ele>143</ele>
        <time>2022-02-20T11:32:01.256Z</time>
      </trkpt>
      <trkpt lat="48.76283" lon="2.22026">
        <ele>143</ele>
        <time>2022-02-20T11:32:06.262Z</time>
      </trkpt>
      <trkpt lat="48.76285" lon="2.22019">
        <ele>143</ele>
        <time>2022-02-20T11:32:11.263Z</time>
      </trkpt>
      <trkpt lat="48.76287" lon="2.22013">
        <ele>146</ele>
        <time>2022-02-20T11:32:16.263Z</time>
      </trkpt>
      <trkpt lat="48.76289" lon="2.22006">
        <ele>146</ele>
        <time>2022-02-20T11:32:20.267Z</time>
      </trkpt>
      <trkpt lat="48.76291" lon="2.21999">
        <ele>146</ele>
        <time>2022-02-20T11:32:25.262Z</time>
      </trkpt>
      <trkpt lat="48.76295" lon="2.21992">
        <ele>147</ele>
        <time>2022-02-20T11:32:30.248Z</time>
      </trkpt>
      <trkpt lat="48.76297" lon="2.21985">
        <ele>151</ele>
        <time>2022-02-20T11:32:34.262Z</time>
      </trkpt>
      <trkpt lat="48.76299" lon="2.21978">
        <ele>151</ele>
        <time>2022-02-20T11:32:39.264Z</time>
      </trkpt>
      <trkpt lat="48.76303" lon="2.21971">
        <ele>151</ele>
        <time>2022-02-20T11:32:44.263Z</time>
      </trkpt>
      <trkpt lat="48.76305" lon="2.21963">
        <ele>151</ele>
        <time>2022-02-20T11:32:49.257Z</time>
      </trkpt>
      <trkpt lat="48.76307" lon="2.21957">
        <ele>154</ele>
        <time>2022-02-20T11:32:53.269Z</time>
      </trkpt>
      <trkpt lat="48.76308" lon="2.21951">
        <ele>154</ele>
        <time>2022-02-20T11:32:58.260Z</time>
      </trkpt>
      <trkpt lat="48.7631" lon="2.21947">
        <ele>154</ele>
        <time>2022-02-20T11:33:02.265Z</time>
      </trkpt>
      <trkpt lat="48.76312" lon="2.2194">
        <ele>154</ele>
        <time>2022-02-20T11:33:07.252Z</time>
      </trkpt>
      <trkpt lat="48.76314" lon="2.21936">
        <ele>154</ele>
        <time>2022-02-20T11:33:11.257Z</time>
      </trkpt>
      <trkpt lat="48.76316" lon="2.2193">
        <ele>158</ele>
        <time>2022-02-20T11:33:15.263Z</time>
      </trkpt>
      <trkpt lat="48.76318" lon="2.21924">
        <ele>158</ele>
        <time>2022-02-20T11:33:20.265Z</time>
      </trkpt>
      <trkpt lat="48.7632" lon="2.2192">
        <ele>158</ele>
        <time>2022-02-20T11:33:25.256Z</time>
      </trkpt>
      <trkpt lat="48.76322" lon="2.21913">
        <ele>158</ele>
        <time>2022-02-20T11:33:30.259Z</time>
      </trkpt>
      <trkpt lat="48.76324" lon="2.21908">
        <ele>158</ele>
        <time>2022-02-20T11:33:35.257Z</time>
      </trkpt>
      <trkpt lat="48.76326" lon="2.21903">
        <ele>158</ele>
        <time>2022-02-20T11:33:40.260Z</time>
      </trkpt>
      <trkpt lat="48.76329" lon="2.21897">
        <ele>158</ele>
        <time>2022-02-20T11:33:45.259Z</time>
      </trkpt>
      <trkpt lat="48.76331" lon="2.2189">
        <ele>158</ele>
        <time>2022-02-20T11:33:50.258Z</time>
      </trkpt>
      <trkpt lat="48.76332" lon="2.21884">
        <ele>158</ele>
        <time>2022-02-20T11:33:54.255Z</time>
      </trkpt>
      <trkpt lat="48.76334" lon="2.21877">
        <ele>158</ele>
        <time>2022-02-20T11:33:59.257Z</time>
      </trkpt>
      <trkpt lat="48.76336" lon="2.21871">
        <ele>158</ele>
        <time>2022-02-20T11:34:03.261Z</time>
      </trkpt>
      <trkpt lat="48.76338" lon="2.21867">
        <ele>158</ele>
        <time>2022-02-20T11:34:08.260Z</time>
      </trkpt>
      <trkpt lat="48.7634" lon="2.21862">
        <ele>158</ele>
        <time>2022-02-20T11:34:12.252Z</time>
      </trkpt>
      <trkpt lat="48.76343" lon="2.21856">
        <ele>158</ele>
        <time>2022-02-20T11:34:17.252Z</time>
      </trkpt>
      <trkpt lat="48.76345" lon="2.21851">
        <ele>158</ele>
        <time>2022-02-20T11:34:21.265Z</time>
      </trkpt>
      <trkpt lat="48.76347" lon="2.21845">
        <ele>160</ele>
        <time>2022-02-20T11:34:26.263Z</time>
      </trkpt>
      <trkpt lat="48.7635" lon="2.21838">
        <ele>160</ele>
        <time>2022-02-20T11:34:31.266Z</time>
      </trkpt>
      <trkpt lat="48.76351" lon="2.21833">
        <ele>160</ele>
        <time>2022-02-20T11:34:35.266Z</time>
      </trkpt>
      <trkpt lat="48.76353" lon="2.21827">
        <ele>160</ele>
        <time>2022-02-20T11:34:40.261Z</time>
      </trkpt>
      <trkpt lat="48.76352" lon="2.21821">
        <ele>160</ele>
        <time>2022-02-20T11:34:45.259Z</time>
      </trkpt>
      <trkpt lat="48.76351" lon="2.21813">
        <ele>160</ele>
        <time>2022-02-20T11:34:50.246Z</time>
      </trkpt>
      <trkpt lat="48.76351" lon="2.21809">
        <ele>160</ele>
        <time>2022-02-20T11:34:54.260Z</time>
      </trkpt>
      <trkpt lat="48.7635" lon="2.21804">
        <ele>160</ele>
        <time>2022-02-20T11:34:59.255Z</time>
      </trkpt>
      <trkpt lat="48.7635" lon="2.21799">
        <ele>160</ele>
        <time>2022-02-20T11:35:03.263Z</time>
      </trkpt>
      <trkpt lat="48.76346" lon="2.21789">
        <ele>163</ele>
        <time>2022-02-20T11:35:21.253Z</time>
      </trkpt>
      <trkpt lat="48.76346" lon="2.21789">
        <ele>163</ele>
        <time>2022-02-20T11:35:26.258Z</time>
      </trkpt>
      <trkpt lat="48.76346" lon="2.21789">
        <ele>163</ele>
        <time>2022-02-20T11:35:31.252Z</time>
      </trkpt>
      <trkpt lat="48.76346" lon="2.21789">
        <ele>163</ele>
        <time>2022-02-20T11:35:36.254Z</time>
      </trkpt>
      <trkpt lat="48.76343" lon="2.21784">
        <ele>163</ele>
        <time>2022-02-20T11:35:41.253Z</time>
      </trkpt>
      <trkpt lat="48.76339" lon="2.2178">
        <ele>163</ele>
        <time>2022-02-20T11:39:19.258Z</time>
      </trkpt>
      <trkpt lat="48.76339" lon="2.2178">
        <ele>163</ele>
        <time>2022-02-20T11:39:24.255Z</time>
      </trkpt>
      <trkpt lat="48.76338" lon="2.21778">
        <ele>163</ele>
        <time>2022-02-20T11:39:28.266Z</time>
      </trkpt>
      <trkpt lat="48.76334" lon="2.21775">
        <ele>163</ele>
        <time>2022-02-20T11:39:33.264Z</time>
      </trkpt>
      <trkpt lat="48.76333" lon="2.21774">
        <ele>163</ele>
        <time>2022-02-20T11:39:38.253Z</time>
      </trkpt>
      <trkpt lat="48.76332" lon="2.2177">
        <ele>163</ele>
        <time>2022-02-20T11:39:47.266Z</time>
      </trkpt>
      <trkpt lat="48.76332" lon="2.2177">
        <ele>163</ele>
        <time>2022-02-20T11:39:51.379Z</time>
      </trkpt>
      <trkpt lat="48.76331" lon="2.21767">
        <ele>163</ele>
        <time>2022-02-20T11:39:56.250Z</time>
      </trkpt>
      <trkpt lat="48.76328" lon="2.21764">
        <ele>163</ele>
        <time>2022-02-20T11:40:00.268Z</time>
      </trkpt>
      <trkpt lat="48.76325" lon="2.21761">
        <ele>167</ele>
        <time>2022-02-20T11:40:05.248Z</time>
      </trkpt>
      <trkpt lat="48.76323" lon="2.21758">
        <ele>167</ele>
        <time>2022-02-20T11:40:09.255Z</time>
      </trkpt>
      <trkpt lat="48.7632" lon="2.21755">
        <ele>167</ele>
        <time>2022-02-20T11:40:13.260Z</time>
      </trkpt>
      <trkpt lat="48.76315" lon="2.21751">
        <ele>170</ele>
        <time>2022-02-20T11:40:18.271Z</time>
      </trkpt>
      <trkpt lat="48.7631" lon="2.21749">
        <ele>170</ele>
        <time>2022-02-20T11:40:23.259Z</time>
      </trkpt>
      <trkpt lat="48.76306" lon="2.21747">
        <ele>170</ele>
        <time>2022-02-20T11:40:27.261Z</time>
      </trkpt>
      <trkpt lat="48.76301" lon="2.21744">
        <ele>170</ele>
        <time>2022-02-20T11:40:32.262Z</time>
      </trkpt>
      <trkpt lat="48.76296" lon="2.21738">
        <ele>170</ele>
        <time>2022-02-20T11:40:37.267Z</time>
      </trkpt>
      <trkpt lat="48.76292" lon="2.21738">
        <ele>170</ele>
        <time>2022-02-20T11:40:42.254Z</time>
      </trkpt>
      <trkpt lat="48.76287" lon="2.21736">
        <ele>170</ele>
        <time>2022-02-20T11:40:47.261Z</time>
      </trkpt>
      <trkpt lat="48.76283" lon="2.21742">
        <ele>170</ele>
        <time>2022-02-20T11:40:52.261Z</time>
      </trkpt>
      <trkpt lat="48.76282" lon="2.21746">
        <ele>170</ele>
        <time>2022-02-20T11:40:56.260Z</time>
      </trkpt>
      <trkpt lat="48.76277" lon="2.21746">
        <ele>170</ele>
        <time>2022-02-20T11:41:00.270Z</time>
      </trkpt>
      <trkpt lat="48.76272" lon="2.21746">
        <ele>170</ele>
        <time>2022-02-20T11:41:05.262Z</time>
      </trkpt>
      <trkpt lat="48.76266" lon="2.21749">
        <ele>170</ele>
        <time>2022-02-20T11:41:10.267Z</time>
      </trkpt>
      <trkpt lat="48.7626" lon="2.21748">
        <ele>166</ele>
        <time>2022-02-20T11:41:15.259Z</time>
      </trkpt>
      <trkpt lat="48.76254" lon="2.21748">
        <ele>166</ele>
        <time>2022-02-20T11:41:19.267Z</time>
      </trkpt>
      <trkpt lat="48.7625" lon="2.21745">
        <ele>166</ele>
        <time>2022-02-20T11:41:24.259Z</time>
      </trkpt>
      <trkpt lat="48.76244" lon="2.21745">
        <ele>166</ele>
        <time>2022-02-20T11:41:29.265Z</time>
      </trkpt>
      <trkpt lat="48.76238" lon="2.21746">
        <ele>166</ele>
        <time>2022-02-20T11:41:34.259Z</time>
      </trkpt>
      <trkpt lat="48.76233" lon="2.21746">
        <ele>166</ele>
        <time>2022-02-20T11:41:39.258Z</time>
      </trkpt>
      <trkpt lat="48.76228" lon="2.21747">
        <ele>166</ele>
        <time>2022-02-20T11:41:43.264Z</time>
      </trkpt>
      <trkpt lat="48.76223" lon="2.21747">
        <ele>166</ele>
        <time>2022-02-20T11:41:48.264Z</time>
      </trkpt>
      <trkpt lat="48.76217" lon="2.21746">
        <ele>166</ele>
        <time>2022-02-20T11:41:53.267Z</time>
      </trkpt>
      <trkpt lat="48.7621" lon="2.21749">
        <ele>166</ele>
        <time>2022-02-20T11:41:58.263Z</time>
      </trkpt>
      <trkpt lat="48.76205" lon="2.21748">
        <ele>165</ele>
        <time>2022-02-20T11:42:02.271Z</time>
      </trkpt>
      <trkpt lat="48.76201" lon="2.21744">
        <ele>165</ele>
        <time>2022-02-20T11:42:07.259Z</time>
      </trkpt>
      <trkpt lat="48.76194" lon="2.2174">
        <ele>165</ele>
        <time>2022-02-20T11:42:12.263Z</time>
      </trkpt>
      <trkpt lat="48.7619" lon="2.21735">
        <ele>168</ele>
        <time>2022-02-20T11:42:17.265Z</time>
      </trkpt>
      <trkpt lat="48.76185" lon="2.21729">
        <ele>168</ele>
        <time>2022-02-20T11:42:22.267Z</time>
      </trkpt>
      <trkpt lat="48.7618" lon="2.21724">
        <ele>165</ele>
        <time>2022-02-20T11:42:27.265Z</time>
      </trkpt>
      <trkpt lat="48.76175" lon="2.21719">
        <ele>165</ele>
        <time>2022-02-20T11:42:32.261Z</time>
      </trkpt>
      <trkpt lat="48.76172" lon="2.21712">
        <ele>165</ele>
        <time>2022-02-20T11:42:37.261Z</time>
      </trkpt>
      <trkpt lat="48.7617" lon="2.21705">
        <ele>168</ele>
        <time>2022-02-20T11:42:42.254Z</time>
      </trkpt>
      <trkpt lat="48.76167" lon="2.21699">
        <ele>168</ele>
        <time>2022-02-20T11:42:46.266Z</time>
      </trkpt>
      <trkpt lat="48.76166" lon="2.21692">
        <ele>168</ele>
        <time>2022-02-20T11:42:51.259Z</time>
      </trkpt>
      <trkpt lat="48.76164" lon="2.21684">
        <ele>168</ele>
        <time>2022-02-20T11:42:56.264Z</time>
      </trkpt>
      <trkpt lat="48.76161" lon="2.21677">
        <ele>171</ele>
        <time>2022-02-20T11:43:01.269Z</time>
      </trkpt>
      <trkpt lat="48.7616" lon="2.21667">
        <ele>171</ele>
        <time>2022-02-20T11:43:06.260Z</time>
      </trkpt>
      <trkpt lat="48.76159" lon="2.21662">
        <ele>171</ele>
        <time>2022-02-20T11:43:10.262Z</time>
      </trkpt>
      <trkpt lat="48.76161" lon="2.21655">
        <ele>171</ele>
        <time>2022-02-20T11:43:15.261Z</time>
      </trkpt>
      <trkpt lat="48.76161" lon="2.21649">
        <ele>174</ele>
        <time>2022-02-20T11:43:19.269Z</time>
      </trkpt>
      <trkpt lat="48.76162" lon="2.21644">
        <ele>174</ele>
        <time>2022-02-20T11:43:24.264Z</time>
      </trkpt>
      <trkpt lat="48.76159" lon="2.21638">
        <ele>174</ele>
        <time>2022-02-20T11:43:28.262Z</time>
      </trkpt>
      <trkpt lat="48.76158" lon="2.21631">
        <ele>174</ele>
        <time>2022-02-20T11:43:33.264Z</time>
      </trkpt>
      <trkpt lat="48.76154" lon="2.21622">
        <ele>173</ele>
        <time>2022-02-20T11:43:38.248Z</time>
      </trkpt>
      <trkpt lat="48.7615" lon="2.21614">
        <ele>168</ele>
        <time>2022-02-20T11:43:43.255Z</time>
      </trkpt>
      <trkpt lat="48.76147" lon="2.21609">
        <ele>168</ele>
        <time>2022-02-20T11:43:47.261Z</time>
      </trkpt>
      <trkpt lat="48.76145" lon="2.21602">
        <ele>168</ele>
        <time>2022-02-20T11:43:52.257Z</time>
      </trkpt>
      <trkpt lat="48.76144" lon="2.21596">
        <ele>167</ele>
        <time>2022-02-20T11:43:56.258Z</time>
      </trkpt>
      <trkpt lat="48.76143" lon="2.21589">
        <ele>167</ele>
        <time>2022-02-20T11:44:01.264Z</time>
      </trkpt>
      <trkpt lat="48.76144" lon="2.21584">
        <ele>167</ele>
        <time>2022-02-20T11:44:05.268Z</time>
      </trkpt>
      <trkpt lat="48.76143" lon="2.21576">
        <ele>167</ele>
        <time>2022-02-20T11:44:10.253Z</time>
      </trkpt>
      <trkpt lat="48.76141" lon="2.21567">
        <ele>167</ele>
        <time>2022-02-20T11:44:14.254Z</time>
      </trkpt>
      <trkpt lat="48.7614" lon="2.21561">
        <ele>167</ele>
        <time>2022-02-20T11:44:18.268Z</time>
      </trkpt>
      <trkpt lat="48.7614" lon="2.21551">
        <ele>167</ele>
        <time>2022-02-20T11:44:23.263Z</time>
      </trkpt>
      <trkpt lat="48.76139" lon="2.21542">
        <ele>167</ele>
        <time>2022-02-20T11:44:28.251Z</time>
      </trkpt>
      <trkpt lat="48.76136" lon="2.21533">
        <ele>170</ele>
        <time>2022-02-20T11:44:33.262Z</time>
      </trkpt>
      <trkpt lat="48.76132" lon="2.21523">
        <ele>170</ele>
        <time>2022-02-20T11:44:37.263Z</time>
      </trkpt>
      <trkpt lat="48.76128" lon="2.21512">
        <ele>170</ele>
        <time>2022-02-20T11:44:42.254Z</time>
      </trkpt>
      <trkpt lat="48.76122" lon="2.21502">
        <ele>167</ele>
        <time>2022-02-20T11:44:47.260Z</time>
      </trkpt>
      <trkpt lat="48.76118" lon="2.21497">
        <ele>167</ele>
        <time>2022-02-20T11:44:52.264Z</time>
      </trkpt>
      <trkpt lat="48.76113" lon="2.2149">
        <ele>167</ele>
        <time>2022-02-20T11:44:57.269Z</time>
      </trkpt>
      <trkpt lat="48.76107" lon="2.21482">
        <ele>169</ele>
        <time>2022-02-20T11:45:02.266Z</time>
      </trkpt>
      <trkpt lat="48.76104" lon="2.21478">
        <ele>169</ele>
        <time>2022-02-20T11:45:06.266Z</time>
      </trkpt>
      <trkpt lat="48.76099" lon="2.21471">
        <ele>169</ele>
        <time>2022-02-20T11:45:11.270Z</time>
      </trkpt>
      <trkpt lat="48.76095" lon="2.21465">
        <ele>166</ele>
        <time>2022-02-20T11:45:16.262Z</time>
      </trkpt>
      <trkpt lat="48.7609" lon="2.2146">
        <ele>166</ele>
        <time>2022-02-20T11:45:21.271Z</time>
      </trkpt>
      <trkpt lat="48.76085" lon="2.21454">
        <ele>167</ele>
        <time>2022-02-20T11:45:26.258Z</time>
      </trkpt>
      <trkpt lat="48.7608" lon="2.21448">
        <ele>167</ele>
        <time>2022-02-20T11:45:30.260Z</time>
      </trkpt>
      <trkpt lat="48.76076" lon="2.21441">
        <ele>167</ele>
        <time>2022-02-20T11:45:35.261Z</time>
      </trkpt>
      <trkpt lat="48.76072" lon="2.21434">
        <ele>167</ele>
        <time>2022-02-20T11:45:40.260Z</time>
      </trkpt>
      <trkpt lat="48.76068" lon="2.21426">
        <ele>166</ele>
        <time>2022-02-20T11:45:45.253Z</time>
      </trkpt>
      <trkpt lat="48.76066" lon="2.21418">
        <ele>166</ele>
        <time>2022-02-20T11:45:49.261Z</time>
      </trkpt>
      <trkpt lat="48.76065" lon="2.21412">
        <ele>166</ele>
        <time>2022-02-20T11:45:53.262Z</time>
      </trkpt>
      <trkpt lat="48.76063" lon="2.21405">
        <ele>166</ele>
        <time>2022-02-20T11:45:58.266Z</time>
      </trkpt>
      <trkpt lat="48.76062" lon="2.21396">
        <ele>167</ele>
        <time>2022-02-20T11:46:03.264Z</time>
      </trkpt>
      <trkpt lat="48.76062" lon="2.21386">
        <ele>167</ele>
        <time>2022-02-20T11:46:08.263Z</time>
      </trkpt>
      <trkpt lat="48.76063" lon="2.2138">
        <ele>167</ele>
        <time>2022-02-20T11:46:12.264Z</time>
      </trkpt>
      <trkpt lat="48.76063" lon="2.21373">
        <ele>168</ele>
        <time>2022-02-20T11:46:16.269Z</time>
      </trkpt>
      <trkpt lat="48.76065" lon="2.21363">
        <ele>168</ele>
        <time>2022-02-20T11:46:21.268Z</time>
      </trkpt>
      <trkpt lat="48.76066" lon="2.21355">
        <ele>168</ele>
        <time>2022-02-20T11:46:26.269Z</time>
      </trkpt>
      <trkpt lat="48.76068" lon="2.21347">
        <ele>167</ele>
        <time>2022-02-20T11:46:31.257Z</time>
      </trkpt>
      <trkpt lat="48.76068" lon="2.21341">
        <ele>167</ele>
        <time>2022-02-20T11:46:35.258Z</time>
      </trkpt>
      <trkpt lat="48.7607" lon="2.21333">
        <ele>169</ele>
        <time>2022-02-20T11:46:40.263Z</time>
      </trkpt>
      <trkpt lat="48.76072" lon="2.21325">
        <ele>169</ele>
        <time>2022-02-20T11:46:45.254Z</time>
      </trkpt>
      <trkpt lat="48.76073" lon="2.21318">
        <ele>167</ele>
        <time>2022-02-20T11:46:49.259Z</time>
      </trkpt>
      <trkpt lat="48.76072" lon="2.21311">
        <ele>167</ele>
        <time>2022-02-20T11:46:53.262Z</time>
      </trkpt>
      <trkpt lat="48.76067" lon="2.21305">
        <ele>167</ele>
        <time>2022-02-20T11:46:58.261Z</time>
      </trkpt>
      <trkpt lat="48.7606" lon="2.21294">
        <ele>167</ele>
        <time>2022-02-20T11:47:26.265Z</time>
      </trkpt>
      <trkpt lat="48.76059" lon="2.21294">
        <ele>167</ele>
        <time>2022-02-20T11:47:31.246Z</time>
      </trkpt>
      <trkpt lat="48.76056" lon="2.21298">
        <ele>167</ele>
        <time>2022-02-20T11:47:36.258Z</time>
      </trkpt>
      <trkpt lat="48.76053" lon="2.213">
        <ele>167</ele>
        <time>2022-02-20T11:47:40.261Z</time>
      </trkpt>
      <trkpt lat="48.76049" lon="2.21304">
        <ele>167</ele>
        <time>2022-02-20T11:47:45.250Z</time>
      </trkpt>
      <trkpt lat="48.76046" lon="2.21307">
        <ele>167</ele>
        <time>2022-02-20T11:47:49.250Z</time>
      </trkpt>
      <trkpt lat="48.76042" lon="2.21311">
        <ele>167</ele>
        <time>2022-02-20T11:47:54.254Z</time>
      </trkpt>
      <trkpt lat="48.76038" lon="2.21316">
        <ele>168</ele>
        <time>2022-02-20T11:47:59.248Z</time>
      </trkpt>
      <trkpt lat="48.76034" lon="2.2132">
        <ele>168</ele>
        <time>2022-02-20T11:48:04.259Z</time>
      </trkpt>
      <trkpt lat="48.7603" lon="2.21324">
        <ele>168</ele>
        <time>2022-02-20T11:48:09.258Z</time>
      </trkpt>
      <trkpt lat="48.76027" lon="2.21329">
        <ele>168</ele>
        <time>2022-02-20T11:48:14.255Z</time>
      </trkpt>
      <trkpt lat="48.76023" lon="2.21335">
        <ele>168</ele>
        <time>2022-02-20T11:48:19.242Z</time>
      </trkpt>
      <trkpt lat="48.7602" lon="2.21338">
        <ele>168</ele>
        <time>2022-02-20T11:48:23.259Z</time>
      </trkpt>
      <trkpt lat="48.76017" lon="2.21343">
        <ele>168</ele>
        <time>2022-02-20T11:48:27.262Z</time>
      </trkpt>
      <trkpt lat="48.76013" lon="2.21348">
        <ele>167</ele>
        <time>2022-02-20T11:48:32.258Z</time>
      </trkpt>
      <trkpt lat="48.7601" lon="2.21353">
        <ele>167</ele>
        <time>2022-02-20T11:48:37.262Z</time>
      </trkpt>
      <trkpt lat="48.76008" lon="2.21359">
        <ele>167</ele>
        <time>2022-02-20T11:48:42.251Z</time>
      </trkpt>
      <trkpt lat="48.76005" lon="2.21363">
        <ele>167</ele>
        <time>2022-02-20T11:48:46.251Z</time>
      </trkpt>
      <trkpt lat="48.76002" lon="2.21369">
        <ele>167</ele>
        <time>2022-02-20T11:48:51.259Z</time>
      </trkpt>
      <trkpt lat="48.75998" lon="2.21375">
        <ele>167</ele>
        <time>2022-02-20T11:48:56.250Z</time>
      </trkpt>
      <trkpt lat="48.75994" lon="2.21381">
        <ele>165</ele>
        <time>2022-02-20T11:49:01.256Z</time>
      </trkpt>
      <trkpt lat="48.75991" lon="2.21385">
        <ele>165</ele>
        <time>2022-02-20T11:49:05.253Z</time>
      </trkpt>
      <trkpt lat="48.75987" lon="2.21393">
        <ele>165</ele>
        <time>2022-02-20T11:49:10.254Z</time>
      </trkpt>
      <trkpt lat="48.75984" lon="2.21399">
        <ele>166</ele>
        <time>2022-02-20T11:49:15.250Z</time>
      </trkpt>
      <trkpt lat="48.75981" lon="2.21405">
        <ele>165</ele>
        <time>2022-02-20T11:49:19.254Z</time>
      </trkpt>
      <trkpt lat="48.75978" lon="2.2141">
        <ele>165</ele>
        <time>2022-02-20T11:49:23.263Z</time>
      </trkpt>
      <trkpt lat="48.75974" lon="2.21418">
        <ele>165</ele>
        <time>2022-02-20T11:49:28.257Z</time>
      </trkpt>
      <trkpt lat="48.7597" lon="2.21424">
        <ele>165</ele>
        <time>2022-02-20T11:49:33.268Z</time>
      </trkpt>
      <trkpt lat="48.75966" lon="2.21432">
        <ele>163</ele>
        <time>2022-02-20T11:49:38.261Z</time>
      </trkpt>
      <trkpt lat="48.75958" lon="2.21442">
        <ele>164</ele>
        <time>2022-02-20T11:50:05.258Z</time>
      </trkpt>
      <trkpt lat="48.75953" lon="2.21441">
        <ele>164</ele>
        <time>2022-02-20T11:50:10.267Z</time>
      </trkpt>
      <trkpt lat="48.75948" lon="2.21444">
        <ele>164</ele>
        <time>2022-02-20T11:50:15.254Z</time>
      </trkpt>
      <trkpt lat="48.75945" lon="2.21446">
        <ele>164</ele>
        <time>2022-02-20T11:50:19.258Z</time>
      </trkpt>
      <trkpt lat="48.75942" lon="2.21448">
        <ele>164</ele>
        <time>2022-02-20T11:50:23.266Z</time>
      </trkpt>
      <trkpt lat="48.75938" lon="2.21452">
        <ele>164</ele>
        <time>2022-02-20T11:50:28.254Z</time>
      </trkpt>
      <trkpt lat="48.75935" lon="2.21455">
        <ele>164</ele>
        <time>2022-02-20T11:50:32.266Z</time>
      </trkpt>
      <trkpt lat="48.75931" lon="2.21461">
        <ele>161</ele>
        <time>2022-02-20T11:50:37.259Z</time>
      </trkpt>
      <trkpt lat="48.75927" lon="2.21467">
        <ele>159</ele>
        <time>2022-02-20T11:50:42.251Z</time>
      </trkpt>
      <trkpt lat="48.75923" lon="2.21472">
        <ele>159</ele>
        <time>2022-02-20T11:50:46.262Z</time>
      </trkpt>
      <trkpt lat="48.7592" lon="2.21474">
        <ele>159</ele>
        <time>2022-02-20T11:50:50.268Z</time>
      </trkpt>
      <trkpt lat="48.75916" lon="2.21478">
        <ele>159</ele>
        <time>2022-02-20T11:50:54.264Z</time>
      </trkpt>
      <trkpt lat="48.75911" lon="2.21482">
        <ele>159</ele>
        <time>2022-02-20T11:50:59.254Z</time>
      </trkpt>
      <trkpt lat="48.75907" lon="2.21483">
        <ele>159</ele>
        <time>2022-02-20T11:51:03.262Z</time>
      </trkpt>
      <trkpt lat="48.75902" lon="2.21484">
        <ele>155</ele>
        <time>2022-02-20T11:51:07.269Z</time>
      </trkpt>
      <trkpt lat="48.75896" lon="2.21484">
        <ele>155</ele>
        <time>2022-02-20T11:51:12.255Z</time>
      </trkpt>
      <trkpt lat="48.75892" lon="2.21483">
        <ele>155</ele>
        <time>2022-02-20T11:51:16.251Z</time>
      </trkpt>
      <trkpt lat="48.75887" lon="2.21478">
        <ele>155</ele>
        <time>2022-02-20T11:51:21.268Z</time>
      </trkpt>
      <trkpt lat="48.75883" lon="2.21474">
        <ele>155</ele>
        <time>2022-02-20T11:51:26.262Z</time>
      </trkpt>
      <trkpt lat="48.75879" lon="2.21468">
        <ele>155</ele>
        <time>2022-02-20T11:51:31.253Z</time>
      </trkpt>
      <trkpt lat="48.75876" lon="2.21464">
        <ele>155</ele>
        <time>2022-02-20T11:51:35.246Z</time>
      </trkpt>
      <trkpt lat="48.75872" lon="2.21459">
        <ele>149</ele>
        <time>2022-02-20T11:51:40.254Z</time>
      </trkpt>
      <trkpt lat="48.75869" lon="2.21456">
        <ele>151</ele>
        <time>2022-02-20T11:51:44.245Z</time>
      </trkpt>
      <trkpt lat="48.75865" lon="2.21456">
        <ele>151</ele>
        <time>2022-02-20T11:51:48.251Z</time>
      </trkpt>
      <trkpt lat="48.75862" lon="2.21456">
        <ele>151</ele>
        <time>2022-02-20T11:51:52.267Z</time>
      </trkpt>
      <trkpt lat="48.75859" lon="2.21457">
        <ele>151</ele>
        <time>2022-02-20T11:51:56.258Z</time>
      </trkpt>
      <trkpt lat="48.75856" lon="2.21457">
        <ele>151</ele>
        <time>2022-02-20T11:52:01.259Z</time>
      </trkpt>
      <trkpt lat="48.75853" lon="2.21458">
        <ele>151</ele>
        <time>2022-02-20T11:52:05.259Z</time>
      </trkpt>
      <trkpt lat="48.75847" lon="2.21458">
        <ele>151</ele>
        <time>2022-02-20T11:52:10.253Z</time>
      </trkpt>
      <trkpt lat="48.75843" lon="2.21458">
        <ele>144</ele>
        <time>2022-02-20T11:52:14.258Z</time>
      </trkpt>
      <trkpt lat="48.75838" lon="2.21459">
        <ele>142</ele>
        <time>2022-02-20T11:52:19.259Z</time>
      </trkpt>
      <trkpt lat="48.75834" lon="2.2146">
        <ele>142</ele>
        <time>2022-02-20T11:52:24.244Z</time>
      </trkpt>
      <trkpt lat="48.75831" lon="2.2146">
        <ele>142</ele>
        <time>2022-02-20T11:52:29.258Z</time>
      </trkpt>
      <trkpt lat="48.75828" lon="2.21459">
        <ele>142</ele>
        <time>2022-02-20T11:52:34.261Z</time>
      </trkpt>
      <trkpt lat="48.75825" lon="2.21459">
        <ele>142</ele>
        <time>2022-02-20T11:52:39.251Z</time>
      </trkpt>
      <trkpt lat="48.75822" lon="2.2146">
        <ele>142</ele>
        <time>2022-02-20T11:52:43.250Z</time>
      </trkpt>
      <trkpt lat="48.75817" lon="2.21459">
        <ele>137</ele>
        <time>2022-02-20T11:52:48.260Z</time>
      </trkpt>
      <trkpt lat="48.75812" lon="2.21457">
        <ele>140</ele>
        <time>2022-02-20T11:52:52.267Z</time>
      </trkpt>
      <trkpt lat="48.75805" lon="2.21453">
        <ele>140</ele>
        <time>2022-02-20T11:52:57.246Z</time>
      </trkpt>
      <trkpt lat="48.75799" lon="2.21451">
        <ele>140</ele>
        <time>2022-02-20T11:53:02.257Z</time>
      </trkpt>
      <trkpt lat="48.75794" lon="2.21447">
        <ele>140</ele>
        <time>2022-02-20T11:53:07.255Z</time>
      </trkpt>
      <trkpt lat="48.75786" lon="2.21443">
        <ele>134</ele>
        <time>2022-02-20T11:53:22.256Z</time>
      </trkpt>
      <trkpt lat="48.75782" lon="2.2144">
        <ele>134</ele>
        <time>2022-02-20T11:53:26.254Z</time>
      </trkpt>
      <trkpt lat="48.75777" lon="2.21436">
        <ele>134</ele>
        <time>2022-02-20T11:53:31.252Z</time>
      </trkpt>
      <trkpt lat="48.75772" lon="2.21433">
        <ele>134</ele>
        <time>2022-02-20T11:53:36.252Z</time>
      </trkpt>
      <trkpt lat="48.75767" lon="2.21431">
        <ele>134</ele>
        <time>2022-02-20T11:53:41.253Z</time>
      </trkpt>
      <trkpt lat="48.75762" lon="2.21428">
        <ele>130</ele>
        <time>2022-02-20T11:53:46.252Z</time>
      </trkpt>
      <trkpt lat="48.75757" lon="2.21425">
        <ele>130</ele>
        <time>2022-02-20T11:53:51.257Z</time>
      </trkpt>
      <trkpt lat="48.75753" lon="2.21424">
        <ele>130</ele>
        <time>2022-02-20T11:53:56.247Z</time>
      </trkpt>
      <trkpt lat="48.75748" lon="2.21423">
        <ele>130</ele>
        <time>2022-02-20T11:54:01.255Z</time>
      </trkpt>
      <trkpt lat="48.75744" lon="2.21422">
        <ele>130</ele>
        <time>2022-02-20T11:54:05.258Z</time>
      </trkpt>
      <trkpt lat="48.75738" lon="2.21422">
        <ele>130</ele>
        <time>2022-02-20T11:54:10.259Z</time>
      </trkpt>
      <trkpt lat="48.75733" lon="2.21422">
        <ele>126</ele>
        <time>2022-02-20T11:54:15.254Z</time>
      </trkpt>
      <trkpt lat="48.75728" lon="2.21422">
        <ele>126</ele>
        <time>2022-02-20T11:54:20.260Z</time>
      </trkpt>
      <trkpt lat="48.75723" lon="2.21422">
        <ele>126</ele>
        <time>2022-02-20T11:54:25.258Z</time>
      </trkpt>
      <trkpt lat="48.75718" lon="2.21421">
        <ele>126</ele>
        <time>2022-02-20T11:54:30.249Z</time>
      </trkpt>
      <trkpt lat="48.75715" lon="2.21421">
        <ele>126</ele>
        <time>2022-02-20T11:54:34.250Z</time>
      </trkpt>
      <trkpt lat="48.75712" lon="2.21424">
        <ele>126</ele>
        <time>2022-02-20T11:54:39.264Z</time>
      </trkpt>
      <trkpt lat="48.75707" lon="2.21424">
        <ele>123</ele>
        <time>2022-02-20T11:54:44.250Z</time>
      </trkpt>
      <trkpt lat="48.75703" lon="2.21422">
        <ele>123</ele>
        <time>2022-02-20T11:54:48.254Z</time>
      </trkpt>
      <trkpt lat="48.75699" lon="2.21424">
        <ele>123</ele>
        <time>2022-02-20T11:54:53.267Z</time>
      </trkpt>
      <trkpt lat="48.75697" lon="2.21427">
        <ele>123</ele>
        <time>2022-02-20T11:54:57.261Z</time>
      </trkpt>
      <trkpt lat="48.75697" lon="2.21427">
        <ele>123</ele>
        <time>2022-02-20T11:55:01.270Z</time>
      </trkpt>
      <trkpt lat="48.75692" lon="2.21429">
        <ele>123</ele>
        <time>2022-02-20T11:55:06.247Z</time>
      </trkpt>
      <trkpt lat="48.75688" lon="2.2143">
        <ele>123</ele>
        <time>2022-02-20T11:55:10.258Z</time>
      </trkpt>
      <trkpt lat="48.75684" lon="2.21433">
        <ele>123</ele>
        <time>2022-02-20T11:55:15.245Z</time>
      </trkpt>
      <trkpt lat="48.7568" lon="2.21436">
        <ele>121</ele>
        <time>2022-02-20T11:55:19.266Z</time>
      </trkpt>
      <trkpt lat="48.75676" lon="2.21439">
        <ele>121</ele>
        <time>2022-02-20T11:55:24.250Z</time>
      </trkpt>
      <trkpt lat="48.75672" lon="2.21441">
        <ele>121</ele>
        <time>2022-02-20T11:55:28.257Z</time>
      </trkpt>
      <trkpt lat="48.75667" lon="2.2144">
        <ele>121</ele>
        <time>2022-02-20T11:55:33.260Z</time>
      </trkpt>
      <trkpt lat="48.75661" lon="2.2144">
        <ele>121</ele>
        <time>2022-02-20T11:55:38.248Z</time>
      </trkpt>
      <trkpt lat="48.75656" lon="2.21439">
        <ele>121</ele>
        <time>2022-02-20T11:55:43.255Z</time>
      </trkpt>
      <trkpt lat="48.75651" lon="2.21436">
        <ele>120</ele>
        <time>2022-02-20T11:55:48.247Z</time>
      </trkpt>
      <trkpt lat="48.75648" lon="2.21433">
        <ele>120</ele>
        <time>2022-02-20T11:55:52.256Z</time>
      </trkpt>
      <trkpt lat="48.75643" lon="2.21429">
        <ele>118</ele>
        <time>2022-02-20T11:55:57.257Z</time>
      </trkpt>
      <trkpt lat="48.75638" lon="2.21427">
        <ele>118</ele>
        <time>2022-02-20T11:56:02.262Z</time>
      </trkpt>
      <trkpt lat="48.75634" lon="2.21424">
        <ele>118</ele>
        <time>2022-02-20T11:56:06.263Z</time>
      </trkpt>
      <trkpt lat="48.75629" lon="2.21421">
        <ele>118</ele>
        <time>2022-02-20T11:56:11.260Z</time>
      </trkpt>
      <trkpt lat="48.75624" lon="2.21419">
        <ele>112</ele>
        <time>2022-02-20T11:56:16.254Z</time>
      </trkpt>
      <trkpt lat="48.7562" lon="2.21416">
        <ele>112</ele>
        <time>2022-02-20T11:56:21.255Z</time>
      </trkpt>
      <trkpt lat="48.75616" lon="2.21413">
        <ele>112</ele>
        <time>2022-02-20T11:56:25.265Z</time>
      </trkpt>
      <trkpt lat="48.7561" lon="2.2141">
        <ele>112</ele>
        <time>2022-02-20T11:56:30.267Z</time>
      </trkpt>
      <trkpt lat="48.75606" lon="2.21407">
        <ele>112</ele>
        <time>2022-02-20T11:56:34.274Z</time>
      </trkpt>
      <trkpt lat="48.75601" lon="2.21404">
        <ele>112</ele>
        <time>2022-02-20T11:56:39.246Z</time>
      </trkpt>
      <trkpt lat="48.75597" lon="2.21404">
        <ele>112</ele>
        <time>2022-02-20T11:56:43.258Z</time>
      </trkpt>
      <trkpt lat="48.75593" lon="2.21405">
        <ele>108</ele>
        <time>2022-02-20T11:56:47.261Z</time>
      </trkpt>
      <trkpt lat="48.75589" lon="2.21407">
        <ele>108</ele>
        <time>2022-02-20T11:56:52.260Z</time>
      </trkpt>
      <trkpt lat="48.75583" lon="2.2141">
        <ele>108</ele>
        <time>2022-02-20T11:56:57.264Z</time>
      </trkpt>
      <trkpt lat="48.75578" lon="2.21413">
        <ele>108</ele>
        <time>2022-02-20T11:57:02.265Z</time>
      </trkpt>
      <trkpt lat="48.75574" lon="2.21415">
        <ele>108</ele>
        <time>2022-02-20T11:57:06.271Z</time>
      </trkpt>
      <trkpt lat="48.7557" lon="2.21419">
        <ele>108</ele>
        <time>2022-02-20T11:57:11.255Z</time>
      </trkpt>
      <trkpt lat="48.75566" lon="2.21421">
        <ele>103</ele>
        <time>2022-02-20T11:57:15.257Z</time>
      </trkpt>
      <trkpt lat="48.75561" lon="2.21423">
        <ele>103</ele>
        <time>2022-02-20T11:57:20.263Z</time>
      </trkpt>
      <trkpt lat="48.75556" lon="2.21424">
        <ele>103</ele>
        <time>2022-02-20T11:57:25.252Z</time>
      </trkpt>
      <trkpt lat="48.75551" lon="2.21423">
        <ele>103</ele>
        <time>2022-02-20T11:57:29.264Z</time>
      </trkpt>
      <trkpt lat="48.75545" lon="2.21422">
        <ele>103</ele>
        <time>2022-02-20T11:57:34.250Z</time>
      </trkpt>
      <trkpt lat="48.75541" lon="2.21422">
        <ele>98</ele>
        <time>2022-02-20T11:57:39.246Z</time>
      </trkpt>
      <trkpt lat="48.75537" lon="2.21421">
        <ele>98</ele>
        <time>2022-02-20T11:57:44.253Z</time>
      </trkpt>
      <trkpt lat="48.75532" lon="2.2142">
        <ele>98</ele>
        <time>2022-02-20T11:57:49.246Z</time>
      </trkpt>
      <trkpt lat="48.75527" lon="2.21421">
        <ele>98</ele>
        <time>2022-02-20T11:57:53.272Z</time>
      </trkpt>
      <trkpt lat="48.75523" lon="2.21422">
        <ele>98</ele>
        <time>2022-02-20T11:57:58.244Z</time>
      </trkpt>
      <trkpt lat="48.75521" lon="2.21422">
        <ele>98</ele>
        <time>2022-02-20T11:58:02.263Z</time>
      </trkpt>
      <trkpt lat="48.75517" lon="2.21425">
        <ele>98</ele>
        <time>2022-02-20T11:58:07.257Z</time>
      </trkpt>
      <trkpt lat="48.75514" lon="2.21424">
        <ele>94</ele>
        <time>2022-02-20T11:58:11.259Z</time>
      </trkpt>
      <trkpt lat="48.75512" lon="2.21422">
        <ele>94</ele>
        <time>2022-02-20T11:58:16.251Z</time>
      </trkpt>
      <trkpt lat="48.75512" lon="2.21422">
        <ele>94</ele>
        <time>2022-02-20T11:58:20.250Z</time>
      </trkpt>
      <trkpt lat="48.75508" lon="2.21419">
        <ele>94</ele>
        <time>2022-02-20T11:58:25.244Z</time>
      </trkpt>
      <trkpt lat="48.75504" lon="2.21405">
        <ele>94</ele>
        <time>2022-02-20T11:58:44.258Z</time>
      </trkpt>
      <trkpt lat="48.75504" lon="2.21404">
        <ele>94</ele>
        <time>2022-02-20T11:58:49.252Z</time>
      </trkpt>
      <trkpt lat="48.75503" lon="2.21396">
        <ele>95</ele>
        <time>2022-02-20T11:58:54.262Z</time>
      </trkpt>
      <trkpt lat="48.75501" lon="2.21387">
        <ele>95</ele>
        <time>2022-02-20T11:58:58.257Z</time>
      </trkpt>
      <trkpt lat="48.75498" lon="2.21381">
        <ele>95</ele>
        <time>2022-02-20T11:59:03.245Z</time>
      </trkpt>
      <trkpt lat="48.75495" lon="2.21377">
        <ele>95</ele>
        <time>2022-02-20T11:59:07.249Z</time>
      </trkpt>
      <trkpt lat="48.7549" lon="2.2137">
        <ele>96</ele>
        <time>2022-02-20T11:59:12.246Z</time>
      </trkpt>
      <trkpt lat="48.75486" lon="2.21369">
        <ele>93</ele>
        <time>2022-02-20T11:59:16.257Z</time>
      </trkpt>
      <trkpt lat="48.75482" lon="2.21364">
        <ele>93</ele>
        <time>2022-02-20T11:59:21.252Z</time>
      </trkpt>
      <trkpt lat="48.75477" lon="2.21359">
        <ele>93</ele>
        <time>2022-02-20T11:59:26.272Z</time>
      </trkpt>
      <trkpt lat="48.75471" lon="2.21357">
        <ele>93</ele>
        <time>2022-02-20T11:59:31.258Z</time>
      </trkpt>
      <trkpt lat="48.75468" lon="2.21355">
        <ele>93</ele>
        <time>2022-02-20T11:59:35.253Z</time>
      </trkpt>
      <trkpt lat="48.75463" lon="2.21351">
        <ele>93</ele>
        <time>2022-02-20T11:59:40.267Z</time>
      </trkpt>
      <trkpt lat="48.75458" lon="2.21353">
        <ele>89</ele>
        <time>2022-02-20T11:59:45.259Z</time>
      </trkpt>
      <trkpt lat="48.75454" lon="2.21356">
        <ele>89</ele>
        <time>2022-02-20T11:59:50.266Z</time>
      </trkpt>
      <trkpt lat="48.75452" lon="2.21358">
        <ele>89</ele>
        <time>2022-02-20T11:59:54.265Z</time>
      </trkpt>
      <trkpt lat="48.7545" lon="2.21361">
        <ele>89</ele>
        <time>2022-02-20T11:59:59.259Z</time>
      </trkpt>
      <trkpt lat="48.75449" lon="2.21367">
        <ele>89</ele>
        <time>2022-02-20T12:00:04.262Z</time>
      </trkpt>
      <trkpt lat="48.75447" lon="2.21369">
        <ele>89</ele>
        <time>2022-02-20T12:00:08.268Z</time>
      </trkpt>
      <trkpt lat="48.75446" lon="2.21374">
        <ele>89</ele>
        <time>2022-02-20T12:00:13.267Z</time>
      </trkpt>
      <trkpt lat="48.75448" lon="2.21376">
        <ele>88</ele>
        <time>2022-02-20T12:00:18.265Z</time>
      </trkpt>
      <trkpt lat="48.75449" lon="2.21381">
        <ele>88</ele>
        <time>2022-02-20T12:00:23.257Z</time>
      </trkpt>
      <trkpt lat="48.75446" lon="2.21385">
        <ele>88</ele>
        <time>2022-02-20T12:00:27.262Z</time>
      </trkpt>
      <trkpt lat="48.75444" lon="2.21388">
        <ele>88</ele>
        <time>2022-02-20T12:00:32.258Z</time>
      </trkpt>
      <trkpt lat="48.75441" lon="2.21393">
        <ele>88</ele>
        <time>2022-02-20T12:00:37.249Z</time>
      </trkpt>
      <trkpt lat="48.75439" lon="2.21398">
        <ele>88</ele>
        <time>2022-02-20T12:00:42.260Z</time>
      </trkpt>
      <trkpt lat="48.75442" lon="2.21402">
        <ele>88</ele>
        <time>2022-02-20T12:37:23.243Z</time>
      </trkpt>
      <trkpt lat="48.75442" lon="2.21403">
        <ele>89</ele>
        <time>2022-02-20T12:37:27.254Z</time>
      </trkpt>
      <trkpt lat="48.75443" lon="2.21406">
        <ele>89</ele>
        <time>2022-02-20T12:37:31.259Z</time>
      </trkpt>
      <trkpt lat="48.75443" lon="2.21411">
        <ele>89</ele>
        <time>2022-02-20T12:37:35.260Z</time>
      </trkpt>
      <trkpt lat="48.75441" lon="2.21419">
        <ele>89</ele>
        <time>2022-02-20T12:37:40.250Z</time>
      </trkpt>
      <trkpt lat="48.75439" lon="2.21425">
        <ele>89</ele>
        <time>2022-02-20T12:37:44.257Z</time>
      </trkpt>
      <trkpt lat="48.75437" lon="2.21431">
        <ele>90</ele>
        <time>2022-02-20T12:37:48.269Z</time>
      </trkpt>
      <trkpt lat="48.75434" lon="2.21438">
        <ele>90</ele>
        <time>2022-02-20T12:37:53.256Z</time>
      </trkpt>
      <trkpt lat="48.75432" lon="2.21444">
        <ele>90</ele>
        <time>2022-02-20T12:37:57.252Z</time>
      </trkpt>
      <trkpt lat="48.75431" lon="2.21451">
        <ele>90</ele>
        <time>2022-02-20T12:38:02.254Z</time>
      </trkpt>
      <trkpt lat="48.75429" lon="2.21455">
        <ele>86</ele>
        <time>2022-02-20T12:38:06.260Z</time>
      </trkpt>
      <trkpt lat="48.75425" lon="2.21459">
        <ele>86</ele>
        <time>2022-02-20T12:38:11.255Z</time>
      </trkpt>
      <trkpt lat="48.75424" lon="2.21467">
        <ele>86</ele>
        <time>2022-02-20T12:38:16.257Z</time>
      </trkpt>
      <trkpt lat="48.75421" lon="2.21473">
        <ele>86</ele>
        <time>2022-02-20T12:38:21.249Z</time>
      </trkpt>
      <trkpt lat="48.7542" lon="2.21479">
        <ele>86</ele>
        <time>2022-02-20T12:38:25.254Z</time>
      </trkpt>
      <trkpt lat="48.75418" lon="2.21486">
        <ele>86</ele>
        <time>2022-02-20T12:38:30.262Z</time>
      </trkpt>
      <trkpt lat="48.75417" lon="2.21493">
        <ele>87</ele>
        <time>2022-02-20T12:38:35.265Z</time>
      </trkpt>
      <trkpt lat="48.75415" lon="2.215">
        <ele>87</ele>
        <time>2022-02-20T12:38:40.257Z</time>
      </trkpt>
      <trkpt lat="48.75414" lon="2.21501">
        <ele>87</ele>
        <time>2022-02-20T12:38:44.271Z</time>
      </trkpt>
      <trkpt lat="48.75413" lon="2.21505">
        <ele>87</ele>
        <time>2022-02-20T12:38:49.250Z</time>
      </trkpt>
      <trkpt lat="48.75411" lon="2.21512">
        <ele>87</ele>
        <time>2022-02-20T12:38:54.255Z</time>
      </trkpt>
      <trkpt lat="48.7541" lon="2.2152">
        <ele>89</ele>
        <time>2022-02-20T12:38:59.263Z</time>
      </trkpt>
      <trkpt lat="48.75408" lon="2.21529">
        <ele>89</ele>
        <time>2022-02-20T12:39:04.283Z</time>
      </trkpt>
      <trkpt lat="48.75405" lon="2.21533">
        <ele>89</ele>
        <time>2022-02-20T12:39:09.270Z</time>
      </trkpt>
      <trkpt lat="48.75403" lon="2.21526">
        <ele>84</ele>
        <time>2022-02-20T12:39:14.270Z</time>
      </trkpt>
      <trkpt lat="48.75405" lon="2.21519">
        <ele>89</ele>
        <time>2022-02-20T12:39:19.262Z</time>
      </trkpt>
      <trkpt lat="48.75406" lon="2.21511">
        <ele>87</ele>
        <time>2022-02-20T12:39:24.247Z</time>
      </trkpt>
      <trkpt lat="48.75405" lon="2.21505">
        <ele>87</ele>
        <time>2022-02-20T12:39:29.255Z</time>
      </trkpt>
      <trkpt lat="48.75406" lon="2.21499">
        <ele>87</ele>
        <time>2022-02-20T12:39:33.257Z</time>
      </trkpt>
      <trkpt lat="48.75403" lon="2.21495">
        <ele>84</ele>
        <time>2022-02-20T12:39:38.249Z</time>
      </trkpt>
      <trkpt lat="48.75399" lon="2.21492">
        <ele>84</ele>
        <time>2022-02-20T12:39:43.258Z</time>
      </trkpt>
      <trkpt lat="48.75394" lon="2.2149">
        <ele>84</ele>
        <time>2022-02-20T12:39:48.252Z</time>
      </trkpt>
      <trkpt lat="48.7539" lon="2.21491">
        <ele>84</ele>
        <time>2022-02-20T12:39:53.263Z</time>
      </trkpt>
      <trkpt lat="48.75385" lon="2.2149">
        <ele>84</ele>
        <time>2022-02-20T12:39:58.256Z</time>
      </trkpt>
      <trkpt lat="48.75381" lon="2.21488">
        <ele>84</ele>
        <time>2022-02-20T12:40:02.261Z</time>
      </trkpt>
      <trkpt lat="48.75376" lon="2.21487">
        <ele>84</ele>
        <time>2022-02-20T12:40:07.255Z</time>
      </trkpt>
      <trkpt lat="48.75372" lon="2.21484">
        <ele>81</ele>
        <time>2022-02-20T12:40:12.260Z</time>
      </trkpt>
      <trkpt lat="48.75367" lon="2.2148">
        <ele>81</ele>
        <time>2022-02-20T12:40:17.257Z</time>
      </trkpt>
      <trkpt lat="48.75362" lon="2.21477">
        <ele>81</ele>
        <time>2022-02-20T12:40:22.270Z</time>
      </trkpt>
      <trkpt lat="48.75357" lon="2.21474">
        <ele>81</ele>
        <time>2022-02-20T12:40:27.266Z</time>
      </trkpt>
      <trkpt lat="48.75353" lon="2.21472">
        <ele>81</ele>
        <time>2022-02-20T12:40:31.264Z</time>
      </trkpt>
      <trkpt lat="48.75347" lon="2.21469">
        <ele>81</ele>
        <time>2022-02-20T12:40:36.258Z</time>
      </trkpt>
      <trkpt lat="48.75341" lon="2.21466">
        <ele>79</ele>
        <time>2022-02-20T12:40:41.263Z</time>
      </trkpt>
      <trkpt lat="48.75337" lon="2.21464">
        <ele>79</ele>
        <time>2022-02-20T12:40:46.258Z</time>
      </trkpt>
      <trkpt lat="48.75333" lon="2.21463">
        <ele>79</ele>
        <time>2022-02-20T12:40:50.257Z</time>
      </trkpt>
      <trkpt lat="48.75327" lon="2.21459">
        <ele>79</ele>
        <time>2022-02-20T12:40:55.253Z</time>
      </trkpt>
      <trkpt lat="48.75321" lon="2.21456">
        <ele>79</ele>
        <time>2022-02-20T12:41:00.261Z</time>
      </trkpt>
      <trkpt lat="48.75317" lon="2.21454">
        <ele>78</ele>
        <time>2022-02-20T12:41:04.263Z</time>
      </trkpt>
      <trkpt lat="48.75312" lon="2.21451">
        <ele>78</ele>
        <time>2022-02-20T12:41:09.259Z</time>
      </trkpt>
      <trkpt lat="48.75307" lon="2.21449">
        <ele>78</ele>
        <time>2022-02-20T12:41:13.260Z</time>
      </trkpt>
      <trkpt lat="48.75301" lon="2.21446">
        <ele>78</ele>
        <time>2022-02-20T12:41:18.252Z</time>
      </trkpt>
      <trkpt lat="48.75297" lon="2.21445">
        <ele>78</ele>
        <time>2022-02-20T12:41:22.255Z</time>
      </trkpt>
      <trkpt lat="48.75291" lon="2.21444">
        <ele>77</ele>
        <time>2022-02-20T12:41:27.258Z</time>
      </trkpt>
      <trkpt lat="48.75284" lon="2.21444">
        <ele>77</ele>
        <time>2022-02-20T12:41:32.260Z</time>
      </trkpt>
      <trkpt lat="48.75279" lon="2.21449">
        <ele>77</ele>
        <time>2022-02-20T12:41:37.262Z</time>
      </trkpt>
      <trkpt lat="48.75276" lon="2.21456">
        <ele>77</ele>
        <time>2022-02-20T12:41:42.261Z</time>
      </trkpt>
      <trkpt lat="48.75275" lon="2.21464">
        <ele>78</ele>
        <time>2022-02-20T12:41:47.263Z</time>
      </trkpt>
      <trkpt lat="48.75273" lon="2.2147">
        <ele>78</ele>
        <time>2022-02-20T12:41:51.263Z</time>
      </trkpt>
      <trkpt lat="48.75268" lon="2.21475">
        <ele>78</ele>
        <time>2022-02-20T12:41:56.261Z</time>
      </trkpt>
      <trkpt lat="48.75266" lon="2.21481">
        <ele>78</ele>
        <time>2022-02-20T12:42:01.259Z</time>
      </trkpt>
      <trkpt lat="48.75266" lon="2.21488">
        <ele>77</ele>
        <time>2022-02-20T12:42:05.261Z</time>
      </trkpt>
      <trkpt lat="48.75265" lon="2.21496">
        <ele>77</ele>
        <time>2022-02-20T12:42:10.258Z</time>
      </trkpt>
      <trkpt lat="48.75265" lon="2.215">
        <ele>77</ele>
        <time>2022-02-20T12:42:15.268Z</time>
      </trkpt>
      <trkpt lat="48.75262" lon="2.21506">
        <ele>76</ele>
        <time>2022-02-20T12:42:19.271Z</time>
      </trkpt>
      <trkpt lat="48.75262" lon="2.21515">
        <ele>76</ele>
        <time>2022-02-20T12:42:24.261Z</time>
      </trkpt>
      <trkpt lat="48.75265" lon="2.21519">
        <ele>78</ele>
        <time>2022-02-20T12:42:28.267Z</time>
      </trkpt>
      <trkpt lat="48.75268" lon="2.21524">
        <ele>78</ele>
        <time>2022-02-20T12:42:32.273Z</time>
      </trkpt>
      <trkpt lat="48.75272" lon="2.21528">
        <ele>78</ele>
        <time>2022-02-20T12:42:37.267Z</time>
      </trkpt>
      <trkpt lat="48.75275" lon="2.21533">
        <ele>78</ele>
        <time>2022-02-20T12:42:42.263Z</time>
      </trkpt>
      <trkpt lat="48.75278" lon="2.21537">
        <ele>78</ele>
        <time>2022-02-20T12:42:46.263Z</time>
      </trkpt>
      <trkpt lat="48.75277" lon="2.21542">
        <ele>77</ele>
        <time>2022-02-20T12:42:51.260Z</time>
      </trkpt>
      <trkpt lat="48.75274" lon="2.21548">
        <ele>77</ele>
        <time>2022-02-20T12:42:56.257Z</time>
      </trkpt>
      <trkpt lat="48.75273" lon="2.21556">
        <ele>77</ele>
        <time>2022-02-20T12:43:01.262Z</time>
      </trkpt>
      <trkpt lat="48.75272" lon="2.2156">
        <ele>77</ele>
        <time>2022-02-20T12:43:05.262Z</time>
      </trkpt>
      <trkpt lat="48.75271" lon="2.21562">
        <ele>77</ele>
        <time>2022-02-20T12:43:10.257Z</time>
      </trkpt>
      <trkpt lat="48.7527" lon="2.21564">
        <ele>77</ele>
        <time>2022-02-20T12:43:15.264Z</time>
      </trkpt>
      <trkpt lat="48.75268" lon="2.21567">
        <ele>77</ele>
        <time>2022-02-20T12:43:20.262Z</time>
      </trkpt>
      <trkpt lat="48.75267" lon="2.21571">
        <ele>77</ele>
        <time>2022-02-20T12:43:24.265Z</time>
      </trkpt>
      <trkpt lat="48.75265" lon="2.21577">
        <ele>77</ele>
        <time>2022-02-20T12:43:29.266Z</time>
      </trkpt>
      <trkpt lat="48.75263" lon="2.21582">
        <ele>76</ele>
        <time>2022-02-20T12:43:34.261Z</time>
      </trkpt>
      <trkpt lat="48.7526" lon="2.21587">
        <ele>76</ele>
        <time>2022-02-20T12:43:39.265Z</time>
      </trkpt>
      <trkpt lat="48.75257" lon="2.21592">
        <ele>76</ele>
        <time>2022-02-20T12:43:44.261Z</time>
      </trkpt>
      <trkpt lat="48.75255" lon="2.21596">
        <ele>76</ele>
        <time>2022-02-20T12:43:48.265Z</time>
      </trkpt>
      <trkpt lat="48.75253" lon="2.21601">
        <ele>76</ele>
        <time>2022-02-20T12:43:52.265Z</time>
      </trkpt>
      <trkpt lat="48.7525" lon="2.21607">
        <ele>76</ele>
        <time>2022-02-20T12:43:57.261Z</time>
      </trkpt>
      <trkpt lat="48.75247" lon="2.21613">
        <ele>76</ele>
        <time>2022-02-20T12:44:02.262Z</time>
      </trkpt>
      <trkpt lat="48.75245" lon="2.21618">
        <ele>76</ele>
        <time>2022-02-20T12:44:06.266Z</time>
      </trkpt>
      <trkpt lat="48.75241" lon="2.21626">
        <ele>77</ele>
        <time>2022-02-20T12:44:11.264Z</time>
      </trkpt>
      <trkpt lat="48.75239" lon="2.21633">
        <ele>77</ele>
        <time>2022-02-20T12:44:15.267Z</time>
      </trkpt>
      <trkpt lat="48.75236" lon="2.21639">
        <ele>77</ele>
        <time>2022-02-20T12:44:20.263Z</time>
      </trkpt>
      <trkpt lat="48.75234" lon="2.21644">
        <ele>77</ele>
        <time>2022-02-20T12:44:24.266Z</time>
      </trkpt>
      <trkpt lat="48.7523" lon="2.21653">
        <ele>77</ele>
        <time>2022-02-20T12:44:29.260Z</time>
      </trkpt>
      <trkpt lat="48.75227" lon="2.21664">
        <ele>77</ele>
        <time>2022-02-20T12:44:34.269Z</time>
      </trkpt>
      <trkpt lat="48.75224" lon="2.21673">
        <ele>77</ele>
        <time>2022-02-20T12:44:39.256Z</time>
      </trkpt>
      <trkpt lat="48.7522" lon="2.21683">
        <ele>78</ele>
        <time>2022-02-20T12:44:44.257Z</time>
      </trkpt>
      <trkpt lat="48.75218" lon="2.21689">
        <ele>78</ele>
        <time>2022-02-20T12:44:48.258Z</time>
      </trkpt>
      <trkpt lat="48.75215" lon="2.21699">
        <ele>78</ele>
        <time>2022-02-20T12:44:53.264Z</time>
      </trkpt>
      <trkpt lat="48.75212" lon="2.21705">
        <ele>78</ele>
        <time>2022-02-20T12:44:57.265Z</time>
      </trkpt>
      <trkpt lat="48.75212" lon="2.21712">
        <ele>78</ele>
        <time>2022-02-20T12:45:02.257Z</time>
      </trkpt>
      <trkpt lat="48.75213" lon="2.21719">
        <ele>78</ele>
        <time>2022-02-20T12:45:06.259Z</time>
      </trkpt>
      <trkpt lat="48.75218" lon="2.21728">
        <ele>78</ele>
        <time>2022-02-20T12:45:11.264Z</time>
      </trkpt>
      <trkpt lat="48.75222" lon="2.21732">
        <ele>78</ele>
        <time>2022-02-20T12:45:15.265Z</time>
      </trkpt>
      <trkpt lat="48.75226" lon="2.21738">
        <ele>79</ele>
        <time>2022-02-20T12:45:20.259Z</time>
      </trkpt>
      <trkpt lat="48.7523" lon="2.21743">
        <ele>79</ele>
        <time>2022-02-20T12:45:24.261Z</time>
      </trkpt>
      <trkpt lat="48.75235" lon="2.21748">
        <ele>79</ele>
        <time>2022-02-20T12:45:29.268Z</time>
      </trkpt>
      <trkpt lat="48.75241" lon="2.21753">
        <ele>80</ele>
        <time>2022-02-20T12:45:34.266Z</time>
      </trkpt>
      <trkpt lat="48.75245" lon="2.21758">
        <ele>80</ele>
        <time>2022-02-20T12:45:39.263Z</time>
      </trkpt>
      <trkpt lat="48.7525" lon="2.21762">
        <ele>80</ele>
        <time>2022-02-20T12:45:44.262Z</time>
      </trkpt>
      <trkpt lat="48.75253" lon="2.21769">
        <ele>82</ele>
        <time>2022-02-20T12:45:49.260Z</time>
      </trkpt>
      <trkpt lat="48.75256" lon="2.21775">
        <ele>82</ele>
        <time>2022-02-20T12:45:53.274Z</time>
      </trkpt>
      <trkpt lat="48.75259" lon="2.21779">
        <ele>82</ele>
        <time>2022-02-20T12:45:57.254Z</time>
      </trkpt>
      <trkpt lat="48.75261" lon="2.21788">
        <ele>82</ele>
        <time>2022-02-20T12:46:02.249Z</time>
      </trkpt>
      <trkpt lat="48.75263" lon="2.21802">
        <ele>83</ele>
        <time>2022-02-20T12:46:07.256Z</time>
      </trkpt>
      <trkpt lat="48.75264" lon="2.21814">
        <ele>81</ele>
        <time>2022-02-20T12:46:12.264Z</time>
      </trkpt>
      <trkpt lat="48.75261" lon="2.21821">
        <ele>81</ele>
        <time>2022-02-20T12:46:17.252Z</time>
      </trkpt>
      <trkpt lat="48.75257" lon="2.21826">
        <ele>81</ele>
        <time>2022-02-20T12:46:22.259Z</time>
      </trkpt>
      <trkpt lat="48.75254" lon="2.2183">
        <ele>81</ele>
        <time>2022-02-20T12:46:26.262Z</time>
      </trkpt>
      <trkpt lat="48.7525" lon="2.21834">
        <ele>81</ele>
        <time>2022-02-20T12:46:31.262Z</time>
      </trkpt>
      <trkpt lat="48.75246" lon="2.21837">
        <ele>81</ele>
        <time>2022-02-20T12:46:36.257Z</time>
      </trkpt>
      <trkpt lat="48.75245" lon="2.21844">
        <ele>81</ele>
        <time>2022-02-20T12:46:41.265Z</time>
      </trkpt>
      <trkpt lat="48.75244" lon="2.21852">
        <ele>79</ele>
        <time>2022-02-20T12:46:45.278Z</time>
      </trkpt>
      <trkpt lat="48.75246" lon="2.21862">
        <ele>79</ele>
        <time>2022-02-20T12:46:50.245Z</time>
      </trkpt>
      <trkpt lat="48.75243" lon="2.21867">
        <ele>79</ele>
        <time>2022-02-20T12:46:54.249Z</time>
      </trkpt>
      <trkpt lat="48.75237" lon="2.21875">
        <ele>77</ele>
        <time>2022-02-20T12:46:59.266Z</time>
      </trkpt>
      <trkpt lat="48.75232" lon="2.21876">
        <ele>77</ele>
        <time>2022-02-20T12:47:03.263Z</time>
      </trkpt>
      <trkpt lat="48.75225" lon="2.21876">
        <ele>77</ele>
        <time>2022-02-20T12:47:08.251Z</time>
      </trkpt>
      <trkpt lat="48.7522" lon="2.21878">
        <ele>77</ele>
        <time>2022-02-20T12:47:13.266Z</time>
      </trkpt>
      <trkpt lat="48.75215" lon="2.21883">
        <ele>77</ele>
        <time>2022-02-20T12:47:18.257Z</time>
      </trkpt>
      <trkpt lat="48.75212" lon="2.21885">
        <ele>77</ele>
        <time>2022-02-20T12:47:22.266Z</time>
      </trkpt>
      <trkpt lat="48.75208" lon="2.2189">
        <ele>77</ele>
        <time>2022-02-20T12:47:27.262Z</time>
      </trkpt>
      <trkpt lat="48.75205" lon="2.21898">
        <ele>77</ele>
        <time>2022-02-20T12:47:32.257Z</time>
      </trkpt>
      <trkpt lat="48.75202" lon="2.21904">
        <ele>78</ele>
        <time>2022-02-20T12:47:36.269Z</time>
      </trkpt>
      <trkpt lat="48.75199" lon="2.21911">
        <ele>78</ele>
        <time>2022-02-20T12:47:41.263Z</time>
      </trkpt>
      <trkpt lat="48.75197" lon="2.21917">
        <ele>78</ele>
        <time>2022-02-20T12:47:45.278Z</time>
      </trkpt>
      <trkpt lat="48.75193" lon="2.21925">
        <ele>78</ele>
        <time>2022-02-20T12:47:50.262Z</time>
      </trkpt>
      <trkpt lat="48.75191" lon="2.21933">
        <ele>78</ele>
        <time>2022-02-20T12:47:55.264Z</time>
      </trkpt>
      <trkpt lat="48.75185" lon="2.21941">
        <ele>78</ele>
        <time>2022-02-20T12:48:00.271Z</time>
      </trkpt>
      <trkpt lat="48.75181" lon="2.21948">
        <ele>78</ele>
        <time>2022-02-20T12:48:05.264Z</time>
      </trkpt>
      <trkpt lat="48.75177" lon="2.21955">
        <ele>78</ele>
        <time>2022-02-20T12:48:10.274Z</time>
      </trkpt>
      <trkpt lat="48.75174" lon="2.2196">
        <ele>78</ele>
        <time>2022-02-20T12:48:14.270Z</time>
      </trkpt>
      <trkpt lat="48.75171" lon="2.21968">
        <ele>78</ele>
        <time>2022-02-20T12:48:19.272Z</time>
      </trkpt>
      <trkpt lat="48.75166" lon="2.21974">
        <ele>78</ele>
        <time>2022-02-20T12:48:24.260Z</time>
      </trkpt>
      <trkpt lat="48.75163" lon="2.2198">
        <ele>78</ele>
        <time>2022-02-20T12:48:28.269Z</time>
      </trkpt>
      <trkpt lat="48.75158" lon="2.21986">
        <ele>78</ele>
        <time>2022-02-20T12:48:33.270Z</time>
      </trkpt>
      <trkpt lat="48.75152" lon="2.21991">
        <ele>77</ele>
        <time>2022-02-20T12:48:38.262Z</time>
      </trkpt>
      <trkpt lat="48.75147" lon="2.21993">
        <ele>77</ele>
        <time>2022-02-20T12:48:42.259Z</time>
      </trkpt>
      <trkpt lat="48.75141" lon="2.21997">
        <ele>77</ele>
        <time>2022-02-20T12:48:47.267Z</time>
      </trkpt>
      <trkpt lat="48.75135" lon="2.21999">
        <ele>77</ele>
        <time>2022-02-20T12:48:52.263Z</time>
      </trkpt>
      <trkpt lat="48.7513" lon="2.22003">
        <ele>77</ele>
        <time>2022-02-20T12:48:56.273Z</time>
      </trkpt>
      <trkpt lat="48.75123" lon="2.22006">
        <ele>77</ele>
        <time>2022-02-20T12:49:01.255Z</time>
      </trkpt>
      <trkpt lat="48.75118" lon="2.22007">
        <ele>77</ele>
        <time>2022-02-20T12:49:05.263Z</time>
      </trkpt>
      <trkpt lat="48.75113" lon="2.22006">
        <ele>77</ele>
        <time>2022-02-20T12:49:10.263Z</time>
      </trkpt>
      <trkpt lat="48.75108" lon="2.22008">
        <ele>77</ele>
        <time>2022-02-20T12:49:15.257Z</time>
      </trkpt>
      <trkpt lat="48.75103" lon="2.22009">
        <ele>77</ele>
        <time>2022-02-20T12:49:19.261Z</time>
      </trkpt>
      <trkpt lat="48.75097" lon="2.2201">
        <ele>78</ele>
        <time>2022-02-20T12:49:24.266Z</time>
      </trkpt>
      <trkpt lat="48.75091" lon="2.22011">
        <ele>78</ele>
        <time>2022-02-20T12:49:29.269Z</time>
      </trkpt>
      <trkpt lat="48.75085" lon="2.22012">
        <ele>78</ele>
        <time>2022-02-20T12:49:34.267Z</time>
      </trkpt>
      <trkpt lat="48.75079" lon="2.22011">
        <ele>78</ele>
        <time>2022-02-20T12:49:39.266Z</time>
      </trkpt>
      <trkpt lat="48.75076" lon="2.22006">
        <ele>78</ele>
        <time>2022-02-20T12:49:44.268Z</time>
      </trkpt>
      <trkpt lat="48.75073" lon="2.21999">
        <ele>78</ele>
        <time>2022-02-20T12:49:49.255Z</time>
      </trkpt>
      <trkpt lat="48.75068" lon="2.22001">
        <ele>77</ele>
        <time>2022-02-20T12:49:53.261Z</time>
      </trkpt>
      <trkpt lat="48.75061" lon="2.22003">
        <ele>77</ele>
        <time>2022-02-20T12:49:58.267Z</time>
      </trkpt>
      <trkpt lat="48.75055" lon="2.22006">
        <ele>77</ele>
        <time>2022-02-20T12:50:03.260Z</time>
      </trkpt>
      <trkpt lat="48.75051" lon="2.22009">
        <ele>77</ele>
        <time>2022-02-20T12:50:07.261Z</time>
      </trkpt>
      <trkpt lat="48.75045" lon="2.22012">
        <ele>77</ele>
        <time>2022-02-20T12:50:12.265Z</time>
      </trkpt>
      <trkpt lat="48.7504" lon="2.22017">
        <ele>76</ele>
        <time>2022-02-20T12:50:17.264Z</time>
      </trkpt>
      <trkpt lat="48.75034" lon="2.22021">
        <ele>76</ele>
        <time>2022-02-20T12:50:22.261Z</time>
      </trkpt>
      <trkpt lat="48.7503" lon="2.22022">
        <ele>76</ele>
        <time>2022-02-20T12:50:26.267Z</time>
      </trkpt>
      <trkpt lat="48.75024" lon="2.22025">
        <ele>76</ele>
        <time>2022-02-20T12:50:31.263Z</time>
      </trkpt>
      <trkpt lat="48.75019" lon="2.22029">
        <ele>76</ele>
        <time>2022-02-20T12:50:36.263Z</time>
      </trkpt>
      <trkpt lat="48.75013" lon="2.22032">
        <ele>75</ele>
        <time>2022-02-20T12:50:41.267Z</time>
      </trkpt>
      <trkpt lat="48.75007" lon="2.22035">
        <ele>75</ele>
        <time>2022-02-20T12:50:46.270Z</time>
      </trkpt>
      <trkpt lat="48.75" lon="2.22039">
        <ele>75</ele>
        <time>2022-02-20T12:50:51.267Z</time>
      </trkpt>
      <trkpt lat="48.74995" lon="2.22042">
        <ele>75</ele>
        <time>2022-02-20T12:50:55.266Z</time>
      </trkpt>
      <trkpt lat="48.74988" lon="2.22042">
        <ele>76</ele>
        <time>2022-02-20T12:51:00.261Z</time>
      </trkpt>
      <trkpt lat="48.74983" lon="2.22037">
        <ele>75</ele>
        <time>2022-02-20T12:51:05.254Z</time>
      </trkpt>
      <trkpt lat="48.74979" lon="2.22032">
        <ele>75</ele>
        <time>2022-02-20T12:51:09.262Z</time>
      </trkpt>
      <trkpt lat="48.74976" lon="2.22026">
        <ele>75</ele>
        <time>2022-02-20T12:51:13.266Z</time>
      </trkpt>
      <trkpt lat="48.74972" lon="2.22019">
        <ele>75</ele>
        <time>2022-02-20T12:51:18.259Z</time>
      </trkpt>
      <trkpt lat="48.74969" lon="2.22011">
        <ele>75</ele>
        <time>2022-02-20T12:51:23.257Z</time>
      </trkpt>
      <trkpt lat="48.74966" lon="2.22006">
        <ele>75</ele>
        <time>2022-02-20T12:51:27.259Z</time>
      </trkpt>
      <trkpt lat="48.74962" lon="2.22001">
        <ele>75</ele>
        <time>2022-02-20T12:51:32.261Z</time>
      </trkpt>
      <trkpt lat="48.74958" lon="2.22">
        <ele>76</ele>
        <time>2022-02-20T12:51:36.274Z</time>
      </trkpt>
      <trkpt lat="48.74953" lon="2.22003">
        <ele>76</ele>
        <time>2022-02-20T12:51:41.272Z</time>
      </trkpt>
      <trkpt lat="48.7495" lon="2.22007">
        <ele>76</ele>
        <time>2022-02-20T12:51:46.259Z</time>
      </trkpt>
      <trkpt lat="48.74945" lon="2.22011">
        <ele>76</ele>
        <time>2022-02-20T12:51:51.258Z</time>
      </trkpt>
      <trkpt lat="48.74941" lon="2.22014">
        <ele>76</ele>
        <time>2022-02-20T12:51:55.262Z</time>
      </trkpt>
      <trkpt lat="48.74938" lon="2.22025">
        <ele>76</ele>
        <time>2022-02-20T12:52:00.259Z</time>
      </trkpt>
      <trkpt lat="48.74935" lon="2.2203">
        <ele>76</ele>
        <time>2022-02-20T12:52:04.268Z</time>
      </trkpt>
      <trkpt lat="48.7493" lon="2.22039">
        <ele>78</ele>
        <time>2022-02-20T12:52:09.260Z</time>
      </trkpt>
      <trkpt lat="48.74927" lon="2.22047">
        <ele>77</ele>
        <time>2022-02-20T12:52:13.266Z</time>
      </trkpt>
      <trkpt lat="48.74922" lon="2.22057">
        <ele>77</ele>
        <time>2022-02-20T12:52:18.257Z</time>
      </trkpt>
      <trkpt lat="48.74919" lon="2.22064">
        <ele>77</ele>
        <time>2022-02-20T12:52:23.265Z</time>
      </trkpt>
      <trkpt lat="48.74916" lon="2.22068">
        <ele>77</ele>
        <time>2022-02-20T12:52:27.273Z</time>
      </trkpt>
      <trkpt lat="48.74915" lon="2.22068">
        <ele>77</ele>
        <time>2022-02-20T12:52:32.257Z</time>
      </trkpt>
      <trkpt lat="48.74913" lon="2.22066">
        <ele>77</ele>
        <time>2022-02-20T12:52:36.268Z</time>
      </trkpt>
      <trkpt lat="48.74906" lon="2.22068">
        <ele>77</ele>
        <time>2022-02-20T12:52:41.260Z</time>
      </trkpt>
      <trkpt lat="48.74903" lon="2.22073">
        <ele>77</ele>
        <time>2022-02-20T12:52:45.261Z</time>
      </trkpt>
      <trkpt lat="48.74901" lon="2.22078">
        <ele>77</ele>
        <time>2022-02-20T12:52:49.265Z</time>
      </trkpt>
      <trkpt lat="48.74899" lon="2.22085">
        <ele>77</ele>
        <time>2022-02-20T12:52:54.262Z</time>
      </trkpt>
      <trkpt lat="48.74899" lon="2.22094">
        <ele>77</ele>
        <time>2022-02-20T12:52:59.267Z</time>
      </trkpt>
      <trkpt lat="48.74901" lon="2.22102">
        <ele>76</ele>
        <time>2022-02-20T12:53:04.256Z</time>
      </trkpt>
      <trkpt lat="48.74906" lon="2.22108">
        <ele>74</ele>
        <time>2022-02-20T12:53:09.264Z</time>
      </trkpt>
      <trkpt lat="48.74908" lon="2.22114">
        <ele>74</ele>
        <time>2022-02-20T12:53:13.266Z</time>
      </trkpt>
      <trkpt lat="48.74907" lon="2.22123">
        <ele>74</ele>
        <time>2022-02-20T12:53:18.253Z</time>
      </trkpt>
      <trkpt lat="48.74907" lon="2.22131">
        <ele>73</ele>
        <time>2022-02-20T12:53:23.261Z</time>
      </trkpt>
      <trkpt lat="48.74907" lon="2.22137">
        <ele>73</ele>
        <time>2022-02-20T12:53:27.270Z</time>
      </trkpt>
      <trkpt lat="48.74904" lon="2.2214">
        <ele>73</ele>
        <time>2022-02-20T12:53:32.266Z</time>
      </trkpt>
      <trkpt lat="48.749" lon="2.22146">
        <ele>75</ele>
        <time>2022-02-20T12:53:37.270Z</time>
      </trkpt>
      <trkpt lat="48.74896" lon="2.22152">
        <ele>75</ele>
        <time>2022-02-20T12:53:42.264Z</time>
      </trkpt>
      <trkpt lat="48.74894" lon="2.22159">
        <ele>75</ele>
        <time>2022-02-20T12:53:47.273Z</time>
      </trkpt>
      <trkpt lat="48.74892" lon="2.22166">
        <ele>75</ele>
        <time>2022-02-20T12:53:52.263Z</time>
      </trkpt>
      <trkpt lat="48.74892" lon="2.22173">
        <ele>75</ele>
        <time>2022-02-20T12:53:56.264Z</time>
      </trkpt>
      <trkpt lat="48.74891" lon="2.22182">
        <ele>74</ele>
        <time>2022-02-20T12:54:01.270Z</time>
      </trkpt>
      <trkpt lat="48.74889" lon="2.22191">
        <ele>74</ele>
        <time>2022-02-20T12:54:06.278Z</time>
      </trkpt>
      <trkpt lat="48.74887" lon="2.22201">
        <ele>74</ele>
        <time>2022-02-20T12:54:11.256Z</time>
      </trkpt>
      <trkpt lat="48.74886" lon="2.22209">
        <ele>73</ele>
        <time>2022-02-20T12:54:15.267Z</time>
      </trkpt>
      <trkpt lat="48.74883" lon="2.22218">
        <ele>73</ele>
        <time>2022-02-20T12:54:20.267Z</time>
      </trkpt>
      <trkpt lat="48.7488" lon="2.22227">
        <ele>73</ele>
        <time>2022-02-20T12:54:25.263Z</time>
      </trkpt>
      <trkpt lat="48.74877" lon="2.22234">
        <ele>73</ele>
        <time>2022-02-20T12:54:29.270Z</time>
      </trkpt>
      <trkpt lat="48.74874" lon="2.22242">
        <ele>73</ele>
        <time>2022-02-20T12:54:34.262Z</time>
      </trkpt>
      <trkpt lat="48.74871" lon="2.2225">
        <ele>73</ele>
        <time>2022-02-20T12:54:39.268Z</time>
      </trkpt>
      <trkpt lat="48.74868" lon="2.22259">
        <ele>73</ele>
        <time>2022-02-20T12:54:44.264Z</time>
      </trkpt>
      <trkpt lat="48.74866" lon="2.22265">
        <ele>73</ele>
        <time>2022-02-20T12:54:48.271Z</time>
      </trkpt>
      <trkpt lat="48.74863" lon="2.22273">
        <ele>73</ele>
        <time>2022-02-20T12:54:53.266Z</time>
      </trkpt>
      <trkpt lat="48.7486" lon="2.22282">
        <ele>73</ele>
        <time>2022-02-20T12:54:58.269Z</time>
      </trkpt>
      <trkpt lat="48.74856" lon="2.22289">
        <ele>73</ele>
        <time>2022-02-20T12:55:03.266Z</time>
      </trkpt>
      <trkpt lat="48.74853" lon="2.22295">
        <ele>72</ele>
        <time>2022-02-20T12:55:07.261Z</time>
      </trkpt>
      <trkpt lat="48.7485" lon="2.22301">
        <ele>72</ele>
        <time>2022-02-20T12:55:11.265Z</time>
      </trkpt>
      <trkpt lat="48.74848" lon="2.2231">
        <ele>72</ele>
        <time>2022-02-20T12:55:16.262Z</time>
      </trkpt>
      <trkpt lat="48.74844" lon="2.22318">
        <ele>73</ele>
        <time>2022-02-20T12:55:21.260Z</time>
      </trkpt>
      <trkpt lat="48.74842" lon="2.22326">
        <ele>73</ele>
        <time>2022-02-20T12:55:25.259Z</time>
      </trkpt>
      <trkpt lat="48.74838" lon="2.22334">
        <ele>73</ele>
        <time>2022-02-20T12:55:30.269Z</time>
      </trkpt>
      <trkpt lat="48.74836" lon="2.22342">
        <ele>73</ele>
        <time>2022-02-20T12:55:35.264Z</time>
      </trkpt>
      <trkpt lat="48.74832" lon="2.2235">
        <ele>74</ele>
        <time>2022-02-20T12:55:40.266Z</time>
      </trkpt>
      <trkpt lat="48.7483" lon="2.22358">
        <ele>74</ele>
        <time>2022-02-20T12:55:45.263Z</time>
      </trkpt>
      <trkpt lat="48.74827" lon="2.22364">
        <ele>74</ele>
        <time>2022-02-20T12:55:49.265Z</time>
      </trkpt>
      <trkpt lat="48.74824" lon="2.22374">
        <ele>74</ele>
        <time>2022-02-20T12:55:54.263Z</time>
      </trkpt>
      <trkpt lat="48.74821" lon="2.22385">
        <ele>74</ele>
        <time>2022-02-20T12:55:59.269Z</time>
      </trkpt>
      <trkpt lat="48.74822" lon="2.22394">
        <ele>74</ele>
        <time>2022-02-20T12:56:04.253Z</time>
      </trkpt>
      <trkpt lat="48.74826" lon="2.22402">
        <ele>74</ele>
        <time>2022-02-20T12:56:09.275Z</time>
      </trkpt>
      <trkpt lat="48.74831" lon="2.22409">
        <ele>74</ele>
        <time>2022-02-20T12:56:14.255Z</time>
      </trkpt>
      <trkpt lat="48.74834" lon="2.22413">
        <ele>74</ele>
        <time>2022-02-20T12:56:18.268Z</time>
      </trkpt>
      <trkpt lat="48.74838" lon="2.22417">
        <ele>74</ele>
        <time>2022-02-20T12:56:22.276Z</time>
      </trkpt>
      <trkpt lat="48.74841" lon="2.22421">
        <ele>74</ele>
        <time>2022-02-20T12:56:26.269Z</time>
      </trkpt>
      <trkpt lat="48.74845" lon="2.22427">
        <ele>74</ele>
        <time>2022-02-20T12:56:31.280Z</time>
      </trkpt>
      <trkpt lat="48.74849" lon="2.22434">
        <ele>75</ele>
        <time>2022-02-20T12:56:36.276Z</time>
      </trkpt>
      <trkpt lat="48.74853" lon="2.22443">
        <ele>75</ele>
        <time>2022-02-20T12:56:41.276Z</time>
      </trkpt>
      <trkpt lat="48.74855" lon="2.2245">
        <ele>75</ele>
        <time>2022-02-20T12:56:45.267Z</time>
      </trkpt>
      <trkpt lat="48.74855" lon="2.22458">
        <ele>73</ele>
        <time>2022-02-20T12:56:50.270Z</time>
      </trkpt>
      <trkpt lat="48.74852" lon="2.22465">
        <ele>73</ele>
        <time>2022-02-20T12:56:54.271Z</time>
      </trkpt>
      <trkpt lat="48.7485" lon="2.22475">
        <ele>73</ele>
        <time>2022-02-20T12:56:59.277Z</time>
      </trkpt>
      <trkpt lat="48.74851" lon="2.22486">
        <ele>73</ele>
        <time>2022-02-20T12:57:04.279Z</time>
      </trkpt>
      <trkpt lat="48.74853" lon="2.22495">
        <ele>71</ele>
        <time>2022-02-20T12:57:09.273Z</time>
      </trkpt>
      <trkpt lat="48.74856" lon="2.22499">
        <ele>71</ele>
        <time>2022-02-20T12:57:13.276Z</time>
      </trkpt>
      <trkpt lat="48.7486" lon="2.22503">
        <ele>71</ele>
        <time>2022-02-20T12:57:18.274Z</time>
      </trkpt>
      <trkpt lat="48.74865" lon="2.22508">
        <ele>71</ele>
        <time>2022-02-20T12:57:23.253Z</time>
      </trkpt>
      <trkpt lat="48.74869" lon="2.2251">
        <ele>71</ele>
        <time>2022-02-20T12:57:28.264Z</time>
      </trkpt>
      <trkpt lat="48.74872" lon="2.2251">
        <ele>71</ele>
        <time>2022-02-20T12:57:33.270Z</time>
      </trkpt>
      <trkpt lat="48.74873" lon="2.22509">
        <ele>71</ele>
        <time>2022-02-20T12:57:38.268Z</time>
      </trkpt>
      <trkpt lat="48.74874" lon="2.2251">
        <ele>71</ele>
        <time>2022-02-20T12:57:43.249Z</time>
      </trkpt>
      <trkpt lat="48.74874" lon="2.22516">
        <ele>71</ele>
        <time>2022-02-20T12:57:48.250Z</time>
      </trkpt>
      <trkpt lat="48.74872" lon="2.22521">
        <ele>71</ele>
        <time>2022-02-20T12:57:53.256Z</time>
      </trkpt>
      <trkpt lat="48.74869" lon="2.22525">
        <ele>71</ele>
        <time>2022-02-20T12:57:57.258Z</time>
      </trkpt>
      <trkpt lat="48.74867" lon="2.22533">
        <ele>71</ele>
        <time>2022-02-20T12:58:02.261Z</time>
      </trkpt>
      <trkpt lat="48.74866" lon="2.22539">
        <ele>71</ele>
        <time>2022-02-20T12:58:06.268Z</time>
      </trkpt>
      <trkpt lat="48.74862" lon="2.22546">
        <ele>72</ele>
        <time>2022-02-20T12:58:11.263Z</time>
      </trkpt>
      <trkpt lat="48.74856" lon="2.22553">
        <ele>72</ele>
        <time>2022-02-20T12:58:16.261Z</time>
      </trkpt>
      <trkpt lat="48.74851" lon="2.22559">
        <ele>72</ele>
        <time>2022-02-20T12:58:21.261Z</time>
      </trkpt>
      <trkpt lat="48.74846" lon="2.22565">
        <ele>72</ele>
        <time>2022-02-20T12:58:25.263Z</time>
      </trkpt>
      <trkpt lat="48.74841" lon="2.22569">
        <ele>72</ele>
        <time>2022-02-20T12:58:29.274Z</time>
      </trkpt>
      <trkpt lat="48.74836" lon="2.22575">
        <ele>72</ele>
        <time>2022-02-20T12:58:34.258Z</time>
      </trkpt>
      <trkpt lat="48.74832" lon="2.2258">
        <ele>72</ele>
        <time>2022-02-20T12:58:38.262Z</time>
      </trkpt>
      <trkpt lat="48.74827" lon="2.22586">
        <ele>72</ele>
        <time>2022-02-20T12:58:43.263Z</time>
      </trkpt>
      <trkpt lat="48.74822" lon="2.22592">
        <ele>72</ele>
        <time>2022-02-20T12:58:47.267Z</time>
      </trkpt>
      <trkpt lat="48.74817" lon="2.226">
        <ele>71</ele>
        <time>2022-02-20T12:58:52.264Z</time>
      </trkpt>
      <trkpt lat="48.74813" lon="2.22605">
        <ele>71</ele>
        <time>2022-02-20T12:58:56.265Z</time>
      </trkpt>
      <trkpt lat="48.74807" lon="2.2261">
        <ele>71</ele>
        <time>2022-02-20T12:59:01.260Z</time>
      </trkpt>
      <trkpt lat="48.74803" lon="2.22614">
        <ele>71</ele>
        <time>2022-02-20T12:59:05.265Z</time>
      </trkpt>
      <trkpt lat="48.74797" lon="2.22618">
        <ele>71</ele>
        <time>2022-02-20T12:59:10.259Z</time>
      </trkpt>
      <trkpt lat="48.74793" lon="2.22623">
        <ele>71</ele>
        <time>2022-02-20T12:59:14.264Z</time>
      </trkpt>
      <trkpt lat="48.74788" lon="2.22629">
        <ele>71</ele>
        <time>2022-02-20T12:59:19.265Z</time>
      </trkpt>
      <trkpt lat="48.74783" lon="2.22634">
        <ele>71</ele>
        <time>2022-02-20T12:59:23.284Z</time>
      </trkpt>
      <trkpt lat="48.74777" lon="2.22641">
        <ele>71</ele>
        <time>2022-02-20T12:59:28.255Z</time>
      </trkpt>
      <trkpt lat="48.74773" lon="2.22645">
        <ele>71</ele>
        <time>2022-02-20T12:59:32.264Z</time>
      </trkpt>
      <trkpt lat="48.7477" lon="2.2265">
        <ele>71</ele>
        <time>2022-02-20T12:59:36.270Z</time>
      </trkpt>
      <trkpt lat="48.74765" lon="2.22657">
        <ele>70</ele>
        <time>2022-02-20T12:59:41.284Z</time>
      </trkpt>
      <trkpt lat="48.7476" lon="2.22666">
        <ele>72</ele>
        <time>2022-02-20T12:59:46.259Z</time>
      </trkpt>
      <trkpt lat="48.74756" lon="2.22674">
        <ele>72</ele>
        <time>2022-02-20T12:59:51.264Z</time>
      </trkpt>
      <trkpt lat="48.74752" lon="2.22681">
        <ele>71</ele>
        <time>2022-02-20T12:59:55.271Z</time>
      </trkpt>
      <trkpt lat="48.74749" lon="2.2269">
        <ele>71</ele>
        <time>2022-02-20T13:00:00.267Z</time>
      </trkpt>
      <trkpt lat="48.74745" lon="2.22698">
        <ele>71</ele>
        <time>2022-02-20T13:00:05.259Z</time>
      </trkpt>
      <trkpt lat="48.74742" lon="2.22705">
        <ele>71</ele>
        <time>2022-02-20T13:00:10.266Z</time>
      </trkpt>
      <trkpt lat="48.74739" lon="2.22711">
        <ele>71</ele>
        <time>2022-02-20T13:00:15.243Z</time>
      </trkpt>
      <trkpt lat="48.74736" lon="2.22717">
        <ele>73</ele>
        <time>2022-02-20T13:00:20.251Z</time>
      </trkpt>
      <trkpt lat="48.74732" lon="2.22724">
        <ele>73</ele>
        <time>2022-02-20T13:00:25.255Z</time>
      </trkpt>
      <trkpt lat="48.74728" lon="2.22728">
        <ele>73</ele>
        <time>2022-02-20T13:00:29.256Z</time>
      </trkpt>
      <trkpt lat="48.74724" lon="2.22734">
        <ele>73</ele>
        <time>2022-02-20T13:00:33.262Z</time>
      </trkpt>
      <trkpt lat="48.74721" lon="2.22743">
        <ele>73</ele>
        <time>2022-02-20T13:00:38.262Z</time>
      </trkpt>
      <trkpt lat="48.74717" lon="2.22752">
        <ele>73</ele>
        <time>2022-02-20T13:00:43.259Z</time>
      </trkpt>
      <trkpt lat="48.74714" lon="2.22762">
        <ele>73</ele>
        <time>2022-02-20T13:00:48.254Z</time>
      </trkpt>
      <trkpt lat="48.74712" lon="2.22771">
        <ele>73</ele>
        <time>2022-02-20T13:00:53.259Z</time>
      </trkpt>
      <trkpt lat="48.7471" lon="2.22779">
        <ele>73</ele>
        <time>2022-02-20T13:00:57.256Z</time>
      </trkpt>
      <trkpt lat="48.74708" lon="2.22788">
        <ele>73</ele>
        <time>2022-02-20T13:01:02.267Z</time>
      </trkpt>
      <trkpt lat="48.74706" lon="2.22799">
        <ele>73</ele>
        <time>2022-02-20T13:01:07.273Z</time>
      </trkpt>
      <trkpt lat="48.74702" lon="2.22805">
        <ele>73</ele>
        <time>2022-02-20T13:01:12.257Z</time>
      </trkpt>
      <trkpt lat="48.747" lon="2.22812">
        <ele>73</ele>
        <time>2022-02-20T13:01:16.263Z</time>
      </trkpt>
      <trkpt lat="48.74696" lon="2.22817">
        <ele>73</ele>
        <time>2022-02-20T13:01:20.274Z</time>
      </trkpt>
      <trkpt lat="48.74692" lon="2.22824">
        <ele>73</ele>
        <time>2022-02-20T13:01:25.265Z</time>
      </trkpt>
      <trkpt lat="48.74687" lon="2.22827">
        <ele>73</ele>
        <time>2022-02-20T13:01:29.252Z</time>
      </trkpt>
      <trkpt lat="48.74682" lon="2.2283">
        <ele>73</ele>
        <time>2022-02-20T13:01:34.267Z</time>
      </trkpt>
      <trkpt lat="48.74676" lon="2.22834">
        <ele>72</ele>
        <time>2022-02-20T13:01:39.255Z</time>
      </trkpt>
      <trkpt lat="48.7467" lon="2.22837">
        <ele>72</ele>
        <time>2022-02-20T13:01:44.270Z</time>
      </trkpt>
      <trkpt lat="48.74665" lon="2.22843">
        <ele>72</ele>
        <time>2022-02-20T13:01:49.247Z</time>
      </trkpt>
      <trkpt lat="48.7466" lon="2.22845">
        <ele>72</ele>
        <time>2022-02-20T13:01:53.263Z</time>
      </trkpt>
      <trkpt lat="48.74657" lon="2.22846">
        <ele>72</ele>
        <time>2022-02-20T13:01:58.246Z</time>
      </trkpt>
      <trkpt lat="48.74656" lon="2.22854">
        <ele>73</ele>
        <time>2022-02-20T13:02:02.258Z</time>
      </trkpt>
      <trkpt lat="48.74657" lon="2.22866">
        <ele>73</ele>
        <time>2022-02-20T13:02:07.251Z</time>
      </trkpt>
      <trkpt lat="48.74658" lon="2.22877">
        <ele>73</ele>
        <time>2022-02-20T13:02:12.256Z</time>
      </trkpt>
      <trkpt lat="48.74656" lon="2.22885">
        <ele>73</ele>
        <time>2022-02-20T13:02:16.256Z</time>
      </trkpt>
      <trkpt lat="48.74652" lon="2.22891">
        <ele>72</ele>
        <time>2022-02-20T13:02:20.263Z</time>
      </trkpt>
      <trkpt lat="48.74644" lon="2.22898">
        <ele>72</ele>
        <time>2022-02-20T13:02:25.266Z</time>
      </trkpt>
      <trkpt lat="48.74641" lon="2.22904">
        <ele>72</ele>
        <time>2022-02-20T13:02:30.265Z</time>
      </trkpt>
      <trkpt lat="48.74637" lon="2.22907">
        <ele>72</ele>
        <time>2022-02-20T13:02:35.255Z</time>
      </trkpt>
      <trkpt lat="48.74632" lon="2.22909">
        <ele>72</ele>
        <time>2022-02-20T13:02:40.269Z</time>
      </trkpt>
      <trkpt lat="48.74628" lon="2.22913">
        <ele>72</ele>
        <time>2022-02-20T13:02:45.250Z</time>
      </trkpt>
      <trkpt lat="48.74624" lon="2.22918">
        <ele>71</ele>
        <time>2022-02-20T13:02:49.256Z</time>
      </trkpt>
      <trkpt lat="48.74622" lon="2.22924">
        <ele>71</ele>
        <time>2022-02-20T13:02:54.259Z</time>
      </trkpt>
      <trkpt lat="48.74619" lon="2.2293">
        <ele>71</ele>
        <time>2022-02-20T13:03:12.253Z</time>
      </trkpt>
      <trkpt lat="48.74614" lon="2.22933">
        <ele>71</ele>
        <time>2022-02-20T13:03:17.259Z</time>
      </trkpt>
      <trkpt lat="48.74608" lon="2.22936">
        <ele>71</ele>
        <time>2022-02-20T13:03:22.259Z</time>
      </trkpt>
      <trkpt lat="48.74604" lon="2.2294">
        <ele>71</ele>
        <time>2022-02-20T13:03:27.256Z</time>
      </trkpt>
      <trkpt lat="48.74603" lon="2.2294">
        <ele>71</ele>
        <time>2022-02-20T13:03:32.263Z</time>
      </trkpt>
      <trkpt lat="48.74596" lon="2.2294">
        <ele>71</ele>
        <time>2022-02-20T13:03:37.247Z</time>
      </trkpt>
      <trkpt lat="48.74592" lon="2.22946">
        <ele>71</ele>
        <time>2022-02-20T13:03:41.257Z</time>
      </trkpt>
      <trkpt lat="48.74591" lon="2.22947">
        <ele>71</ele>
        <time>2022-02-20T13:03:46.261Z</time>
      </trkpt>
      <trkpt lat="48.74591" lon="2.22949">
        <ele>71</ele>
        <time>2022-02-20T13:03:50.268Z</time>
      </trkpt>
      <trkpt lat="48.74591" lon="2.22953">
        <ele>71</ele>
        <time>2022-02-20T13:03:55.250Z</time>
      </trkpt>
      <trkpt lat="48.74587" lon="2.2296">
        <ele>70</ele>
        <time>2022-02-20T13:04:00.261Z</time>
      </trkpt>
      <trkpt lat="48.7458" lon="2.22968">
        <ele>70</ele>
        <time>2022-02-20T13:04:05.254Z</time>
      </trkpt>
      <trkpt lat="48.74576" lon="2.22972">
        <ele>70</ele>
        <time>2022-02-20T13:04:09.268Z</time>
      </trkpt>
      <trkpt lat="48.7457" lon="2.22977">
        <ele>70</ele>
        <time>2022-02-20T13:04:13.265Z</time>
      </trkpt>
      <trkpt lat="48.74563" lon="2.22985">
        <ele>71</ele>
        <time>2022-02-20T13:04:18.261Z</time>
      </trkpt>
      <trkpt lat="48.74558" lon="2.22992">
        <ele>71</ele>
        <time>2022-02-20T13:04:23.267Z</time>
      </trkpt>
      <trkpt lat="48.74552" lon="2.23">
        <ele>71</ele>
        <time>2022-02-20T13:04:28.261Z</time>
      </trkpt>
      <trkpt lat="48.74547" lon="2.23006">
        <ele>71</ele>
        <time>2022-02-20T13:04:32.270Z</time>
      </trkpt>
      <trkpt lat="48.74542" lon="2.23014">
        <ele>71</ele>
        <time>2022-02-20T13:04:37.270Z</time>
      </trkpt>
      <trkpt lat="48.74536" lon="2.23019">
        <ele>70</ele>
        <time>2022-02-20T13:04:41.272Z</time>
      </trkpt>
      <trkpt lat="48.74529" lon="2.23025">
        <ele>70</ele>
        <time>2022-02-20T13:04:46.267Z</time>
      </trkpt>
      <trkpt lat="48.74521" lon="2.2303">
        <ele>70</ele>
        <time>2022-02-20T13:04:51.266Z</time>
      </trkpt>
      <trkpt lat="48.74515" lon="2.23032">
        <ele>70</ele>
        <time>2022-02-20T13:04:55.270Z</time>
      </trkpt>
      <trkpt lat="48.74507" lon="2.23034">
        <ele>68</ele>
        <time>2022-02-20T13:05:00.258Z</time>
      </trkpt>
      <trkpt lat="48.745" lon="2.23032">
        <ele>68</ele>
        <time>2022-02-20T13:05:05.264Z</time>
      </trkpt>
      <trkpt lat="48.74495" lon="2.2303">
        <ele>68</ele>
        <time>2022-02-20T13:05:09.266Z</time>
      </trkpt>
      <trkpt lat="48.7449" lon="2.23031">
        <ele>68</ele>
        <time>2022-02-20T13:05:14.266Z</time>
      </trkpt>
      <trkpt lat="48.74484" lon="2.23029">
        <ele>69</ele>
        <time>2022-02-20T13:05:18.272Z</time>
      </trkpt>
      <trkpt lat="48.7448" lon="2.23024">
        <ele>69</ele>
        <time>2022-02-20T13:05:23.259Z</time>
      </trkpt>
      <trkpt lat="48.74475" lon="2.23022">
        <ele>69</ele>
        <time>2022-02-20T13:05:27.261Z</time>
      </trkpt>
      <trkpt lat="48.7447" lon="2.23023">
        <ele>69</ele>
        <time>2022-02-20T13:05:32.264Z</time>
      </trkpt>
      <trkpt lat="48.74467" lon="2.23018">
        <ele>69</ele>
        <time>2022-02-20T13:05:37.260Z</time>
      </trkpt>
      <trkpt lat="48.74464" lon="2.2302">
        <ele>69</ele>
        <time>2022-02-20T13:05:41.262Z</time>
      </trkpt>
      <trkpt lat="48.7446" lon="2.23022">
        <ele>69</ele>
        <time>2022-02-20T13:05:45.264Z</time>
      </trkpt>
      <trkpt lat="48.74454" lon="2.23027">
        <ele>70</ele>
        <time>2022-02-20T13:05:50.265Z</time>
      </trkpt>
      <trkpt lat="48.7445" lon="2.23031">
        <ele>70</ele>
        <time>2022-02-20T13:05:54.269Z</time>
      </trkpt>
      <trkpt lat="48.74447" lon="2.23039">
        <ele>70</ele>
        <time>2022-02-20T13:05:59.258Z</time>
      </trkpt>
      <trkpt lat="48.74443" lon="2.23044">
        <ele>71</ele>
        <time>2022-02-20T13:06:03.261Z</time>
      </trkpt>
      <trkpt lat="48.74438" lon="2.23049">
        <ele>71</ele>
        <time>2022-02-20T13:06:08.258Z</time>
      </trkpt>
      <trkpt lat="48.74434" lon="2.23052">
        <ele>71</ele>
        <time>2022-02-20T13:06:12.283Z</time>
      </trkpt>
      <trkpt lat="48.7443" lon="2.23057">
        <ele>71</ele>
        <time>2022-02-20T13:06:17.267Z</time>
      </trkpt>
      <trkpt lat="48.74424" lon="2.23061">
        <ele>71</ele>
        <time>2022-02-20T13:06:22.250Z</time>
      </trkpt>
      <trkpt lat="48.7442" lon="2.23057">
        <ele>71</ele>
        <time>2022-02-20T13:06:34.263Z</time>
      </trkpt>
      <trkpt lat="48.74419" lon="2.23056">
        <ele>71</ele>
        <time>2022-02-20T13:06:39.250Z</time>
      </trkpt>
      <trkpt lat="48.74415" lon="2.23056">
        <ele>71</ele>
        <time>2022-02-20T13:06:43.260Z</time>
      </trkpt>
      <trkpt lat="48.74412" lon="2.23051">
        <ele>71</ele>
        <time>2022-02-20T13:06:48.250Z</time>
      </trkpt>
      <trkpt lat="48.74412" lon="2.23046">
        <ele>71</ele>
        <time>2022-02-20T13:06:52.259Z</time>
      </trkpt>
      <trkpt lat="48.74406" lon="2.23046">
        <ele>71</ele>
        <time>2022-02-20T13:06:56.257Z</time>
      </trkpt>
      <trkpt lat="48.74399" lon="2.23049">
        <ele>70</ele>
        <time>2022-02-20T13:07:01.263Z</time>
      </trkpt>
      <trkpt lat="48.74392" lon="2.2305">
        <ele>70</ele>
        <time>2022-02-20T13:07:06.252Z</time>
      </trkpt>
      <trkpt lat="48.74385" lon="2.23051">
        <ele>70</ele>
        <time>2022-02-20T13:07:10.267Z</time>
      </trkpt>
      <trkpt lat="48.74379" lon="2.23052">
        <ele>70</ele>
        <time>2022-02-20T13:07:14.275Z</time>
      </trkpt>
      <trkpt lat="48.74372" lon="2.23048">
        <ele>70</ele>
        <time>2022-02-20T13:07:19.273Z</time>
      </trkpt>
      <trkpt lat="48.74365" lon="2.23044">
        <ele>70</ele>
        <time>2022-02-20T13:07:24.273Z</time>
      </trkpt>
      <trkpt lat="48.74358" lon="2.23042">
        <ele>70</ele>
        <time>2022-02-20T13:07:29.263Z</time>
      </trkpt>
      <trkpt lat="48.74351" lon="2.23043">
        <ele>70</ele>
        <time>2022-02-20T13:07:34.262Z</time>
      </trkpt>
      <trkpt lat="48.74346" lon="2.23044">
        <ele>69</ele>
        <time>2022-02-20T13:07:38.266Z</time>
      </trkpt>
      <trkpt lat="48.74341" lon="2.23045">
        <ele>69</ele>
        <time>2022-02-20T13:07:43.266Z</time>
      </trkpt>
      <trkpt lat="48.74335" lon="2.23047">
        <ele>69</ele>
        <time>2022-02-20T13:07:48.267Z</time>
      </trkpt>
      <trkpt lat="48.7433" lon="2.23047">
        <ele>69</ele>
        <time>2022-02-20T13:07:52.262Z</time>
      </trkpt>
      <trkpt lat="48.74323" lon="2.23048">
        <ele>69</ele>
        <time>2022-02-20T13:07:57.262Z</time>
      </trkpt>
      <trkpt lat="48.74316" lon="2.2305">
        <ele>68</ele>
        <time>2022-02-20T13:08:02.252Z</time>
      </trkpt>
      <trkpt lat="48.74309" lon="2.23052">
        <ele>68</ele>
        <time>2022-02-20T13:08:07.258Z</time>
      </trkpt>
      <trkpt lat="48.74303" lon="2.23053">
        <ele>68</ele>
        <time>2022-02-20T13:08:12.260Z</time>
      </trkpt>
      <trkpt lat="48.74296" lon="2.23054">
        <ele>68</ele>
        <time>2022-02-20T13:08:17.256Z</time>
      </trkpt>
      <trkpt lat="48.74289" lon="2.23056">
        <ele>68</ele>
        <time>2022-02-20T13:08:22.280Z</time>
      </trkpt>
      <trkpt lat="48.74282" lon="2.23056">
        <ele>68</ele>
        <time>2022-02-20T13:08:27.264Z</time>
      </trkpt>
      <trkpt lat="48.74277" lon="2.23058">
        <ele>68</ele>
        <time>2022-02-20T13:08:32.266Z</time>
      </trkpt>
      <trkpt lat="48.74271" lon="2.23061">
        <ele>68</ele>
        <time>2022-02-20T13:08:37.264Z</time>
      </trkpt>
      <trkpt lat="48.74267" lon="2.23066">
        <ele>68</ele>
        <time>2022-02-20T13:08:41.276Z</time>
      </trkpt>
      <trkpt lat="48.74261" lon="2.23071">
        <ele>70</ele>
        <time>2022-02-20T13:08:46.271Z</time>
      </trkpt>
      <trkpt lat="48.74256" lon="2.23076">
        <ele>70</ele>
        <time>2022-02-20T13:08:51.264Z</time>
      </trkpt>
      <trkpt lat="48.74252" lon="2.23081">
        <ele>70</ele>
        <time>2022-02-20T13:08:56.269Z</time>
      </trkpt>
      <trkpt lat="48.74246" lon="2.23086">
        <ele>70</ele>
        <time>2022-02-20T13:09:01.246Z</time>
      </trkpt>
      <trkpt lat="48.7424" lon="2.23086">
        <ele>70</ele>
        <time>2022-02-20T13:09:05.258Z</time>
      </trkpt>
      <trkpt lat="48.74234" lon="2.23084">
        <ele>70</ele>
        <time>2022-02-20T13:09:10.258Z</time>
      </trkpt>
      <trkpt lat="48.74229" lon="2.23081">
        <ele>70</ele>
        <time>2022-02-20T13:09:14.269Z</time>
      </trkpt>
      <trkpt lat="48.74224" lon="2.2308">
        <ele>70</ele>
        <time>2022-02-20T13:09:18.268Z</time>
      </trkpt>
      <trkpt lat="48.74218" lon="2.2308">
        <ele>70</ele>
        <time>2022-02-20T13:09:23.262Z</time>
      </trkpt>
      <trkpt lat="48.74211" lon="2.23083">
        <ele>70</ele>
        <time>2022-02-20T13:09:28.264Z</time>
      </trkpt>
      <trkpt lat="48.74208" lon="2.2309">
        <ele>69</ele>
        <time>2022-02-20T13:09:32.264Z</time>
      </trkpt>
      <trkpt lat="48.74205" lon="2.23099">
        <ele>71</ele>
        <time>2022-02-20T13:09:37.268Z</time>
      </trkpt>
      <trkpt lat="48.74203" lon="2.23107">
        <ele>71</ele>
        <time>2022-02-20T13:09:42.270Z</time>
      </trkpt>
      <trkpt lat="48.74197" lon="2.2311">
        <ele>71</ele>
        <time>2022-02-20T13:09:47.265Z</time>
      </trkpt>
      <trkpt lat="48.74192" lon="2.2311">
        <ele>71</ele>
        <time>2022-02-20T13:09:51.270Z</time>
      </trkpt>
      <trkpt lat="48.74186" lon="2.23113">
        <ele>71</ele>
        <time>2022-02-20T13:09:56.264Z</time>
      </trkpt>
      <trkpt lat="48.7418" lon="2.23118">
        <ele>71</ele>
        <time>2022-02-20T13:10:01.265Z</time>
      </trkpt>
      <trkpt lat="48.74176" lon="2.23123">
        <ele>71</ele>
        <time>2022-02-20T13:10:05.266Z</time>
      </trkpt>
      <trkpt lat="48.7417" lon="2.2312">
        <ele>71</ele>
        <time>2022-02-20T13:10:10.261Z</time>
      </trkpt>
      <trkpt lat="48.74168" lon="2.23111">
        <ele>71</ele>
        <time>2022-02-20T13:10:15.265Z</time>
      </trkpt>
      <trkpt lat="48.74171" lon="2.23105">
        <ele>71</ele>
        <time>2022-02-20T13:10:19.270Z</time>
      </trkpt>
      <trkpt lat="48.74171" lon="2.23108">
        <ele>71</ele>
        <time>2022-02-20T13:11:05.270Z</time>
      </trkpt>
      <trkpt lat="48.74171" lon="2.2311">
        <ele>71</ele>
        <time>2022-02-20T13:11:10.272Z</time>
      </trkpt>
      <trkpt lat="48.74172" lon="2.23112">
        <ele>71</ele>
        <time>2022-02-20T13:11:15.249Z</time>
      </trkpt>
      <trkpt lat="48.74173" lon="2.23113">
        <ele>71</ele>
        <time>2022-02-20T13:11:19.267Z</time>
      </trkpt>
      <trkpt lat="48.74176" lon="2.23117">
        <ele>71</ele>
        <time>2022-02-20T13:11:24.262Z</time>
      </trkpt>
      <trkpt lat="48.74178" lon="2.23119">
        <ele>71</ele>
        <time>2022-02-20T13:11:28.273Z</time>
      </trkpt>
      <trkpt lat="48.74183" lon="2.23124">
        <ele>71</ele>
        <time>2022-02-20T13:11:33.265Z</time>
      </trkpt>
      <trkpt lat="48.7418" lon="2.23132">
        <ele>72</ele>
        <time>2022-02-20T13:11:38.271Z</time>
      </trkpt>
      <trkpt lat="48.74175" lon="2.23135">
        <ele>72</ele>
        <time>2022-02-20T13:11:42.261Z</time>
      </trkpt>
      <trkpt lat="48.74166" lon="2.23147">
        <ele>72</ele>
        <time>2022-02-20T13:12:33.267Z</time>
      </trkpt>
      <trkpt lat="48.74166" lon="2.23147">
        <ele>72</ele>
        <time>2022-02-20T13:12:38.259Z</time>
      </trkpt>
      <trkpt lat="48.74166" lon="2.23148">
        <ele>72</ele>
        <time>2022-02-20T13:12:42.267Z</time>
      </trkpt>
      <trkpt lat="48.74165" lon="2.23151">
        <ele>72</ele>
        <time>2022-02-20T13:12:46.271Z</time>
      </trkpt>
      <trkpt lat="48.74163" lon="2.23154">
        <ele>70</ele>
        <time>2022-02-20T13:12:50.267Z</time>
      </trkpt>
      <trkpt lat="48.74161" lon="2.23162">
        <ele>70</ele>
        <time>2022-02-20T13:12:55.260Z</time>
      </trkpt>
      <trkpt lat="48.7416" lon="2.23169">
        <ele>70</ele>
        <time>2022-02-20T13:13:00.258Z</time>
      </trkpt>
      <trkpt lat="48.74159" lon="2.23175">
        <ele>70</ele>
        <time>2022-02-20T13:13:04.262Z</time>
      </trkpt>
      <trkpt lat="48.74157" lon="2.23182">
        <ele>69</ele>
        <time>2022-02-20T13:13:09.260Z</time>
      </trkpt>
      <trkpt lat="48.74157" lon="2.23189">
        <ele>69</ele>
        <time>2022-02-20T13:13:14.260Z</time>
      </trkpt>
      <trkpt lat="48.74159" lon="2.23196">
        <ele>69</ele>
        <time>2022-02-20T13:13:18.267Z</time>
      </trkpt>
      <trkpt lat="48.74162" lon="2.23201">
        <ele>69</ele>
        <time>2022-02-20T13:13:22.271Z</time>
      </trkpt>
      <trkpt lat="48.74163" lon="2.23209">
        <ele>69</ele>
        <time>2022-02-20T13:13:27.270Z</time>
      </trkpt>
      <trkpt lat="48.74164" lon="2.23217">
        <ele>69</ele>
        <time>2022-02-20T13:13:59.267Z</time>
      </trkpt>
      <trkpt lat="48.74164" lon="2.23221">
        <ele>69</ele>
        <time>2022-02-20T13:14:04.265Z</time>
      </trkpt>
      <trkpt lat="48.74165" lon="2.23233">
        <ele>69</ele>
        <time>2022-02-20T13:14:09.266Z</time>
      </trkpt>
      <trkpt lat="48.74165" lon="2.23241">
        <ele>69</ele>
        <time>2022-02-20T13:14:14.266Z</time>
      </trkpt>
      <trkpt lat="48.74166" lon="2.23249">
        <ele>69</ele>
        <time>2022-02-20T13:14:18.275Z</time>
      </trkpt>
      <trkpt lat="48.74166" lon="2.23258">
        <ele>69</ele>
        <time>2022-02-20T13:14:23.270Z</time>
      </trkpt>
      <trkpt lat="48.74166" lon="2.23265">
        <ele>68</ele>
        <time>2022-02-20T13:14:27.272Z</time>
      </trkpt>
      <trkpt lat="48.74169" lon="2.23273">
        <ele>68</ele>
        <time>2022-02-20T13:14:32.265Z</time>
      </trkpt>
      <trkpt lat="48.7417" lon="2.23282">
        <ele>68</ele>
        <time>2022-02-20T13:14:37.261Z</time>
      </trkpt>
      <trkpt lat="48.7417" lon="2.23289">
        <ele>68</ele>
        <time>2022-02-20T13:14:41.263Z</time>
      </trkpt>
      <trkpt lat="48.74168" lon="2.233">
        <ele>69</ele>
        <time>2022-02-20T13:14:46.257Z</time>
      </trkpt>
      <trkpt lat="48.74167" lon="2.23307">
        <ele>69</ele>
        <time>2022-02-20T13:14:50.267Z</time>
      </trkpt>
      <trkpt lat="48.74166" lon="2.23316">
        <ele>69</ele>
        <time>2022-02-20T13:14:55.271Z</time>
      </trkpt>
      <trkpt lat="48.74166" lon="2.23323">
        <ele>69</ele>
        <time>2022-02-20T13:15:00.264Z</time>
      </trkpt>
      <trkpt lat="48.74166" lon="2.2333">
        <ele>69</ele>
        <time>2022-02-20T13:15:04.263Z</time>
      </trkpt>
      <trkpt lat="48.74165" lon="2.23336">
        <ele>69</ele>
        <time>2022-02-20T13:15:08.269Z</time>
      </trkpt>
      <trkpt lat="48.74165" lon="2.23344">
        <ele>69</ele>
        <time>2022-02-20T13:15:13.270Z</time>
      </trkpt>
      <trkpt lat="48.74166" lon="2.23353">
        <ele>68</ele>
        <time>2022-02-20T13:15:18.261Z</time>
      </trkpt>
      <trkpt lat="48.74167" lon="2.23361">
        <ele>68</ele>
        <time>2022-02-20T13:15:22.270Z</time>
      </trkpt>
      <trkpt lat="48.74167" lon="2.23369">
        <ele>68</ele>
        <time>2022-02-20T13:15:26.276Z</time>
      </trkpt>
      <trkpt lat="48.74165" lon="2.23379">
        <ele>67</ele>
        <time>2022-02-20T13:15:31.260Z</time>
      </trkpt>
      <trkpt lat="48.74164" lon="2.23386">
        <ele>67</ele>
        <time>2022-02-20T13:15:35.267Z</time>
      </trkpt>
      <trkpt lat="48.74162" lon="2.23394">
        <ele>67</ele>
        <time>2022-02-20T13:15:39.268Z</time>
      </trkpt>
      <trkpt lat="48.74162" lon="2.23404">
        <ele>67</ele>
        <time>2022-02-20T13:15:44.273Z</time>
      </trkpt>
      <trkpt lat="48.74163" lon="2.23414">
        <ele>67</ele>
        <time>2022-02-20T13:15:49.266Z</time>
      </trkpt>
      <trkpt lat="48.74166" lon="2.23422">
        <ele>67</ele>
        <time>2022-02-20T13:15:54.257Z</time>
      </trkpt>
      <trkpt lat="48.74168" lon="2.23431">
        <ele>67</ele>
        <time>2022-02-20T13:15:59.265Z</time>
      </trkpt>
      <trkpt lat="48.74169" lon="2.23438">
        <ele>68</ele>
        <time>2022-02-20T13:16:04.263Z</time>
      </trkpt>
      <trkpt lat="48.74167" lon="2.23446">
        <ele>68</ele>
        <time>2022-02-20T13:16:09.260Z</time>
      </trkpt>
      <trkpt lat="48.74166" lon="2.23454">
        <ele>68</ele>
        <time>2022-02-20T13:16:14.265Z</time>
      </trkpt>
      <trkpt lat="48.74165" lon="2.23462">
        <ele>70</ele>
        <time>2022-02-20T13:16:19.272Z</time>
      </trkpt>
      <trkpt lat="48.74164" lon="2.23472">
        <ele>70</ele>
        <time>2022-02-20T13:16:24.270Z</time>
      </trkpt>
      <trkpt lat="48.74163" lon="2.23481">
        <ele>70</ele>
        <time>2022-02-20T13:16:29.258Z</time>
      </trkpt>
      <trkpt lat="48.74162" lon="2.23489">
        <ele>70</ele>
        <time>2022-02-20T13:16:33.260Z</time>
      </trkpt>
      <trkpt lat="48.7416" lon="2.23499">
        <ele>70</ele>
        <time>2022-02-20T13:16:38.262Z</time>
      </trkpt>
      <trkpt lat="48.74158" lon="2.23509">
        <ele>70</ele>
        <time>2022-02-20T13:16:43.272Z</time>
      </trkpt>
      <trkpt lat="48.74157" lon="2.23519">
        <ele>69</ele>
        <time>2022-02-20T13:16:48.276Z</time>
      </trkpt>
      <trkpt lat="48.74156" lon="2.23529">
        <ele>69</ele>
        <time>2022-02-20T13:16:53.268Z</time>
      </trkpt>
      <trkpt lat="48.74154" lon="2.23536">
        <ele>69</ele>
        <time>2022-02-20T13:16:57.271Z</time>
      </trkpt>
      <trkpt lat="48.7415" lon="2.23545">
        <ele>65</ele>
        <time>2022-02-20T13:17:02.276Z</time>
      </trkpt>
      <trkpt lat="48.74147" lon="2.23553">
        <ele>65</ele>
        <time>2022-02-20T13:17:06.283Z</time>
      </trkpt>
      <trkpt lat="48.74144" lon="2.23561">
        <ele>65</ele>
        <time>2022-02-20T13:17:11.265Z</time>
      </trkpt>
      <trkpt lat="48.74142" lon="2.23568">
        <ele>65</ele>
        <time>2022-02-20T13:17:15.264Z</time>
      </trkpt>
      <trkpt lat="48.7414" lon="2.23576">
        <ele>66</ele>
        <time>2022-02-20T13:17:20.263Z</time>
      </trkpt>
      <trkpt lat="48.74136" lon="2.23583">
        <ele>66</ele>
        <time>2022-02-20T13:17:25.264Z</time>
      </trkpt>
      <trkpt lat="48.74131" lon="2.2359">
        <ele>66</ele>
        <time>2022-02-20T13:17:30.269Z</time>
      </trkpt>
      <trkpt lat="48.74126" lon="2.23597">
        <ele>66</ele>
        <time>2022-02-20T13:17:35.267Z</time>
      </trkpt>
      <trkpt lat="48.74123" lon="2.23602">
        <ele>66</ele>
        <time>2022-02-20T13:17:39.272Z</time>
      </trkpt>
      <trkpt lat="48.74119" lon="2.23612">
        <ele>66</ele>
        <time>2022-02-20T13:17:44.261Z</time>
      </trkpt>
      <trkpt lat="48.74116" lon="2.2362">
        <ele>66</ele>
        <time>2022-02-20T13:17:49.271Z</time>
      </trkpt>
      <trkpt lat="48.74114" lon="2.23628">
        <ele>67</ele>
        <time>2022-02-20T13:17:54.268Z</time>
      </trkpt>
      <trkpt lat="48.7411" lon="2.23636">
        <ele>67</ele>
        <time>2022-02-20T13:17:59.264Z</time>
      </trkpt>
      <trkpt lat="48.74107" lon="2.23641">
        <ele>67</ele>
        <time>2022-02-20T13:18:03.271Z</time>
      </trkpt>
      <trkpt lat="48.74105" lon="2.23647">
        <ele>67</ele>
        <time>2022-02-20T13:18:08.270Z</time>
      </trkpt>
      <trkpt lat="48.74108" lon="2.23652">
        <ele>67</ele>
        <time>2022-02-20T13:18:13.263Z</time>
      </trkpt>
      <trkpt lat="48.74111" lon="2.23656">
        <ele>70</ele>
        <time>2022-02-20T13:18:17.272Z</time>
      </trkpt>
      <trkpt lat="48.74115" lon="2.23663">
        <ele>70</ele>
        <time>2022-02-20T13:18:22.264Z</time>
      </trkpt>
      <trkpt lat="48.74119" lon="2.23668">
        <ele>70</ele>
        <time>2022-02-20T13:18:27.265Z</time>
      </trkpt>
      <trkpt lat="48.74122" lon="2.23672">
        <ele>70</ele>
        <time>2022-02-20T13:18:32.260Z</time>
      </trkpt>
      <trkpt lat="48.74125" lon="2.23674">
        <ele>73</ele>
        <time>2022-02-20T13:18:36.266Z</time>
      </trkpt>
      <trkpt lat="48.7413" lon="2.23676">
        <ele>73</ele>
        <time>2022-02-20T13:18:41.263Z</time>
      </trkpt>
      <trkpt lat="48.74133" lon="2.23677">
        <ele>73</ele>
        <time>2022-02-20T13:18:45.259Z</time>
      </trkpt>
      <trkpt lat="48.74136" lon="2.23678">
        <ele>73</ele>
        <time>2022-02-20T13:18:49.267Z</time>
      </trkpt>
      <trkpt lat="48.7414" lon="2.2368">
        <ele>73</ele>
        <time>2022-02-20T13:18:54.263Z</time>
      </trkpt>
      <trkpt lat="48.74145" lon="2.23682">
        <ele>76</ele>
        <time>2022-02-20T13:18:59.260Z</time>
      </trkpt>
      <trkpt lat="48.74149" lon="2.23684">
        <ele>76</ele>
        <time>2022-02-20T13:19:04.266Z</time>
      </trkpt>
      <trkpt lat="48.74154" lon="2.23685">
        <ele>81</ele>
        <time>2022-02-20T13:19:09.261Z</time>
      </trkpt>
      <trkpt lat="48.74157" lon="2.23686">
        <ele>81</ele>
        <time>2022-02-20T13:19:13.263Z</time>
      </trkpt>
      <trkpt lat="48.74163" lon="2.23688">
        <ele>81</ele>
        <time>2022-02-20T13:19:18.261Z</time>
      </trkpt>
      <trkpt lat="48.74169" lon="2.2369">
        <ele>81</ele>
        <time>2022-02-20T13:19:23.264Z</time>
      </trkpt>
      <trkpt lat="48.74176" lon="2.23688">
        <ele>81</ele>
        <time>2022-02-20T13:19:28.262Z</time>
      </trkpt>
      <trkpt lat="48.7418" lon="2.2369">
        <ele>81</ele>
        <time>2022-02-20T13:19:33.259Z</time>
      </trkpt>
      <trkpt lat="48.74184" lon="2.23693">
        <ele>87</ele>
        <time>2022-02-20T13:19:37.261Z</time>
      </trkpt>
      <trkpt lat="48.74188" lon="2.23696">
        <ele>87</ele>
        <time>2022-02-20T13:19:41.269Z</time>
      </trkpt>
      <trkpt lat="48.74191" lon="2.23701">
        <ele>87</ele>
        <time>2022-02-20T13:19:45.266Z</time>
      </trkpt>
      <trkpt lat="48.7419" lon="2.23707">
        <ele>87</ele>
        <time>2022-02-20T13:19:49.266Z</time>
      </trkpt>
      <trkpt lat="48.74189" lon="2.23713">
        <ele>90</ele>
        <time>2022-02-20T13:19:54.259Z</time>
      </trkpt>
      <trkpt lat="48.74188" lon="2.23718">
        <ele>90</ele>
        <time>2022-02-20T13:19:58.262Z</time>
      </trkpt>
      <trkpt lat="48.74187" lon="2.23724">
        <ele>90</ele>
        <time>2022-02-20T13:20:03.265Z</time>
      </trkpt>
      <trkpt lat="48.74186" lon="2.23729">
        <ele>90</ele>
        <time>2022-02-20T13:20:07.279Z</time>
      </trkpt>
      <trkpt lat="48.74186" lon="2.23734">
        <ele>90</ele>
        <time>2022-02-20T13:20:12.267Z</time>
      </trkpt>
      <trkpt lat="48.74186" lon="2.23739">
        <ele>93</ele>
        <time>2022-02-20T13:20:16.272Z</time>
      </trkpt>
      <trkpt lat="48.7419" lon="2.2374">
        <ele>93</ele>
        <time>2022-02-20T13:20:21.271Z</time>
      </trkpt>
      <trkpt lat="48.74195" lon="2.23738">
        <ele>93</ele>
        <time>2022-02-20T13:20:26.259Z</time>
      </trkpt>
      <trkpt lat="48.74199" lon="2.23735">
        <ele>90</ele>
        <time>2022-02-20T13:20:30.267Z</time>
      </trkpt>
      <trkpt lat="48.74203" lon="2.23735">
        <ele>90</ele>
        <time>2022-02-20T13:20:35.267Z</time>
      </trkpt>
      <trkpt lat="48.74209" lon="2.23735">
        <ele>98</ele>
        <time>2022-02-20T13:20:40.272Z</time>
      </trkpt>
      <trkpt lat="48.74215" lon="2.23735">
        <ele>98</ele>
        <time>2022-02-20T13:20:45.267Z</time>
      </trkpt>
      <trkpt lat="48.74218" lon="2.23736">
        <ele>98</ele>
        <time>2022-02-20T13:20:49.266Z</time>
      </trkpt>
      <trkpt lat="48.74222" lon="2.23735">
        <ele>98</ele>
        <time>2022-02-20T13:20:53.281Z</time>
      </trkpt>
      <trkpt lat="48.74226" lon="2.23735">
        <ele>98</ele>
        <time>2022-02-20T13:20:58.264Z</time>
      </trkpt>
      <trkpt lat="48.7423" lon="2.23734">
        <ele>98</ele>
        <time>2022-02-20T13:21:03.260Z</time>
      </trkpt>
      <trkpt lat="48.74234" lon="2.23733">
        <ele>98</ele>
        <time>2022-02-20T13:21:08.265Z</time>
      </trkpt>
      <trkpt lat="48.74238" lon="2.23734">
        <ele>102</ele>
        <time>2022-02-20T13:21:13.275Z</time>
      </trkpt>
      <trkpt lat="48.74243" lon="2.23736">
        <ele>102</ele>
        <time>2022-02-20T13:21:18.266Z</time>
      </trkpt>
      <trkpt lat="48.74246" lon="2.23735">
        <ele>102</ele>
        <time>2022-02-20T13:21:23.269Z</time>
      </trkpt>
      <trkpt lat="48.7425" lon="2.23737">
        <ele>104</ele>
        <time>2022-02-20T13:21:28.266Z</time>
      </trkpt>
      <trkpt lat="48.74253" lon="2.2374">
        <ele>104</ele>
        <time>2022-02-20T13:21:33.277Z</time>
      </trkpt>
      <trkpt lat="48.74257" lon="2.23743">
        <ele>104</ele>
        <time>2022-02-20T13:21:38.268Z</time>
      </trkpt>
      <trkpt lat="48.74262" lon="2.23743">
        <ele>104</ele>
        <time>2022-02-20T13:21:43.251Z</time>
      </trkpt>
      <trkpt lat="48.74265" lon="2.23743">
        <ele>111</ele>
        <time>2022-02-20T13:21:47.270Z</time>
      </trkpt>
      <trkpt lat="48.74268" lon="2.23745">
        <ele>111</ele>
        <time>2022-02-20T13:21:52.271Z</time>
      </trkpt>
      <trkpt lat="48.74272" lon="2.23746">
        <ele>111</ele>
        <time>2022-02-20T13:21:57.270Z</time>
      </trkpt>
      <trkpt lat="48.74275" lon="2.23747">
        <ele>111</ele>
        <time>2022-02-20T13:22:02.265Z</time>
      </trkpt>
      <trkpt lat="48.74279" lon="2.23748">
        <ele>111</ele>
        <time>2022-02-20T13:22:07.252Z</time>
      </trkpt>
      <trkpt lat="48.74283" lon="2.23749">
        <ele>111</ele>
        <time>2022-02-20T13:22:12.263Z</time>
      </trkpt>
      <trkpt lat="48.74285" lon="2.23752">
        <ele>111</ele>
        <time>2022-02-20T13:22:16.271Z</time>
      </trkpt>
      <trkpt lat="48.74288" lon="2.23755">
        <ele>111</ele>
        <time>2022-02-20T13:22:20.273Z</time>
      </trkpt>
      <trkpt lat="48.74293" lon="2.23757">
        <ele>118</ele>
        <time>2022-02-20T13:22:25.264Z</time>
      </trkpt>
      <trkpt lat="48.74298" lon="2.23758">
        <ele>118</ele>
        <time>2022-02-20T13:22:30.266Z</time>
      </trkpt>
      <trkpt lat="48.74303" lon="2.23759">
        <ele>118</ele>
        <time>2022-02-20T13:22:34.275Z</time>
      </trkpt>
      <trkpt lat="48.74308" lon="2.2376">
        <ele>118</ele>
        <time>2022-02-20T13:22:39.268Z</time>
      </trkpt>
      <trkpt lat="48.74312" lon="2.23762">
        <ele>118</ele>
        <time>2022-02-20T13:22:43.282Z</time>
      </trkpt>
      <trkpt lat="48.74317" lon="2.23765">
        <ele>121</ele>
        <time>2022-02-20T13:22:48.269Z</time>
      </trkpt>
      <trkpt lat="48.74322" lon="2.23767">
        <ele>126</ele>
        <time>2022-02-20T13:22:53.276Z</time>
      </trkpt>
      <trkpt lat="48.74327" lon="2.23769">
        <ele>126</ele>
        <time>2022-02-20T13:22:58.272Z</time>
      </trkpt>
      <trkpt lat="48.74331" lon="2.23768">
        <ele>126</ele>
        <time>2022-02-20T13:23:03.267Z</time>
      </trkpt>
      <trkpt lat="48.74333" lon="2.2377">
        <ele>126</ele>
        <time>2022-02-20T13:23:08.268Z</time>
      </trkpt>
      <trkpt lat="48.74336" lon="2.23773">
        <ele>126</ele>
        <time>2022-02-20T13:23:13.272Z</time>
      </trkpt>
      <trkpt lat="48.74339" lon="2.23775">
        <ele>126</ele>
        <time>2022-02-20T13:23:17.270Z</time>
      </trkpt>
      <trkpt lat="48.74343" lon="2.23778">
        <ele>126</ele>
        <time>2022-02-20T13:23:22.271Z</time>
      </trkpt>
      <trkpt lat="48.74348" lon="2.23778">
        <ele>131</ele>
        <time>2022-02-20T13:23:27.272Z</time>
      </trkpt>
      <trkpt lat="48.74351" lon="2.23779">
        <ele>131</ele>
        <time>2022-02-20T13:23:31.282Z</time>
      </trkpt>
      <trkpt lat="48.74356" lon="2.2378">
        <ele>131</ele>
        <time>2022-02-20T13:23:36.266Z</time>
      </trkpt>
      <trkpt lat="48.74359" lon="2.2378">
        <ele>131</ele>
        <time>2022-02-20T13:23:40.267Z</time>
      </trkpt>
      <trkpt lat="48.74363" lon="2.23782">
        <ele>131</ele>
        <time>2022-02-20T13:23:45.268Z</time>
      </trkpt>
      <trkpt lat="48.74367" lon="2.23783">
        <ele>131</ele>
        <time>2022-02-20T13:23:49.279Z</time>
      </trkpt>
      <trkpt lat="48.74371" lon="2.23784">
        <ele>131</ele>
        <time>2022-02-20T13:23:54.269Z</time>
      </trkpt>
      <trkpt lat="48.74374" lon="2.23788">
        <ele>131</ele>
        <time>2022-02-20T13:23:59.274Z</time>
      </trkpt>
      <trkpt lat="48.74378" lon="2.2379">
        <ele>134</ele>
        <time>2022-02-20T13:24:04.280Z</time>
      </trkpt>
      <trkpt lat="48.74383" lon="2.2379">
        <ele>134</ele>
        <time>2022-02-20T13:24:09.266Z</time>
      </trkpt>
      <trkpt lat="48.74388" lon="2.2379">
        <ele>134</ele>
        <time>2022-02-20T13:24:14.272Z</time>
      </trkpt>
      <trkpt lat="48.74391" lon="2.23791">
        <ele>134</ele>
        <time>2022-02-20T13:24:18.280Z</time>
      </trkpt>
      <trkpt lat="48.74396" lon="2.23792">
        <ele>137</ele>
        <time>2022-02-20T13:24:23.255Z</time>
      </trkpt>
      <trkpt lat="48.74398" lon="2.23792">
        <ele>137</ele>
        <time>2022-02-20T13:24:27.272Z</time>
      </trkpt>
      <trkpt lat="48.74402" lon="2.23795">
        <ele>137</ele>
        <time>2022-02-20T13:24:32.265Z</time>
      </trkpt>
      <trkpt lat="48.74404" lon="2.23796">
        <ele>141</ele>
        <time>2022-02-20T13:24:36.273Z</time>
      </trkpt>
      <trkpt lat="48.74413" lon="2.23796">
        <ele>141</ele>
        <time>2022-02-20T13:25:36.264Z</time>
      </trkpt>
      <trkpt lat="48.74413" lon="2.23796">
        <ele>141</ele>
        <time>2022-02-20T13:25:40.265Z</time>
      </trkpt>
      <trkpt lat="48.74413" lon="2.23796">
        <ele>141</ele>
        <time>2022-02-20T13:25:45.257Z</time>
      </trkpt>
      <trkpt lat="48.74415" lon="2.23797">
        <ele>141</ele>
        <time>2022-02-20T13:25:49.270Z</time>
      </trkpt>
      <trkpt lat="48.74416" lon="2.23795">
        <ele>141</ele>
        <time>2022-02-20T13:25:54.281Z</time>
      </trkpt>
      <trkpt lat="48.74418" lon="2.23791">
        <ele>139</ele>
        <time>2022-02-20T13:33:03.270Z</time>
      </trkpt>
      <trkpt lat="48.7442" lon="2.23791">
        <ele>139</ele>
        <time>2022-02-20T13:33:07.268Z</time>
      </trkpt>
      <trkpt lat="48.74422" lon="2.23788">
        <ele>139</ele>
        <time>2022-02-20T13:33:11.270Z</time>
      </trkpt>
      <trkpt lat="48.74427" lon="2.23788">
        <ele>139</ele>
        <time>2022-02-20T13:33:16.273Z</time>
      </trkpt>
      <trkpt lat="48.74431" lon="2.2379">
        <ele>144</ele>
        <time>2022-02-20T13:33:21.273Z</time>
      </trkpt>
      <trkpt lat="48.74436" lon="2.23793">
        <ele>146</ele>
        <time>2022-02-20T13:33:26.279Z</time>
      </trkpt>
      <trkpt lat="48.74441" lon="2.23795">
        <ele>146</ele>
        <time>2022-02-20T13:33:31.268Z</time>
      </trkpt>
      <trkpt lat="48.74445" lon="2.23797">
        <ele>146</ele>
        <time>2022-02-20T13:33:35.275Z</time>
      </trkpt>
      <trkpt lat="48.7445" lon="2.23801">
        <ele>146</ele>
        <time>2022-02-20T13:33:40.271Z</time>
      </trkpt>
      <trkpt lat="48.74455" lon="2.23804">
        <ele>146</ele>
        <time>2022-02-20T13:33:45.263Z</time>
      </trkpt>
      <trkpt lat="48.7446" lon="2.23805">
        <ele>150</ele>
        <time>2022-02-20T13:33:49.272Z</time>
      </trkpt>
      <trkpt lat="48.74465" lon="2.23808">
        <ele>150</ele>
        <time>2022-02-20T13:33:54.267Z</time>
      </trkpt>
      <trkpt lat="48.74469" lon="2.23808">
        <ele>150</ele>
        <time>2022-02-20T13:33:58.277Z</time>
      </trkpt>
      <trkpt lat="48.74475" lon="2.2381">
        <ele>150</ele>
        <time>2022-02-20T13:34:03.273Z</time>
      </trkpt>
      <trkpt lat="48.74481" lon="2.23812">
        <ele>150</ele>
        <time>2022-02-20T13:34:08.269Z</time>
      </trkpt>
      <trkpt lat="48.74486" lon="2.23814">
        <ele>150</ele>
        <time>2022-02-20T13:34:13.267Z</time>
      </trkpt>
      <trkpt lat="48.7449" lon="2.23816">
        <ele>150</ele>
        <time>2022-02-20T13:34:17.267Z</time>
      </trkpt>
      <trkpt lat="48.74495" lon="2.23818">
        <ele>150</ele>
        <time>2022-02-20T13:34:22.266Z</time>
      </trkpt>
      <trkpt lat="48.74501" lon="2.2382">
        <ele>150</ele>
        <time>2022-02-20T13:34:27.276Z</time>
      </trkpt>
      <trkpt lat="48.74505" lon="2.23821">
        <ele>150</ele>
        <time>2022-02-20T13:34:31.273Z</time>
      </trkpt>
      <trkpt lat="48.74511" lon="2.23824">
        <ele>150</ele>
        <time>2022-02-20T13:34:36.265Z</time>
      </trkpt>
      <trkpt lat="48.74515" lon="2.23826">
        <ele>150</ele>
        <time>2022-02-20T13:34:41.271Z</time>
      </trkpt>
      <trkpt lat="48.74521" lon="2.23829">
        <ele>150</ele>
        <time>2022-02-20T13:34:46.264Z</time>
      </trkpt>
      <trkpt lat="48.74527" lon="2.23831">
        <ele>150</ele>
        <time>2022-02-20T13:34:51.260Z</time>
      </trkpt>
      <trkpt lat="48.74533" lon="2.23832">
        <ele>150</ele>
        <time>2022-02-20T13:34:56.262Z</time>
      </trkpt>
      <trkpt lat="48.74538" lon="2.23835">
        <ele>150</ele>
        <time>2022-02-20T13:35:00.269Z</time>
      </trkpt>
      <trkpt lat="48.74544" lon="2.23838">
        <ele>153</ele>
        <time>2022-02-20T13:35:05.266Z</time>
      </trkpt>
      <trkpt lat="48.74551" lon="2.2384">
        <ele>153</ele>
        <time>2022-02-20T13:35:10.273Z</time>
      </trkpt>
      <trkpt lat="48.74557" lon="2.23842">
        <ele>153</ele>
        <time>2022-02-20T13:35:15.274Z</time>
      </trkpt>
      <trkpt lat="48.74562" lon="2.23845">
        <ele>153</ele>
        <time>2022-02-20T13:35:20.269Z</time>
      </trkpt>
      <trkpt lat="48.74569" lon="2.23847">
        <ele>152</ele>
        <time>2022-02-20T13:35:25.264Z</time>
      </trkpt>
      <trkpt lat="48.74575" lon="2.2385">
        <ele>156</ele>
        <time>2022-02-20T13:35:30.269Z</time>
      </trkpt>
      <trkpt lat="48.74582" lon="2.23854">
        <ele>156</ele>
        <time>2022-02-20T13:35:35.265Z</time>
      </trkpt>
      <trkpt lat="48.74587" lon="2.23856">
        <ele>156</ele>
        <time>2022-02-20T13:35:39.272Z</time>
      </trkpt>
      <trkpt lat="48.74592" lon="2.23858">
        <ele>156</ele>
        <time>2022-02-20T13:35:43.279Z</time>
      </trkpt>
      <trkpt lat="48.74596" lon="2.23859">
        <ele>156</ele>
        <time>2022-02-20T13:35:47.274Z</time>
      </trkpt>
      <trkpt lat="48.74602" lon="2.23863">
        <ele>160</ele>
        <time>2022-02-20T13:35:52.272Z</time>
      </trkpt>
      <trkpt lat="48.74606" lon="2.23865">
        <ele>160</ele>
        <time>2022-02-20T13:35:57.271Z</time>
      </trkpt>
      <trkpt lat="48.74612" lon="2.23867">
        <ele>160</ele>
        <time>2022-02-20T13:36:02.267Z</time>
      </trkpt>
      <trkpt lat="48.74617" lon="2.23867">
        <ele>160</ele>
        <time>2022-02-20T13:36:07.265Z</time>
      </trkpt>
      <trkpt lat="48.74622" lon="2.23867">
        <ele>160</ele>
        <time>2022-02-20T13:36:11.270Z</time>
      </trkpt>
      <trkpt lat="48.74627" lon="2.23869">
        <ele>163</ele>
        <time>2022-02-20T13:36:16.268Z</time>
      </trkpt>
      <trkpt lat="48.74631" lon="2.23873">
        <ele>163</ele>
        <time>2022-02-20T13:36:21.263Z</time>
      </trkpt>
      <trkpt lat="48.74636" lon="2.23876">
        <ele>162</ele>
        <time>2022-02-20T13:36:26.268Z</time>
      </trkpt>
      <trkpt lat="48.74642" lon="2.23878">
        <ele>162</ele>
        <time>2022-02-20T13:36:31.268Z</time>
      </trkpt>
      <trkpt lat="48.74649" lon="2.2388">
        <ele>162</ele>
        <time>2022-02-20T13:36:36.273Z</time>
      </trkpt>
      <trkpt lat="48.74655" lon="2.23883">
        <ele>163</ele>
        <time>2022-02-20T13:36:41.271Z</time>
      </trkpt>
      <trkpt lat="48.74661" lon="2.23885">
        <ele>163</ele>
        <time>2022-02-20T13:36:45.271Z</time>
      </trkpt>
      <trkpt lat="48.74666" lon="2.23887">
        <ele>163</ele>
        <time>2022-02-20T13:36:49.269Z</time>
      </trkpt>
      <trkpt lat="48.74671" lon="2.23889">
        <ele>163</ele>
        <time>2022-02-20T13:36:54.275Z</time>
      </trkpt>
      <trkpt lat="48.74676" lon="2.23892">
        <ele>163</ele>
        <time>2022-02-20T13:36:59.267Z</time>
      </trkpt>
      <trkpt lat="48.74681" lon="2.23894">
        <ele>162</ele>
        <time>2022-02-20T13:37:03.269Z</time>
      </trkpt>
      <trkpt lat="48.74686" lon="2.23895">
        <ele>162</ele>
        <time>2022-02-20T13:37:08.269Z</time>
      </trkpt>
      <trkpt lat="48.74693" lon="2.23897">
        <ele>162</ele>
        <time>2022-02-20T13:37:13.267Z</time>
      </trkpt>
      <trkpt lat="48.74699" lon="2.239">
        <ele>162</ele>
        <time>2022-02-20T13:37:18.267Z</time>
      </trkpt>
      <trkpt lat="48.74705" lon="2.23902">
        <ele>162</ele>
        <time>2022-02-20T13:37:22.278Z</time>
      </trkpt>
      <trkpt lat="48.74708" lon="2.23906">
        <ele>161</ele>
        <time>2022-02-20T13:37:27.263Z</time>
      </trkpt>
      <trkpt lat="48.74713" lon="2.23912">
        <ele>161</ele>
        <time>2022-02-20T13:37:32.275Z</time>
      </trkpt>
      <trkpt lat="48.74715" lon="2.23921">
        <ele>161</ele>
        <time>2022-02-20T13:37:37.270Z</time>
      </trkpt>
      <trkpt lat="48.74712" lon="2.23929">
        <ele>161</ele>
        <time>2022-02-20T13:37:42.269Z</time>
      </trkpt>
      <trkpt lat="48.7471" lon="2.23936">
        <ele>160</ele>
        <time>2022-02-20T13:37:46.275Z</time>
      </trkpt>
      <trkpt lat="48.74706" lon="2.23943">
        <ele>160</ele>
        <time>2022-02-20T13:37:51.268Z</time>
      </trkpt>
      <trkpt lat="48.74703" lon="2.23948">
        <ele>160</ele>
        <time>2022-02-20T13:37:55.266Z</time>
      </trkpt>
      <trkpt lat="48.747" lon="2.23954">
        <ele>160</ele>
        <time>2022-02-20T13:37:59.273Z</time>
      </trkpt>
      <trkpt lat="48.74696" lon="2.23961">
        <ele>159</ele>
        <time>2022-02-20T13:38:04.267Z</time>
      </trkpt>
      <trkpt lat="48.74692" lon="2.23967">
        <ele>159</ele>
        <time>2022-02-20T13:38:08.270Z</time>
      </trkpt>
      <trkpt lat="48.74688" lon="2.23974">
        <ele>159</ele>
        <time>2022-02-20T13:38:13.274Z</time>
      </trkpt>
      <trkpt lat="48.74683" lon="2.23982">
        <ele>159</ele>
        <time>2022-02-20T13:38:18.270Z</time>
      </trkpt>
      <trkpt lat="48.74678" lon="2.23989">
        <ele>157</ele>
        <time>2022-02-20T13:38:23.265Z</time>
      </trkpt>
      <trkpt lat="48.74675" lon="2.23995">
        <ele>157</ele>
        <time>2022-02-20T13:38:27.274Z</time>
      </trkpt>
      <trkpt lat="48.74671" lon="2.24001">
        <ele>157</ele>
        <time>2022-02-20T13:38:31.282Z</time>
      </trkpt>
      <trkpt lat="48.74666" lon="2.24008">
        <ele>157</ele>
        <time>2022-02-20T13:38:36.268Z</time>
      </trkpt>
      <trkpt lat="48.74661" lon="2.24015">
        <ele>159</ele>
        <time>2022-02-20T13:38:41.282Z</time>
      </trkpt>
      <trkpt lat="48.74658" lon="2.24024">
        <ele>159</ele>
        <time>2022-02-20T13:38:46.272Z</time>
      </trkpt>
      <trkpt lat="48.74657" lon="2.24034">
        <ele>159</ele>
        <time>2022-02-20T13:38:51.264Z</time>
      </trkpt>
      <trkpt lat="48.74658" lon="2.24041">
        <ele>159</ele>
        <time>2022-02-20T13:38:55.271Z</time>
      </trkpt>
      <trkpt lat="48.74659" lon="2.24048">
        <ele>160</ele>
        <time>2022-02-20T13:38:59.273Z</time>
      </trkpt>
      <trkpt lat="48.7466" lon="2.24057">
        <ele>160</ele>
        <time>2022-02-20T13:39:04.274Z</time>
      </trkpt>
      <trkpt lat="48.74661" lon="2.24067">
        <ele>160</ele>
        <time>2022-02-20T13:39:09.264Z</time>
      </trkpt>
      <trkpt lat="48.74662" lon="2.24075">
        <ele>159</ele>
        <time>2022-02-20T13:39:13.276Z</time>
      </trkpt>
      <trkpt lat="48.74663" lon="2.24082">
        <ele>159</ele>
        <time>2022-02-20T13:39:17.273Z</time>
      </trkpt>
      <trkpt lat="48.74664" lon="2.2409">
        <ele>159</ele>
        <time>2022-02-20T13:39:21.413Z</time>
      </trkpt>
      <trkpt lat="48.74666" lon="2.24099">
        <ele>158</ele>
        <time>2022-02-20T13:39:26.269Z</time>
      </trkpt>
      <trkpt lat="48.74667" lon="2.24109">
        <ele>158</ele>
        <time>2022-02-20T13:39:31.268Z</time>
      </trkpt>
      <trkpt lat="48.74668" lon="2.24118">
        <ele>158</ele>
        <time>2022-02-20T13:39:36.267Z</time>
      </trkpt>
      <trkpt lat="48.74668" lon="2.24128">
        <ele>158</ele>
        <time>2022-02-20T13:39:41.275Z</time>
      </trkpt>
      <trkpt lat="48.74669" lon="2.24137">
        <ele>158</ele>
        <time>2022-02-20T13:39:46.257Z</time>
      </trkpt>
      <trkpt lat="48.7467" lon="2.24146">
        <ele>158</ele>
        <time>2022-02-20T13:39:51.258Z</time>
      </trkpt>
      <trkpt lat="48.7467" lon="2.24155">
        <ele>158</ele>
        <time>2022-02-20T13:39:55.275Z</time>
      </trkpt>
      <trkpt lat="48.74671" lon="2.24164">
        <ele>158</ele>
        <time>2022-02-20T13:40:00.263Z</time>
      </trkpt>
      <trkpt lat="48.74672" lon="2.2417">
        <ele>158</ele>
        <time>2022-02-20T13:40:04.276Z</time>
      </trkpt>
      <trkpt lat="48.74673" lon="2.24178">
        <ele>158</ele>
        <time>2022-02-20T13:40:09.266Z</time>
      </trkpt>
      <trkpt lat="48.74674" lon="2.24184">
        <ele>158</ele>
        <time>2022-02-20T13:40:13.273Z</time>
      </trkpt>
      <trkpt lat="48.74674" lon="2.24192">
        <ele>158</ele>
        <time>2022-02-20T13:40:18.269Z</time>
      </trkpt>
      <trkpt lat="48.74675" lon="2.24201">
        <ele>158</ele>
        <time>2022-02-20T13:40:23.271Z</time>
      </trkpt>
      <trkpt lat="48.74675" lon="2.2421">
        <ele>159</ele>
        <time>2022-02-20T13:40:28.268Z</time>
      </trkpt>
      <trkpt lat="48.74676" lon="2.24217">
        <ele>159</ele>
        <time>2022-02-20T13:40:32.271Z</time>
      </trkpt>
      <trkpt lat="48.74676" lon="2.24224">
        <ele>159</ele>
        <time>2022-02-20T13:40:36.280Z</time>
      </trkpt>
      <trkpt lat="48.74677" lon="2.24234">
        <ele>159</ele>
        <time>2022-02-20T13:40:41.269Z</time>
      </trkpt>
      <trkpt lat="48.74678" lon="2.24241">
        <ele>159</ele>
        <time>2022-02-20T13:40:45.274Z</time>
      </trkpt>
      <trkpt lat="48.74679" lon="2.24251">
        <ele>159</ele>
        <time>2022-02-20T13:40:50.270Z</time>
      </trkpt>
      <trkpt lat="48.7468" lon="2.24261">
        <ele>159</ele>
        <time>2022-02-20T13:40:55.279Z</time>
      </trkpt>
      <trkpt lat="48.7468" lon="2.2427">
        <ele>158</ele>
        <time>2022-02-20T13:41:00.266Z</time>
      </trkpt>
      <trkpt lat="48.74681" lon="2.24279">
        <ele>160</ele>
        <time>2022-02-20T13:41:05.265Z</time>
      </trkpt>
      <trkpt lat="48.74682" lon="2.24287">
        <ele>160</ele>
        <time>2022-02-20T13:41:09.277Z</time>
      </trkpt>
      <trkpt lat="48.74683" lon="2.24297">
        <ele>160</ele>
        <time>2022-02-20T13:41:14.259Z</time>
      </trkpt>
      <trkpt lat="48.74683" lon="2.24304">
        <ele>160</ele>
        <time>2022-02-20T13:41:18.267Z</time>
      </trkpt>
      <trkpt lat="48.74683" lon="2.24314">
        <ele>160</ele>
        <time>2022-02-20T13:41:23.266Z</time>
      </trkpt>
      <trkpt lat="48.74683" lon="2.24323">
        <ele>160</ele>
        <time>2022-02-20T13:41:28.257Z</time>
      </trkpt>
      <trkpt lat="48.74683" lon="2.2433">
        <ele>160</ele>
        <time>2022-02-20T13:41:32.266Z</time>
      </trkpt>
      <trkpt lat="48.74684" lon="2.24339">
        <ele>160</ele>
        <time>2022-02-20T13:41:37.269Z</time>
      </trkpt>
      <trkpt lat="48.74685" lon="2.24348">
        <ele>160</ele>
        <time>2022-02-20T13:41:42.267Z</time>
      </trkpt>
      <trkpt lat="48.74686" lon="2.24358">
        <ele>160</ele>
        <time>2022-02-20T13:41:47.265Z</time>
      </trkpt>
      <trkpt lat="48.74686" lon="2.24366">
        <ele>160</ele>
        <time>2022-02-20T13:41:51.268Z</time>
      </trkpt>
      <trkpt lat="48.74687" lon="2.24376">
        <ele>160</ele>
        <time>2022-02-20T13:41:56.268Z</time>
      </trkpt>
      <trkpt lat="48.74688" lon="2.24385">
        <ele>160</ele>
        <time>2022-02-20T13:42:01.265Z</time>
      </trkpt>
      <trkpt lat="48.74689" lon="2.24392">
        <ele>160</ele>
        <time>2022-02-20T13:42:05.272Z</time>
      </trkpt>
      <trkpt lat="48.74689" lon="2.24401">
        <ele>160</ele>
        <time>2022-02-20T13:42:10.281Z</time>
      </trkpt>
      <trkpt lat="48.7469" lon="2.2441">
        <ele>160</ele>
        <time>2022-02-20T13:42:15.291Z</time>
      </trkpt>
      <trkpt lat="48.74691" lon="2.2442">
        <ele>160</ele>
        <time>2022-02-20T13:42:20.270Z</time>
      </trkpt>
      <trkpt lat="48.74692" lon="2.24427">
        <ele>160</ele>
        <time>2022-02-20T13:42:24.273Z</time>
      </trkpt>
      <trkpt lat="48.74692" lon="2.24437">
        <ele>161</ele>
        <time>2022-02-20T13:42:29.278Z</time>
      </trkpt>
      <trkpt lat="48.74694" lon="2.24445">
        <ele>161</ele>
        <time>2022-02-20T13:42:34.279Z</time>
      </trkpt>
      <trkpt lat="48.74696" lon="2.24455">
        <ele>161</ele>
        <time>2022-02-20T13:42:39.275Z</time>
      </trkpt>
      <trkpt lat="48.74697" lon="2.24465">
        <ele>161</ele>
        <time>2022-02-20T13:42:44.265Z</time>
      </trkpt>
      <trkpt lat="48.74699" lon="2.24474">
        <ele>161</ele>
        <time>2022-02-20T13:42:48.265Z</time>
      </trkpt>
      <trkpt lat="48.74701" lon="2.24482">
        <ele>161</ele>
        <time>2022-02-20T13:42:53.276Z</time>
      </trkpt>
      <trkpt lat="48.74704" lon="2.2449">
        <ele>162</ele>
        <time>2022-02-20T13:42:58.270Z</time>
      </trkpt>
      <trkpt lat="48.74707" lon="2.24498">
        <ele>162</ele>
        <time>2022-02-20T13:43:03.274Z</time>
      </trkpt>
      <trkpt lat="48.74709" lon="2.24507">
        <ele>162</ele>
        <time>2022-02-20T13:43:08.274Z</time>
      </trkpt>
      <trkpt lat="48.74711" lon="2.24513">
        <ele>162</ele>
        <time>2022-02-20T13:43:12.275Z</time>
      </trkpt>
      <trkpt lat="48.74714" lon="2.24518">
        <ele>161</ele>
        <time>2022-02-20T13:43:17.256Z</time>
      </trkpt>
      <trkpt lat="48.74716" lon="2.24518">
        <ele>161</ele>
        <time>2022-02-20T13:43:22.257Z</time>
      </trkpt>
      <trkpt lat="48.74717" lon="2.24514">
        <ele>162</ele>
        <time>2022-02-20T13:45:45.266Z</time>
      </trkpt>
      <trkpt lat="48.74719" lon="2.24515">
        <ele>161</ele>
        <time>2022-02-20T13:45:49.268Z</time>
      </trkpt>
      <trkpt lat="48.74723" lon="2.24516">
        <ele>161</ele>
        <time>2022-02-20T13:45:53.270Z</time>
      </trkpt>
      <trkpt lat="48.74727" lon="2.24518">
        <ele>161</ele>
        <time>2022-02-20T13:45:58.262Z</time>
      </trkpt>
      <trkpt lat="48.74732" lon="2.24518">
        <ele>161</ele>
        <time>2022-02-20T13:46:02.268Z</time>
      </trkpt>
      <trkpt lat="48.74737" lon="2.24518">
        <ele>162</ele>
        <time>2022-02-20T13:46:07.261Z</time>
      </trkpt>
      <trkpt lat="48.74741" lon="2.24519">
        <ele>162</ele>
        <time>2022-02-20T13:46:11.267Z</time>
      </trkpt>
      <trkpt lat="48.74745" lon="2.24519">
        <ele>162</ele>
        <time>2022-02-20T13:46:16.257Z</time>
      </trkpt>
      <trkpt lat="48.7475" lon="2.24519">
        <ele>162</ele>
        <time>2022-02-20T13:46:20.270Z</time>
      </trkpt>
      <trkpt lat="48.74757" lon="2.24521">
        <ele>162</ele>
        <time>2022-02-20T13:46:25.264Z</time>
      </trkpt>
      <trkpt lat="48.74762" lon="2.24524">
        <ele>162</ele>
        <time>2022-02-20T13:46:30.266Z</time>
      </trkpt>
      <trkpt lat="48.74769" lon="2.24525">
        <ele>164</ele>
        <time>2022-02-20T13:46:35.260Z</time>
      </trkpt>
      <trkpt lat="48.74774" lon="2.24524">
        <ele>164</ele>
        <time>2022-02-20T13:46:39.267Z</time>
      </trkpt>
      <trkpt lat="48.74778" lon="2.24525">
        <ele>164</ele>
        <time>2022-02-20T13:46:43.269Z</time>
      </trkpt>
      <trkpt lat="48.74784" lon="2.24526">
        <ele>164</ele>
        <time>2022-02-20T13:46:48.270Z</time>
      </trkpt>
      <trkpt lat="48.7479" lon="2.24528">
        <ele>164</ele>
        <time>2022-02-20T13:46:53.272Z</time>
      </trkpt>
      <trkpt lat="48.74796" lon="2.24528">
        <ele>165</ele>
        <time>2022-02-20T13:46:58.265Z</time>
      </trkpt>
      <trkpt lat="48.74802" lon="2.24529">
        <ele>165</ele>
        <time>2022-02-20T13:47:03.258Z</time>
      </trkpt>
      <trkpt lat="48.74807" lon="2.24529">
        <ele>165</ele>
        <time>2022-02-20T13:47:07.256Z</time>
      </trkpt>
      <trkpt lat="48.74812" lon="2.24531">
        <ele>165</ele>
        <time>2022-02-20T13:47:11.262Z</time>
      </trkpt>
      <trkpt lat="48.74817" lon="2.24533">
        <ele>165</ele>
        <time>2022-02-20T13:47:15.258Z</time>
      </trkpt>
      <trkpt lat="48.74822" lon="2.24534">
        <ele>166</ele>
        <time>2022-02-20T13:47:19.265Z</time>
      </trkpt>
      <trkpt lat="48.74828" lon="2.24535">
        <ele>166</ele>
        <time>2022-02-20T13:47:24.269Z</time>
      </trkpt>
      <trkpt lat="48.74834" lon="2.24538">
        <ele>166</ele>
        <time>2022-02-20T13:47:29.268Z</time>
      </trkpt>
      <trkpt lat="48.7484" lon="2.2454">
        <ele>166</ele>
        <time>2022-02-20T13:47:34.259Z</time>
      </trkpt>
      <trkpt lat="48.74845" lon="2.24542">
        <ele>167</ele>
        <time>2022-02-20T13:47:38.268Z</time>
      </trkpt>
      <trkpt lat="48.74851" lon="2.24545">
        <ele>169</ele>
        <time>2022-02-20T13:47:43.259Z</time>
      </trkpt>
      <trkpt lat="48.74855" lon="2.24546">
        <ele>169</ele>
        <time>2022-02-20T13:47:47.258Z</time>
      </trkpt>
      <trkpt lat="48.74859" lon="2.24546">
        <ele>169</ele>
        <time>2022-02-20T13:47:51.269Z</time>
      </trkpt>
      <trkpt lat="48.74866" lon="2.24547">
        <ele>169</ele>
        <time>2022-02-20T13:47:56.260Z</time>
      </trkpt>
      <trkpt lat="48.74871" lon="2.24549">
        <ele>169</ele>
        <time>2022-02-20T13:48:00.271Z</time>
      </trkpt>
      <trkpt lat="48.74877" lon="2.2455">
        <ele>170</ele>
        <time>2022-02-20T13:48:05.266Z</time>
      </trkpt>
      <trkpt lat="48.74883" lon="2.24551">
        <ele>170</ele>
        <time>2022-02-20T13:48:10.267Z</time>
      </trkpt>
      <trkpt lat="48.74888" lon="2.2455">
        <ele>170</ele>
        <time>2022-02-20T13:48:15.270Z</time>
      </trkpt>
      <trkpt lat="48.74894" lon="2.24551">
        <ele>170</ele>
        <time>2022-02-20T13:48:20.264Z</time>
      </trkpt>
      <trkpt lat="48.74899" lon="2.24551">
        <ele>170</ele>
        <time>2022-02-20T13:48:24.267Z</time>
      </trkpt>
      <trkpt lat="48.74904" lon="2.24551">
        <ele>171</ele>
        <time>2022-02-20T13:48:29.273Z</time>
      </trkpt>
      <trkpt lat="48.74909" lon="2.24553">
        <ele>171</ele>
        <time>2022-02-20T13:48:34.258Z</time>
      </trkpt>
      <trkpt lat="48.74912" lon="2.24557">
        <ele>171</ele>
        <time>2022-02-20T13:48:38.261Z</time>
      </trkpt>
      <trkpt lat="48.74916" lon="2.24563">
        <ele>171</ele>
        <time>2022-02-20T13:48:43.268Z</time>
      </trkpt>
      <trkpt lat="48.74921" lon="2.24569">
        <ele>171</ele>
        <time>2022-02-20T13:48:48.263Z</time>
      </trkpt>
      <trkpt lat="48.74926" lon="2.24575">
        <ele>169</ele>
        <time>2022-02-20T13:48:52.273Z</time>
      </trkpt>
      <trkpt lat="48.74931" lon="2.24584">
        <ele>170</ele>
        <time>2022-02-20T13:48:57.266Z</time>
      </trkpt>
      <trkpt lat="48.74937" lon="2.2459">
        <ele>170</ele>
        <time>2022-02-20T13:49:02.268Z</time>
      </trkpt>
      <trkpt lat="48.74941" lon="2.24597">
        <ele>170</ele>
        <time>2022-02-20T13:49:07.263Z</time>
      </trkpt>
      <trkpt lat="48.74947" lon="2.24602">
        <ele>169</ele>
        <time>2022-02-20T13:49:12.269Z</time>
      </trkpt>
      <trkpt lat="48.74951" lon="2.24607">
        <ele>169</ele>
        <time>2022-02-20T13:49:16.272Z</time>
      </trkpt>
      <trkpt lat="48.74955" lon="2.24612">
        <ele>169</ele>
        <time>2022-02-20T13:49:20.274Z</time>
      </trkpt>
      <trkpt lat="48.74961" lon="2.24617">
        <ele>172</ele>
        <time>2022-02-20T13:49:25.268Z</time>
      </trkpt>
      <trkpt lat="48.74965" lon="2.24621">
        <ele>172</ele>
        <time>2022-02-20T13:49:29.275Z</time>
      </trkpt>
      <trkpt lat="48.7497" lon="2.24626">
        <ele>171</ele>
        <time>2022-02-20T13:49:34.276Z</time>
      </trkpt>
      <trkpt lat="48.74975" lon="2.24632">
        <ele>171</ele>
        <time>2022-02-20T13:49:39.272Z</time>
      </trkpt>
      <trkpt lat="48.7498" lon="2.24638">
        <ele>171</ele>
        <time>2022-02-20T13:49:44.265Z</time>
      </trkpt>
      <trkpt lat="48.74985" lon="2.24643">
        <ele>171</ele>
        <time>2022-02-20T13:49:49.257Z</time>
      </trkpt>
      <trkpt lat="48.7499" lon="2.2465">
        <ele>172</ele>
        <time>2022-02-20T13:49:54.260Z</time>
      </trkpt>
      <trkpt lat="48.74995" lon="2.24656">
        <ele>172</ele>
        <time>2022-02-20T13:49:59.260Z</time>
      </trkpt>
      <trkpt lat="48.74998" lon="2.24662">
        <ele>172</ele>
        <time>2022-02-20T13:50:03.263Z</time>
      </trkpt>
      <trkpt lat="48.75002" lon="2.24668">
        <ele>172</ele>
        <time>2022-02-20T13:50:07.264Z</time>
      </trkpt>
      <trkpt lat="48.75006" lon="2.24674">
        <ele>172</ele>
        <time>2022-02-20T13:50:11.265Z</time>
      </trkpt>
      <trkpt lat="48.75009" lon="2.24678">
        <ele>172</ele>
        <time>2022-02-20T13:50:16.258Z</time>
      </trkpt>
      <trkpt lat="48.75012" lon="2.24684">
        <ele>173</ele>
        <time>2022-02-20T13:50:20.260Z</time>
      </trkpt>
      <trkpt lat="48.75017" lon="2.24693">
        <ele>175</ele>
        <time>2022-02-20T13:50:25.259Z</time>
      </trkpt>
      <trkpt lat="48.75022" lon="2.24703">
        <ele>175</ele>
        <time>2022-02-20T13:50:30.257Z</time>
      </trkpt>
      <trkpt lat="48.75025" lon="2.24713">
        <ele>175</ele>
        <time>2022-02-20T13:50:35.253Z</time>
      </trkpt>
      <trkpt lat="48.75027" lon="2.24719">
        <ele>175</ele>
        <time>2022-02-20T13:50:39.256Z</time>
      </trkpt>
      <trkpt lat="48.75031" lon="2.24728">
        <ele>175</ele>
        <time>2022-02-20T13:50:44.259Z</time>
      </trkpt>
      <trkpt lat="48.75035" lon="2.24736">
        <ele>175</ele>
        <time>2022-02-20T13:50:49.258Z</time>
      </trkpt>
      <trkpt lat="48.75038" lon="2.24744">
        <ele>175</ele>
        <time>2022-02-20T13:50:53.272Z</time>
      </trkpt>
      <trkpt lat="48.75041" lon="2.24753">
        <ele>175</ele>
        <time>2022-02-20T13:50:58.259Z</time>
      </trkpt>
      <trkpt lat="48.75043" lon="2.24759">
        <ele>174</ele>
        <time>2022-02-20T13:51:02.268Z</time>
      </trkpt>
      <trkpt lat="48.75045" lon="2.24765">
        <ele>172</ele>
        <time>2022-02-20T13:51:06.277Z</time>
      </trkpt>
      <trkpt lat="48.75048" lon="2.24774">
        <ele>172</ele>
        <time>2022-02-20T13:51:11.266Z</time>
      </trkpt>
      <trkpt lat="48.75051" lon="2.24782">
        <ele>172</ele>
        <time>2022-02-20T13:51:16.263Z</time>
      </trkpt>
      <trkpt lat="48.75053" lon="2.24789">
        <ele>172</ele>
        <time>2022-02-20T13:51:20.274Z</time>
      </trkpt>
      <trkpt lat="48.75056" lon="2.24795">
        <ele>172</ele>
        <time>2022-02-20T13:51:24.273Z</time>
      </trkpt>
      <trkpt lat="48.75059" lon="2.24801">
        <ele>172</ele>
        <time>2022-02-20T13:51:29.272Z</time>
      </trkpt>
      <trkpt lat="48.75062" lon="2.24811">
        <ele>172</ele>
        <time>2022-02-20T13:51:34.267Z</time>
      </trkpt>
      <trkpt lat="48.75064" lon="2.24819">
        <ele>172</ele>
        <time>2022-02-20T13:51:39.261Z</time>
      </trkpt>
      <trkpt lat="48.75067" lon="2.24827">
        <ele>171</ele>
        <time>2022-02-20T13:51:44.267Z</time>
      </trkpt>
      <trkpt lat="48.75071" lon="2.24834">
        <ele>172</ele>
        <time>2022-02-20T13:51:49.274Z</time>
      </trkpt>
      <trkpt lat="48.75074" lon="2.24842">
        <ele>172</ele>
        <time>2022-02-20T13:51:54.264Z</time>
      </trkpt>
      <trkpt lat="48.75076" lon="2.24849">
        <ele>171</ele>
        <time>2022-02-20T13:51:58.272Z</time>
      </trkpt>
      <trkpt lat="48.7508" lon="2.24856">
        <ele>171</ele>
        <time>2022-02-20T13:52:03.260Z</time>
      </trkpt>
      <trkpt lat="48.75083" lon="2.24865">
        <ele>171</ele>
        <time>2022-02-20T13:52:08.266Z</time>
      </trkpt>
      <trkpt lat="48.75085" lon="2.24873">
        <ele>171</ele>
        <time>2022-02-20T13:52:13.274Z</time>
      </trkpt>
      <trkpt lat="48.75089" lon="2.2488">
        <ele>171</ele>
        <time>2022-02-20T13:52:18.270Z</time>
      </trkpt>
      <trkpt lat="48.75093" lon="2.24887">
        <ele>171</ele>
        <time>2022-02-20T13:52:23.267Z</time>
      </trkpt>
      <trkpt lat="48.75095" lon="2.24896">
        <ele>171</ele>
        <time>2022-02-20T13:52:28.264Z</time>
      </trkpt>
      <trkpt lat="48.75098" lon="2.24905">
        <ele>171</ele>
        <time>2022-02-20T13:52:33.270Z</time>
      </trkpt>
      <trkpt lat="48.75101" lon="2.24913">
        <ele>171</ele>
        <time>2022-02-20T13:52:38.254Z</time>
      </trkpt>
      <trkpt lat="48.75104" lon="2.24918">
        <ele>171</ele>
        <time>2022-02-20T13:52:42.268Z</time>
      </trkpt>
      <trkpt lat="48.75108" lon="2.24924">
        <ele>171</ele>
        <time>2022-02-20T13:52:47.264Z</time>
      </trkpt>
      <trkpt lat="48.7511" lon="2.24929">
        <ele>171</ele>
        <time>2022-02-20T13:52:51.261Z</time>
      </trkpt>
      <trkpt lat="48.75112" lon="2.24935">
        <ele>172</ele>
        <time>2022-02-20T13:52:55.272Z</time>
      </trkpt>
      <trkpt lat="48.75115" lon="2.24943">
        <ele>172</ele>
        <time>2022-02-20T13:53:00.256Z</time>
      </trkpt>
      <trkpt lat="48.7512" lon="2.24947">
        <ele>172</ele>
        <time>2022-02-20T13:53:04.272Z</time>
      </trkpt>
      <trkpt lat="48.75124" lon="2.24954">
        <ele>172</ele>
        <time>2022-02-20T13:53:09.267Z</time>
      </trkpt>
      <trkpt lat="48.75128" lon="2.24961">
        <ele>171</ele>
        <time>2022-02-20T13:53:14.262Z</time>
      </trkpt>
      <trkpt lat="48.75131" lon="2.24969">
        <ele>171</ele>
        <time>2022-02-20T13:53:19.264Z</time>
      </trkpt>
      <trkpt lat="48.75136" lon="2.24976">
        <ele>171</ele>
        <time>2022-02-20T13:53:24.274Z</time>
      </trkpt>
      <trkpt lat="48.75138" lon="2.24985">
        <ele>171</ele>
        <time>2022-02-20T13:53:29.260Z</time>
      </trkpt>
      <trkpt lat="48.7514" lon="2.2499">
        <ele>171</ele>
        <time>2022-02-20T13:53:33.275Z</time>
      </trkpt>
      <trkpt lat="48.75139" lon="2.24998">
        <ele>171</ele>
        <time>2022-02-20T13:53:38.271Z</time>
      </trkpt>
      <trkpt lat="48.75141" lon="2.25002">
        <ele>171</ele>
        <time>2022-02-20T13:53:43.270Z</time>
      </trkpt>
      <trkpt lat="48.75146" lon="2.25003">
        <ele>171</ele>
        <time>2022-02-20T13:53:48.270Z</time>
      </trkpt>
      <trkpt lat="48.7515" lon="2.25007">
        <ele>171</ele>
        <time>2022-02-20T13:53:53.272Z</time>
      </trkpt>
      <trkpt lat="48.75152" lon="2.25012">
        <ele>171</ele>
        <time>2022-02-20T13:53:57.277Z</time>
      </trkpt>
      <trkpt lat="48.75156" lon="2.25017">
        <ele>171</ele>
        <time>2022-02-20T13:54:02.260Z</time>
      </trkpt>
      <trkpt lat="48.7516" lon="2.25023">
        <ele>171</ele>
        <time>2022-02-20T13:54:07.270Z</time>
      </trkpt>
      <trkpt lat="48.75163" lon="2.2503">
        <ele>171</ele>
        <time>2022-02-20T13:54:12.260Z</time>
      </trkpt>
      <trkpt lat="48.75166" lon="2.25036">
        <ele>171</ele>
        <time>2022-02-20T13:54:16.264Z</time>
      </trkpt>
      <trkpt lat="48.75171" lon="2.25044">
        <ele>171</ele>
        <time>2022-02-20T13:54:21.269Z</time>
      </trkpt>
      <trkpt lat="48.75175" lon="2.25051">
        <ele>171</ele>
        <time>2022-02-20T13:54:26.273Z</time>
      </trkpt>
      <trkpt lat="48.75179" lon="2.25058">
        <ele>171</ele>
        <time>2022-02-20T13:54:31.277Z</time>
      </trkpt>
      <trkpt lat="48.75183" lon="2.25066">
        <ele>173</ele>
        <time>2022-02-20T13:54:36.272Z</time>
      </trkpt>
      <trkpt lat="48.75187" lon="2.25074">
        <ele>172</ele>
        <time>2022-02-20T13:54:41.269Z</time>
      </trkpt>
      <trkpt lat="48.75191" lon="2.25082">
        <ele>172</ele>
        <time>2022-02-20T13:54:46.260Z</time>
      </trkpt>
      <trkpt lat="48.75195" lon="2.2509">
        <ele>172</ele>
        <time>2022-02-20T13:54:51.270Z</time>
      </trkpt>
      <trkpt lat="48.75198" lon="2.25099">
        <ele>170</ele>
        <time>2022-02-20T13:54:56.273Z</time>
      </trkpt>
      <trkpt lat="48.75202" lon="2.25107">
        <ele>170</ele>
        <time>2022-02-20T13:55:01.273Z</time>
      </trkpt>
      <trkpt lat="48.75204" lon="2.25115">
        <ele>170</ele>
        <time>2022-02-20T13:55:05.279Z</time>
      </trkpt>
      <trkpt lat="48.75209" lon="2.25124">
        <ele>171</ele>
        <time>2022-02-20T13:55:10.265Z</time>
      </trkpt>
      <trkpt lat="48.75212" lon="2.25131">
        <ele>169</ele>
        <time>2022-02-20T13:55:14.265Z</time>
      </trkpt>
      <trkpt lat="48.75215" lon="2.25137">
        <ele>169</ele>
        <time>2022-02-20T13:55:18.264Z</time>
      </trkpt>
      <trkpt lat="48.75217" lon="2.25145">
        <ele>169</ele>
        <time>2022-02-20T13:55:23.267Z</time>
      </trkpt>
      <trkpt lat="48.75219" lon="2.25155">
        <ele>168</ele>
        <time>2022-02-20T13:55:28.257Z</time>
      </trkpt>
      <trkpt lat="48.7522" lon="2.25162">
        <ele>168</ele>
        <time>2022-02-20T13:55:32.254Z</time>
      </trkpt>
      <trkpt lat="48.75221" lon="2.25171">
        <ele>168</ele>
        <time>2022-02-20T13:55:36.261Z</time>
      </trkpt>
      <trkpt lat="48.75223" lon="2.25179">
        <ele>168</ele>
        <time>2022-02-20T13:55:40.271Z</time>
      </trkpt>
      <trkpt lat="48.75225" lon="2.25189">
        <ele>169</ele>
        <time>2022-02-20T13:55:45.264Z</time>
      </trkpt>
      <trkpt lat="48.75226" lon="2.25195">
        <ele>169</ele>
        <time>2022-02-20T13:55:49.267Z</time>
      </trkpt>
      <trkpt lat="48.75228" lon="2.25204">
        <ele>169</ele>
        <time>2022-02-20T13:55:54.269Z</time>
      </trkpt>
      <trkpt lat="48.75229" lon="2.25213">
        <ele>169</ele>
        <time>2022-02-20T13:55:59.276Z</time>
      </trkpt>
      <trkpt lat="48.75229" lon="2.25222">
        <ele>169</ele>
        <time>2022-02-20T13:56:04.264Z</time>
      </trkpt>
      <trkpt lat="48.75229" lon="2.25228">
        <ele>169</ele>
        <time>2022-02-20T13:56:08.267Z</time>
      </trkpt>
      <trkpt lat="48.75229" lon="2.25236">
        <ele>169</ele>
        <time>2022-02-20T13:56:13.263Z</time>
      </trkpt>
      <trkpt lat="48.7523" lon="2.25244">
        <ele>169</ele>
        <time>2022-02-20T13:56:17.271Z</time>
      </trkpt>
      <trkpt lat="48.75231" lon="2.25252">
        <ele>169</ele>
        <time>2022-02-20T13:56:21.273Z</time>
      </trkpt>
      <trkpt lat="48.75231" lon="2.25262">
        <ele>169</ele>
        <time>2022-02-20T13:56:26.270Z</time>
      </trkpt>
      <trkpt lat="48.75232" lon="2.25271">
        <ele>168</ele>
        <time>2022-02-20T13:56:31.272Z</time>
      </trkpt>
      <trkpt lat="48.75234" lon="2.25281">
        <ele>168</ele>
        <time>2022-02-20T13:56:36.270Z</time>
      </trkpt>
      <trkpt lat="48.75234" lon="2.25289">
        <ele>168</ele>
        <time>2022-02-20T13:56:40.270Z</time>
      </trkpt>
      <trkpt lat="48.75235" lon="2.25299">
        <ele>168</ele>
        <time>2022-02-20T13:56:45.267Z</time>
      </trkpt>
      <trkpt lat="48.75236" lon="2.25307">
        <ele>168</ele>
        <time>2022-02-20T13:56:49.276Z</time>
      </trkpt>
      <trkpt lat="48.75237" lon="2.25318">
        <ele>166</ele>
        <time>2022-02-20T13:56:54.275Z</time>
      </trkpt>
      <trkpt lat="48.75238" lon="2.25327">
        <ele>167</ele>
        <time>2022-02-20T13:56:59.266Z</time>
      </trkpt>
      <trkpt lat="48.75238" lon="2.25337">
        <ele>167</ele>
        <time>2022-02-20T13:57:04.258Z</time>
      </trkpt>
      <trkpt lat="48.75238" lon="2.25344">
        <ele>167</ele>
        <time>2022-02-20T13:57:08.260Z</time>
      </trkpt>
      <trkpt lat="48.75239" lon="2.25352">
        <ele>167</ele>
        <time>2022-02-20T13:57:12.268Z</time>
      </trkpt>
      <trkpt lat="48.75239" lon="2.25361">
        <ele>167</ele>
        <time>2022-02-20T13:57:17.267Z</time>
      </trkpt>
      <trkpt lat="48.75241" lon="2.2537">
        <ele>167</ele>
        <time>2022-02-20T13:57:22.271Z</time>
      </trkpt>
      <trkpt lat="48.75242" lon="2.25379">
        <ele>167</ele>
        <time>2022-02-20T13:57:27.268Z</time>
      </trkpt>
      <trkpt lat="48.75242" lon="2.25389">
        <ele>167</ele>
        <time>2022-02-20T13:57:32.271Z</time>
      </trkpt>
      <trkpt lat="48.75243" lon="2.25399">
        <ele>167</ele>
        <time>2022-02-20T13:57:37.263Z</time>
      </trkpt>
      <trkpt lat="48.75243" lon="2.25407">
        <ele>166</ele>
        <time>2022-02-20T13:57:41.265Z</time>
      </trkpt>
      <trkpt lat="48.75244" lon="2.25416">
        <ele>166</ele>
        <time>2022-02-20T13:57:46.268Z</time>
      </trkpt>
      <trkpt lat="48.75246" lon="2.25426">
        <ele>166</ele>
        <time>2022-02-20T13:57:51.266Z</time>
      </trkpt>
      <trkpt lat="48.75246" lon="2.25436">
        <ele>166</ele>
        <time>2022-02-20T13:57:56.263Z</time>
      </trkpt>
      <trkpt lat="48.75246" lon="2.25444">
        <ele>166</ele>
        <time>2022-02-20T13:58:00.268Z</time>
      </trkpt>
      <trkpt lat="48.75246" lon="2.25454">
        <ele>166</ele>
        <time>2022-02-20T13:58:05.260Z</time>
      </trkpt>
      <trkpt lat="48.75248" lon="2.25464">
        <ele>167</ele>
        <time>2022-02-20T13:58:10.256Z</time>
      </trkpt>
      <trkpt lat="48.75248" lon="2.25472">
        <ele>167</ele>
        <time>2022-02-20T13:58:14.259Z</time>
      </trkpt>
      <trkpt lat="48.75248" lon="2.2548">
        <ele>167</ele>
        <time>2022-02-20T13:58:18.263Z</time>
      </trkpt>
      <trkpt lat="48.75247" lon="2.25488">
        <ele>168</ele>
        <time>2022-02-20T13:58:22.266Z</time>
      </trkpt>
      <trkpt lat="48.75248" lon="2.25497">
        <ele>168</ele>
        <time>2022-02-20T13:58:26.270Z</time>
      </trkpt>
      <trkpt lat="48.75249" lon="2.25505">
        <ele>168</ele>
        <time>2022-02-20T13:58:31.274Z</time>
      </trkpt>
      <trkpt lat="48.75248" lon="2.25512">
        <ele>168</ele>
        <time>2022-02-20T13:58:35.286Z</time>
      </trkpt>
      <trkpt lat="48.75247" lon="2.25521">
        <ele>168</ele>
        <time>2022-02-20T13:58:40.266Z</time>
      </trkpt>
      <trkpt lat="48.75247" lon="2.2553">
        <ele>168</ele>
        <time>2022-02-20T13:58:45.261Z</time>
      </trkpt>
      <trkpt lat="48.75247" lon="2.25536">
        <ele>168</ele>
        <time>2022-02-20T13:58:49.267Z</time>
      </trkpt>
      <trkpt lat="48.75246" lon="2.25542">
        <ele>168</ele>
        <time>2022-02-20T13:58:53.276Z</time>
      </trkpt>
      <trkpt lat="48.75244" lon="2.2555">
        <ele>168</ele>
        <time>2022-02-20T13:58:58.261Z</time>
      </trkpt>
      <trkpt lat="48.75244" lon="2.25555">
        <ele>168</ele>
        <time>2022-02-20T13:59:02.268Z</time>
      </trkpt>
      <trkpt lat="48.75237" lon="2.25574">
        <ele>167</ele>
        <time>2022-02-20T14:02:48.278Z</time>
      </trkpt>
      <trkpt lat="48.75237" lon="2.25574">
        <ele>167</ele>
        <time>2022-02-20T14:02:53.264Z</time>
      </trkpt>
      <trkpt lat="48.75237" lon="2.25574">
        <ele>167</ele>
        <time>2022-02-20T14:02:57.263Z</time>
      </trkpt>
      <trkpt lat="48.75237" lon="2.25574">
        <ele>167</ele>
        <time>2022-02-20T14:03:01.266Z</time>
      </trkpt>
      <trkpt lat="48.75237" lon="2.25574">
        <ele>167</ele>
        <time>2022-02-20T14:03:06.259Z</time>
      </trkpt>
      <trkpt lat="48.75236" lon="2.25574">
        <ele>167</ele>
        <time>2022-02-20T14:03:52.272Z</time>
      </trkpt>
      <trkpt lat="48.75236" lon="2.25576">
        <ele>167</ele>
        <time>2022-02-20T14:03:57.274Z</time>
      </trkpt>
      <trkpt lat="48.75236" lon="2.25582">
        <ele>162</ele>
        <time>2022-02-20T14:04:02.268Z</time>
      </trkpt>
      <trkpt lat="48.75236" lon="2.25587">
        <ele>162</ele>
        <time>2022-02-20T14:04:06.255Z</time>
      </trkpt>
      <trkpt lat="48.75239" lon="2.25591">
        <ele>167</ele>
        <time>2022-02-20T14:04:11.263Z</time>
      </trkpt>
      <trkpt lat="48.75238" lon="2.25595">
        <ele>167</ele>
        <time>2022-02-20T14:04:15.255Z</time>
      </trkpt>
      <trkpt lat="48.75235" lon="2.256">
        <ele>162</ele>
        <time>2022-02-20T14:04:20.257Z</time>
      </trkpt>
      <trkpt lat="48.75235" lon="2.25606">
        <ele>162</ele>
        <time>2022-02-20T14:04:24.253Z</time>
      </trkpt>
      <trkpt lat="48.75237" lon="2.25616">
        <ele>167</ele>
        <time>2022-02-20T14:04:29.259Z</time>
      </trkpt>
      <trkpt lat="48.75237" lon="2.25621">
        <ele>167</ele>
        <time>2022-02-20T14:04:33.260Z</time>
      </trkpt>
      <trkpt lat="48.75237" lon="2.25629">
        <ele>166</ele>
        <time>2022-02-20T14:04:38.266Z</time>
      </trkpt>
      <trkpt lat="48.75236" lon="2.25639">
        <ele>166</ele>
        <time>2022-02-20T14:04:43.257Z</time>
      </trkpt>
      <trkpt lat="48.75236" lon="2.25645">
        <ele>161</ele>
        <time>2022-02-20T14:04:47.272Z</time>
      </trkpt>
      <trkpt lat="48.75236" lon="2.25653">
        <ele>166</ele>
        <time>2022-02-20T14:04:52.267Z</time>
      </trkpt>
      <trkpt lat="48.75236" lon="2.25661">
        <ele>162</ele>
        <time>2022-02-20T14:04:57.268Z</time>
      </trkpt>
      <trkpt lat="48.75233" lon="2.25671">
        <ele>162</ele>
        <time>2022-02-20T14:05:02.258Z</time>
      </trkpt>
      <trkpt lat="48.75231" lon="2.25683">
        <ele>162</ele>
        <time>2022-02-20T14:05:07.262Z</time>
      </trkpt>
      <trkpt lat="48.75229" lon="2.25694">
        <ele>162</ele>
        <time>2022-02-20T14:05:12.255Z</time>
      </trkpt>
      <trkpt lat="48.75227" lon="2.25704">
        <ele>162</ele>
        <time>2022-02-20T14:05:16.257Z</time>
      </trkpt>
      <trkpt lat="48.75225" lon="2.25714">
        <ele>163</ele>
        <time>2022-02-20T14:05:21.273Z</time>
      </trkpt>
      <trkpt lat="48.75225" lon="2.25721">
        <ele>163</ele>
        <time>2022-02-20T14:05:26.260Z</time>
      </trkpt>
      <trkpt lat="48.75224" lon="2.25729">
        <ele>163</ele>
        <time>2022-02-20T14:05:30.269Z</time>
      </trkpt>
      <trkpt lat="48.75222" lon="2.25739">
        <ele>163</ele>
        <time>2022-02-20T14:05:34.277Z</time>
      </trkpt>
      <trkpt lat="48.75221" lon="2.25749">
        <ele>163</ele>
        <time>2022-02-20T14:05:39.265Z</time>
      </trkpt>
      <trkpt lat="48.7522" lon="2.25757">
        <ele>163</ele>
        <time>2022-02-20T14:05:43.260Z</time>
      </trkpt>
      <trkpt lat="48.75219" lon="2.25766">
        <ele>162</ele>
        <time>2022-02-20T14:05:48.269Z</time>
      </trkpt>
      <trkpt lat="48.75219" lon="2.25774">
        <ele>162</ele>
        <time>2022-02-20T14:05:53.264Z</time>
      </trkpt>
      <trkpt lat="48.75218" lon="2.25781">
        <ele>162</ele>
        <time>2022-02-20T14:05:57.270Z</time>
      </trkpt>
      <trkpt lat="48.75218" lon="2.2579">
        <ele>162</ele>
        <time>2022-02-20T14:06:02.266Z</time>
      </trkpt>
      <trkpt lat="48.75218" lon="2.25798">
        <ele>161</ele>
        <time>2022-02-20T14:06:06.277Z</time>
      </trkpt>
      <trkpt lat="48.75218" lon="2.25807">
        <ele>161</ele>
        <time>2022-02-20T14:06:11.261Z</time>
      </trkpt>
      <trkpt lat="48.75219" lon="2.25817">
        <ele>161</ele>
        <time>2022-02-20T14:06:16.266Z</time>
      </trkpt>
      <trkpt lat="48.7522" lon="2.25824">
        <ele>159</ele>
        <time>2022-02-20T14:06:20.271Z</time>
      </trkpt>
      <trkpt lat="48.75223" lon="2.25832">
        <ele>159</ele>
        <time>2022-02-20T14:06:25.257Z</time>
      </trkpt>
      <trkpt lat="48.75225" lon="2.25839">
        <ele>159</ele>
        <time>2022-02-20T14:06:29.260Z</time>
      </trkpt>
      <trkpt lat="48.75228" lon="2.25848">
        <ele>158</ele>
        <time>2022-02-20T14:06:34.262Z</time>
      </trkpt>
      <trkpt lat="48.75231" lon="2.25857">
        <ele>158</ele>
        <time>2022-02-20T14:06:39.258Z</time>
      </trkpt>
      <trkpt lat="48.75234" lon="2.25865">
        <ele>158</ele>
        <time>2022-02-20T14:06:44.260Z</time>
      </trkpt>
      <trkpt lat="48.75237" lon="2.25872">
        <ele>163</ele>
        <time>2022-02-20T14:06:48.258Z</time>
      </trkpt>
      <trkpt lat="48.7524" lon="2.25877">
        <ele>161</ele>
        <time>2022-02-20T14:06:52.260Z</time>
      </trkpt>
      <trkpt lat="48.75245" lon="2.25885">
        <ele>161</ele>
        <time>2022-02-20T14:06:57.263Z</time>
      </trkpt>
      <trkpt lat="48.75249" lon="2.25892">
        <ele>161</ele>
        <time>2022-02-20T14:07:02.261Z</time>
      </trkpt>
      <trkpt lat="48.75253" lon="2.25898">
        <ele>161</ele>
        <time>2022-02-20T14:07:07.268Z</time>
      </trkpt>
      <trkpt lat="48.75257" lon="2.25905">
        <ele>160</ele>
        <time>2022-02-20T14:07:12.259Z</time>
      </trkpt>
      <trkpt lat="48.75261" lon="2.25911">
        <ele>160</ele>
        <time>2022-02-20T14:07:17.254Z</time>
      </trkpt>
      <trkpt lat="48.75266" lon="2.25917">
        <ele>162</ele>
        <time>2022-02-20T14:07:22.352Z</time>
      </trkpt>
      <trkpt lat="48.7527" lon="2.25923">
        <ele>162</ele>
        <time>2022-02-20T14:07:27.257Z</time>
      </trkpt>
      <trkpt lat="48.75275" lon="2.25928">
        <ele>162</ele>
        <time>2022-02-20T14:07:32.261Z</time>
      </trkpt>
      <trkpt lat="48.7528" lon="2.25935">
        <ele>159</ele>
        <time>2022-02-20T14:07:37.268Z</time>
      </trkpt>
      <trkpt lat="48.75284" lon="2.25942">
        <ele>159</ele>
        <time>2022-02-20T14:07:42.257Z</time>
      </trkpt>
      <trkpt lat="48.75284" lon="2.25942">
        <ele>159</ele>
        <time>2022-02-20T14:07:46.271Z</time>
      </trkpt>
      <trkpt lat="48.75285" lon="2.25947">
        <ele>159</ele>
        <time>2022-02-20T14:07:51.258Z</time>
      </trkpt>
      <trkpt lat="48.75289" lon="2.25953">
        <ele>159</ele>
        <time>2022-02-20T14:07:56.253Z</time>
      </trkpt>
      <trkpt lat="48.75291" lon="2.2596">
        <ele>157</ele>
        <time>2022-02-20T14:08:00.261Z</time>
      </trkpt>
      <trkpt lat="48.75295" lon="2.25967">
        <ele>159</ele>
        <time>2022-02-20T14:08:05.267Z</time>
      </trkpt>
      <trkpt lat="48.75298" lon="2.25976">
        <ele>159</ele>
        <time>2022-02-20T14:08:10.265Z</time>
      </trkpt>
      <trkpt lat="48.75303" lon="2.25984">
        <ele>159</ele>
        <time>2022-02-20T14:08:15.274Z</time>
      </trkpt>
      <trkpt lat="48.75307" lon="2.25994">
        <ele>156</ele>
        <time>2022-02-20T14:08:20.260Z</time>
      </trkpt>
      <trkpt lat="48.75309" lon="2.26003">
        <ele>156</ele>
        <time>2022-02-20T14:08:25.260Z</time>
      </trkpt>
      <trkpt lat="48.75312" lon="2.2601">
        <ele>156</ele>
        <time>2022-02-20T14:08:29.268Z</time>
      </trkpt>
      <trkpt lat="48.75316" lon="2.26016">
        <ele>153</ele>
        <time>2022-02-20T14:08:34.267Z</time>
      </trkpt>
      <trkpt lat="48.75318" lon="2.26023">
        <ele>153</ele>
        <time>2022-02-20T14:08:38.265Z</time>
      </trkpt>
      <trkpt lat="48.75321" lon="2.2603">
        <ele>159</ele>
        <time>2022-02-20T14:08:42.282Z</time>
      </trkpt>
      <trkpt lat="48.75324" lon="2.26039">
        <ele>159</ele>
        <time>2022-02-20T14:08:47.253Z</time>
      </trkpt>
      <trkpt lat="48.75327" lon="2.26045">
        <ele>157</ele>
        <time>2022-02-20T14:08:51.265Z</time>
      </trkpt>
      <trkpt lat="48.75331" lon="2.26054">
        <ele>157</ele>
        <time>2022-02-20T14:08:56.275Z</time>
      </trkpt>
      <trkpt lat="48.75334" lon="2.26063">
        <ele>157</ele>
        <time>2022-02-20T14:09:01.269Z</time>
      </trkpt>
      <trkpt lat="48.75337" lon="2.26069">
        <ele>157</ele>
        <time>2022-02-20T14:09:05.279Z</time>
      </trkpt>
      <trkpt lat="48.75342" lon="2.26077">
        <ele>155</ele>
        <time>2022-02-20T14:09:10.265Z</time>
      </trkpt>
      <trkpt lat="48.75347" lon="2.26082">
        <ele>155</ele>
        <time>2022-02-20T14:09:14.275Z</time>
      </trkpt>
      <trkpt lat="48.75352" lon="2.26085">
        <ele>158</ele>
        <time>2022-02-20T14:09:18.277Z</time>
      </trkpt>
      <trkpt lat="48.75358" lon="2.26087">
        <ele>158</ele>
        <time>2022-02-20T14:09:23.275Z</time>
      </trkpt>
      <trkpt lat="48.75365" lon="2.26088">
        <ele>158</ele>
        <time>2022-02-20T14:09:28.261Z</time>
      </trkpt>
      <trkpt lat="48.75372" lon="2.26089">
        <ele>158</ele>
        <time>2022-02-20T14:09:33.289Z</time>
      </trkpt>
      <trkpt lat="48.75377" lon="2.26091">
        <ele>160</ele>
        <time>2022-02-20T14:09:38.272Z</time>
      </trkpt>
      <trkpt lat="48.75384" lon="2.26092">
        <ele>160</ele>
        <time>2022-02-20T14:09:43.257Z</time>
      </trkpt>
      <trkpt lat="48.75389" lon="2.26093">
        <ele>160</ele>
        <time>2022-02-20T14:09:47.271Z</time>
      </trkpt>
      <trkpt lat="48.75395" lon="2.26096">
        <ele>160</ele>
        <time>2022-02-20T14:09:52.265Z</time>
      </trkpt>
      <trkpt lat="48.75402" lon="2.26098">
        <ele>156</ele>
        <time>2022-02-20T14:09:57.271Z</time>
      </trkpt>
      <trkpt lat="48.75408" lon="2.26101">
        <ele>156</ele>
        <time>2022-02-20T14:10:02.269Z</time>
      </trkpt>
      <trkpt lat="48.75414" lon="2.26103">
        <ele>156</ele>
        <time>2022-02-20T14:10:07.267Z</time>
      </trkpt>
      <trkpt lat="48.75421" lon="2.26104">
        <ele>156</ele>
        <time>2022-02-20T14:10:12.262Z</time>
      </trkpt>
      <trkpt lat="48.75426" lon="2.26104">
        <ele>156</ele>
        <time>2022-02-20T14:10:16.263Z</time>
      </trkpt>
      <trkpt lat="48.75433" lon="2.26105">
        <ele>154</ele>
        <time>2022-02-20T14:10:21.277Z</time>
      </trkpt>
      <trkpt lat="48.7544" lon="2.26107">
        <ele>154</ele>
        <time>2022-02-20T14:10:26.270Z</time>
      </trkpt>
      <trkpt lat="48.75442" lon="2.26113">
        <ele>154</ele>
        <time>2022-02-20T14:10:31.269Z</time>
      </trkpt>
      <trkpt lat="48.75442" lon="2.26118">
        <ele>154</ele>
        <time>2022-02-20T14:10:35.270Z</time>
      </trkpt>
      <trkpt lat="48.75443" lon="2.26126">
        <ele>150</ele>
        <time>2022-02-20T14:10:40.276Z</time>
      </trkpt>
      <trkpt lat="48.75445" lon="2.26133">
        <ele>150</ele>
        <time>2022-02-20T14:10:45.271Z</time>
      </trkpt>
      <trkpt lat="48.75448" lon="2.26137">
        <ele>150</ele>
        <time>2022-02-20T14:10:49.277Z</time>
      </trkpt>
      <trkpt lat="48.75452" lon="2.26142">
        <ele>150</ele>
        <time>2022-02-20T14:10:54.273Z</time>
      </trkpt>
      <trkpt lat="48.75455" lon="2.26144">
        <ele>150</ele>
        <time>2022-02-20T14:10:58.274Z</time>
      </trkpt>
      <trkpt lat="48.75458" lon="2.26149">
        <ele>150</ele>
        <time>2022-02-20T14:11:03.269Z</time>
      </trkpt>
      <trkpt lat="48.75462" lon="2.26156">
        <ele>146</ele>
        <time>2022-02-20T14:11:08.266Z</time>
      </trkpt>
      <trkpt lat="48.75465" lon="2.26163">
        <ele>146</ele>
        <time>2022-02-20T14:11:13.274Z</time>
      </trkpt>
      <trkpt lat="48.75467" lon="2.26169">
        <ele>146</ele>
        <time>2022-02-20T14:11:18.255Z</time>
      </trkpt>
      <trkpt lat="48.7547" lon="2.26175">
        <ele>146</ele>
        <time>2022-02-20T14:11:22.260Z</time>
      </trkpt>
      <trkpt lat="48.75473" lon="2.2618">
        <ele>146</ele>
        <time>2022-02-20T14:11:26.267Z</time>
      </trkpt>
      <trkpt lat="48.75476" lon="2.26187">
        <ele>144</ele>
        <time>2022-02-20T14:11:31.268Z</time>
      </trkpt>
      <trkpt lat="48.75478" lon="2.26194">
        <ele>144</ele>
        <time>2022-02-20T14:11:36.272Z</time>
      </trkpt>
      <trkpt lat="48.7548" lon="2.262">
        <ele>144</ele>
        <time>2022-02-20T14:11:40.275Z</time>
      </trkpt>
      <trkpt lat="48.75483" lon="2.26206">
        <ele>144</ele>
        <time>2022-02-20T14:11:45.271Z</time>
      </trkpt>
      <trkpt lat="48.75485" lon="2.26211">
        <ele>142</ele>
        <time>2022-02-20T14:11:49.274Z</time>
      </trkpt>
      <trkpt lat="48.75489" lon="2.26219">
        <ele>138</ele>
        <time>2022-02-20T14:11:54.260Z</time>
      </trkpt>
      <trkpt lat="48.75491" lon="2.26226">
        <ele>138</ele>
        <time>2022-02-20T14:11:58.257Z</time>
      </trkpt>
      <trkpt lat="48.75494" lon="2.2623">
        <ele>138</ele>
        <time>2022-02-20T14:12:02.272Z</time>
      </trkpt>
      <trkpt lat="48.75499" lon="2.26233">
        <ele>138</ele>
        <time>2022-02-20T14:12:07.271Z</time>
      </trkpt>
      <trkpt lat="48.75503" lon="2.26238">
        <ele>137</ele>
        <time>2022-02-20T14:12:11.277Z</time>
      </trkpt>
      <trkpt lat="48.75508" lon="2.26242">
        <ele>137</ele>
        <time>2022-02-20T14:12:16.271Z</time>
      </trkpt>
      <trkpt lat="48.75511" lon="2.26246">
        <ele>137</ele>
        <time>2022-02-20T14:12:20.271Z</time>
      </trkpt>
      <trkpt lat="48.75515" lon="2.26252">
        <ele>131</ele>
        <time>2022-02-20T14:12:25.274Z</time>
      </trkpt>
      <trkpt lat="48.75519" lon="2.26254">
        <ele>131</ele>
        <time>2022-02-20T14:12:29.278Z</time>
      </trkpt>
      <trkpt lat="48.75523" lon="2.26258">
        <ele>131</ele>
        <time>2022-02-20T14:12:34.269Z</time>
      </trkpt>
      <trkpt lat="48.75529" lon="2.26259">
        <ele>131</ele>
        <time>2022-02-20T14:12:39.265Z</time>
      </trkpt>
      <trkpt lat="48.75533" lon="2.26264">
        <ele>128</ele>
        <time>2022-02-20T14:12:44.269Z</time>
      </trkpt>
      <trkpt lat="48.75538" lon="2.26269">
        <ele>128</ele>
        <time>2022-02-20T14:12:49.271Z</time>
      </trkpt>
      <trkpt lat="48.75543" lon="2.26272">
        <ele>125</ele>
        <time>2022-02-20T14:12:54.260Z</time>
      </trkpt>
      <trkpt lat="48.75546" lon="2.26277">
        <ele>125</ele>
        <time>2022-02-20T14:12:58.270Z</time>
      </trkpt>
      <trkpt lat="48.7555" lon="2.26281">
        <ele>125</ele>
        <time>2022-02-20T14:13:02.275Z</time>
      </trkpt>
      <trkpt lat="48.75555" lon="2.26285">
        <ele>125</ele>
        <time>2022-02-20T14:13:07.279Z</time>
      </trkpt>
      <trkpt lat="48.7556" lon="2.26287">
        <ele>125</ele>
        <time>2022-02-20T14:13:12.276Z</time>
      </trkpt>
      <trkpt lat="48.75565" lon="2.26292">
        <ele>125</ele>
        <time>2022-02-20T14:13:17.263Z</time>
      </trkpt>
      <trkpt lat="48.75569" lon="2.26295">
        <ele>124</ele>
        <time>2022-02-20T14:13:22.265Z</time>
      </trkpt>
      <trkpt lat="48.75573" lon="2.263">
        <ele>124</ele>
        <time>2022-02-20T14:13:27.259Z</time>
      </trkpt>
      <trkpt lat="48.75575" lon="2.26306">
        <ele>124</ele>
        <time>2022-02-20T14:13:32.270Z</time>
      </trkpt>
      <trkpt lat="48.75578" lon="2.26312">
        <ele>124</ele>
        <time>2022-02-20T14:13:37.278Z</time>
      </trkpt>
      <trkpt lat="48.75582" lon="2.26319">
        <ele>124</ele>
        <time>2022-02-20T14:13:42.264Z</time>
      </trkpt>
      <trkpt lat="48.75585" lon="2.26325">
        <ele>124</ele>
        <time>2022-02-20T14:13:47.266Z</time>
      </trkpt>
      <trkpt lat="48.75588" lon="2.26331">
        <ele>124</ele>
        <time>2022-02-20T14:13:52.267Z</time>
      </trkpt>
      <trkpt lat="48.75592" lon="2.26332">
        <ele>124</ele>
        <time>2022-02-20T14:13:56.271Z</time>
      </trkpt>
      <trkpt lat="48.75596" lon="2.26332">
        <ele>124</ele>
        <time>2022-02-20T14:14:00.275Z</time>
      </trkpt>
      <trkpt lat="48.75601" lon="2.26336">
        <ele>126</ele>
        <time>2022-02-20T14:14:05.273Z</time>
      </trkpt>
      <trkpt lat="48.75604" lon="2.26336">
        <ele>126</ele>
        <time>2022-02-20T14:14:10.278Z</time>
      </trkpt>
      <trkpt lat="48.75608" lon="2.26339">
        <ele>126</ele>
        <time>2022-02-20T14:14:15.273Z</time>
      </trkpt>
      <trkpt lat="48.7561" lon="2.26342">
        <ele>126</ele>
        <time>2022-02-20T14:14:20.272Z</time>
      </trkpt>
      <trkpt lat="48.75611" lon="2.26349">
        <ele>126</ele>
        <time>2022-02-20T14:14:25.271Z</time>
      </trkpt>
      <trkpt lat="48.75611" lon="2.26357">
        <ele>126</ele>
        <time>2022-02-20T14:14:30.277Z</time>
      </trkpt>
      <trkpt lat="48.75615" lon="2.2636">
        <ele>126</ele>
        <time>2022-02-20T14:14:35.277Z</time>
      </trkpt>
      <trkpt lat="48.75617" lon="2.26366">
        <ele>126</ele>
        <time>2022-02-20T14:14:40.273Z</time>
      </trkpt>
      <trkpt lat="48.7562" lon="2.26369">
        <ele>126</ele>
        <time>2022-02-20T14:14:44.274Z</time>
      </trkpt>
      <trkpt lat="48.75623" lon="2.26376">
        <ele>127</ele>
        <time>2022-02-20T14:14:49.275Z</time>
      </trkpt>
      <trkpt lat="48.75626" lon="2.2638">
        <ele>130</ele>
        <time>2022-02-20T14:14:54.265Z</time>
      </trkpt>
      <trkpt lat="48.75629" lon="2.26385">
        <ele>130</ele>
        <time>2022-02-20T14:14:59.268Z</time>
      </trkpt>
      <trkpt lat="48.75632" lon="2.26388">
        <ele>130</ele>
        <time>2022-02-20T14:15:04.280Z</time>
      </trkpt>
      <trkpt lat="48.75635" lon="2.26392">
        <ele>130</ele>
        <time>2022-02-20T14:15:09.276Z</time>
      </trkpt>
      <trkpt lat="48.75638" lon="2.26395">
        <ele>130</ele>
        <time>2022-02-20T14:15:14.281Z</time>
      </trkpt>
      <trkpt lat="48.75641" lon="2.26398">
        <ele>130</ele>
        <time>2022-02-20T14:15:19.275Z</time>
      </trkpt>
      <trkpt lat="48.75645" lon="2.26399">
        <ele>130</ele>
        <time>2022-02-20T14:15:24.273Z</time>
      </trkpt>
      <trkpt lat="48.75649" lon="2.26402">
        <ele>130</ele>
        <time>2022-02-20T14:15:29.273Z</time>
      </trkpt>
      <trkpt lat="48.75652" lon="2.26402">
        <ele>130</ele>
        <time>2022-02-20T14:15:34.265Z</time>
      </trkpt>
      <trkpt lat="48.75655" lon="2.26406">
        <ele>133</ele>
        <time>2022-02-20T14:15:38.273Z</time>
      </trkpt>
      <trkpt lat="48.75658" lon="2.2641">
        <ele>133</ele>
        <time>2022-02-20T14:15:43.261Z</time>
      </trkpt>
      <trkpt lat="48.75662" lon="2.26411">
        <ele>133</ele>
        <time>2022-02-20T14:15:47.264Z</time>
      </trkpt>
      <trkpt lat="48.75667" lon="2.26412">
        <ele>133</ele>
        <time>2022-02-20T14:15:51.272Z</time>
      </trkpt>
      <trkpt lat="48.75671" lon="2.26412">
        <ele>133</ele>
        <time>2022-02-20T14:15:56.268Z</time>
      </trkpt>
      <trkpt lat="48.75676" lon="2.26413">
        <ele>133</ele>
        <time>2022-02-20T14:16:00.267Z</time>
      </trkpt>
      <trkpt lat="48.75681" lon="2.26413">
        <ele>135</ele>
        <time>2022-02-20T14:16:04.269Z</time>
      </trkpt>
      <trkpt lat="48.75685" lon="2.26413">
        <ele>135</ele>
        <time>2022-02-20T14:16:08.270Z</time>
      </trkpt>
      <trkpt lat="48.75691" lon="2.26415">
        <ele>135</ele>
        <time>2022-02-20T14:16:13.278Z</time>
      </trkpt>
      <trkpt lat="48.75696" lon="2.26416">
        <ele>135</ele>
        <time>2022-02-20T14:16:18.270Z</time>
      </trkpt>
      <trkpt lat="48.757" lon="2.2642">
        <ele>135</ele>
        <time>2022-02-20T14:16:22.277Z</time>
      </trkpt>
      <trkpt lat="48.75705" lon="2.26424">
        <ele>135</ele>
        <time>2022-02-20T14:16:27.270Z</time>
      </trkpt>
      <trkpt lat="48.75709" lon="2.26426">
        <ele>134</ele>
        <time>2022-02-20T14:16:31.277Z</time>
      </trkpt>
      <trkpt lat="48.75714" lon="2.26428">
        <ele>134</ele>
        <time>2022-02-20T14:16:36.267Z</time>
      </trkpt>
      <trkpt lat="48.75718" lon="2.2643">
        <ele>134</ele>
        <time>2022-02-20T14:16:41.269Z</time>
      </trkpt>
      <trkpt lat="48.75723" lon="2.26432">
        <ele>134</ele>
        <time>2022-02-20T14:16:46.272Z</time>
      </trkpt>
      <trkpt lat="48.75728" lon="2.26432">
        <ele>134</ele>
        <time>2022-02-20T14:16:50.266Z</time>
      </trkpt>
      <trkpt lat="48.75736" lon="2.26434">
        <ele>134</ele>
        <time>2022-02-20T14:16:55.267Z</time>
      </trkpt>
      <trkpt lat="48.75743" lon="2.26436">
        <ele>134</ele>
        <time>2022-02-20T14:17:00.268Z</time>
      </trkpt>
      <trkpt lat="48.75747" lon="2.26439">
        <ele>134</ele>
        <time>2022-02-20T14:17:04.273Z</time>
      </trkpt>
      <trkpt lat="48.75753" lon="2.26437">
        <ele>134</ele>
        <time>2022-02-20T14:17:09.277Z</time>
      </trkpt>
      <trkpt lat="48.75758" lon="2.26436">
        <ele>134</ele>
        <time>2022-02-20T14:17:14.269Z</time>
      </trkpt>
      <trkpt lat="48.75762" lon="2.26435">
        <ele>134</ele>
        <time>2022-02-20T14:17:18.279Z</time>
      </trkpt>
      <trkpt lat="48.7577" lon="2.26437">
        <ele>135</ele>
        <time>2022-02-20T14:17:33.267Z</time>
      </trkpt>
      <trkpt lat="48.7577" lon="2.26437">
        <ele>135</ele>
        <time>2022-02-20T14:17:38.259Z</time>
      </trkpt>
      <trkpt lat="48.75772" lon="2.26439">
        <ele>135</ele>
        <time>2022-02-20T14:17:42.265Z</time>
      </trkpt>
      <trkpt lat="48.75773" lon="2.26436">
        <ele>135</ele>
        <time>2022-02-20T14:17:47.266Z</time>
      </trkpt>
      <trkpt lat="48.75776" lon="2.2644">
        <ele>135</ele>
        <time>2022-02-20T14:17:52.262Z</time>
      </trkpt>
      <trkpt lat="48.75783" lon="2.26443">
        <ele>135</ele>
        <time>2022-02-20T14:20:59.268Z</time>
      </trkpt>
      <trkpt lat="48.75783" lon="2.26443">
        <ele>135</ele>
        <time>2022-02-20T14:21:04.273Z</time>
      </trkpt>
      <trkpt lat="48.75783" lon="2.26443">
        <ele>135</ele>
        <time>2022-02-20T14:21:08.269Z</time>
      </trkpt>
      <trkpt lat="48.75784" lon="2.26445">
        <ele>135</ele>
        <time>2022-02-20T14:21:12.266Z</time>
      </trkpt>
      <trkpt lat="48.75787" lon="2.26447">
        <ele>135</ele>
        <time>2022-02-20T14:21:17.259Z</time>
      </trkpt>
      <trkpt lat="48.7579" lon="2.2645">
        <ele>135</ele>
        <time>2022-02-20T14:21:21.379Z</time>
      </trkpt>
      <trkpt lat="48.75794" lon="2.26454">
        <ele>135</ele>
        <time>2022-02-20T14:21:26.268Z</time>
      </trkpt>
      <trkpt lat="48.75799" lon="2.26456">
        <ele>135</ele>
        <time>2022-02-20T14:21:30.269Z</time>
      </trkpt>
      <trkpt lat="48.75801" lon="2.26457">
        <ele>135</ele>
        <time>2022-02-20T14:21:34.275Z</time>
      </trkpt>
      <trkpt lat="48.75804" lon="2.26459">
        <ele>134</ele>
        <time>2022-02-20T14:21:39.264Z</time>
      </trkpt>
      <trkpt lat="48.75809" lon="2.26462">
        <ele>134</ele>
        <time>2022-02-20T14:21:44.266Z</time>
      </trkpt>
      <trkpt lat="48.75813" lon="2.26466">
        <ele>134</ele>
        <time>2022-02-20T14:21:49.272Z</time>
      </trkpt>
      <trkpt lat="48.75815" lon="2.26469">
        <ele>134</ele>
        <time>2022-02-20T14:21:53.282Z</time>
      </trkpt>
      <trkpt lat="48.75818" lon="2.26474">
        <ele>134</ele>
        <time>2022-02-20T14:21:58.274Z</time>
      </trkpt>
      <trkpt lat="48.75822" lon="2.2648">
        <ele>134</ele>
        <time>2022-02-20T14:22:03.266Z</time>
      </trkpt>
      <trkpt lat="48.75825" lon="2.26486">
        <ele>134</ele>
        <time>2022-02-20T14:22:08.260Z</time>
      </trkpt>
      <trkpt lat="48.75827" lon="2.26492">
        <ele>133</ele>
        <time>2022-02-20T14:22:12.258Z</time>
      </trkpt>
      <trkpt lat="48.75831" lon="2.265">
        <ele>133</ele>
        <time>2022-02-20T14:22:17.271Z</time>
      </trkpt>
      <trkpt lat="48.75835" lon="2.26506">
        <ele>133</ele>
        <time>2022-02-20T14:22:22.265Z</time>
      </trkpt>
      <trkpt lat="48.75841" lon="2.26514">
        <ele>131</ele>
        <time>2022-02-20T14:22:27.262Z</time>
      </trkpt>
      <trkpt lat="48.75845" lon="2.26518">
        <ele>131</ele>
        <time>2022-02-20T14:22:31.267Z</time>
      </trkpt>
      <trkpt lat="48.75849" lon="2.26525">
        <ele>132</ele>
        <time>2022-02-20T14:22:36.259Z</time>
      </trkpt>
      <trkpt lat="48.75851" lon="2.2653">
        <ele>132</ele>
        <time>2022-02-20T14:22:40.258Z</time>
      </trkpt>
      <trkpt lat="48.75855" lon="2.26535">
        <ele>132</ele>
        <time>2022-02-20T14:22:44.272Z</time>
      </trkpt>
      <trkpt lat="48.75859" lon="2.26541">
        <ele>132</ele>
        <time>2022-02-20T14:22:49.258Z</time>
      </trkpt>
      <trkpt lat="48.75862" lon="2.26553">
        <ele>129</ele>
        <time>2022-02-20T14:23:41.277Z</time>
      </trkpt>
      <trkpt lat="48.75861" lon="2.26558">
        <ele>129</ele>
        <time>2022-02-20T14:23:45.269Z</time>
      </trkpt>
      <trkpt lat="48.75861" lon="2.26559">
        <ele>129</ele>
        <time>2022-02-20T14:23:50.268Z</time>
      </trkpt>
      <trkpt lat="48.75861" lon="2.2656">
        <ele>129</ele>
        <time>2022-02-20T14:23:55.280Z</time>
      </trkpt>
      <trkpt lat="48.7586" lon="2.26562">
        <ele>129</ele>
        <time>2022-02-20T14:24:00.273Z</time>
      </trkpt>
      <trkpt lat="48.75857" lon="2.26565">
        <ele>129</ele>
        <time>2022-02-20T14:24:19.269Z</time>
      </trkpt>
      <trkpt lat="48.75855" lon="2.26567">
        <ele>129</ele>
        <time>2022-02-20T14:24:24.269Z</time>
      </trkpt>
      <trkpt lat="48.75854" lon="2.26567">
        <ele>129</ele>
        <time>2022-02-20T14:24:29.264Z</time>
      </trkpt>
      <trkpt lat="48.75853" lon="2.26569">
        <ele>129</ele>
        <time>2022-02-20T14:24:33.284Z</time>
      </trkpt>
      <trkpt lat="48.75853" lon="2.2657">
        <ele>126</ele>
        <time>2022-02-20T14:24:38.265Z</time>
      </trkpt>
      <trkpt lat="48.75851" lon="2.26571">
        <ele>126</ele>
        <time>2022-02-20T14:24:43.261Z</time>
      </trkpt>
      <trkpt lat="48.75845" lon="2.26578">
        <ele>126</ele>
        <time>2022-02-20T14:24:48.264Z</time>
      </trkpt>
      <trkpt lat="48.7584" lon="2.26581">
        <ele>126</ele>
        <time>2022-02-20T14:24:53.270Z</time>
      </trkpt>
      <trkpt lat="48.75836" lon="2.26589">
        <ele>126</ele>
        <time>2022-02-20T14:24:58.262Z</time>
      </trkpt>
      <trkpt lat="48.75831" lon="2.26592">
        <ele>126</ele>
        <time>2022-02-20T14:25:02.259Z</time>
      </trkpt>
      <trkpt lat="48.75828" lon="2.26596">
        <ele>126</ele>
        <time>2022-02-20T14:25:06.268Z</time>
      </trkpt>
      <trkpt lat="48.75825" lon="2.26605">
        <ele>124</ele>
        <time>2022-02-20T14:25:11.278Z</time>
      </trkpt>
      <trkpt lat="48.75822" lon="2.26614">
        <ele>124</ele>
        <time>2022-02-20T14:25:16.275Z</time>
      </trkpt>
      <trkpt lat="48.7582" lon="2.26622">
        <ele>124</ele>
        <time>2022-02-20T14:25:21.281Z</time>
      </trkpt>
      <trkpt lat="48.75818" lon="2.26631">
        <ele>119</ele>
        <time>2022-02-20T14:25:26.265Z</time>
      </trkpt>
      <trkpt lat="48.75817" lon="2.26642">
        <ele>119</ele>
        <time>2022-02-20T14:25:31.266Z</time>
      </trkpt>
      <trkpt lat="48.75817" lon="2.26649">
        <ele>119</ele>
        <time>2022-02-20T14:25:35.268Z</time>
      </trkpt>
      <trkpt lat="48.75818" lon="2.26658">
        <ele>116</ele>
        <time>2022-02-20T14:25:40.265Z</time>
      </trkpt>
      <trkpt lat="48.75819" lon="2.26667">
        <ele>116</ele>
        <time>2022-02-20T14:25:45.266Z</time>
      </trkpt>
      <trkpt lat="48.7582" lon="2.26675">
        <ele>117</ele>
        <time>2022-02-20T14:25:50.277Z</time>
      </trkpt>
      <trkpt lat="48.75821" lon="2.26683">
        <ele>116</ele>
        <time>2022-02-20T14:25:55.267Z</time>
      </trkpt>
      <trkpt lat="48.75823" lon="2.26693">
        <ele>116</ele>
        <time>2022-02-20T14:26:00.270Z</time>
      </trkpt>
      <trkpt lat="48.75824" lon="2.26703">
        <ele>116</ele>
        <time>2022-02-20T14:26:05.263Z</time>
      </trkpt>
      <trkpt lat="48.75824" lon="2.26711">
        <ele>114</ele>
        <time>2022-02-20T14:26:09.274Z</time>
      </trkpt>
      <trkpt lat="48.75822" lon="2.26721">
        <ele>114</ele>
        <time>2022-02-20T14:26:14.260Z</time>
      </trkpt>
      <trkpt lat="48.75819" lon="2.26729">
        <ele>112</ele>
        <time>2022-02-20T14:26:18.268Z</time>
      </trkpt>
      <trkpt lat="48.75818" lon="2.26736">
        <ele>112</ele>
        <time>2022-02-20T14:26:22.265Z</time>
      </trkpt>
      <trkpt lat="48.75816" lon="2.26745">
        <ele>109</ele>
        <time>2022-02-20T14:26:27.268Z</time>
      </trkpt>
      <trkpt lat="48.75816" lon="2.26754">
        <ele>109</ele>
        <time>2022-02-20T14:26:32.269Z</time>
      </trkpt>
      <trkpt lat="48.75815" lon="2.2676">
        <ele>109</ele>
        <time>2022-02-20T14:26:36.276Z</time>
      </trkpt>
      <trkpt lat="48.75815" lon="2.2677">
        <ele>107</ele>
        <time>2022-02-20T14:26:41.266Z</time>
      </trkpt>
      <trkpt lat="48.75815" lon="2.26777">
        <ele>107</ele>
        <time>2022-02-20T14:26:45.270Z</time>
      </trkpt>
      <trkpt lat="48.75815" lon="2.26785">
        <ele>107</ele>
        <time>2022-02-20T14:26:50.278Z</time>
      </trkpt>
      <trkpt lat="48.75815" lon="2.26792">
        <ele>104</ele>
        <time>2022-02-20T14:26:54.286Z</time>
      </trkpt>
      <trkpt lat="48.75813" lon="2.26802">
        <ele>104</ele>
        <time>2022-02-20T14:26:59.275Z</time>
      </trkpt>
      <trkpt lat="48.75811" lon="2.26812">
        <ele>104</ele>
        <time>2022-02-20T14:27:04.276Z</time>
      </trkpt>
      <trkpt lat="48.75808" lon="2.2682">
        <ele>103</ele>
        <time>2022-02-20T14:27:09.277Z</time>
      </trkpt>
      <trkpt lat="48.75805" lon="2.2683">
        <ele>103</ele>
        <time>2022-02-20T14:27:14.271Z</time>
      </trkpt>
      <trkpt lat="48.75802" lon="2.26838">
        <ele>103</ele>
        <time>2022-02-20T14:27:19.268Z</time>
      </trkpt>
      <trkpt lat="48.758" lon="2.26845">
        <ele>103</ele>
        <time>2022-02-20T14:27:24.275Z</time>
      </trkpt>
      <trkpt lat="48.75798" lon="2.26851">
        <ele>102</ele>
        <time>2022-02-20T14:27:28.279Z</time>
      </trkpt>
      <trkpt lat="48.75795" lon="2.26859">
        <ele>102</ele>
        <time>2022-02-20T14:27:33.270Z</time>
      </trkpt>
      <trkpt lat="48.75793" lon="2.26867">
        <ele>102</ele>
        <time>2022-02-20T14:27:38.264Z</time>
      </trkpt>
      <trkpt lat="48.75791" lon="2.26875">
        <ele>102</ele>
        <time>2022-02-20T14:27:42.270Z</time>
      </trkpt>
      <trkpt lat="48.75789" lon="2.26881">
        <ele>101</ele>
        <time>2022-02-20T14:27:46.272Z</time>
      </trkpt>
      <trkpt lat="48.75786" lon="2.26889">
        <ele>101</ele>
        <time>2022-02-20T14:27:51.280Z</time>
      </trkpt>
      <trkpt lat="48.75784" lon="2.26898">
        <ele>101</ele>
        <time>2022-02-20T14:27:56.272Z</time>
      </trkpt>
      <trkpt lat="48.75781" lon="2.26905">
        <ele>100</ele>
        <time>2022-02-20T14:28:01.264Z</time>
      </trkpt>
      <trkpt lat="48.75778" lon="2.26913">
        <ele>100</ele>
        <time>2022-02-20T14:28:06.266Z</time>
      </trkpt>
      <trkpt lat="48.75776" lon="2.26921">
        <ele>100</ele>
        <time>2022-02-20T14:28:10.269Z</time>
      </trkpt>
      <trkpt lat="48.75775" lon="2.2693">
        <ele>100</ele>
        <time>2022-02-20T14:28:15.272Z</time>
      </trkpt>
      <trkpt lat="48.75777" lon="2.26936">
        <ele>99</ele>
        <time>2022-02-20T14:28:19.273Z</time>
      </trkpt>
      <trkpt lat="48.75779" lon="2.2694">
        <ele>99</ele>
        <time>2022-02-20T14:28:23.273Z</time>
      </trkpt>
      <trkpt lat="48.75781" lon="2.26939">
        <ele>99</ele>
        <time>2022-02-20T14:28:28.265Z</time>
      </trkpt>
      <trkpt lat="48.75782" lon="2.2694">
        <ele>99</ele>
        <time>2022-02-20T14:28:33.282Z</time>
      </trkpt>
      <trkpt lat="48.75784" lon="2.26947">
        <ele>99</ele>
        <time>2022-02-20T14:28:38.272Z</time>
      </trkpt>
      <trkpt lat="48.75782" lon="2.26952">
        <ele>99</ele>
        <time>2022-02-20T14:28:42.269Z</time>
      </trkpt>
      <trkpt lat="48.75779" lon="2.2696">
        <ele>99</ele>
        <time>2022-02-20T14:28:47.267Z</time>
      </trkpt>
      <trkpt lat="48.75778" lon="2.26968">
        <ele>99</ele>
        <time>2022-02-20T14:28:51.271Z</time>
      </trkpt>
      <trkpt lat="48.75776" lon="2.26978">
        <ele>99</ele>
        <time>2022-02-20T14:28:56.271Z</time>
      </trkpt>
      <trkpt lat="48.75777" lon="2.26987">
        <ele>99</ele>
        <time>2022-02-20T14:29:01.266Z</time>
      </trkpt>
      <trkpt lat="48.75778" lon="2.26993">
        <ele>99</ele>
        <time>2022-02-20T14:29:05.271Z</time>
      </trkpt>
      <trkpt lat="48.75779" lon="2.26999">
        <ele>99</ele>
        <time>2022-02-20T14:29:09.268Z</time>
      </trkpt>
      <trkpt lat="48.75781" lon="2.27006">
        <ele>99</ele>
        <time>2022-02-20T14:29:13.273Z</time>
      </trkpt>
      <trkpt lat="48.75782" lon="2.27014">
        <ele>99</ele>
        <time>2022-02-20T14:29:18.271Z</time>
      </trkpt>
      <trkpt lat="48.75784" lon="2.27022">
        <ele>99</ele>
        <time>2022-02-20T14:29:23.263Z</time>
      </trkpt>
      <trkpt lat="48.75785" lon="2.27029">
        <ele>99</ele>
        <time>2022-02-20T14:29:28.268Z</time>
      </trkpt>
      <trkpt lat="48.75787" lon="2.27038">
        <ele>99</ele>
        <time>2022-02-20T14:29:33.268Z</time>
      </trkpt>
      <trkpt lat="48.75789" lon="2.27046">
        <ele>99</ele>
        <time>2022-02-20T14:29:38.269Z</time>
      </trkpt>
      <trkpt lat="48.7579" lon="2.27053">
        <ele>99</ele>
        <time>2022-02-20T14:29:43.268Z</time>
      </trkpt>
      <trkpt lat="48.7579" lon="2.2706">
        <ele>99</ele>
        <time>2022-02-20T14:29:47.267Z</time>
      </trkpt>
      <trkpt lat="48.75791" lon="2.27068">
        <ele>99</ele>
        <time>2022-02-20T14:29:52.271Z</time>
      </trkpt>
      <trkpt lat="48.75789" lon="2.27078">
        <ele>99</ele>
        <time>2022-02-20T14:29:57.270Z</time>
      </trkpt>
      <trkpt lat="48.75789" lon="2.27086">
        <ele>99</ele>
        <time>2022-02-20T14:30:01.274Z</time>
      </trkpt>
      <trkpt lat="48.75788" lon="2.27095">
        <ele>99</ele>
        <time>2022-02-20T14:30:06.269Z</time>
      </trkpt>
      <trkpt lat="48.75788" lon="2.27104">
        <ele>101</ele>
        <time>2022-02-20T14:30:11.269Z</time>
      </trkpt>
      <trkpt lat="48.75787" lon="2.2711">
        <ele>101</ele>
        <time>2022-02-20T14:30:15.279Z</time>
      </trkpt>
      <trkpt lat="48.75787" lon="2.27118">
        <ele>101</ele>
        <time>2022-02-20T14:30:20.267Z</time>
      </trkpt>
      <trkpt lat="48.75787" lon="2.27125">
        <ele>101</ele>
        <time>2022-02-20T14:30:24.265Z</time>
      </trkpt>
      <trkpt lat="48.75786" lon="2.27134">
        <ele>101</ele>
        <time>2022-02-20T14:30:29.273Z</time>
      </trkpt>
      <trkpt lat="48.75785" lon="2.27141">
        <ele>101</ele>
        <time>2022-02-20T14:30:33.276Z</time>
      </trkpt>
      <trkpt lat="48.75784" lon="2.27149">
        <ele>101</ele>
        <time>2022-02-20T14:30:38.274Z</time>
      </trkpt>
      <trkpt lat="48.75781" lon="2.27156">
        <ele>101</ele>
        <time>2022-02-20T14:30:43.269Z</time>
      </trkpt>
      <trkpt lat="48.7578" lon="2.27163">
        <ele>101</ele>
        <time>2022-02-20T14:30:48.277Z</time>
      </trkpt>
      <trkpt lat="48.75778" lon="2.2717">
        <ele>101</ele>
        <time>2022-02-20T14:30:52.277Z</time>
      </trkpt>
      <trkpt lat="48.75777" lon="2.27178">
        <ele>101</ele>
        <time>2022-02-20T14:30:57.434Z</time>
      </trkpt>
      <trkpt lat="48.75775" lon="2.27186">
        <ele>102</ele>
        <time>2022-02-20T14:31:02.264Z</time>
      </trkpt>
      <trkpt lat="48.75774" lon="2.27193">
        <ele>102</ele>
        <time>2022-02-20T14:31:06.273Z</time>
      </trkpt>
      <trkpt lat="48.75772" lon="2.27202">
        <ele>102</ele>
        <time>2022-02-20T14:31:11.281Z</time>
      </trkpt>
      <trkpt lat="48.75768" lon="2.27212">
        <ele>102</ele>
        <time>2022-02-20T14:31:16.271Z</time>
      </trkpt>
      <trkpt lat="48.75766" lon="2.2722">
        <ele>102</ele>
        <time>2022-02-20T14:31:20.272Z</time>
      </trkpt>
      <trkpt lat="48.75764" lon="2.27228">
        <ele>102</ele>
        <time>2022-02-20T14:31:24.292Z</time>
      </trkpt>
      <trkpt lat="48.75762" lon="2.27236">
        <ele>100</ele>
        <time>2022-02-20T14:31:29.270Z</time>
      </trkpt>
      <trkpt lat="48.7576" lon="2.27244">
        <ele>100</ele>
        <time>2022-02-20T14:31:34.268Z</time>
      </trkpt>
      <trkpt lat="48.75758" lon="2.27253">
        <ele>100</ele>
        <time>2022-02-20T14:31:39.272Z</time>
      </trkpt>
      <trkpt lat="48.75756" lon="2.27262">
        <ele>100</ele>
        <time>2022-02-20T14:31:44.265Z</time>
      </trkpt>
      <trkpt lat="48.75753" lon="2.2727">
        <ele>101</ele>
        <time>2022-02-20T14:31:49.270Z</time>
      </trkpt>
      <trkpt lat="48.75752" lon="2.27276">
        <ele>101</ele>
        <time>2022-02-20T14:31:53.272Z</time>
      </trkpt>
      <trkpt lat="48.7575" lon="2.27284">
        <ele>101</ele>
        <time>2022-02-20T14:31:58.266Z</time>
      </trkpt>
      <trkpt lat="48.75749" lon="2.27291">
        <ele>101</ele>
        <time>2022-02-20T14:32:02.271Z</time>
      </trkpt>
      <trkpt lat="48.75747" lon="2.273">
        <ele>101</ele>
        <time>2022-02-20T14:32:07.267Z</time>
      </trkpt>
      <trkpt lat="48.75746" lon="2.27308">
        <ele>101</ele>
        <time>2022-02-20T14:32:12.267Z</time>
      </trkpt>
      <trkpt lat="48.75744" lon="2.27318">
        <ele>101</ele>
        <time>2022-02-20T14:32:17.274Z</time>
      </trkpt>
      <trkpt lat="48.75742" lon="2.27325">
        <ele>102</ele>
        <time>2022-02-20T14:32:21.286Z</time>
      </trkpt>
      <trkpt lat="48.7574" lon="2.27333">
        <ele>102</ele>
        <time>2022-02-20T14:32:26.274Z</time>
      </trkpt>
      <trkpt lat="48.75739" lon="2.27339">
        <ele>102</ele>
        <time>2022-02-20T14:32:30.277Z</time>
      </trkpt>
      <trkpt lat="48.75737" lon="2.27346">
        <ele>102</ele>
        <time>2022-02-20T14:32:35.274Z</time>
      </trkpt>
      <trkpt lat="48.75735" lon="2.27354">
        <ele>100</ele>
        <time>2022-02-20T14:32:40.267Z</time>
      </trkpt>
      <trkpt lat="48.75733" lon="2.27363">
        <ele>100</ele>
        <time>2022-02-20T14:32:45.267Z</time>
      </trkpt>
      <trkpt lat="48.75731" lon="2.27371">
        <ele>100</ele>
        <time>2022-02-20T14:32:49.270Z</time>
      </trkpt>
      <trkpt lat="48.75728" lon="2.27381">
        <ele>101</ele>
        <time>2022-02-20T14:32:54.263Z</time>
      </trkpt>
      <trkpt lat="48.75727" lon="2.27387">
        <ele>101</ele>
        <time>2022-02-20T14:32:58.273Z</time>
      </trkpt>
      <trkpt lat="48.75725" lon="2.27395">
        <ele>101</ele>
        <time>2022-02-20T14:33:02.272Z</time>
      </trkpt>
      <trkpt lat="48.75723" lon="2.27403">
        <ele>102</ele>
        <time>2022-02-20T14:33:07.265Z</time>
      </trkpt>
      <trkpt lat="48.75722" lon="2.27409">
        <ele>102</ele>
        <time>2022-02-20T14:33:11.281Z</time>
      </trkpt>
      <trkpt lat="48.75721" lon="2.27417">
        <ele>102</ele>
        <time>2022-02-20T14:33:16.275Z</time>
      </trkpt>
      <trkpt lat="48.75719" lon="2.27426">
        <ele>102</ele>
        <time>2022-02-20T14:33:21.262Z</time>
      </trkpt>
      <trkpt lat="48.75717" lon="2.27434">
        <ele>103</ele>
        <time>2022-02-20T14:33:26.264Z</time>
      </trkpt>
      <trkpt lat="48.75715" lon="2.27443">
        <ele>103</ele>
        <time>2022-02-20T14:33:31.273Z</time>
      </trkpt>
      <trkpt lat="48.75713" lon="2.27452">
        <ele>103</ele>
        <time>2022-02-20T14:33:36.268Z</time>
      </trkpt>
      <trkpt lat="48.75712" lon="2.2746">
        <ele>102</ele>
        <time>2022-02-20T14:33:41.266Z</time>
      </trkpt>
      <trkpt lat="48.7571" lon="2.2747">
        <ele>102</ele>
        <time>2022-02-20T14:33:46.274Z</time>
      </trkpt>
      <trkpt lat="48.75708" lon="2.27478">
        <ele>101</ele>
        <time>2022-02-20T14:33:51.275Z</time>
      </trkpt>
      <trkpt lat="48.75706" lon="2.27487">
        <ele>101</ele>
        <time>2022-02-20T14:33:56.270Z</time>
      </trkpt>
      <trkpt lat="48.75704" lon="2.27493">
        <ele>101</ele>
        <time>2022-02-20T14:34:00.280Z</time>
      </trkpt>
      <trkpt lat="48.75703" lon="2.27502">
        <ele>101</ele>
        <time>2022-02-20T14:34:05.265Z</time>
      </trkpt>
      <trkpt lat="48.75701" lon="2.2751">
        <ele>101</ele>
        <time>2022-02-20T14:34:10.273Z</time>
      </trkpt>
      <trkpt lat="48.757" lon="2.27519">
        <ele>101</ele>
        <time>2022-02-20T14:34:15.263Z</time>
      </trkpt>
      <trkpt lat="48.75699" lon="2.27527">
        <ele>101</ele>
        <time>2022-02-20T14:34:19.278Z</time>
      </trkpt>
      <trkpt lat="48.75697" lon="2.27536">
        <ele>101</ele>
        <time>2022-02-20T14:34:24.265Z</time>
      </trkpt>
      <trkpt lat="48.75695" lon="2.27545">
        <ele>101</ele>
        <time>2022-02-20T14:34:29.267Z</time>
      </trkpt>
      <trkpt lat="48.75692" lon="2.27553">
        <ele>101</ele>
        <time>2022-02-20T14:34:33.277Z</time>
      </trkpt>
      <trkpt lat="48.7569" lon="2.27562">
        <ele>101</ele>
        <time>2022-02-20T14:34:38.269Z</time>
      </trkpt>
      <trkpt lat="48.75687" lon="2.2757">
        <ele>101</ele>
        <time>2022-02-20T14:34:42.273Z</time>
      </trkpt>
      <trkpt lat="48.75685" lon="2.27578">
        <ele>101</ele>
        <time>2022-02-20T14:34:47.270Z</time>
      </trkpt>
      <trkpt lat="48.75683" lon="2.27585">
        <ele>101</ele>
        <time>2022-02-20T14:34:51.270Z</time>
      </trkpt>
      <trkpt lat="48.7568" lon="2.27594">
        <ele>101</ele>
        <time>2022-02-20T14:34:56.271Z</time>
      </trkpt>
      <trkpt lat="48.75679" lon="2.27602">
        <ele>100</ele>
        <time>2022-02-20T14:35:01.273Z</time>
      </trkpt>
      <trkpt lat="48.75678" lon="2.2761">
        <ele>100</ele>
        <time>2022-02-20T14:35:05.277Z</time>
      </trkpt>
      <trkpt lat="48.75678" lon="2.27617">
        <ele>100</ele>
        <time>2022-02-20T14:35:10.269Z</time>
      </trkpt>
      <trkpt lat="48.75676" lon="2.2762">
        <ele>100</ele>
        <time>2022-02-20T14:35:15.279Z</time>
      </trkpt>
      <trkpt lat="48.75672" lon="2.27622">
        <ele>100</ele>
        <time>2022-02-20T14:35:20.270Z</time>
      </trkpt>
      <trkpt lat="48.75668" lon="2.27623">
        <ele>100</ele>
        <time>2022-02-20T14:35:24.279Z</time>
      </trkpt>
      <trkpt lat="48.75664" lon="2.27623">
        <ele>100</ele>
        <time>2022-02-20T14:35:28.277Z</time>
      </trkpt>
      <trkpt lat="48.75659" lon="2.27626">
        <ele>99</ele>
        <time>2022-02-20T14:35:33.278Z</time>
      </trkpt>
      <trkpt lat="48.75654" lon="2.27626">
        <ele>99</ele>
        <time>2022-02-20T14:35:38.269Z</time>
      </trkpt>
      <trkpt lat="48.75654" lon="2.27634">
        <ele>99</ele>
        <time>2022-02-20T14:35:43.268Z</time>
      </trkpt>
      <trkpt lat="48.75652" lon="2.27639">
        <ele>100</ele>
        <time>2022-02-20T14:35:47.276Z</time>
      </trkpt>
      <trkpt lat="48.7565" lon="2.27644">
        <ele>100</ele>
        <time>2022-02-20T14:35:52.278Z</time>
      </trkpt>
      <trkpt lat="48.75647" lon="2.27653">
        <ele>100</ele>
        <time>2022-02-20T14:35:57.276Z</time>
      </trkpt>
      <trkpt lat="48.75643" lon="2.2766">
        <ele>99</ele>
        <time>2022-02-20T14:36:02.266Z</time>
      </trkpt>
      <trkpt lat="48.7564" lon="2.27666">
        <ele>99</ele>
        <time>2022-02-20T14:36:06.272Z</time>
      </trkpt>
      <trkpt lat="48.75636" lon="2.27674">
        <ele>99</ele>
        <time>2022-02-20T14:36:11.269Z</time>
      </trkpt>
      <trkpt lat="48.75632" lon="2.2768">
        <ele>99</ele>
        <time>2022-02-20T14:36:15.278Z</time>
      </trkpt>
      <trkpt lat="48.75628" lon="2.27688">
        <ele>98</ele>
        <time>2022-02-20T14:36:20.284Z</time>
      </trkpt>
      <trkpt lat="48.75624" lon="2.27695">
        <ele>99</ele>
        <time>2022-02-20T14:36:25.269Z</time>
      </trkpt>
      <trkpt lat="48.7562" lon="2.27705">
        <ele>99</ele>
        <time>2022-02-20T14:36:30.277Z</time>
      </trkpt>
      <trkpt lat="48.75617" lon="2.27712">
        <ele>98</ele>
        <time>2022-02-20T14:36:35.269Z</time>
      </trkpt>
      <trkpt lat="48.75614" lon="2.27717">
        <ele>98</ele>
        <time>2022-02-20T14:36:39.279Z</time>
      </trkpt>
      <trkpt lat="48.75611" lon="2.27725">
        <ele>98</ele>
        <time>2022-02-20T14:36:44.267Z</time>
      </trkpt>
      <trkpt lat="48.75608" lon="2.27732">
        <ele>98</ele>
        <time>2022-02-20T14:36:48.277Z</time>
      </trkpt>
      <trkpt lat="48.75605" lon="2.2774">
        <ele>97</ele>
        <time>2022-02-20T14:36:53.273Z</time>
      </trkpt>
      <trkpt lat="48.75601" lon="2.27747">
        <ele>97</ele>
        <time>2022-02-20T14:36:58.270Z</time>
      </trkpt>
      <trkpt lat="48.75599" lon="2.27754">
        <ele>97</ele>
        <time>2022-02-20T14:37:02.279Z</time>
      </trkpt>
      <trkpt lat="48.75599" lon="2.27762">
        <ele>97</ele>
        <time>2022-02-20T14:37:07.269Z</time>
      </trkpt>
      <trkpt lat="48.75603" lon="2.27765">
        <ele>97</ele>
        <time>2022-02-20T14:37:12.271Z</time>
      </trkpt>
      <trkpt lat="48.75606" lon="2.27772">
        <ele>97</ele>
        <time>2022-02-20T14:37:17.270Z</time>
      </trkpt>
      <trkpt lat="48.7561" lon="2.27775">
        <ele>97</ele>
        <time>2022-02-20T14:37:21.281Z</time>
      </trkpt>
      <trkpt lat="48.75614" lon="2.27778">
        <ele>97</ele>
        <time>2022-02-20T14:37:26.275Z</time>
      </trkpt>
      <trkpt lat="48.75618" lon="2.27781">
        <ele>97</ele>
        <time>2022-02-20T14:37:31.273Z</time>
      </trkpt>
      <trkpt lat="48.75622" lon="2.27786">
        <ele>97</ele>
        <time>2022-02-20T14:37:36.278Z</time>
      </trkpt>
      <trkpt lat="48.75627" lon="2.2779">
        <ele>97</ele>
        <time>2022-02-20T14:37:41.276Z</time>
      </trkpt>
      <trkpt lat="48.75633" lon="2.27791">
        <ele>97</ele>
        <time>2022-02-20T14:37:46.270Z</time>
      </trkpt>
      <trkpt lat="48.75638" lon="2.27795">
        <ele>97</ele>
        <time>2022-02-20T14:37:51.279Z</time>
      </trkpt>
      <trkpt lat="48.75643" lon="2.278">
        <ele>97</ele>
        <time>2022-02-20T14:37:56.271Z</time>
      </trkpt>
      <trkpt lat="48.75646" lon="2.27804">
        <ele>97</ele>
        <time>2022-02-20T14:38:00.274Z</time>
      </trkpt>
      <trkpt lat="48.75651" lon="2.27808">
        <ele>97</ele>
        <time>2022-02-20T14:38:05.269Z</time>
      </trkpt>
      <trkpt lat="48.75656" lon="2.27812">
        <ele>99</ele>
        <time>2022-02-20T14:38:09.277Z</time>
      </trkpt>
      <trkpt lat="48.75662" lon="2.27817">
        <ele>99</ele>
        <time>2022-02-20T14:38:14.271Z</time>
      </trkpt>
      <trkpt lat="48.75667" lon="2.27821">
        <ele>99</ele>
        <time>2022-02-20T14:38:19.276Z</time>
      </trkpt>
      <trkpt lat="48.75671" lon="2.27825">
        <ele>99</ele>
        <time>2022-02-20T14:38:24.279Z</time>
      </trkpt>
      <trkpt lat="48.75677" lon="2.27831">
        <ele>99</ele>
        <time>2022-02-20T14:38:29.276Z</time>
      </trkpt>
      <trkpt lat="48.75682" lon="2.27836">
        <ele>99</ele>
        <time>2022-02-20T14:38:34.274Z</time>
      </trkpt>
      <trkpt lat="48.75688" lon="2.2784">
        <ele>99</ele>
        <time>2022-02-20T14:38:39.280Z</time>
      </trkpt>
      <trkpt lat="48.75693" lon="2.27845">
        <ele>99</ele>
        <time>2022-02-20T14:38:44.271Z</time>
      </trkpt>
      <trkpt lat="48.75698" lon="2.2785">
        <ele>99</ele>
        <time>2022-02-20T14:38:49.274Z</time>
      </trkpt>
      <trkpt lat="48.75703" lon="2.27856">
        <ele>99</ele>
        <time>2022-02-20T14:38:54.270Z</time>
      </trkpt>
      <trkpt lat="48.75708" lon="2.2786">
        <ele>99</ele>
        <time>2022-02-20T14:38:58.280Z</time>
      </trkpt>
      <trkpt lat="48.75712" lon="2.27866">
        <ele>99</ele>
        <time>2022-02-20T14:39:03.280Z</time>
      </trkpt>
      <trkpt lat="48.75715" lon="2.27872">
        <ele>99</ele>
        <time>2022-02-20T14:39:08.273Z</time>
      </trkpt>
      <trkpt lat="48.7572" lon="2.27876">
        <ele>99</ele>
        <time>2022-02-20T14:39:12.272Z</time>
      </trkpt>
      <trkpt lat="48.75723" lon="2.27883">
        <ele>99</ele>
        <time>2022-02-20T14:39:17.287Z</time>
      </trkpt>
      <trkpt lat="48.7572" lon="2.2789">
        <ele>99</ele>
        <time>2022-02-20T14:39:22.268Z</time>
      </trkpt>
      <trkpt lat="48.75718" lon="2.27896">
        <ele>99</ele>
        <time>2022-02-20T14:39:26.282Z</time>
      </trkpt>
      <trkpt lat="48.75716" lon="2.27905">
        <ele>99</ele>
        <time>2022-02-20T14:39:31.285Z</time>
      </trkpt>
      <trkpt lat="48.75714" lon="2.27912">
        <ele>99</ele>
        <time>2022-02-20T14:39:35.273Z</time>
      </trkpt>
      <trkpt lat="48.75712" lon="2.27921">
        <ele>99</ele>
        <time>2022-02-20T14:39:40.271Z</time>
      </trkpt>
      <trkpt lat="48.75709" lon="2.27929">
        <ele>99</ele>
        <time>2022-02-20T14:39:45.259Z</time>
      </trkpt>
      <trkpt lat="48.75707" lon="2.27936">
        <ele>99</ele>
        <time>2022-02-20T14:39:49.269Z</time>
      </trkpt>
      <trkpt lat="48.75706" lon="2.27946">
        <ele>99</ele>
        <time>2022-02-20T14:39:54.271Z</time>
      </trkpt>
      <trkpt lat="48.75703" lon="2.27953">
        <ele>99</ele>
        <time>2022-02-20T14:39:59.274Z</time>
      </trkpt>
      <trkpt lat="48.757" lon="2.27961">
        <ele>98</ele>
        <time>2022-02-20T14:40:04.279Z</time>
      </trkpt>
      <trkpt lat="48.75698" lon="2.27969">
        <ele>98</ele>
        <time>2022-02-20T14:40:09.268Z</time>
      </trkpt>
      <trkpt lat="48.75697" lon="2.27977">
        <ele>98</ele>
        <time>2022-02-20T14:40:14.280Z</time>
      </trkpt>
      <trkpt lat="48.75695" lon="2.27984">
        <ele>98</ele>
        <time>2022-02-20T14:40:19.276Z</time>
      </trkpt>
      <trkpt lat="48.75693" lon="2.27992">
        <ele>98</ele>
        <time>2022-02-20T14:40:24.278Z</time>
      </trkpt>
      <trkpt lat="48.7569" lon="2.28">
        <ele>98</ele>
        <time>2022-02-20T14:40:29.273Z</time>
      </trkpt>
      <trkpt lat="48.75688" lon="2.28007">
        <ele>98</ele>
        <time>2022-02-20T14:40:33.270Z</time>
      </trkpt>
      <trkpt lat="48.75686" lon="2.28016">
        <ele>98</ele>
        <time>2022-02-20T14:40:38.278Z</time>
      </trkpt>
      <trkpt lat="48.75684" lon="2.28026">
        <ele>98</ele>
        <time>2022-02-20T14:40:43.263Z</time>
      </trkpt>
      <trkpt lat="48.75682" lon="2.28033">
        <ele>98</ele>
        <time>2022-02-20T14:40:47.274Z</time>
      </trkpt>
      <trkpt lat="48.75681" lon="2.28042">
        <ele>97</ele>
        <time>2022-02-20T14:40:52.269Z</time>
      </trkpt>
      <trkpt lat="48.7568" lon="2.28051">
        <ele>96</ele>
        <time>2022-02-20T14:40:57.271Z</time>
      </trkpt>
      <trkpt lat="48.75678" lon="2.2806">
        <ele>96</ele>
        <time>2022-02-20T14:41:02.268Z</time>
      </trkpt>
      <trkpt lat="48.75676" lon="2.28068">
        <ele>96</ele>
        <time>2022-02-20T14:41:06.270Z</time>
      </trkpt>
      <trkpt lat="48.75674" lon="2.28077">
        <ele>95</ele>
        <time>2022-02-20T14:41:10.277Z</time>
      </trkpt>
      <trkpt lat="48.75673" lon="2.28086">
        <ele>95</ele>
        <time>2022-02-20T14:41:15.276Z</time>
      </trkpt>
      <trkpt lat="48.75671" lon="2.28093">
        <ele>95</ele>
        <time>2022-02-20T14:41:20.272Z</time>
      </trkpt>
      <trkpt lat="48.75669" lon="2.28099">
        <ele>94</ele>
        <time>2022-02-20T14:41:24.279Z</time>
      </trkpt>
      <trkpt lat="48.75668" lon="2.28107">
        <ele>94</ele>
        <time>2022-02-20T14:41:28.302Z</time>
      </trkpt>
      <trkpt lat="48.75667" lon="2.28116">
        <ele>94</ele>
        <time>2022-02-20T14:41:33.271Z</time>
      </trkpt>
      <trkpt lat="48.75665" lon="2.28125">
        <ele>94</ele>
        <time>2022-02-20T14:41:38.270Z</time>
      </trkpt>
      <trkpt lat="48.75662" lon="2.28131">
        <ele>93</ele>
        <time>2022-02-20T14:41:42.271Z</time>
      </trkpt>
      <trkpt lat="48.7566" lon="2.2814">
        <ele>93</ele>
        <time>2022-02-20T14:41:47.271Z</time>
      </trkpt>
      <trkpt lat="48.75658" lon="2.28148">
        <ele>93</ele>
        <time>2022-02-20T14:41:52.275Z</time>
      </trkpt>
      <trkpt lat="48.75657" lon="2.28156">
        <ele>93</ele>
        <time>2022-02-20T14:41:57.268Z</time>
      </trkpt>
      <trkpt lat="48.75656" lon="2.28163">
        <ele>93</ele>
        <time>2022-02-20T14:42:01.271Z</time>
      </trkpt>
      <trkpt lat="48.75654" lon="2.28171">
        <ele>93</ele>
        <time>2022-02-20T14:42:05.288Z</time>
      </trkpt>
      <trkpt lat="48.75652" lon="2.2818">
        <ele>95</ele>
        <time>2022-02-20T14:42:10.270Z</time>
      </trkpt>
      <trkpt lat="48.75651" lon="2.28187">
        <ele>94</ele>
        <time>2022-02-20T14:42:14.276Z</time>
      </trkpt>
      <trkpt lat="48.75648" lon="2.28195">
        <ele>94</ele>
        <time>2022-02-20T14:42:19.272Z</time>
      </trkpt>
      <trkpt lat="48.75647" lon="2.28202">
        <ele>94</ele>
        <time>2022-02-20T14:42:23.269Z</time>
      </trkpt>
      <trkpt lat="48.75645" lon="2.28209">
        <ele>94</ele>
        <time>2022-02-20T14:42:27.281Z</time>
      </trkpt>
      <trkpt lat="48.75643" lon="2.28219">
        <ele>94</ele>
        <time>2022-02-20T14:42:32.271Z</time>
      </trkpt>
      <trkpt lat="48.75642" lon="2.28227">
        <ele>94</ele>
        <time>2022-02-20T14:42:36.298Z</time>
      </trkpt>
      <trkpt lat="48.7564" lon="2.28235">
        <ele>94</ele>
        <time>2022-02-20T14:42:41.260Z</time>
      </trkpt>
      <trkpt lat="48.75638" lon="2.28242">
        <ele>94</ele>
        <time>2022-02-20T14:42:45.266Z</time>
      </trkpt>
      <trkpt lat="48.75635" lon="2.28252">
        <ele>94</ele>
        <time>2022-02-20T14:42:50.278Z</time>
      </trkpt>
      <trkpt lat="48.75632" lon="2.2826">
        <ele>94</ele>
        <time>2022-02-20T14:42:55.270Z</time>
      </trkpt>
      <trkpt lat="48.7563" lon="2.28267">
        <ele>93</ele>
        <time>2022-02-20T14:42:59.271Z</time>
      </trkpt>
      <trkpt lat="48.75628" lon="2.28276">
        <ele>93</ele>
        <time>2022-02-20T14:43:04.270Z</time>
      </trkpt>
      <trkpt lat="48.75625" lon="2.28283">
        <ele>93</ele>
        <time>2022-02-20T14:43:09.274Z</time>
      </trkpt>
      <trkpt lat="48.75619" lon="2.283">
        <ele>91</ele>
        <time>2022-02-20T14:43:28.282Z</time>
      </trkpt>
      <trkpt lat="48.75619" lon="2.28301">
        <ele>91</ele>
        <time>2022-02-20T14:43:33.295Z</time>
      </trkpt>
      <trkpt lat="48.75619" lon="2.28308">
        <ele>91</ele>
        <time>2022-02-20T14:43:38.272Z</time>
      </trkpt>
      <trkpt lat="48.75625" lon="2.28312">
        <ele>91</ele>
        <time>2022-02-20T14:43:43.274Z</time>
      </trkpt>
      <trkpt lat="48.75629" lon="2.28316">
        <ele>93</ele>
        <time>2022-02-20T14:43:48.273Z</time>
      </trkpt>
      <trkpt lat="48.75627" lon="2.28321">
        <ele>92</ele>
        <time>2022-02-20T14:43:52.282Z</time>
      </trkpt>
      <trkpt lat="48.75625" lon="2.2833">
        <ele>91</ele>
        <time>2022-02-20T14:43:57.267Z</time>
      </trkpt>
      <trkpt lat="48.75623" lon="2.28336">
        <ele>91</ele>
        <time>2022-02-20T14:44:01.269Z</time>
      </trkpt>
      <trkpt lat="48.7562" lon="2.28342">
        <ele>91</ele>
        <time>2022-02-20T14:44:05.272Z</time>
      </trkpt>
      <trkpt lat="48.75618" lon="2.2835">
        <ele>91</ele>
        <time>2022-02-20T14:44:10.264Z</time>
      </trkpt>
      <trkpt lat="48.75616" lon="2.28356">
        <ele>91</ele>
        <time>2022-02-20T14:44:14.279Z</time>
      </trkpt>
      <trkpt lat="48.75614" lon="2.28364">
        <ele>91</ele>
        <time>2022-02-20T14:44:19.271Z</time>
      </trkpt>
      <trkpt lat="48.75612" lon="2.28372">
        <ele>91</ele>
        <time>2022-02-20T14:44:24.265Z</time>
      </trkpt>
      <trkpt lat="48.75609" lon="2.2838">
        <ele>90</ele>
        <time>2022-02-20T14:44:29.278Z</time>
      </trkpt>
      <trkpt lat="48.75607" lon="2.28388">
        <ele>90</ele>
        <time>2022-02-20T14:44:34.271Z</time>
      </trkpt>
      <trkpt lat="48.75604" lon="2.28397">
        <ele>90</ele>
        <time>2022-02-20T14:44:39.258Z</time>
      </trkpt>
      <trkpt lat="48.75605" lon="2.28401">
        <ele>90</ele>
        <time>2022-02-20T14:44:44.292Z</time>
      </trkpt>
      <trkpt lat="48.75605" lon="2.28402">
        <ele>90</ele>
        <time>2022-02-20T14:44:49.258Z</time>
      </trkpt>
      <trkpt lat="48.75606" lon="2.28405">
        <ele>89</ele>
        <time>2022-02-20T14:44:54.262Z</time>
      </trkpt>
      <trkpt lat="48.75611" lon="2.28406">
        <ele>89</ele>
        <time>2022-02-20T14:44:59.258Z</time>
      </trkpt>
      <trkpt lat="48.75617" lon="2.28404">
        <ele>89</ele>
        <time>2022-02-20T14:45:04.267Z</time>
      </trkpt>
      <trkpt lat="48.75623" lon="2.28404">
        <ele>89</ele>
        <time>2022-02-20T14:45:09.264Z</time>
      </trkpt>
      <trkpt lat="48.75628" lon="2.28404">
        <ele>89</ele>
        <time>2022-02-20T14:45:13.270Z</time>
      </trkpt>
      <trkpt lat="48.75634" lon="2.28404">
        <ele>89</ele>
        <time>2022-02-20T14:45:18.272Z</time>
      </trkpt>
      <trkpt lat="48.7564" lon="2.28405">
        <ele>89</ele>
        <time>2022-02-20T14:45:23.272Z</time>
      </trkpt>
      <trkpt lat="48.75646" lon="2.28408">
        <ele>89</ele>
        <time>2022-02-20T14:45:28.268Z</time>
      </trkpt>
      <trkpt lat="48.7565" lon="2.2841">
        <ele>89</ele>
        <time>2022-02-20T14:45:33.265Z</time>
      </trkpt>
      <trkpt lat="48.75653" lon="2.28413">
        <ele>89</ele>
        <time>2022-02-20T14:45:37.269Z</time>
      </trkpt>
      <trkpt lat="48.75656" lon="2.28417">
        <ele>89</ele>
        <time>2022-02-20T14:45:41.271Z</time>
      </trkpt>
      <trkpt lat="48.75657" lon="2.28423">
        <ele>89</ele>
        <time>2022-02-20T14:45:46.269Z</time>
      </trkpt>
      <trkpt lat="48.75659" lon="2.28429">
        <ele>89</ele>
        <time>2022-02-20T14:45:50.285Z</time>
      </trkpt>
      <trkpt lat="48.75661" lon="2.28434">
        <ele>89</ele>
        <time>2022-02-20T14:45:55.268Z</time>
      </trkpt>
      <trkpt lat="48.75662" lon="2.28442">
        <ele>89</ele>
        <time>2022-02-20T14:46:00.267Z</time>
      </trkpt>
      <trkpt lat="48.75663" lon="2.28448">
        <ele>89</ele>
        <time>2022-02-20T14:46:04.285Z</time>
      </trkpt>
      <trkpt lat="48.75664" lon="2.28454">
        <ele>89</ele>
        <time>2022-02-20T14:46:08.292Z</time>
      </trkpt>
      <trkpt lat="48.75664" lon="2.28462">
        <ele>89</ele>
        <time>2022-02-20T14:46:13.265Z</time>
      </trkpt>
      <trkpt lat="48.75665" lon="2.28468">
        <ele>89</ele>
        <time>2022-02-20T14:46:17.279Z</time>
      </trkpt>
      <trkpt lat="48.75669" lon="2.28475">
        <ele>89</ele>
        <time>2022-02-20T14:46:22.268Z</time>
      </trkpt>
      <trkpt lat="48.75673" lon="2.2848">
        <ele>89</ele>
        <time>2022-02-20T14:46:27.261Z</time>
      </trkpt>
      <trkpt lat="48.75678" lon="2.28485">
        <ele>89</ele>
        <time>2022-02-20T14:46:32.265Z</time>
      </trkpt>
      <trkpt lat="48.75683" lon="2.28489">
        <ele>90</ele>
        <time>2022-02-20T14:46:36.281Z</time>
      </trkpt>
      <trkpt lat="48.75688" lon="2.28493">
        <ele>90</ele>
        <time>2022-02-20T14:46:41.265Z</time>
      </trkpt>
      <trkpt lat="48.75693" lon="2.28495">
        <ele>90</ele>
        <time>2022-02-20T14:46:45.286Z</time>
      </trkpt>
      <trkpt lat="48.757" lon="2.28496">
        <ele>90</ele>
        <time>2022-02-20T14:46:50.265Z</time>
      </trkpt>
      <trkpt lat="48.75707" lon="2.28497">
        <ele>90</ele>
        <time>2022-02-20T14:46:55.263Z</time>
      </trkpt>
      <trkpt lat="48.75711" lon="2.28497">
        <ele>90</ele>
        <time>2022-02-20T14:46:59.287Z</time>
      </trkpt>
      <trkpt lat="48.75718" lon="2.28496">
        <ele>90</ele>
        <time>2022-02-20T14:47:04.263Z</time>
      </trkpt>
      <trkpt lat="48.75723" lon="2.28497">
        <ele>90</ele>
        <time>2022-02-20T14:47:08.274Z</time>
      </trkpt>
      <trkpt lat="48.75728" lon="2.28501">
        <ele>90</ele>
        <time>2022-02-20T14:47:13.267Z</time>
      </trkpt>
      <trkpt lat="48.75733" lon="2.28504">
        <ele>90</ele>
        <time>2022-02-20T14:47:18.262Z</time>
      </trkpt>
      <trkpt lat="48.75737" lon="2.28507">
        <ele>90</ele>
        <time>2022-02-20T14:47:22.274Z</time>
      </trkpt>
      <trkpt lat="48.75743" lon="2.2851">
        <ele>90</ele>
        <time>2022-02-20T14:47:27.268Z</time>
      </trkpt>
      <trkpt lat="48.75748" lon="2.28512">
        <ele>90</ele>
        <time>2022-02-20T14:47:31.270Z</time>
      </trkpt>
      <trkpt lat="48.75754" lon="2.28514">
        <ele>90</ele>
        <time>2022-02-20T14:47:36.271Z</time>
      </trkpt>
      <trkpt lat="48.7576" lon="2.28514">
        <ele>90</ele>
        <time>2022-02-20T14:47:41.268Z</time>
      </trkpt>
      <trkpt lat="48.75766" lon="2.28513">
        <ele>90</ele>
        <time>2022-02-20T14:47:46.264Z</time>
      </trkpt>
      <trkpt lat="48.75771" lon="2.28512">
        <ele>90</ele>
        <time>2022-02-20T14:47:50.273Z</time>
      </trkpt>
      <trkpt lat="48.75777" lon="2.28512">
        <ele>90</ele>
        <time>2022-02-20T14:47:54.269Z</time>
      </trkpt>
      <trkpt lat="48.75784" lon="2.28513">
        <ele>90</ele>
        <time>2022-02-20T14:47:59.261Z</time>
      </trkpt>
      <trkpt lat="48.75788" lon="2.28514">
        <ele>90</ele>
        <time>2022-02-20T14:48:03.261Z</time>
      </trkpt>
      <trkpt lat="48.75793" lon="2.28514">
        <ele>90</ele>
        <time>2022-02-20T14:48:07.266Z</time>
      </trkpt>
      <trkpt lat="48.75799" lon="2.28517">
        <ele>90</ele>
        <time>2022-02-20T14:48:12.265Z</time>
      </trkpt>
      <trkpt lat="48.75804" lon="2.28519">
        <ele>90</ele>
        <time>2022-02-20T14:48:17.271Z</time>
      </trkpt>
      <trkpt lat="48.7581" lon="2.28521">
        <ele>90</ele>
        <time>2022-02-20T14:48:22.262Z</time>
      </trkpt>
      <trkpt lat="48.75816" lon="2.28522">
        <ele>90</ele>
        <time>2022-02-20T14:48:26.262Z</time>
      </trkpt>
      <trkpt lat="48.75822" lon="2.28518">
        <ele>90</ele>
        <time>2022-02-20T14:48:31.267Z</time>
      </trkpt>
      <trkpt lat="48.75824" lon="2.28511">
        <ele>89</ele>
        <time>2022-02-20T14:48:36.266Z</time>
      </trkpt>
      <trkpt lat="48.75826" lon="2.28505">
        <ele>89</ele>
        <time>2022-02-20T14:48:40.268Z</time>
      </trkpt>
      <trkpt lat="48.75828" lon="2.285">
        <ele>89</ele>
        <time>2022-02-20T14:48:45.271Z</time>
      </trkpt>
      <trkpt lat="48.75831" lon="2.28495">
        <ele>89</ele>
        <time>2022-02-20T14:48:49.263Z</time>
      </trkpt>
      <trkpt lat="48.75835" lon="2.2849">
        <ele>89</ele>
        <time>2022-02-20T14:48:54.281Z</time>
      </trkpt>
      <trkpt lat="48.7584" lon="2.28488">
        <ele>89</ele>
        <time>2022-02-20T14:48:59.269Z</time>
      </trkpt>
      <trkpt lat="48.75846" lon="2.28489">
        <ele>89</ele>
        <time>2022-02-20T14:49:04.264Z</time>
      </trkpt>
      <trkpt lat="48.7585" lon="2.28489">
        <ele>90</ele>
        <time>2022-02-20T14:49:08.264Z</time>
      </trkpt>
      <trkpt lat="48.75854" lon="2.28491">
        <ele>90</ele>
        <time>2022-02-20T14:49:12.270Z</time>
      </trkpt>
      <trkpt lat="48.7586" lon="2.28491">
        <ele>90</ele>
        <time>2022-02-20T14:49:17.261Z</time>
      </trkpt>
      <trkpt lat="48.75865" lon="2.28491">
        <ele>90</ele>
        <time>2022-02-20T14:49:21.269Z</time>
      </trkpt>
      <trkpt lat="48.75871" lon="2.28492">
        <ele>90</ele>
        <time>2022-02-20T14:49:26.268Z</time>
      </trkpt>
      <trkpt lat="48.75875" lon="2.28493">
        <ele>91</ele>
        <time>2022-02-20T14:49:30.270Z</time>
      </trkpt>
      <trkpt lat="48.7588" lon="2.28495">
        <ele>91</ele>
        <time>2022-02-20T14:49:34.275Z</time>
      </trkpt>
      <trkpt lat="48.75887" lon="2.28497">
        <ele>91</ele>
        <time>2022-02-20T14:49:39.265Z</time>
      </trkpt>
      <trkpt lat="48.75893" lon="2.28495">
        <ele>91</ele>
        <time>2022-02-20T14:49:44.279Z</time>
      </trkpt>
      <trkpt lat="48.75896" lon="2.28487">
        <ele>91</ele>
        <time>2022-02-20T14:49:49.268Z</time>
      </trkpt>
      <trkpt lat="48.75898" lon="2.28479">
        <ele>92</ele>
        <time>2022-02-20T14:49:54.268Z</time>
      </trkpt>
      <trkpt lat="48.75903" lon="2.28474">
        <ele>92</ele>
        <time>2022-02-20T14:49:59.267Z</time>
      </trkpt>
      <trkpt lat="48.75908" lon="2.28471">
        <ele>92</ele>
        <time>2022-02-20T14:50:04.273Z</time>
      </trkpt>
      <trkpt lat="48.75914" lon="2.28469">
        <ele>92</ele>
        <time>2022-02-20T14:50:09.264Z</time>
      </trkpt>
      <trkpt lat="48.75919" lon="2.28468">
        <ele>92</ele>
        <time>2022-02-20T14:50:14.271Z</time>
      </trkpt>
      <trkpt lat="48.75923" lon="2.28466">
        <ele>92</ele>
        <time>2022-02-20T14:50:19.261Z</time>
      </trkpt>
      <trkpt lat="48.75926" lon="2.28459">
        <ele>92</ele>
        <time>2022-02-20T14:50:24.267Z</time>
      </trkpt>
      <trkpt lat="48.7593" lon="2.28456">
        <ele>93</ele>
        <time>2022-02-20T14:50:28.270Z</time>
      </trkpt>
      <trkpt lat="48.75935" lon="2.28456">
        <ele>93</ele>
        <time>2022-02-20T14:50:33.274Z</time>
      </trkpt>
      <trkpt lat="48.75939" lon="2.28457">
        <ele>93</ele>
        <time>2022-02-20T14:50:37.277Z</time>
      </trkpt>
      <trkpt lat="48.75946" lon="2.28459">
        <ele>91</ele>
        <time>2022-02-20T14:50:42.262Z</time>
      </trkpt>
      <trkpt lat="48.75953" lon="2.2846">
        <ele>91</ele>
        <time>2022-02-20T14:50:47.264Z</time>
      </trkpt>
      <trkpt lat="48.75958" lon="2.28463">
        <ele>91</ele>
        <time>2022-02-20T14:50:52.265Z</time>
      </trkpt>
      <trkpt lat="48.75961" lon="2.28461">
        <ele>90</ele>
        <time>2022-02-20T14:50:56.269Z</time>
      </trkpt>
      <trkpt lat="48.75965" lon="2.2846">
        <ele>90</ele>
        <time>2022-02-20T14:51:19.267Z</time>
      </trkpt>
      <trkpt lat="48.75965" lon="2.28461">
        <ele>90</ele>
        <time>2022-02-20T14:51:23.275Z</time>
      </trkpt>
      <trkpt lat="48.75968" lon="2.28459">
        <ele>90</ele>
        <time>2022-02-20T14:51:28.270Z</time>
      </trkpt>
      <trkpt lat="48.75971" lon="2.28461">
        <ele>90</ele>
        <time>2022-02-20T14:51:32.280Z</time>
      </trkpt>
      <trkpt lat="48.75976" lon="2.28462">
        <ele>90</ele>
        <time>2022-02-20T14:51:37.257Z</time>
      </trkpt>
      <trkpt lat="48.75985" lon="2.28458">
        <ele>91</ele>
        <time>2022-02-20T14:52:10.263Z</time>
      </trkpt>
      <trkpt lat="48.75986" lon="2.28458">
        <ele>91</ele>
        <time>2022-02-20T14:52:15.268Z</time>
      </trkpt>
      <trkpt lat="48.75986" lon="2.28457">
        <ele>90</ele>
        <time>2022-02-20T14:52:20.269Z</time>
      </trkpt>
      <trkpt lat="48.75988" lon="2.28457">
        <ele>90</ele>
        <time>2022-02-20T14:52:24.270Z</time>
      </trkpt>
      <trkpt lat="48.75992" lon="2.28453">
        <ele>90</ele>
        <time>2022-02-20T14:52:29.269Z</time>
      </trkpt>
      <trkpt lat="48.75996" lon="2.2845">
        <ele>90</ele>
        <time>2022-02-20T14:52:34.264Z</time>
      </trkpt>
      <trkpt lat="48.75999" lon="2.28452">
        <ele>90</ele>
        <time>2022-02-20T14:52:38.269Z</time>
      </trkpt>
      <trkpt lat="48.76002" lon="2.2845">
        <ele>90</ele>
        <time>2022-02-20T14:52:43.282Z</time>
      </trkpt>
      <trkpt lat="48.76006" lon="2.28448">
        <ele>90</ele>
        <time>2022-02-20T14:52:48.266Z</time>
      </trkpt>
      <trkpt lat="48.76009" lon="2.28447">
        <ele>90</ele>
        <time>2022-02-20T14:52:52.269Z</time>
      </trkpt>
      <trkpt lat="48.76013" lon="2.28447">
        <ele>90</ele>
        <time>2022-02-20T14:52:57.269Z</time>
      </trkpt>
      <trkpt lat="48.76018" lon="2.28447">
        <ele>89</ele>
        <time>2022-02-20T14:53:01.398Z</time>
      </trkpt>
      <trkpt lat="48.76021" lon="2.28454">
        <ele>89</ele>
        <time>2022-02-20T14:53:06.270Z</time>
      </trkpt>
      <trkpt lat="48.76019" lon="2.28459">
        <ele>86</ele>
        <time>2022-02-20T14:53:33.266Z</time>
      </trkpt>
      <trkpt lat="48.76019" lon="2.2846">
        <ele>86</ele>
        <time>2022-02-20T14:53:38.273Z</time>
      </trkpt>
      <trkpt lat="48.76016" lon="2.28464">
        <ele>86</ele>
        <time>2022-02-20T14:53:43.273Z</time>
      </trkpt>
      <trkpt lat="48.76016" lon="2.28469">
        <ele>86</ele>
        <time>2022-02-20T14:53:48.266Z</time>
      </trkpt>
      <trkpt lat="48.76017" lon="2.28474">
        <ele>86</ele>
        <time>2022-02-20T14:53:52.278Z</time>
      </trkpt>
      <trkpt lat="48.76023" lon="2.28477">
        <ele>86</ele>
        <time>2022-02-20T14:53:57.256Z</time>
      </trkpt>
      <trkpt lat="48.76028" lon="2.28476">
        <ele>86</ele>
        <time>2022-02-20T14:54:01.264Z</time>
      </trkpt>
      <trkpt lat="48.76032" lon="2.2848">
        <ele>86</ele>
        <time>2022-02-20T14:54:06.259Z</time>
      </trkpt>
      <trkpt lat="48.76036" lon="2.28482">
        <ele>86</ele>
        <time>2022-02-20T14:54:10.267Z</time>
      </trkpt>
      <trkpt lat="48.7604" lon="2.28485">
        <ele>86</ele>
        <time>2022-02-20T14:54:15.268Z</time>
      </trkpt>
      <trkpt lat="48.76044" lon="2.28489">
        <ele>84</ele>
        <time>2022-02-20T14:54:20.264Z</time>
      </trkpt>
      <trkpt lat="48.76048" lon="2.2849">
        <ele>84</ele>
        <time>2022-02-20T14:54:25.266Z</time>
      </trkpt>
      <trkpt lat="48.76052" lon="2.2849">
        <ele>84</ele>
        <time>2022-02-20T14:54:30.263Z</time>
      </trkpt>
      <trkpt lat="48.7606" lon="2.28485">
        <ele>86</ele>
        <time>2022-02-20T14:54:48.259Z</time>
      </trkpt>
      <trkpt lat="48.76065" lon="2.28488">
        <ele>84</ele>
        <time>2022-02-20T14:54:53.255Z</time>
      </trkpt>
      <trkpt lat="48.76073" lon="2.28494">
        <ele>86</ele>
        <time>2022-02-20T14:54:57.261Z</time>
      </trkpt>
      <trkpt lat="48.76079" lon="2.28494">
        <ele>86</ele>
        <time>2022-02-20T14:55:01.261Z</time>
      </trkpt>
      <trkpt lat="48.76086" lon="2.28493">
        <ele>86</ele>
        <time>2022-02-20T14:55:06.260Z</time>
      </trkpt>
      <trkpt lat="48.76091" lon="2.28491">
        <ele>86</ele>
        <time>2022-02-20T14:55:11.265Z</time>
      </trkpt>
      <trkpt lat="48.76096" lon="2.28491">
        <ele>86</ele>
        <time>2022-02-20T14:55:15.255Z</time>
      </trkpt>
      <trkpt lat="48.76101" lon="2.28489">
        <ele>85</ele>
        <time>2022-02-20T14:55:20.267Z</time>
      </trkpt>
      <trkpt lat="48.76106" lon="2.28489">
        <ele>85</ele>
        <time>2022-02-20T14:55:25.257Z</time>
      </trkpt>
      <trkpt lat="48.76111" lon="2.28488">
        <ele>85</ele>
        <time>2022-02-20T14:55:29.266Z</time>
      </trkpt>
      <trkpt lat="48.76117" lon="2.28487">
        <ele>85</ele>
        <time>2022-02-20T14:55:34.266Z</time>
      </trkpt>
      <trkpt lat="48.76124" lon="2.28487">
        <ele>85</ele>
        <time>2022-02-20T14:55:39.266Z</time>
      </trkpt>
      <trkpt lat="48.76131" lon="2.28487">
        <ele>82</ele>
        <time>2022-02-20T14:55:44.268Z</time>
      </trkpt>
      <trkpt lat="48.76136" lon="2.28488">
        <ele>82</ele>
        <time>2022-02-20T14:55:48.276Z</time>
      </trkpt>
      <trkpt lat="48.7614" lon="2.28489">
        <ele>82</ele>
        <time>2022-02-20T14:55:52.273Z</time>
      </trkpt>
      <trkpt lat="48.76146" lon="2.28488">
        <ele>82</ele>
        <time>2022-02-20T14:55:57.267Z</time>
      </trkpt>
      <trkpt lat="48.76151" lon="2.28487">
        <ele>82</ele>
        <time>2022-02-20T14:56:01.268Z</time>
      </trkpt>
      <trkpt lat="48.76156" lon="2.28487">
        <ele>81</ele>
        <time>2022-02-20T14:56:06.272Z</time>
      </trkpt>
      <trkpt lat="48.76163" lon="2.28488">
        <ele>81</ele>
        <time>2022-02-20T14:56:11.274Z</time>
      </trkpt>
      <trkpt lat="48.76169" lon="2.28488">
        <ele>81</ele>
        <time>2022-02-20T14:56:16.275Z</time>
      </trkpt>
      <trkpt lat="48.76175" lon="2.28489">
        <ele>81</ele>
        <time>2022-02-20T14:56:21.267Z</time>
      </trkpt>
      <trkpt lat="48.76181" lon="2.2849">
        <ele>81</ele>
        <time>2022-02-20T14:56:25.264Z</time>
      </trkpt>
      <trkpt lat="48.76186" lon="2.28492">
        <ele>82</ele>
        <time>2022-02-20T14:56:29.277Z</time>
      </trkpt>
      <trkpt lat="48.76192" lon="2.28495">
        <ele>82</ele>
        <time>2022-02-20T14:56:34.271Z</time>
      </trkpt>
      <trkpt lat="48.76197" lon="2.28496">
        <ele>82</ele>
        <time>2022-02-20T14:56:39.267Z</time>
      </trkpt>
      <trkpt lat="48.76203" lon="2.28495">
        <ele>82</ele>
        <time>2022-02-20T14:56:44.262Z</time>
      </trkpt>
      <trkpt lat="48.76206" lon="2.28501">
        <ele>82</ele>
        <time>2022-02-20T14:56:48.260Z</time>
      </trkpt>
      <trkpt lat="48.7621" lon="2.28504">
        <ele>82</ele>
        <time>2022-02-20T14:56:53.265Z</time>
      </trkpt>
      <trkpt lat="48.76213" lon="2.28504">
        <ele>82</ele>
        <time>2022-02-20T14:56:57.261Z</time>
      </trkpt>
      <trkpt lat="48.76218" lon="2.28501">
        <ele>82</ele>
        <time>2022-02-20T14:57:02.259Z</time>
      </trkpt>
      <trkpt lat="48.76225" lon="2.28504">
        <ele>82</ele>
        <time>2022-02-20T14:57:07.269Z</time>
      </trkpt>
      <trkpt lat="48.76227" lon="2.28503">
        <ele>82</ele>
        <time>2022-02-20T14:57:12.261Z</time>
      </trkpt>
      <trkpt lat="48.76234" lon="2.28501">
        <ele>82</ele>
        <time>2022-02-20T14:57:17.264Z</time>
      </trkpt>
      <trkpt lat="48.7624" lon="2.285">
        <ele>82</ele>
        <time>2022-02-20T14:57:22.264Z</time>
      </trkpt>
      <trkpt lat="48.76247" lon="2.285">
        <ele>82</ele>
        <time>2022-02-20T14:57:27.269Z</time>
      </trkpt>
      <trkpt lat="48.76253" lon="2.28497">
        <ele>82</ele>
        <time>2022-02-20T14:57:32.269Z</time>
      </trkpt>
      <trkpt lat="48.76259" lon="2.28493">
        <ele>82</ele>
        <time>2022-02-20T14:57:37.269Z</time>
      </trkpt>
      <trkpt lat="48.76263" lon="2.2849">
        <ele>82</ele>
        <time>2022-02-20T14:57:41.266Z</time>
      </trkpt>
      <trkpt lat="48.76268" lon="2.28486">
        <ele>82</ele>
        <time>2022-02-20T14:57:46.267Z</time>
      </trkpt>
      <trkpt lat="48.76273" lon="2.28487">
        <ele>82</ele>
        <time>2022-02-20T14:57:50.274Z</time>
      </trkpt>
      <trkpt lat="48.76279" lon="2.28488">
        <ele>82</ele>
        <time>2022-02-20T14:57:55.267Z</time>
      </trkpt>
      <trkpt lat="48.76286" lon="2.28487">
        <ele>82</ele>
        <time>2022-02-20T14:58:00.260Z</time>
      </trkpt>
      <trkpt lat="48.76292" lon="2.28486">
        <ele>83</ele>
        <time>2022-02-20T14:58:05.258Z</time>
      </trkpt>
      <trkpt lat="48.76298" lon="2.28486">
        <ele>83</ele>
        <time>2022-02-20T14:58:10.274Z</time>
      </trkpt>
      <trkpt lat="48.76305" lon="2.28485">
        <ele>83</ele>
        <time>2022-02-20T14:58:15.269Z</time>
      </trkpt>
      <trkpt lat="48.7631" lon="2.28484">
        <ele>83</ele>
        <time>2022-02-20T14:58:19.272Z</time>
      </trkpt>
      <trkpt lat="48.76317" lon="2.28483">
        <ele>83</ele>
        <time>2022-02-20T14:58:24.257Z</time>
      </trkpt>
      <trkpt lat="48.76322" lon="2.28481">
        <ele>84</ele>
        <time>2022-02-20T14:58:28.285Z</time>
      </trkpt>
      <trkpt lat="48.76329" lon="2.28481">
        <ele>84</ele>
        <time>2022-02-20T14:58:33.287Z</time>
      </trkpt>
      <trkpt lat="48.76335" lon="2.2848">
        <ele>84</ele>
        <time>2022-02-20T14:58:38.272Z</time>
      </trkpt>
      <trkpt lat="48.76343" lon="2.28479">
        <ele>84</ele>
        <time>2022-02-20T14:58:43.263Z</time>
      </trkpt>
      <trkpt lat="48.76349" lon="2.2848">
        <ele>85</ele>
        <time>2022-02-20T14:58:47.270Z</time>
      </trkpt>
      <trkpt lat="48.76355" lon="2.2848">
        <ele>85</ele>
        <time>2022-02-20T14:58:52.263Z</time>
      </trkpt>
      <trkpt lat="48.76361" lon="2.28481">
        <ele>85</ele>
        <time>2022-02-20T14:58:56.269Z</time>
      </trkpt>
      <trkpt lat="48.76368" lon="2.28482">
        <ele>85</ele>
        <time>2022-02-20T14:59:01.265Z</time>
      </trkpt>
      <trkpt lat="48.76373" lon="2.28481">
        <ele>85</ele>
        <time>2022-02-20T14:59:05.265Z</time>
      </trkpt>
      <trkpt lat="48.76379" lon="2.28481">
        <ele>84</ele>
        <time>2022-02-20T14:59:10.266Z</time>
      </trkpt>
      <trkpt lat="48.76385" lon="2.2848">
        <ele>84</ele>
        <time>2022-02-20T14:59:14.269Z</time>
      </trkpt>
      <trkpt lat="48.76389" lon="2.2848">
        <ele>84</ele>
        <time>2022-02-20T14:59:18.281Z</time>
      </trkpt>
      <trkpt lat="48.76396" lon="2.2848">
        <ele>84</ele>
        <time>2022-02-20T14:59:23.283Z</time>
      </trkpt>
      <trkpt lat="48.76402" lon="2.28479">
        <ele>84</ele>
        <time>2022-02-20T14:59:28.274Z</time>
      </trkpt>
      <trkpt lat="48.76407" lon="2.28478">
        <ele>85</ele>
        <time>2022-02-20T14:59:32.277Z</time>
      </trkpt>
      <trkpt lat="48.76414" lon="2.28478">
        <ele>85</ele>
        <time>2022-02-20T14:59:37.273Z</time>
      </trkpt>
      <trkpt lat="48.76421" lon="2.28477">
        <ele>85</ele>
        <time>2022-02-20T14:59:42.267Z</time>
      </trkpt>
      <trkpt lat="48.76427" lon="2.28478">
        <ele>85</ele>
        <time>2022-02-20T14:59:47.274Z</time>
      </trkpt>
      <trkpt lat="48.76433" lon="2.28478">
        <ele>86</ele>
        <time>2022-02-20T14:59:52.270Z</time>
      </trkpt>
      <trkpt lat="48.76439" lon="2.2848">
        <ele>86</ele>
        <time>2022-02-20T14:59:56.274Z</time>
      </trkpt>
      <trkpt lat="48.76446" lon="2.28483">
        <ele>86</ele>
        <time>2022-02-20T15:00:01.266Z</time>
      </trkpt>
      <trkpt lat="48.76452" lon="2.28485">
        <ele>86</ele>
        <time>2022-02-20T15:00:05.266Z</time>
      </trkpt>
      <trkpt lat="48.76459" lon="2.28488">
        <ele>86</ele>
        <time>2022-02-20T15:00:10.277Z</time>
      </trkpt>
      <trkpt lat="48.76464" lon="2.2849">
        <ele>86</ele>
        <time>2022-02-20T15:00:14.269Z</time>
      </trkpt>
      <trkpt lat="48.7647" lon="2.28489">
        <ele>86</ele>
        <time>2022-02-20T15:00:19.263Z</time>
      </trkpt>
      <trkpt lat="48.76476" lon="2.2849">
        <ele>86</ele>
        <time>2022-02-20T15:00:24.270Z</time>
      </trkpt>
      <trkpt lat="48.76481" lon="2.28494">
        <ele>86</ele>
        <time>2022-02-20T15:00:28.273Z</time>
      </trkpt>
      <trkpt lat="48.76483" lon="2.28494">
        <ele>86</ele>
        <time>2022-02-20T15:00:32.279Z</time>
      </trkpt>
      <trkpt lat="48.76489" lon="2.28495">
        <ele>86</ele>
        <time>2022-02-20T15:00:37.266Z</time>
      </trkpt>
      <trkpt lat="48.76493" lon="2.28496">
        <ele>86</ele>
        <time>2022-02-20T15:00:41.269Z</time>
      </trkpt>
      <trkpt lat="48.76498" lon="2.28497">
        <ele>86</ele>
        <time>2022-02-20T15:00:46.263Z</time>
      </trkpt>
      <trkpt lat="48.76504" lon="2.28497">
        <ele>86</ele>
        <time>2022-02-20T15:00:51.278Z</time>
      </trkpt>
      <trkpt lat="48.76509" lon="2.28497">
        <ele>86</ele>
        <time>2022-02-20T15:00:56.267Z</time>
      </trkpt>
      <trkpt lat="48.76515" lon="2.28496">
        <ele>85</ele>
        <time>2022-02-20T15:01:01.277Z</time>
      </trkpt>
      <trkpt lat="48.7652" lon="2.28496">
        <ele>85</ele>
        <time>2022-02-20T15:01:06.268Z</time>
      </trkpt>
      <trkpt lat="48.76525" lon="2.28494">
        <ele>85</ele>
        <time>2022-02-20T15:01:11.281Z</time>
      </trkpt>
      <trkpt lat="48.7653" lon="2.28494">
        <ele>85</ele>
        <time>2022-02-20T15:01:16.265Z</time>
      </trkpt>
      <trkpt lat="48.76536" lon="2.2849">
        <ele>85</ele>
        <time>2022-02-20T15:01:21.272Z</time>
      </trkpt>
      <trkpt lat="48.76542" lon="2.28488">
        <ele>86</ele>
        <time>2022-02-20T15:01:26.271Z</time>
      </trkpt>
      <trkpt lat="48.76547" lon="2.28488">
        <ele>86</ele>
        <time>2022-02-20T15:01:30.270Z</time>
      </trkpt>
      <trkpt lat="48.76554" lon="2.28489">
        <ele>86</ele>
        <time>2022-02-20T15:01:35.279Z</time>
      </trkpt>
      <trkpt lat="48.7656" lon="2.2849">
        <ele>86</ele>
        <time>2022-02-20T15:01:40.262Z</time>
      </trkpt>
      <trkpt lat="48.76565" lon="2.28491">
        <ele>86</ele>
        <time>2022-02-20T15:01:45.273Z</time>
      </trkpt>
      <trkpt lat="48.76568" lon="2.28489">
        <ele>86</ele>
        <time>2022-02-20T15:01:49.278Z</time>
      </trkpt>
      <trkpt lat="48.7657" lon="2.28482">
        <ele>87</ele>
        <time>2022-02-20T15:01:54.272Z</time>
      </trkpt>
      <trkpt lat="48.76574" lon="2.28476">
        <ele>87</ele>
        <time>2022-02-20T15:01:59.271Z</time>
      </trkpt>
      <trkpt lat="48.76587" lon="2.28476">
        <ele>87</ele>
        <time>2022-02-20T15:02:22.274Z</time>
      </trkpt>
      <trkpt lat="48.76587" lon="2.28478">
        <ele>87</ele>
        <time>2022-02-20T15:02:27.270Z</time>
      </trkpt>
      <trkpt lat="48.76587" lon="2.2848">
        <ele>87</ele>
        <time>2022-02-20T15:02:31.271Z</time>
      </trkpt>
      <trkpt lat="48.76587" lon="2.2848">
        <ele>87</ele>
        <time>2022-02-20T15:02:35.271Z</time>
      </trkpt>
      <trkpt lat="48.76587" lon="2.2848">
        <ele>87</ele>
        <time>2022-02-20T15:02:40.259Z</time>
      </trkpt>
      <trkpt lat="48.76586" lon="2.28481">
        <ele>87</ele>
        <time>2022-02-20T15:03:02.263Z</time>
      </trkpt>
      <trkpt lat="48.76587" lon="2.28482">
        <ele>87</ele>
        <time>2022-02-20T15:03:06.263Z</time>
      </trkpt>
      <trkpt lat="48.76588" lon="2.28485">
        <ele>87</ele>
        <time>2022-02-20T15:03:11.270Z</time>
      </trkpt>
      <trkpt lat="48.76589" lon="2.28493">
        <ele>87</ele>
        <time>2022-02-20T15:03:16.266Z</time>
      </trkpt>
      <trkpt lat="48.76589" lon="2.28503">
        <ele>87</ele>
        <time>2022-02-20T15:03:21.267Z</time>
      </trkpt>
      <trkpt lat="48.76589" lon="2.28511">
        <ele>87</ele>
        <time>2022-02-20T15:03:25.271Z</time>
      </trkpt>
      <trkpt lat="48.76589" lon="2.28518">
        <ele>87</ele>
        <time>2022-02-20T15:03:29.284Z</time>
      </trkpt>
      <trkpt lat="48.76589" lon="2.28528">
        <ele>87</ele>
        <time>2022-02-20T15:03:34.263Z</time>
      </trkpt>
      <trkpt lat="48.7659" lon="2.28537">
        <ele>87</ele>
        <time>2022-02-20T15:03:39.288Z</time>
      </trkpt>
      <trkpt lat="48.76591" lon="2.28547">
        <ele>86</ele>
        <time>2022-02-20T15:03:44.271Z</time>
      </trkpt>
      <trkpt lat="48.76592" lon="2.28556">
        <ele>86</ele>
        <time>2022-02-20T15:03:49.258Z</time>
      </trkpt>
      <trkpt lat="48.76593" lon="2.28565">
        <ele>86</ele>
        <time>2022-02-20T15:03:53.269Z</time>
      </trkpt>
      <trkpt lat="48.76593" lon="2.28573">
        <ele>85</ele>
        <time>2022-02-20T15:03:57.269Z</time>
      </trkpt>
      <trkpt lat="48.76595" lon="2.28582">
        <ele>85</ele>
        <time>2022-02-20T15:04:02.266Z</time>
      </trkpt>
      <trkpt lat="48.76595" lon="2.2859">
        <ele>85</ele>
        <time>2022-02-20T15:04:06.271Z</time>
      </trkpt>
      <trkpt lat="48.76595" lon="2.28598">
        <ele>85</ele>
        <time>2022-02-20T15:04:11.269Z</time>
      </trkpt>
      <trkpt lat="48.76595" lon="2.28607">
        <ele>85</ele>
        <time>2022-02-20T15:04:16.256Z</time>
      </trkpt>
      <trkpt lat="48.76596" lon="2.28614">
        <ele>85</ele>
        <time>2022-02-20T15:04:20.271Z</time>
      </trkpt>
      <trkpt lat="48.76597" lon="2.28622">
        <ele>86</ele>
        <time>2022-02-20T15:04:25.268Z</time>
      </trkpt>
      <trkpt lat="48.76597" lon="2.2863">
        <ele>85</ele>
        <time>2022-02-20T15:04:30.266Z</time>
      </trkpt>
      <trkpt lat="48.76597" lon="2.28638">
        <ele>86</ele>
        <time>2022-02-20T15:04:34.285Z</time>
      </trkpt>
      <trkpt lat="48.76599" lon="2.28647">
        <ele>86</ele>
        <time>2022-02-20T15:04:39.273Z</time>
      </trkpt>
      <trkpt lat="48.76601" lon="2.28655">
        <ele>86</ele>
        <time>2022-02-20T15:04:44.290Z</time>
      </trkpt>
      <trkpt lat="48.76603" lon="2.28663">
        <ele>86</ele>
        <time>2022-02-20T15:04:49.289Z</time>
      </trkpt>
      <trkpt lat="48.76605" lon="2.2867">
        <ele>86</ele>
        <time>2022-02-20T15:04:54.278Z</time>
      </trkpt>
      <trkpt lat="48.76609" lon="2.2868">
        <ele>86</ele>
        <time>2022-02-20T15:04:59.282Z</time>
      </trkpt>
      <trkpt lat="48.76611" lon="2.28689">
        <ele>85</ele>
        <time>2022-02-20T15:05:04.286Z</time>
      </trkpt>
      <trkpt lat="48.76612" lon="2.28698">
        <ele>85</ele>
        <time>2022-02-20T15:05:09.262Z</time>
      </trkpt>
      <trkpt lat="48.76614" lon="2.28706">
        <ele>85</ele>
        <time>2022-02-20T15:05:13.278Z</time>
      </trkpt>
      <trkpt lat="48.76615" lon="2.28715">
        <ele>83</ele>
        <time>2022-02-20T15:05:18.255Z</time>
      </trkpt>
      <trkpt lat="48.76617" lon="2.28721">
        <ele>83</ele>
        <time>2022-02-20T15:05:22.267Z</time>
      </trkpt>
      <trkpt lat="48.76618" lon="2.28728">
        <ele>83</ele>
        <time>2022-02-20T15:05:26.271Z</time>
      </trkpt>
      <trkpt lat="48.76618" lon="2.28736">
        <ele>83</ele>
        <time>2022-02-20T15:05:30.279Z</time>
      </trkpt>
      <trkpt lat="48.76619" lon="2.28744">
        <ele>82</ele>
        <time>2022-02-20T15:05:35.276Z</time>
      </trkpt>
      <trkpt lat="48.7662" lon="2.28753">
        <ele>82</ele>
        <time>2022-02-20T15:05:40.271Z</time>
      </trkpt>
      <trkpt lat="48.76619" lon="2.28761">
        <ele>82</ele>
        <time>2022-02-20T15:05:44.271Z</time>
      </trkpt>
      <trkpt lat="48.76619" lon="2.2877">
        <ele>80</ele>
        <time>2022-02-20T15:05:49.265Z</time>
      </trkpt>
      <trkpt lat="48.7662" lon="2.28777">
        <ele>80</ele>
        <time>2022-02-20T15:05:54.266Z</time>
      </trkpt>
      <trkpt lat="48.76621" lon="2.28784">
        <ele>80</ele>
        <time>2022-02-20T15:05:59.267Z</time>
      </trkpt>
      <trkpt lat="48.76622" lon="2.28792">
        <ele>79</ele>
        <time>2022-02-20T15:06:04.283Z</time>
      </trkpt>
      <trkpt lat="48.76622" lon="2.288">
        <ele>79</ele>
        <time>2022-02-20T15:06:09.262Z</time>
      </trkpt>
      <trkpt lat="48.76622" lon="2.28806">
        <ele>79</ele>
        <time>2022-02-20T15:06:13.290Z</time>
      </trkpt>
      <trkpt lat="48.76623" lon="2.28815">
        <ele>79</ele>
        <time>2022-02-20T15:06:18.267Z</time>
      </trkpt>
      <trkpt lat="48.76624" lon="2.28821">
        <ele>79</ele>
        <time>2022-02-20T15:06:22.279Z</time>
      </trkpt>
      <trkpt lat="48.76624" lon="2.28828">
        <ele>79</ele>
        <time>2022-02-20T15:06:27.289Z</time>
      </trkpt>
      <trkpt lat="48.76625" lon="2.28835">
        <ele>78</ele>
        <time>2022-02-20T15:06:31.270Z</time>
      </trkpt>
      <trkpt lat="48.76627" lon="2.28843">
        <ele>78</ele>
        <time>2022-02-20T15:06:36.275Z</time>
      </trkpt>
      <trkpt lat="48.76628" lon="2.2885">
        <ele>77</ele>
        <time>2022-02-20T15:06:40.286Z</time>
      </trkpt>
      <trkpt lat="48.76629" lon="2.28858">
        <ele>77</ele>
        <time>2022-02-20T15:06:45.264Z</time>
      </trkpt>
      <trkpt lat="48.76632" lon="2.28863">
        <ele>77</ele>
        <time>2022-02-20T15:06:49.271Z</time>
      </trkpt>
      <trkpt lat="48.76635" lon="2.28868">
        <ele>77</ele>
        <time>2022-02-20T15:06:54.277Z</time>
      </trkpt>
      <trkpt lat="48.76637" lon="2.28876">
        <ele>76</ele>
        <time>2022-02-20T15:06:59.267Z</time>
      </trkpt>
      <trkpt lat="48.76638" lon="2.28881">
        <ele>76</ele>
        <time>2022-02-20T15:07:03.291Z</time>
      </trkpt>
      <trkpt lat="48.76639" lon="2.28888">
        <ele>76</ele>
        <time>2022-02-20T15:07:07.279Z</time>
      </trkpt>
      <trkpt lat="48.76639" lon="2.28893">
        <ele>76</ele>
        <time>2022-02-20T15:07:12.283Z</time>
      </trkpt>
      <trkpt lat="48.76641" lon="2.28901">
        <ele>76</ele>
        <time>2022-02-20T15:07:17.285Z</time>
      </trkpt>
      <trkpt lat="48.76642" lon="2.28909">
        <ele>75</ele>
        <time>2022-02-20T15:07:22.266Z</time>
      </trkpt>
      <trkpt lat="48.76643" lon="2.28914">
        <ele>75</ele>
        <time>2022-02-20T15:07:26.263Z</time>
      </trkpt>
      <trkpt lat="48.76645" lon="2.28925">
        <ele>75</ele>
        <time>2022-02-20T15:07:31.268Z</time>
      </trkpt>
      <trkpt lat="48.76645" lon="2.28934">
        <ele>74</ele>
        <time>2022-02-20T15:07:36.262Z</time>
      </trkpt>
      <trkpt lat="48.76647" lon="2.28941">
        <ele>74</ele>
        <time>2022-02-20T15:07:41.273Z</time>
      </trkpt>
      <trkpt lat="48.76649" lon="2.2895">
        <ele>74</ele>
        <time>2022-02-20T15:07:46.271Z</time>
      </trkpt>
      <trkpt lat="48.7665" lon="2.28959">
        <ele>73</ele>
        <time>2022-02-20T15:07:51.271Z</time>
      </trkpt>
      <trkpt lat="48.76651" lon="2.28965">
        <ele>73</ele>
        <time>2022-02-20T15:07:55.279Z</time>
      </trkpt>
      <trkpt lat="48.76655" lon="2.28971">
        <ele>74</ele>
        <time>2022-02-20T15:08:00.274Z</time>
      </trkpt>
      <trkpt lat="48.76662" lon="2.28974">
        <ele>74</ele>
        <time>2022-02-20T15:08:05.262Z</time>
      </trkpt>
      <trkpt lat="48.76666" lon="2.28976">
        <ele>74</ele>
        <time>2022-02-20T15:08:09.271Z</time>
      </trkpt>
      <trkpt lat="48.76671" lon="2.28978">
        <ele>74</ele>
        <time>2022-02-20T15:08:14.268Z</time>
      </trkpt>
      <trkpt lat="48.76674" lon="2.28982">
        <ele>74</ele>
        <time>2022-02-20T15:08:18.271Z</time>
      </trkpt>
      <trkpt lat="48.76678" lon="2.28987">
        <ele>74</ele>
        <time>2022-02-20T15:08:23.275Z</time>
      </trkpt>
      <trkpt lat="48.76681" lon="2.28994">
        <ele>74</ele>
        <time>2022-02-20T15:08:28.267Z</time>
      </trkpt>
      <trkpt lat="48.76685" lon="2.29002">
        <ele>74</ele>
        <time>2022-02-20T15:08:33.271Z</time>
      </trkpt>
      <trkpt lat="48.76689" lon="2.29009">
        <ele>74</ele>
        <time>2022-02-20T15:08:38.270Z</time>
      </trkpt>
      <trkpt lat="48.76694" lon="2.29014">
        <ele>74</ele>
        <time>2022-02-20T15:08:43.262Z</time>
      </trkpt>
      <trkpt lat="48.76696" lon="2.29017">
        <ele>74</ele>
        <time>2022-02-20T15:08:47.282Z</time>
      </trkpt>
      <trkpt lat="48.76696" lon="2.29025">
        <ele>74</ele>
        <time>2022-02-20T15:08:52.275Z</time>
      </trkpt>
      <trkpt lat="48.76697" lon="2.29033">
        <ele>74</ele>
        <time>2022-02-20T15:08:57.267Z</time>
      </trkpt>
      <trkpt lat="48.76698" lon="2.29044">
        <ele>74</ele>
        <time>2022-02-20T15:09:38.283Z</time>
      </trkpt>
      <trkpt lat="48.76694" lon="2.29047">
        <ele>74</ele>
        <time>2022-02-20T15:09:43.269Z</time>
      </trkpt>
      <trkpt lat="48.76688" lon="2.29049">
        <ele>74</ele>
        <time>2022-02-20T15:09:47.272Z</time>
      </trkpt>
      <trkpt lat="48.76682" lon="2.29052">
        <ele>74</ele>
        <time>2022-02-20T15:09:51.274Z</time>
      </trkpt>
      <trkpt lat="48.76676" lon="2.29056">
        <ele>73</ele>
        <time>2022-02-20T15:09:56.274Z</time>
      </trkpt>
      <trkpt lat="48.76671" lon="2.2906">
        <ele>73</ele>
        <time>2022-02-20T15:10:01.280Z</time>
      </trkpt>
      <trkpt lat="48.76665" lon="2.29067">
        <ele>73</ele>
        <time>2022-02-20T15:10:06.270Z</time>
      </trkpt>
      <trkpt lat="48.76661" lon="2.29071">
        <ele>73</ele>
        <time>2022-02-20T15:10:10.269Z</time>
      </trkpt>
      <trkpt lat="48.76655" lon="2.29076">
        <ele>73</ele>
        <time>2022-02-20T15:10:15.264Z</time>
      </trkpt>
      <trkpt lat="48.76651" lon="2.2908">
        <ele>72</ele>
        <time>2022-02-20T15:10:19.266Z</time>
      </trkpt>
      <trkpt lat="48.76645" lon="2.29085">
        <ele>72</ele>
        <time>2022-02-20T15:10:24.280Z</time>
      </trkpt>
      <trkpt lat="48.7664" lon="2.29089">
        <ele>72</ele>
        <time>2022-02-20T15:10:29.284Z</time>
      </trkpt>
      <trkpt lat="48.76634" lon="2.29094">
        <ele>72</ele>
        <time>2022-02-20T15:10:34.265Z</time>
      </trkpt>
      <trkpt lat="48.76629" lon="2.29097">
        <ele>72</ele>
        <time>2022-02-20T15:10:38.272Z</time>
      </trkpt>
      <trkpt lat="48.76623" lon="2.29102">
        <ele>73</ele>
        <time>2022-02-20T15:10:43.280Z</time>
      </trkpt>
      <trkpt lat="48.76618" lon="2.29106">
        <ele>73</ele>
        <time>2022-02-20T15:10:48.271Z</time>
      </trkpt>
      <trkpt lat="48.76612" lon="2.29112">
        <ele>73</ele>
        <time>2022-02-20T15:10:53.288Z</time>
      </trkpt>
      <trkpt lat="48.76606" lon="2.29116">
        <ele>73</ele>
        <time>2022-02-20T15:10:58.294Z</time>
      </trkpt>
      <trkpt lat="48.766" lon="2.2912">
        <ele>73</ele>
        <time>2022-02-20T15:11:03.266Z</time>
      </trkpt>
      <trkpt lat="48.76596" lon="2.29123">
        <ele>73</ele>
        <time>2022-02-20T15:11:07.272Z</time>
      </trkpt>
      <trkpt lat="48.7659" lon="2.29128">
        <ele>72</ele>
        <time>2022-02-20T15:11:12.267Z</time>
      </trkpt>
      <trkpt lat="48.76586" lon="2.29132">
        <ele>72</ele>
        <time>2022-02-20T15:11:16.275Z</time>
      </trkpt>
      <trkpt lat="48.7658" lon="2.29137">
        <ele>72</ele>
        <time>2022-02-20T15:11:21.271Z</time>
      </trkpt>
      <trkpt lat="48.76575" lon="2.29142">
        <ele>72</ele>
        <time>2022-02-20T15:11:26.272Z</time>
      </trkpt>
      <trkpt lat="48.7657" lon="2.29147">
        <ele>72</ele>
        <time>2022-02-20T15:11:30.279Z</time>
      </trkpt>
      <trkpt lat="48.76565" lon="2.29152">
        <ele>72</ele>
        <time>2022-02-20T15:11:35.278Z</time>
      </trkpt>
      <trkpt lat="48.7656" lon="2.29156">
        <ele>71</ele>
        <time>2022-02-20T15:11:40.280Z</time>
      </trkpt>
      <trkpt lat="48.76554" lon="2.29162">
        <ele>71</ele>
        <time>2022-02-20T15:11:45.271Z</time>
      </trkpt>
      <trkpt lat="48.7655" lon="2.29165">
        <ele>71</ele>
        <time>2022-02-20T15:11:49.278Z</time>
      </trkpt>
      <trkpt lat="48.76544" lon="2.29169">
        <ele>71</ele>
        <time>2022-02-20T15:11:54.266Z</time>
      </trkpt>
      <trkpt lat="48.7654" lon="2.29174">
        <ele>70</ele>
        <time>2022-02-20T15:11:58.277Z</time>
      </trkpt>
      <trkpt lat="48.76534" lon="2.29178">
        <ele>70</ele>
        <time>2022-02-20T15:12:03.264Z</time>
      </trkpt>
      <trkpt lat="48.76528" lon="2.29183">
        <ele>68</ele>
        <time>2022-02-20T15:12:07.286Z</time>
      </trkpt>
      <trkpt lat="48.76522" lon="2.29188">
        <ele>68</ele>
        <time>2022-02-20T15:12:12.281Z</time>
      </trkpt>
      <trkpt lat="48.76516" lon="2.29193">
        <ele>68</ele>
        <time>2022-02-20T15:12:17.273Z</time>
      </trkpt>
      <trkpt lat="48.7651" lon="2.29198">
        <ele>67</ele>
        <time>2022-02-20T15:12:22.279Z</time>
      </trkpt>
      <trkpt lat="48.76504" lon="2.29202">
        <ele>67</ele>
        <time>2022-02-20T15:12:27.264Z</time>
      </trkpt>
      <trkpt lat="48.76499" lon="2.29205">
        <ele>67</ele>
        <time>2022-02-20T15:12:31.271Z</time>
      </trkpt>
      <trkpt lat="48.76494" lon="2.2921">
        <ele>66</ele>
        <time>2022-02-20T15:12:36.263Z</time>
      </trkpt>
      <trkpt lat="48.76487" lon="2.29214">
        <ele>66</ele>
        <time>2022-02-20T15:12:41.271Z</time>
      </trkpt>
      <trkpt lat="48.76482" lon="2.29219">
        <ele>67</ele>
        <time>2022-02-20T15:12:45.292Z</time>
      </trkpt>
      <trkpt lat="48.76477" lon="2.29224">
        <ele>67</ele>
        <time>2022-02-20T15:12:50.275Z</time>
      </trkpt>
      <trkpt lat="48.76472" lon="2.29225">
        <ele>67</ele>
        <time>2022-02-20T15:12:54.273Z</time>
      </trkpt>
      <trkpt lat="48.76466" lon="2.29229">
        <ele>67</ele>
        <time>2022-02-20T15:12:59.267Z</time>
      </trkpt>
      <trkpt lat="48.76461" lon="2.29233">
        <ele>67</ele>
        <time>2022-02-20T15:13:03.273Z</time>
      </trkpt>
      <trkpt lat="48.76455" lon="2.29239">
        <ele>68</ele>
        <time>2022-02-20T15:13:08.279Z</time>
      </trkpt>
      <trkpt lat="48.76451" lon="2.29244">
        <ele>68</ele>
        <time>2022-02-20T15:13:12.278Z</time>
      </trkpt>
      <trkpt lat="48.76445" lon="2.29249">
        <ele>68</ele>
        <time>2022-02-20T15:13:17.293Z</time>
      </trkpt>
      <trkpt lat="48.76439" lon="2.29253">
        <ele>68</ele>
        <time>2022-02-20T15:13:22.269Z</time>
      </trkpt>
      <trkpt lat="48.76435" lon="2.29256">
        <ele>68</ele>
        <time>2022-02-20T15:13:26.283Z</time>
      </trkpt>
      <trkpt lat="48.76431" lon="2.29259">
        <ele>68</ele>
        <time>2022-02-20T15:13:30.277Z</time>
      </trkpt>
      <trkpt lat="48.76425" lon="2.29263">
        <ele>71</ele>
        <time>2022-02-20T15:13:35.276Z</time>
      </trkpt>
      <trkpt lat="48.7642" lon="2.29268">
        <ele>70</ele>
        <time>2022-02-20T15:13:39.280Z</time>
      </trkpt>
      <trkpt lat="48.76415" lon="2.29272">
        <ele>70</ele>
        <time>2022-02-20T15:13:44.281Z</time>
      </trkpt>
      <trkpt lat="48.76409" lon="2.29277">
        <ele>70</ele>
        <time>2022-02-20T15:13:49.276Z</time>
      </trkpt>
      <trkpt lat="48.76405" lon="2.29281">
        <ele>70</ele>
        <time>2022-02-20T15:13:53.276Z</time>
      </trkpt>
      <trkpt lat="48.764" lon="2.29285">
        <ele>73</ele>
        <time>2022-02-20T15:13:57.287Z</time>
      </trkpt>
      <trkpt lat="48.76395" lon="2.2929">
        <ele>73</ele>
        <time>2022-02-20T15:14:02.264Z</time>
      </trkpt>
      <trkpt lat="48.7639" lon="2.29293">
        <ele>71</ele>
        <time>2022-02-20T15:14:06.268Z</time>
      </trkpt>
      <trkpt lat="48.76385" lon="2.29296">
        <ele>71</ele>
        <time>2022-02-20T15:14:11.283Z</time>
      </trkpt>
      <trkpt lat="48.7638" lon="2.29302">
        <ele>71</ele>
        <time>2022-02-20T15:14:16.275Z</time>
      </trkpt>
      <trkpt lat="48.76374" lon="2.29307">
        <ele>72</ele>
        <time>2022-02-20T15:14:21.283Z</time>
      </trkpt>
      <trkpt lat="48.76368" lon="2.29312">
        <ele>72</ele>
        <time>2022-02-20T15:14:26.283Z</time>
      </trkpt>
      <trkpt lat="48.76363" lon="2.29317">
        <ele>72</ele>
        <time>2022-02-20T15:14:31.287Z</time>
      </trkpt>
      <trkpt lat="48.76357" lon="2.29322">
        <ele>69</ele>
        <time>2022-02-20T15:14:36.274Z</time>
      </trkpt>
      <trkpt lat="48.76353" lon="2.29327">
        <ele>69</ele>
        <time>2022-02-20T15:14:40.289Z</time>
      </trkpt>
      <trkpt lat="48.76347" lon="2.29332">
        <ele>69</ele>
        <time>2022-02-20T15:14:45.273Z</time>
      </trkpt>
      <trkpt lat="48.76341" lon="2.29337">
        <ele>69</ele>
        <time>2022-02-20T15:14:50.278Z</time>
      </trkpt>
      <trkpt lat="48.76335" lon="2.29342">
        <ele>69</ele>
        <time>2022-02-20T15:14:55.278Z</time>
      </trkpt>
      <trkpt lat="48.7633" lon="2.29347">
        <ele>69</ele>
        <time>2022-02-20T15:15:00.269Z</time>
      </trkpt>
      <trkpt lat="48.76325" lon="2.2935">
        <ele>67</ele>
        <time>2022-02-20T15:15:04.276Z</time>
      </trkpt>
      <trkpt lat="48.7632" lon="2.29354">
        <ele>67</ele>
        <time>2022-02-20T15:15:08.288Z</time>
      </trkpt>
      <trkpt lat="48.76314" lon="2.29359">
        <ele>70</ele>
        <time>2022-02-20T15:15:13.274Z</time>
      </trkpt>
      <trkpt lat="48.7631" lon="2.29362">
        <ele>70</ele>
        <time>2022-02-20T15:15:17.279Z</time>
      </trkpt>
      <trkpt lat="48.76305" lon="2.29366">
        <ele>70</ele>
        <time>2022-02-20T15:15:22.274Z</time>
      </trkpt>
      <trkpt lat="48.76299" lon="2.29368">
        <ele>70</ele>
        <time>2022-02-20T15:15:27.279Z</time>
      </trkpt>
      <trkpt lat="48.76294" lon="2.29374">
        <ele>70</ele>
        <time>2022-02-20T15:15:32.267Z</time>
      </trkpt>
      <trkpt lat="48.76289" lon="2.29377">
        <ele>70</ele>
        <time>2022-02-20T15:15:36.280Z</time>
      </trkpt>
      <trkpt lat="48.76283" lon="2.2938">
        <ele>70</ele>
        <time>2022-02-20T15:15:41.288Z</time>
      </trkpt>
      <trkpt lat="48.76278" lon="2.29384">
        <ele>70</ele>
        <time>2022-02-20T15:15:45.291Z</time>
      </trkpt>
      <trkpt lat="48.76273" lon="2.2939">
        <ele>70</ele>
        <time>2022-02-20T15:15:50.270Z</time>
      </trkpt>
      <trkpt lat="48.76268" lon="2.29396">
        <ele>70</ele>
        <time>2022-02-20T15:15:55.276Z</time>
      </trkpt>
      <trkpt lat="48.76263" lon="2.29401">
        <ele>69</ele>
        <time>2022-02-20T15:16:00.270Z</time>
      </trkpt>
      <trkpt lat="48.76258" lon="2.29405">
        <ele>69</ele>
        <time>2022-02-20T15:16:04.275Z</time>
      </trkpt>
      <trkpt lat="48.76252" lon="2.2941">
        <ele>69</ele>
        <time>2022-02-20T15:16:09.272Z</time>
      </trkpt>
      <trkpt lat="48.76247" lon="2.29416">
        <ele>69</ele>
        <time>2022-02-20T15:16:14.271Z</time>
      </trkpt>
      <trkpt lat="48.76243" lon="2.29419">
        <ele>69</ele>
        <time>2022-02-20T15:16:18.286Z</time>
      </trkpt>
      <trkpt lat="48.76238" lon="2.29423">
        <ele>69</ele>
        <time>2022-02-20T15:16:23.278Z</time>
      </trkpt>
      <trkpt lat="48.76233" lon="2.29429">
        <ele>70</ele>
        <time>2022-02-20T15:16:28.278Z</time>
      </trkpt>
      <trkpt lat="48.76228" lon="2.29436">
        <ele>71</ele>
        <time>2022-02-20T15:16:32.283Z</time>
      </trkpt>
      <trkpt lat="48.76222" lon="2.29441">
        <ele>71</ele>
        <time>2022-02-20T15:16:37.276Z</time>
      </trkpt>
      <trkpt lat="48.76217" lon="2.29445">
        <ele>71</ele>
        <time>2022-02-20T15:16:42.263Z</time>
      </trkpt>
      <trkpt lat="48.76212" lon="2.29447">
        <ele>71</ele>
        <time>2022-02-20T15:16:46.268Z</time>
      </trkpt>
      <trkpt lat="48.76205" lon="2.29446">
        <ele>72</ele>
        <time>2022-02-20T15:16:51.278Z</time>
      </trkpt>
      <trkpt lat="48.762" lon="2.29443">
        <ele>72</ele>
        <time>2022-02-20T15:16:55.275Z</time>
      </trkpt>
      <trkpt lat="48.76196" lon="2.2944">
        <ele>72</ele>
        <time>2022-02-20T15:16:59.273Z</time>
      </trkpt>
      <trkpt lat="48.7619" lon="2.2944">
        <ele>72</ele>
        <time>2022-02-20T15:17:04.279Z</time>
      </trkpt>
      <trkpt lat="48.76183" lon="2.29442">
        <ele>72</ele>
        <time>2022-02-20T15:17:09.271Z</time>
      </trkpt>
      <trkpt lat="48.76177" lon="2.29445">
        <ele>74</ele>
        <time>2022-02-20T15:17:14.269Z</time>
      </trkpt>
      <trkpt lat="48.76173" lon="2.2945">
        <ele>74</ele>
        <time>2022-02-20T15:17:18.272Z</time>
      </trkpt>
      <trkpt lat="48.7617" lon="2.29455">
        <ele>74</ele>
        <time>2022-02-20T15:17:22.281Z</time>
      </trkpt>
      <trkpt lat="48.76167" lon="2.29463">
        <ele>74</ele>
        <time>2022-02-20T15:17:27.272Z</time>
      </trkpt>
      <trkpt lat="48.76166" lon="2.29468">
        <ele>74</ele>
        <time>2022-02-20T15:17:31.293Z</time>
      </trkpt>
      <trkpt lat="48.76164" lon="2.29477">
        <ele>74</ele>
        <time>2022-02-20T15:17:36.280Z</time>
      </trkpt>
      <trkpt lat="48.76161" lon="2.29484">
        <ele>74</ele>
        <time>2022-02-20T15:17:41.281Z</time>
      </trkpt>
      <trkpt lat="48.76156" lon="2.2949">
        <ele>73</ele>
        <time>2022-02-20T15:17:46.276Z</time>
      </trkpt>
      <trkpt lat="48.7616" lon="2.29499">
        <ele>73</ele>
        <time>2022-02-20T15:17:51.268Z</time>
      </trkpt>
      <trkpt lat="48.76155" lon="2.29505">
        <ele>73</ele>
        <time>2022-02-20T15:17:56.281Z</time>
      </trkpt>
      <trkpt lat="48.7615" lon="2.29508">
        <ele>73</ele>
        <time>2022-02-20T15:18:01.264Z</time>
      </trkpt>
      <trkpt lat="48.76146" lon="2.29509">
        <ele>73</ele>
        <time>2022-02-20T15:18:05.276Z</time>
      </trkpt>
      <trkpt lat="48.76142" lon="2.29512">
        <ele>73</ele>
        <time>2022-02-20T15:18:09.279Z</time>
      </trkpt>
      <trkpt lat="48.76138" lon="2.29517">
        <ele>71</ele>
        <time>2022-02-20T15:18:14.270Z</time>
      </trkpt>
      <trkpt lat="48.76135" lon="2.29521">
        <ele>71</ele>
        <time>2022-02-20T15:18:18.273Z</time>
      </trkpt>
      <trkpt lat="48.76137" lon="2.29529">
        <ele>71</ele>
        <time>2022-02-20T15:18:23.274Z</time>
      </trkpt>
      <trkpt lat="48.76139" lon="2.29537">
        <ele>71</ele>
        <time>2022-02-20T15:18:28.275Z</time>
      </trkpt>
      <trkpt lat="48.7614" lon="2.29543">
        <ele>69</ele>
        <time>2022-02-20T15:18:32.279Z</time>
      </trkpt>
      <trkpt lat="48.76143" lon="2.2955">
        <ele>69</ele>
        <time>2022-02-20T15:18:37.283Z</time>
      </trkpt>
      <trkpt lat="48.76145" lon="2.2955">
        <ele>69</ele>
        <time>2022-02-20T15:18:42.273Z</time>
      </trkpt>
      <trkpt lat="48.76146" lon="2.29558">
        <ele>69</ele>
        <time>2022-02-20T15:18:47.280Z</time>
      </trkpt>
      <trkpt lat="48.76147" lon="2.29567">
        <ele>69</ele>
        <time>2022-02-20T15:18:52.275Z</time>
      </trkpt>
      <trkpt lat="48.76148" lon="2.29576">
        <ele>67</ele>
        <time>2022-02-20T15:18:57.276Z</time>
      </trkpt>
      <trkpt lat="48.76149" lon="2.29583">
        <ele>67</ele>
        <time>2022-02-20T15:19:01.274Z</time>
      </trkpt>
      <trkpt lat="48.76154" lon="2.29587">
        <ele>70</ele>
        <time>2022-02-20T15:19:06.270Z</time>
      </trkpt>
      <trkpt lat="48.7616" lon="2.29589">
        <ele>70</ele>
        <time>2022-02-20T15:19:11.269Z</time>
      </trkpt>
      <trkpt lat="48.76163" lon="2.29593">
        <ele>70</ele>
        <time>2022-02-20T15:19:15.275Z</time>
      </trkpt>
      <trkpt lat="48.76165" lon="2.29602">
        <ele>68</ele>
        <time>2022-02-20T15:19:20.273Z</time>
      </trkpt>
      <trkpt lat="48.76167" lon="2.29609">
        <ele>68</ele>
        <time>2022-02-20T15:19:24.274Z</time>
      </trkpt>
      <trkpt lat="48.7617" lon="2.29618">
        <ele>68</ele>
        <time>2022-02-20T15:19:29.278Z</time>
      </trkpt>
      <trkpt lat="48.76171" lon="2.29626">
        <ele>66</ele>
        <time>2022-02-20T15:19:34.281Z</time>
      </trkpt>
      <trkpt lat="48.76172" lon="2.29635">
        <ele>66</ele>
        <time>2022-02-20T15:19:39.280Z</time>
      </trkpt>
      <trkpt lat="48.76173" lon="2.29643">
        <ele>66</ele>
        <time>2022-02-20T15:19:44.291Z</time>
      </trkpt>
      <trkpt lat="48.76176" lon="2.29651">
        <ele>66</ele>
        <time>2022-02-20T15:19:49.278Z</time>
      </trkpt>
      <trkpt lat="48.7618" lon="2.29659">
        <ele>63</ele>
        <time>2022-02-20T15:19:54.271Z</time>
      </trkpt>
      <trkpt lat="48.76184" lon="2.29666">
        <ele>66</ele>
        <time>2022-02-20T15:19:59.277Z</time>
      </trkpt>
      <trkpt lat="48.76187" lon="2.29673">
        <ele>66</ele>
        <time>2022-02-20T15:20:04.266Z</time>
      </trkpt>
      <trkpt lat="48.76187" lon="2.29676">
        <ele>66</ele>
        <time>2022-02-20T15:20:08.270Z</time>
      </trkpt>
      <trkpt lat="48.76192" lon="2.29682">
        <ele>65</ele>
        <time>2022-02-20T15:20:13.266Z</time>
      </trkpt>
      <trkpt lat="48.76195" lon="2.29689">
        <ele>65</ele>
        <time>2022-02-20T15:20:18.274Z</time>
      </trkpt>
      <trkpt lat="48.76197" lon="2.29696">
        <ele>65</ele>
        <time>2022-02-20T15:20:23.271Z</time>
      </trkpt>
      <trkpt lat="48.76198" lon="2.29702">
        <ele>65</ele>
        <time>2022-02-20T15:20:28.268Z</time>
      </trkpt>
      <trkpt lat="48.76198" lon="2.2971">
        <ele>65</ele>
        <time>2022-02-20T15:20:33.266Z</time>
      </trkpt>
      <trkpt lat="48.76198" lon="2.29715">
        <ele>65</ele>
        <time>2022-02-20T15:20:37.277Z</time>
      </trkpt>
      <trkpt lat="48.76197" lon="2.29724">
        <ele>65</ele>
        <time>2022-02-20T15:20:42.267Z</time>
      </trkpt>
      <trkpt lat="48.76198" lon="2.29731">
        <ele>65</ele>
        <time>2022-02-20T15:20:46.276Z</time>
      </trkpt>
      <trkpt lat="48.76198" lon="2.29737">
        <ele>64</ele>
        <time>2022-02-20T15:20:50.281Z</time>
      </trkpt>
      <trkpt lat="48.762" lon="2.29746">
        <ele>64</ele>
        <time>2022-02-20T15:20:55.276Z</time>
      </trkpt>
      <trkpt lat="48.76201" lon="2.29754">
        <ele>64</ele>
        <time>2022-02-20T15:21:00.278Z</time>
      </trkpt>
      <trkpt lat="48.76202" lon="2.29763">
        <ele>64</ele>
        <time>2022-02-20T15:21:05.279Z</time>
      </trkpt>
      <trkpt lat="48.76204" lon="2.29769">
        <ele>62</ele>
        <time>2022-02-20T15:21:09.283Z</time>
      </trkpt>
    </trkseg>
  </trk>
</gpx>